<?xml version="1.0" encoding="UTF-8" standalone="no" ?>
<gpx xmlns="http://www.topografix.com/GPX/1/1" xmlns:xsi="http://www.w3.org/2001/XMLSchema-instance" xsi:schemaLocation="http://www.topografix.com/GPX/1/1 http://www.topografix.com/GPX/1/1/gpx.xsd" version="1.1" creator="VisuGPX - https://www.visugpx.com">
  <metadata>
    <name>tour du Verdon</name>
  </metadata>
  <trk>
    <name><![CDATA[tour du Verdon]]></name>
    <trkseg>
      <trkpt lat="43.7579" lon="5.88779">
        <ele>326.675844</ele>
        <time>2022-04-30T16:56:01.472Z</time>
      </trkpt>
      <trkpt lat="43.7579" lon="5.88779">
        <ele>326.675844</ele>
        <time>2022-04-30T16:56:01.474Z</time>
      </trkpt>
      <trkpt lat="43.75782" lon="5.88789">
        <ele>326.675844</ele>
        <time>2022-04-30T16:56:02.433Z</time>
      </trkpt>
      <trkpt lat="43.75744" lon="5.88842">
        <ele>326.675844</ele>
        <time>2022-04-30T16:56:07.654Z</time>
      </trkpt>
      <trkpt lat="43.75735" lon="5.88874">
        <ele>326.675844</ele>
        <time>2022-04-30T16:56:09.932Z</time>
      </trkpt>
      <trkpt lat="43.75732" lon="5.88886">
        <ele>326.198862</ele>
        <time>2022-04-30T16:56:10.824Z</time>
      </trkpt>
      <trkpt lat="43.75719" lon="5.88925">
        <ele>324.39898</ele>
        <time>2022-04-30T16:56:13.682Z</time>
      </trkpt>
      <trkpt lat="43.75667" lon="5.88999">
        <ele>320.079478</ele>
        <time>2022-04-30T16:56:20.447Z</time>
      </trkpt>
      <trkpt lat="43.75633" lon="5.89024">
        <ele>317.847872</ele>
        <time>2022-04-30T16:56:23.918Z</time>
      </trkpt>
      <trkpt lat="43.75589" lon="5.89039">
        <ele>315.834661</ele>
        <time>2022-04-30T16:56:28.126Z</time>
      </trkpt>
      <trkpt lat="43.75487" lon="5.89085">
        <ele>313.560184</ele>
        <time>2022-04-30T16:56:38.961Z</time>
      </trkpt>
      <trkpt lat="43.75464" lon="5.89086">
        <ele>313.071447</ele>
        <time>2022-04-30T16:56:41.951Z</time>
      </trkpt>
      <trkpt lat="43.75457" lon="5.89079">
        <ele>312.881946</ele>
        <time>2022-04-30T16:56:43.161Z</time>
      </trkpt>
      <trkpt lat="43.75449" lon="5.89061">
        <ele>312.560207</ele>
        <time>2022-04-30T16:56:46.408Z</time>
      </trkpt>
      <trkpt lat="43.75441" lon="5.89004">
        <ele>314.188657</ele>
        <time>2022-04-30T16:56:58.222Z</time>
      </trkpt>
      <trkpt lat="43.75434" lon="5.88992">
        <ele>314.773725</ele>
        <time>2022-04-30T16:57:01.906Z</time>
      </trkpt>
      <trkpt lat="43.7542" lon="5.88986">
        <ele>315.558748</ele>
        <time>2022-04-30T16:57:07.641Z</time>
      </trkpt>
      <trkpt lat="43.75417" lon="5.88986">
        <ele>315.707816</ele>
        <time>2022-04-30T16:57:08.468Z</time>
      </trkpt>
      <trkpt lat="43.75403" lon="5.88988">
        <ele>316.471119</ele>
        <time>2022-04-30T16:57:13.226Z</time>
      </trkpt>
      <trkpt lat="43.75355" lon="5.88995">
        <ele>319.011943</ele>
        <time>2022-04-30T16:57:33.454Z</time>
      </trkpt>
      <trkpt lat="43.7534" lon="5.88997">
        <ele>319.828842</ele>
        <time>2022-04-30T16:57:39.812Z</time>
      </trkpt>
      <trkpt lat="43.75334" lon="5.88995">
        <ele>320.138895</ele>
        <time>2022-04-30T16:57:42.394Z</time>
      </trkpt>
      <trkpt lat="43.75323" lon="5.88983">
        <ele>320.900116</ele>
        <time>2022-04-30T16:57:49.542Z</time>
      </trkpt>
      <trkpt lat="43.75315" lon="5.88954">
        <ele>322.06627</ele>
        <time>2022-04-30T16:57:58.205Z</time>
      </trkpt>
      <trkpt lat="43.75306" lon="5.88891">
        <ele>324.227497</ele>
        <time>2022-04-30T16:58:18.596Z</time>
      </trkpt>
      <trkpt lat="43.753" lon="5.88796">
        <ele>327.450908</ele>
        <time>2022-04-30T16:58:43.633Z</time>
      </trkpt>
      <trkpt lat="43.75283" lon="5.8871">
        <ele>330.38745</ele>
        <time>2022-04-30T16:58:59.030Z</time>
      </trkpt>
      <trkpt lat="43.75246" lon="5.88622">
        <ele>330.917989</ele>
        <time>2022-04-30T16:59:13.932Z</time>
      </trkpt>
      <trkpt lat="43.75224" lon="5.88596">
        <ele>331.130291</ele>
        <time>2022-04-30T16:59:18.560Z</time>
      </trkpt>
      <trkpt lat="43.75204" lon="5.88585">
        <ele>331.285437</ele>
        <time>2022-04-30T16:59:21.912Z</time>
      </trkpt>
      <trkpt lat="43.75159" lon="5.88584">
        <ele>331.610145</ele>
        <time>2022-04-30T16:59:28.779Z</time>
      </trkpt>
      <trkpt lat="43.75148" lon="5.88588">
        <ele>331.645322</ele>
        <time>2022-04-30T16:59:30.489Z</time>
      </trkpt>
      <trkpt lat="43.75137" lon="5.88584">
        <ele>331.520445</ele>
        <time>2022-04-30T16:59:32.004Z</time>
      </trkpt>
      <trkpt lat="43.75129" lon="5.88531">
        <ele>331.111454</ele>
        <time>2022-04-30T16:59:36.759Z</time>
      </trkpt>
      <trkpt lat="43.75111" lon="5.88512">
        <ele>330.87187</ele>
        <time>2022-04-30T16:59:39.613Z</time>
      </trkpt>
      <trkpt lat="43.75066" lon="5.88488">
        <ele>330.353333</ele>
        <time>2022-04-30T16:59:45.578Z</time>
      </trkpt>
      <trkpt lat="43.75052" lon="5.88474">
        <ele>330.167841</ele>
        <time>2022-04-30T16:59:47.622Z</time>
      </trkpt>
      <trkpt lat="43.75048" lon="5.88468">
        <ele>330.102891</ele>
        <time>2022-04-30T16:59:48.312Z</time>
      </trkpt>
      <trkpt lat="43.75017" lon="5.88413">
        <ele>329.624829</ele>
        <time>2022-04-30T16:59:53.792Z</time>
      </trkpt>
      <trkpt lat="43.74999" lon="5.88397">
        <ele>329.464959</ele>
        <time>2022-04-30T16:59:56.133Z</time>
      </trkpt>
      <trkpt lat="43.74976" lon="5.88393">
        <ele>329.289259</ele>
        <time>2022-04-30T16:59:58.767Z</time>
      </trkpt>
      <trkpt lat="43.7493" lon="5.88408">
        <ele>328.932499</ele>
        <time>2022-04-30T17:00:04.064Z</time>
      </trkpt>
      <trkpt lat="43.74907" lon="5.88395">
        <ele>328.750197</ele>
        <time>2022-04-30T17:00:07.018Z</time>
      </trkpt>
      <trkpt lat="43.74899" lon="5.88381">
        <ele>328.649804</ele>
        <time>2022-04-30T17:00:08.931Z</time>
      </trkpt>
      <trkpt lat="43.74891" lon="5.88345">
        <ele>328.44246</ele>
        <time>2022-04-30T17:00:13.855Z</time>
      </trkpt>
      <trkpt lat="43.74879" lon="5.8832">
        <ele>328.952847</ele>
        <time>2022-04-30T17:00:19.150Z</time>
      </trkpt>
      <trkpt lat="43.74858" lon="5.88289">
        <ele>329.928233</ele>
        <time>2022-04-30T17:00:27.191Z</time>
      </trkpt>
      <trkpt lat="43.74837" lon="5.88279">
        <ele>330.658896</ele>
        <time>2022-04-30T17:00:33.748Z</time>
      </trkpt>
      <trkpt lat="43.74769" lon="5.88287">
        <ele>332.887452</ele>
        <time>2022-04-30T17:00:54.882Z</time>
      </trkpt>
      <trkpt lat="43.7473" lon="5.88251">
        <ele>334.37681</ele>
        <time>2022-04-30T17:01:09.015Z</time>
      </trkpt>
      <trkpt lat="43.74702" lon="5.88222">
        <ele>335.410866</ele>
        <time>2022-04-30T17:01:19.541Z</time>
      </trkpt>
      <trkpt lat="43.7469" lon="5.88197">
        <ele>336.046882</ele>
        <time>2022-04-30T17:01:25.873Z</time>
      </trkpt>
      <trkpt lat="43.74671" lon="5.88111">
        <ele>337.949897</ele>
        <time>2022-04-30T17:01:41.968Z</time>
      </trkpt>
      <trkpt lat="43.74663" lon="5.88096">
        <ele>338.341601</ele>
        <time>2022-04-30T17:01:44.587Z</time>
      </trkpt>
      <trkpt lat="43.7463" lon="5.88073">
        <ele>339.435821</ele>
        <time>2022-04-30T17:01:54.045Z</time>
      </trkpt>
      <trkpt lat="43.74623" lon="5.88063">
        <ele>339.723177</ele>
        <time>2022-04-30T17:01:57.035Z</time>
      </trkpt>
      <trkpt lat="43.74621" lon="5.88035">
        <ele>340.300781</ele>
        <time>2022-04-30T17:02:01.047Z</time>
      </trkpt>
      <trkpt lat="43.74636" lon="5.88006">
        <ele>341.057809</ele>
        <time>2022-04-30T17:02:09.737Z</time>
      </trkpt>
      <trkpt lat="43.74636" lon="5.87994">
        <ele>341.315626</ele>
        <time>2022-04-30T17:02:10.878Z</time>
      </trkpt>
      <trkpt lat="43.74604" lon="5.87865">
        <ele>344.163932</ele>
        <time>2022-04-30T17:02:37.772Z</time>
      </trkpt>
      <trkpt lat="43.74604" lon="5.87808">
        <ele>344.807772</ele>
        <time>2022-04-30T17:02:48.568Z</time>
      </trkpt>
      <trkpt lat="43.74623" lon="5.8772">
        <ele>345.043288</ele>
        <time>2022-04-30T17:03:06.279Z</time>
      </trkpt>
      <trkpt lat="43.74611" lon="5.87663">
        <ele>345.195628</ele>
        <time>2022-04-30T17:03:13.634Z</time>
      </trkpt>
      <trkpt lat="43.74591" lon="5.87603">
        <ele>345.362917</ele>
        <time>2022-04-30T17:03:18.491Z</time>
      </trkpt>
      <trkpt lat="43.74569" lon="5.8756">
        <ele>343.27918</ele>
        <time>2022-04-30T17:03:22.090Z</time>
      </trkpt>
      <trkpt lat="43.74502" lon="5.87471">
        <ele>338.121181</ele>
        <time>2022-04-30T17:03:30.667Z</time>
      </trkpt>
      <trkpt lat="43.74471" lon="5.87447">
        <ele>336.139813</ele>
        <time>2022-04-30T17:03:33.836Z</time>
      </trkpt>
      <trkpt lat="43.74448" lon="5.8744">
        <ele>335.001786</ele>
        <time>2022-04-30T17:03:35.908Z</time>
      </trkpt>
      <trkpt lat="43.74426" lon="5.87441">
        <ele>334.15456</ele>
        <time>2022-04-30T17:03:37.894Z</time>
      </trkpt>
      <trkpt lat="43.74382" lon="5.87461">
        <ele>332.387175</ele>
        <time>2022-04-30T17:03:42.145Z</time>
      </trkpt>
      <trkpt lat="43.74344" lon="5.87448">
        <ele>330.865699</ele>
        <time>2022-04-30T17:03:45.899Z</time>
      </trkpt>
      <trkpt lat="43.74328" lon="5.87455">
        <ele>330.219927</ele>
        <time>2022-04-30T17:03:47.546Z</time>
      </trkpt>
      <trkpt lat="43.74322" lon="5.87464">
        <ele>329.896866</ele>
        <time>2022-04-30T17:03:48.731Z</time>
      </trkpt>
      <trkpt lat="43.74312" lon="5.87498">
        <ele>328.865552</ele>
        <time>2022-04-30T17:03:52.158Z</time>
      </trkpt>
      <trkpt lat="43.74284" lon="5.87551">
        <ele>329.338469</ele>
        <time>2022-04-30T17:04:02.487Z</time>
      </trkpt>
      <trkpt lat="43.74276" lon="5.87639">
        <ele>330.945613</ele>
        <time>2022-04-30T17:04:18.196Z</time>
      </trkpt>
      <trkpt lat="43.74262" lon="5.87716">
        <ele>332.383007</ele>
        <time>2022-04-30T17:04:35.973Z</time>
      </trkpt>
      <trkpt lat="43.74246" lon="5.87745">
        <ele>333.052737</ele>
        <time>2022-04-30T17:04:44.062Z</time>
      </trkpt>
      <trkpt lat="43.74219" lon="5.87754">
        <ele>333.799537</ele>
        <time>2022-04-30T17:04:51.414Z</time>
      </trkpt>
      <trkpt lat="43.74196" lon="5.87749">
        <ele>334.424857</ele>
        <time>2022-04-30T17:04:57.664Z</time>
      </trkpt>
      <trkpt lat="43.74144" lon="5.87723">
        <ele>335.900883</ele>
        <time>2022-04-30T17:05:13.260Z</time>
      </trkpt>
      <trkpt lat="43.74089" lon="5.87718">
        <ele>337.393446</ele>
        <time>2022-04-30T17:05:24.649Z</time>
      </trkpt>
      <trkpt lat="43.73971" lon="5.87727">
        <ele>340.132033</ele>
        <time>2022-04-30T17:05:50.574Z</time>
      </trkpt>
      <trkpt lat="43.73948" lon="5.87718">
        <ele>340.657665</ele>
        <time>2022-04-30T17:05:56.869Z</time>
      </trkpt>
      <trkpt lat="43.73911" lon="5.87687">
        <ele>341.642035</ele>
        <time>2022-04-30T17:06:08.884Z</time>
      </trkpt>
      <trkpt lat="43.73884" lon="5.87666">
        <ele>342.403343</ele>
        <time>2022-04-30T17:06:17.122Z</time>
      </trkpt>
      <trkpt lat="43.73829" lon="5.87648">
        <ele>343.832816</ele>
        <time>2022-04-30T17:06:30.919Z</time>
      </trkpt>
      <trkpt lat="43.73822" lon="5.87641">
        <ele>344.057767</ele>
        <time>2022-04-30T17:06:32.772Z</time>
      </trkpt>
      <trkpt lat="43.73811" lon="5.87614">
        <ele>344.619084</ele>
        <time>2022-04-30T17:06:37.622Z</time>
      </trkpt>
      <trkpt lat="43.738" lon="5.87602">
        <ele>344.997191</ele>
        <time>2022-04-30T17:06:40.677Z</time>
      </trkpt>
      <trkpt lat="43.73753" lon="5.87595">
        <ele>346.179992</ele>
        <time>2022-04-30T17:06:52.745Z</time>
      </trkpt>
      <trkpt lat="43.73741" lon="5.87587">
        <ele>346.572739</ele>
        <time>2022-04-30T17:06:54.320Z</time>
      </trkpt>
      <trkpt lat="43.73736" lon="5.87568">
        <ele>347.070977</ele>
        <time>2022-04-30T17:07:01.282Z</time>
      </trkpt>
      <trkpt lat="43.73759" lon="5.87476">
        <ele>349.538663</ele>
        <time>2022-04-30T17:07:21.047Z</time>
      </trkpt>
      <trkpt lat="43.7376" lon="5.87464">
        <ele>349.843386</ele>
        <time>2022-04-30T17:07:23.109Z</time>
      </trkpt>
      <trkpt lat="43.73753" lon="5.87446">
        <ele>350.363102</ele>
        <time>2022-04-30T17:07:24.563Z</time>
      </trkpt>
      <trkpt lat="43.73739" lon="5.8744">
        <ele>350.865999</ele>
        <time>2022-04-30T17:07:34.177Z</time>
      </trkpt>
      <trkpt lat="43.73731" lon="5.87443">
        <ele>351.143383</ele>
        <time>2022-04-30T17:07:35.126Z</time>
      </trkpt>
      <trkpt lat="43.73711" lon="5.87465">
        <ele>352.054016</ele>
        <time>2022-04-30T17:07:44.329Z</time>
      </trkpt>
      <trkpt lat="43.73679" lon="5.87484">
        <ele>353.270459</ele>
        <time>2022-04-30T17:07:55.387Z</time>
      </trkpt>
      <trkpt lat="43.73659" lon="5.87511">
        <ele>354.231404</ele>
        <time>2022-04-30T17:08:00.236Z</time>
      </trkpt>
      <trkpt lat="43.7365" lon="5.87507">
        <ele>354.577565</ele>
        <time>2022-04-30T17:08:08.929Z</time>
      </trkpt>
      <trkpt lat="43.73648" lon="5.87439">
        <ele>356.284057</ele>
        <time>2022-04-30T17:08:23.368Z</time>
      </trkpt>
      <trkpt lat="43.73642" lon="5.87423">
        <ele>356.7243</ele>
        <time>2022-04-30T17:08:25.531Z</time>
      </trkpt>
      <trkpt lat="43.73634" lon="5.87417">
        <ele>357.057998</ele>
        <time>2022-04-30T17:08:30.715Z</time>
      </trkpt>
      <trkpt lat="43.73603" lon="5.87431">
        <ele>358.181504</ele>
        <time>2022-04-30T17:08:37.139Z</time>
      </trkpt>
      <trkpt lat="43.73554" lon="5.87441">
        <ele>359.467181</ele>
        <time>2022-04-30T17:08:48.499Z</time>
      </trkpt>
      <trkpt lat="43.73517" lon="5.87436">
        <ele>360.127296</ele>
        <time>2022-04-30T17:08:54.687Z</time>
      </trkpt>
      <trkpt lat="43.73467" lon="5.87443">
        <ele>361.017856</ele>
        <time>2022-04-30T17:09:06.393Z</time>
      </trkpt>
      <trkpt lat="43.73435" lon="5.87437">
        <ele>361.585884</ele>
        <time>2022-04-30T17:09:13.627Z</time>
      </trkpt>
      <trkpt lat="43.73418" lon="5.87445">
        <ele>361.899478</ele>
        <time>2022-04-30T17:09:17.738Z</time>
      </trkpt>
      <trkpt lat="43.73378" lon="5.87492">
        <ele>362.883264</ele>
        <time>2022-04-30T17:09:29.563Z</time>
      </trkpt>
      <trkpt lat="43.73373" lon="5.87548">
        <ele>363.65031</ele>
        <time>2022-04-30T17:09:38.874Z</time>
      </trkpt>
      <trkpt lat="43.73364" lon="5.87569">
        <ele>363.993636</ele>
        <time>2022-04-30T17:09:43.214Z</time>
      </trkpt>
      <trkpt lat="43.73337" lon="5.87607">
        <ele>364.711083</ele>
        <time>2022-04-30T17:09:51.891Z</time>
      </trkpt>
      <trkpt lat="43.73304" lon="5.87628">
        <ele>365.39303</ele>
        <time>2022-04-30T17:10:00.081Z</time>
      </trkpt>
      <trkpt lat="43.73287" lon="5.87673">
        <ele>365.758031</ele>
        <time>2022-04-30T17:10:07.808Z</time>
      </trkpt>
      <trkpt lat="43.73277" lon="5.87677">
        <ele>365.830257</ele>
        <time>2022-04-30T17:10:09.726Z</time>
      </trkpt>
      <trkpt lat="43.73249" lon="5.87657">
        <ele>366.0373</ele>
        <time>2022-04-30T17:10:15.144Z</time>
      </trkpt>
      <trkpt lat="43.73232" lon="5.87653">
        <ele>366.159261</ele>
        <time>2022-04-30T17:10:18.011Z</time>
      </trkpt>
      <trkpt lat="43.73215" lon="5.87653">
        <ele>366.269591</ele>
        <time>2022-04-30T17:10:20.500Z</time>
      </trkpt>
      <trkpt lat="43.73202" lon="5.87663">
        <ele>366.369398</ele>
        <time>2022-04-30T17:10:22.738Z</time>
      </trkpt>
      <trkpt lat="43.73188" lon="5.87697">
        <ele>366.556066</ele>
        <time>2022-04-30T17:10:26.926Z</time>
      </trkpt>
      <trkpt lat="43.73157" lon="5.87857">
        <ele>367.659318</ele>
        <time>2022-04-30T17:10:47.891Z</time>
      </trkpt>
      <trkpt lat="43.73144" lon="5.87893">
        <ele>367.953131</ele>
        <time>2022-04-30T17:10:53.654Z</time>
      </trkpt>
      <trkpt lat="43.73111" lon="5.87963">
        <ele>368.565504</ele>
        <time>2022-04-30T17:11:05.855Z</time>
      </trkpt>
      <trkpt lat="43.73024" lon="5.88042">
        <ele>370.097668</ele>
        <time>2022-04-30T17:11:27.430Z</time>
      </trkpt>
      <trkpt lat="43.72966" lon="5.8808">
        <ele>371.069828</ele>
        <time>2022-04-30T17:11:41.309Z</time>
      </trkpt>
      <trkpt lat="43.72831" lon="5.88139">
        <ele>372.980944</ele>
        <time>2022-04-30T17:12:10.110Z</time>
      </trkpt>
      <trkpt lat="43.72782" lon="5.88172">
        <ele>373.713414</ele>
        <time>2022-04-30T17:12:21.071Z</time>
      </trkpt>
      <trkpt lat="43.72609" lon="5.88299">
        <ele>375.574573</ele>
        <time>2022-04-30T17:12:57.080Z</time>
      </trkpt>
      <trkpt lat="43.72551" lon="5.88366">
        <ele>376.235153</ele>
        <time>2022-04-30T17:13:10.892Z</time>
      </trkpt>
      <trkpt lat="43.72515" lon="5.88415">
        <ele>376.676743</ele>
        <time>2022-04-30T17:13:20.189Z</time>
      </trkpt>
      <trkpt lat="43.7249" lon="5.88439">
        <ele>376.940978</ele>
        <time>2022-04-30T17:13:25.664Z</time>
      </trkpt>
      <trkpt lat="43.72431" lon="5.88474">
        <ele>377.47594</ele>
        <time>2022-04-30T17:13:37.623Z</time>
      </trkpt>
      <trkpt lat="43.72427" lon="5.88476">
        <ele>377.512652</ele>
        <time>2022-04-30T17:13:38.535Z</time>
      </trkpt>
      <trkpt lat="43.72408" lon="5.88485">
        <ele>377.676212</ele>
        <time>2022-04-30T17:13:42.519Z</time>
      </trkpt>
      <trkpt lat="43.72378" lon="5.88518">
        <ele>377.992192</ele>
        <time>2022-04-30T17:13:49.686Z</time>
      </trkpt>
      <trkpt lat="43.72329" lon="5.88607">
        <ele>378.42312</ele>
        <time>2022-04-30T17:14:03.761Z</time>
      </trkpt>
      <trkpt lat="43.72316" lon="5.88636">
        <ele>378.352757</ele>
        <time>2022-04-30T17:14:07.679Z</time>
      </trkpt>
      <trkpt lat="43.72276" lon="5.88776">
        <ele>378.041401</ele>
        <time>2022-04-30T17:14:22.367Z</time>
      </trkpt>
      <trkpt lat="43.72174" lon="5.88969">
        <ele>376.629448</ele>
        <time>2022-04-30T17:14:43.249Z</time>
      </trkpt>
      <trkpt lat="43.72171" lon="5.88983">
        <ele>376.53628</ele>
        <time>2022-04-30T17:14:44.542Z</time>
      </trkpt>
      <trkpt lat="43.72174" lon="5.8903">
        <ele>376.386845</ele>
        <time>2022-04-30T17:14:48.785Z</time>
      </trkpt>
      <trkpt lat="43.72168" lon="5.89064">
        <ele>376.491975</ele>
        <time>2022-04-30T17:14:51.947Z</time>
      </trkpt>
      <trkpt lat="43.72097" lon="5.89176">
        <ele>376.943705</ele>
        <time>2022-04-30T17:15:09.825Z</time>
      </trkpt>
      <trkpt lat="43.72063" lon="5.89218">
        <ele>377.403121</ele>
        <time>2022-04-30T17:15:19.114Z</time>
      </trkpt>
      <trkpt lat="43.72034" lon="5.89252">
        <ele>378.490703</ele>
        <time>2022-04-30T17:15:27.485Z</time>
      </trkpt>
      <trkpt lat="43.72004" lon="5.89311">
        <ele>380.012699</ele>
        <time>2022-04-30T17:15:42.062Z</time>
      </trkpt>
      <trkpt lat="43.71971" lon="5.89322">
        <ele>380.976325</ele>
        <time>2022-04-30T17:15:51.539Z</time>
      </trkpt>
      <trkpt lat="43.71955" lon="5.89338">
        <ele>381.561144</ele>
        <time>2022-04-30T17:15:57.452Z</time>
      </trkpt>
      <trkpt lat="43.71936" lon="5.89392">
        <ele>383.035871</ele>
        <time>2022-04-30T17:16:10.225Z</time>
      </trkpt>
      <trkpt lat="43.71921" lon="5.8942">
        <ele>384.081106</ele>
        <time>2022-04-30T17:16:18.824Z</time>
      </trkpt>
      <trkpt lat="43.71901" lon="5.89441">
        <ele>385.124705</ele>
        <time>2022-04-30T17:16:26.871Z</time>
      </trkpt>
      <trkpt lat="43.71866" lon="5.89467">
        <ele>386.748414</ele>
        <time>2022-04-30T17:16:39.575Z</time>
      </trkpt>
      <trkpt lat="43.71818" lon="5.89489">
        <ele>388.806847</ele>
        <time>2022-04-30T17:16:55.115Z</time>
      </trkpt>
      <trkpt lat="43.71793" lon="5.89513">
        <ele>390.08797</ele>
        <time>2022-04-30T17:17:05.024Z</time>
      </trkpt>
      <trkpt lat="43.71758" lon="5.89578">
        <ele>392.568249</ele>
        <time>2022-04-30T17:17:22.126Z</time>
      </trkpt>
      <trkpt lat="43.71748" lon="5.89667">
        <ele>395.363545</ele>
        <time>2022-04-30T17:17:43.450Z</time>
      </trkpt>
      <trkpt lat="43.71738" lon="5.89693">
        <ele>396.273635</ele>
        <time>2022-04-30T17:17:50.960Z</time>
      </trkpt>
      <trkpt lat="43.71636" lon="5.89843">
        <ele>402.914958</ele>
        <time>2022-04-30T17:18:39.273Z</time>
      </trkpt>
      <trkpt lat="43.71617" lon="5.89858">
        <ele>403.906119</ele>
        <time>2022-04-30T17:18:46.519Z</time>
      </trkpt>
      <trkpt lat="43.716" lon="5.89858">
        <ele>404.646829</ele>
        <time>2022-04-30T17:18:52.776Z</time>
      </trkpt>
      <trkpt lat="43.71572" lon="5.89846">
        <ele>406.006834</ele>
        <time>2022-04-30T17:19:02.845Z</time>
      </trkpt>
      <trkpt lat="43.71556" lon="5.89846">
        <ele>406.726961</ele>
        <time>2022-04-30T17:19:07.755Z</time>
      </trkpt>
      <trkpt lat="43.71531" lon="5.89873">
        <ele>408.135552</ele>
        <time>2022-04-30T17:19:17.677Z</time>
      </trkpt>
      <trkpt lat="43.71516" lon="5.89906">
        <ele>409.398473</ele>
        <time>2022-04-30T17:19:26.277Z</time>
      </trkpt>
      <trkpt lat="43.71487" lon="5.89933">
        <ele>410.938891</ele>
        <time>2022-04-30T17:19:36.683Z</time>
      </trkpt>
      <trkpt lat="43.71475" lon="5.89952">
        <ele>411.770978</ele>
        <time>2022-04-30T17:19:42.434Z</time>
      </trkpt>
      <trkpt lat="43.71462" lon="5.89985">
        <ele>413.010034</ele>
        <time>2022-04-30T17:19:51.828Z</time>
      </trkpt>
      <trkpt lat="43.71445" lon="5.90056">
        <ele>415.877027</ele>
        <time>2022-04-30T17:20:12.058Z</time>
      </trkpt>
      <trkpt lat="43.71439" lon="5.90142">
        <ele>419.327926</ele>
        <time>2022-04-30T17:20:35.823Z</time>
      </trkpt>
      <trkpt lat="43.71432" lon="5.90181">
        <ele>420.930005</ele>
        <time>2022-04-30T17:20:46.615Z</time>
      </trkpt>
      <trkpt lat="43.71403" lon="5.90316">
        <ele>425.884551</ele>
        <time>2022-04-30T17:21:24.231Z</time>
      </trkpt>
      <trkpt lat="43.71326" lon="5.90429">
        <ele>430.749279</ele>
        <time>2022-04-30T17:21:59.383Z</time>
      </trkpt>
      <trkpt lat="43.71286" lon="5.90512">
        <ele>433.554776</ele>
        <time>2022-04-30T17:22:17.673Z</time>
      </trkpt>
      <trkpt lat="43.71262" lon="5.90546">
        <ele>434.846905</ele>
        <time>2022-04-30T17:22:27.074Z</time>
      </trkpt>
      <trkpt lat="43.71209" lon="5.90591">
        <ele>437.16852</ele>
        <time>2022-04-30T17:22:46.028Z</time>
      </trkpt>
      <trkpt lat="43.71183" lon="5.90624">
        <ele>438.669587</ele>
        <time>2022-04-30T17:22:58.416Z</time>
      </trkpt>
      <trkpt lat="43.71094" lon="5.90814">
        <ele>447.409385</ele>
        <time>2022-04-30T17:23:59.721Z</time>
      </trkpt>
      <trkpt lat="43.71079" lon="5.90896">
        <ele>449.762398</ele>
        <time>2022-04-30T17:24:19.862Z</time>
      </trkpt>
      <trkpt lat="43.71058" lon="5.90974">
        <ele>452.049886</ele>
        <time>2022-04-30T17:24:36.901Z</time>
      </trkpt>
      <trkpt lat="43.71049" lon="5.91011">
        <ele>453.087137</ele>
        <time>2022-04-30T17:24:43.885Z</time>
      </trkpt>
      <trkpt lat="43.71023" lon="5.91089">
        <ele>455.328712</ele>
        <time>2022-04-30T17:25:00.674Z</time>
      </trkpt>
      <trkpt lat="43.7099" lon="5.91136">
        <ele>456.96707</ele>
        <time>2022-04-30T17:25:15.526Z</time>
      </trkpt>
      <trkpt lat="43.70966" lon="5.9113">
        <ele>457.823656</ele>
        <time>2022-04-30T17:25:22.546Z</time>
      </trkpt>
      <trkpt lat="43.7091" lon="5.91092">
        <ele>459.965075</ele>
        <time>2022-04-30T17:25:40.564Z</time>
      </trkpt>
      <trkpt lat="43.70873" lon="5.91078">
        <ele>461.042165</ele>
        <time>2022-04-30T17:25:52.089Z</time>
      </trkpt>
      <trkpt lat="43.70715" lon="5.91032">
        <ele>464.502906</ele>
        <time>2022-04-30T17:26:30.912Z</time>
      </trkpt>
      <trkpt lat="43.70606" lon="5.91047">
        <ele>463.365006</ele>
        <time>2022-04-30T17:26:44.881Z</time>
      </trkpt>
      <trkpt lat="43.70596" lon="5.91052">
        <ele>463.260998</ele>
        <time>2022-04-30T17:26:46.014Z</time>
      </trkpt>
      <trkpt lat="43.70516" lon="5.91102">
        <ele>461.636774</ele>
        <time>2022-04-30T17:26:55.422Z</time>
      </trkpt>
      <trkpt lat="43.70443" lon="5.9115">
        <ele>458.899507</ele>
        <time>2022-04-30T17:27:03.353Z</time>
      </trkpt>
      <trkpt lat="43.70342" lon="5.91214">
        <ele>455.159357</ele>
        <time>2022-04-30T17:27:14.285Z</time>
      </trkpt>
      <trkpt lat="43.70318" lon="5.91245">
        <ele>454.093308</ele>
        <time>2022-04-30T17:27:17.537Z</time>
      </trkpt>
      <trkpt lat="43.70276" lon="5.91334">
        <ele>451.567858</ele>
        <time>2022-04-30T17:27:25.356Z</time>
      </trkpt>
      <trkpt lat="43.70253" lon="5.91436">
        <ele>449.616225</ele>
        <time>2022-04-30T17:27:33.519Z</time>
      </trkpt>
      <trkpt lat="43.70239" lon="5.9146">
        <ele>449.14745</ele>
        <time>2022-04-30T17:27:35.967Z</time>
      </trkpt>
      <trkpt lat="43.70177" lon="5.91503">
        <ele>447.694141</ele>
        <time>2022-04-30T17:27:43.506Z</time>
      </trkpt>
      <trkpt lat="43.70136" lon="5.91524">
        <ele>446.825863</ele>
        <time>2022-04-30T17:27:48.454Z</time>
      </trkpt>
      <trkpt lat="43.70108" lon="5.91528">
        <ele>446.661951</ele>
        <time>2022-04-30T17:27:51.612Z</time>
      </trkpt>
      <trkpt lat="43.70048" lon="5.91518">
        <ele>446.31038</ele>
        <time>2022-04-30T17:27:58.763Z</time>
      </trkpt>
      <trkpt lat="43.70005" lon="5.91541">
        <ele>446.041098</ele>
        <time>2022-04-30T17:28:04.896Z</time>
      </trkpt>
      <trkpt lat="43.69959" lon="5.91579">
        <ele>446.001782</ele>
        <time>2022-04-30T17:28:14.229Z</time>
      </trkpt>
      <trkpt lat="43.69894" lon="5.91679">
        <ele>447.639165</ele>
        <time>2022-04-30T17:28:35.638Z</time>
      </trkpt>
      <trkpt lat="43.69858" lon="5.91757">
        <ele>448.758823</ele>
        <time>2022-04-30T17:28:51.126Z</time>
      </trkpt>
      <trkpt lat="43.69832" lon="5.91772">
        <ele>449.077822</ele>
        <time>2022-04-30T17:28:58.165Z</time>
      </trkpt>
      <trkpt lat="43.69793" lon="5.91735">
        <ele>449.56218</ele>
        <time>2022-04-30T17:29:09.087Z</time>
      </trkpt>
      <trkpt lat="43.69764" lon="5.91701">
        <ele>449.947847</ele>
        <time>2022-04-30T17:29:17.333Z</time>
      </trkpt>
      <trkpt lat="43.69667" lon="5.91623">
        <ele>450.121221</ele>
        <time>2022-04-30T17:29:32.173Z</time>
      </trkpt>
      <trkpt lat="43.69648" lon="5.91607">
        <ele>449.846295</ele>
        <time>2022-04-30T17:29:34.836Z</time>
      </trkpt>
      <trkpt lat="43.69628" lon="5.91591">
        <ele>449.555341</ele>
        <time>2022-04-30T17:29:37.607Z</time>
      </trkpt>
      <trkpt lat="43.69587" lon="5.91558">
        <ele>448.962293</ele>
        <time>2022-04-30T17:29:42.915Z</time>
      </trkpt>
      <trkpt lat="43.69582" lon="5.91555">
        <ele>448.890548</ele>
        <time>2022-04-30T17:29:43.547Z</time>
      </trkpt>
      <trkpt lat="43.6953" lon="5.91527">
        <ele>448.339187</ele>
        <time>2022-04-30T17:29:49.797Z</time>
      </trkpt>
      <trkpt lat="43.69501" lon="5.91522">
        <ele>448.222922</ele>
        <time>2022-04-30T17:29:53.185Z</time>
      </trkpt>
      <trkpt lat="43.69493" lon="5.91522">
        <ele>448.194946</ele>
        <time>2022-04-30T17:29:54.039Z</time>
      </trkpt>
      <trkpt lat="43.6947" lon="5.91525">
        <ele>448.104669</ele>
        <time>2022-04-30T17:29:56.822Z</time>
      </trkpt>
      <trkpt lat="43.69465" lon="5.91526">
        <ele>448.082094</ele>
        <time>2022-04-30T17:29:57.637Z</time>
      </trkpt>
      <trkpt lat="43.6946" lon="5.91519">
        <ele>448.055601</ele>
        <time>2022-04-30T17:29:58.539Z</time>
      </trkpt>
      <trkpt lat="43.69457" lon="5.91518">
        <ele>448.043732</ele>
        <time>2022-04-30T17:29:58.926Z</time>
      </trkpt>
      <trkpt lat="43.6945" lon="5.91523">
        <ele>448.01539</ele>
        <time>2022-04-30T17:29:59.823Z</time>
      </trkpt>
      <trkpt lat="43.69448" lon="5.91529">
        <ele>447.995839</ele>
        <time>2022-04-30T17:30:00.486Z</time>
      </trkpt>
      <trkpt lat="43.69451" lon="5.91539">
        <ele>447.967023</ele>
        <time>2022-04-30T17:30:01.643Z</time>
      </trkpt>
      <trkpt lat="43.69458" lon="5.91541">
        <ele>447.938417</ele>
        <time>2022-04-30T17:30:02.917Z</time>
      </trkpt>
      <trkpt lat="43.69465" lon="5.91551">
        <ele>447.899916</ele>
        <time>2022-04-30T17:30:04.448Z</time>
      </trkpt>
      <trkpt lat="43.6947" lon="5.91594">
        <ele>447.778778</ele>
        <time>2022-04-30T17:30:09.807Z</time>
      </trkpt>
      <trkpt lat="43.69473" lon="5.91613">
        <ele>447.72439</ele>
        <time>2022-04-30T17:30:12.188Z</time>
      </trkpt>
      <trkpt lat="43.69473" lon="5.91618">
        <ele>447.709732</ele>
        <time>2022-04-30T17:30:12.892Z</time>
      </trkpt>
      <trkpt lat="43.69476" lon="5.91635">
        <ele>447.906634</ele>
        <time>2022-04-30T17:30:15.561Z</time>
      </trkpt>
      <trkpt lat="43.69487" lon="5.91689">
        <ele>448.637653</ele>
        <time>2022-04-30T17:30:24.064Z</time>
      </trkpt>
      <trkpt lat="43.69493" lon="5.91711">
        <ele>448.943381</ele>
        <time>2022-04-30T17:30:27.604Z</time>
      </trkpt>
      <trkpt lat="43.69499" lon="5.91734">
        <ele>449.258399</ele>
        <time>2022-04-30T17:30:31.915Z</time>
      </trkpt>
      <trkpt lat="43.69514" lon="5.91798">
        <ele>450.124736</ele>
        <time>2022-04-30T17:30:43.260Z</time>
      </trkpt>
      <trkpt lat="43.69517" lon="5.91814">
        <ele>450.342636</ele>
        <time>2022-04-30T17:30:46.111Z</time>
      </trkpt>
      <trkpt lat="43.69517" lon="5.91815">
        <ele>450.365391</ele>
        <time>2022-04-30T17:30:46.399Z</time>
      </trkpt>
      <trkpt lat="43.69521" lon="5.91842">
        <ele>450.713599</ele>
        <time>2022-04-30T17:30:50.910Z</time>
      </trkpt>
      <trkpt lat="43.69526" lon="5.91867">
        <ele>451.074771</ele>
        <time>2022-04-30T17:30:55.272Z</time>
      </trkpt>
      <trkpt lat="43.69527" lon="5.91875">
        <ele>451.203384</ele>
        <time>2022-04-30T17:30:56.622Z</time>
      </trkpt>
      <trkpt lat="43.6953" lon="5.91887">
        <ele>451.398675</ele>
        <time>2022-04-30T17:30:58.689Z</time>
      </trkpt>
      <trkpt lat="43.69536" lon="5.91922">
        <ele>451.960334</ele>
        <time>2022-04-30T17:31:04.573Z</time>
      </trkpt>
      <trkpt lat="43.69543" lon="5.91956">
        <ele>452.519046</ele>
        <time>2022-04-30T17:31:10.562Z</time>
      </trkpt>
      <trkpt lat="43.69545" lon="5.91969">
        <ele>452.727977</ele>
        <time>2022-04-30T17:31:12.727Z</time>
      </trkpt>
      <trkpt lat="43.69552" lon="5.92001">
        <ele>453.248178</ele>
        <time>2022-04-30T17:31:18.358Z</time>
      </trkpt>
      <trkpt lat="43.69556" lon="5.9202">
        <ele>453.565819</ele>
        <time>2022-04-30T17:31:21.754Z</time>
      </trkpt>
      <trkpt lat="43.6956" lon="5.92039">
        <ele>453.872321</ele>
        <time>2022-04-30T17:31:25.151Z</time>
      </trkpt>
      <trkpt lat="43.69561" lon="5.92041">
        <ele>453.909202</ele>
        <time>2022-04-30T17:31:25.563Z</time>
      </trkpt>
      <trkpt lat="43.69564" lon="5.92055">
        <ele>454.141551</ele>
        <time>2022-04-30T17:31:28.134Z</time>
      </trkpt>
      <trkpt lat="43.69569" lon="5.92075">
        <ele>454.47129</ele>
        <time>2022-04-30T17:31:31.797Z</time>
      </trkpt>
      <trkpt lat="43.69577" lon="5.92109">
        <ele>455.206117</ele>
        <time>2022-04-30T17:31:37.952Z</time>
      </trkpt>
      <trkpt lat="43.69579" lon="5.92113">
        <ele>455.344727</ele>
        <time>2022-04-30T17:31:38.751Z</time>
      </trkpt>
      <trkpt lat="43.69589" lon="5.92149">
        <ele>456.504467</ele>
        <time>2022-04-30T17:31:45.594Z</time>
      </trkpt>
      <trkpt lat="43.69589" lon="5.92151">
        <ele>456.547941</ele>
        <time>2022-04-30T17:31:45.839Z</time>
      </trkpt>
      <trkpt lat="43.69596" lon="5.92177">
        <ele>457.383765</ele>
        <time>2022-04-30T17:31:50.872Z</time>
      </trkpt>
      <trkpt lat="43.69599" lon="5.92184">
        <ele>457.618119</ele>
        <time>2022-04-30T17:31:52.303Z</time>
      </trkpt>
      <trkpt lat="43.69603" lon="5.92195">
        <ele>457.965576</ele>
        <time>2022-04-30T17:31:54.388Z</time>
      </trkpt>
      <trkpt lat="43.69614" lon="5.92223">
        <ele>458.914322</ele>
        <time>2022-04-30T17:32:01.382Z</time>
      </trkpt>
      <trkpt lat="43.69619" lon="5.92236">
        <ele>459.377705</ele>
        <time>2022-04-30T17:32:04.877Z</time>
      </trkpt>
      <trkpt lat="43.69627" lon="5.92255">
        <ele>460.016382</ele>
        <time>2022-04-30T17:32:10.288Z</time>
      </trkpt>
      <trkpt lat="43.69633" lon="5.92268">
        <ele>460.478808</ele>
        <time>2022-04-30T17:32:14.455Z</time>
      </trkpt>
      <trkpt lat="43.69634" lon="5.92271">
        <ele>460.595299</ele>
        <time>2022-04-30T17:32:15.523Z</time>
      </trkpt>
      <trkpt lat="43.69635" lon="5.92276">
        <ele>460.734062</ele>
        <time>2022-04-30T17:32:16.757Z</time>
      </trkpt>
      <trkpt lat="43.69637" lon="5.9228">
        <ele>460.869645</ele>
        <time>2022-04-30T17:32:17.937Z</time>
      </trkpt>
      <trkpt lat="43.69639" lon="5.92283">
        <ele>460.99335</ele>
        <time>2022-04-30T17:32:18.968Z</time>
      </trkpt>
      <trkpt lat="43.69645" lon="5.92298">
        <ele>461.507247</ele>
        <time>2022-04-30T17:32:24.034Z</time>
      </trkpt>
      <trkpt lat="43.69647" lon="5.92304">
        <ele>461.702248</ele>
        <time>2022-04-30T17:32:26.011Z</time>
      </trkpt>
      <trkpt lat="43.69658" lon="5.9233">
        <ele>462.841776</ele>
        <time>2022-04-30T17:32:34.931Z</time>
      </trkpt>
      <trkpt lat="43.6966" lon="5.92335">
        <ele>463.095059</ele>
        <time>2022-04-30T17:32:36.543Z</time>
      </trkpt>
      <trkpt lat="43.6967" lon="5.92366">
        <ele>464.823797</ele>
        <time>2022-04-30T17:32:47.341Z</time>
      </trkpt>
      <trkpt lat="43.69673" lon="5.92373">
        <ele>465.213276</ele>
        <time>2022-04-30T17:32:49.526Z</time>
      </trkpt>
      <trkpt lat="43.69683" lon="5.92408">
        <ele>467.09374</ele>
        <time>2022-04-30T17:33:01.451Z</time>
      </trkpt>
      <trkpt lat="43.69687" lon="5.9242">
        <ele>467.723469</ele>
        <time>2022-04-30T17:33:05.079Z</time>
      </trkpt>
      <trkpt lat="43.69693" lon="5.92452">
        <ele>469.393656</ele>
        <time>2022-04-30T17:33:15.721Z</time>
      </trkpt>
      <trkpt lat="43.69694" lon="5.92458">
        <ele>469.723803</ele>
        <time>2022-04-30T17:33:17.737Z</time>
      </trkpt>
      <trkpt lat="43.69696" lon="5.92471">
        <ele>470.344563</ele>
        <time>2022-04-30T17:33:21.403Z</time>
      </trkpt>
      <trkpt lat="43.69702" lon="5.92506">
        <ele>472.168377</ele>
        <time>2022-04-30T17:33:33.182Z</time>
      </trkpt>
      <trkpt lat="43.69708" lon="5.92543">
        <ele>474.074338</ele>
        <time>2022-04-30T17:33:45.378Z</time>
      </trkpt>
      <trkpt lat="43.69712" lon="5.92565">
        <ele>475.079384</ele>
        <time>2022-04-30T17:33:52.048Z</time>
      </trkpt>
      <trkpt lat="43.69716" lon="5.92576">
        <ele>475.590341</ele>
        <time>2022-04-30T17:33:56.180Z</time>
      </trkpt>
      <trkpt lat="43.69722" lon="5.92599">
        <ele>476.566849</ele>
        <time>2022-04-30T17:34:03.802Z</time>
      </trkpt>
      <trkpt lat="43.69736" lon="5.92636">
        <ele>478.248617</ele>
        <time>2022-04-30T17:34:16.259Z</time>
      </trkpt>
      <trkpt lat="43.69742" lon="5.92654">
        <ele>479.049886</ele>
        <time>2022-04-30T17:34:21.642Z</time>
      </trkpt>
      <trkpt lat="43.69755" lon="5.92693">
        <ele>480.816834</ele>
        <time>2022-04-30T17:34:33.184Z</time>
      </trkpt>
      <trkpt lat="43.6976" lon="5.92717">
        <ele>481.810097</ele>
        <time>2022-04-30T17:34:39.361Z</time>
      </trkpt>
      <trkpt lat="43.69762" lon="5.92724">
        <ele>482.130676</ele>
        <time>2022-04-30T17:34:41.349Z</time>
      </trkpt>
      <trkpt lat="43.69765" lon="5.92747">
        <ele>483.053282</ele>
        <time>2022-04-30T17:34:46.551Z</time>
      </trkpt>
      <trkpt lat="43.69765" lon="5.92751">
        <ele>483.238802</ele>
        <time>2022-04-30T17:34:47.649Z</time>
      </trkpt>
      <trkpt lat="43.69766" lon="5.92775">
        <ele>484.1976</ele>
        <time>2022-04-30T17:34:53.347Z</time>
      </trkpt>
      <trkpt lat="43.6977" lon="5.92792">
        <ele>484.841387</ele>
        <time>2022-04-30T17:34:57.542Z</time>
      </trkpt>
      <trkpt lat="43.69774" lon="5.92801">
        <ele>485.06141</ele>
        <time>2022-04-30T17:34:59.889Z</time>
      </trkpt>
      <trkpt lat="43.69778" lon="5.92814">
        <ele>485.361357</ele>
        <time>2022-04-30T17:35:03.109Z</time>
      </trkpt>
      <trkpt lat="43.69787" lon="5.92832">
        <ele>485.823578</ele>
        <time>2022-04-30T17:35:07.916Z</time>
      </trkpt>
      <trkpt lat="43.69819" lon="5.92874">
        <ele>487.133723</ele>
        <time>2022-04-30T17:35:20.085Z</time>
      </trkpt>
      <trkpt lat="43.69837" lon="5.92923">
        <ele>488.324597</ele>
        <time>2022-04-30T17:35:29.403Z</time>
      </trkpt>
      <trkpt lat="43.6984" lon="5.92955">
        <ele>489.006066</ele>
        <time>2022-04-30T17:35:35.024Z</time>
      </trkpt>
      <trkpt lat="43.6984" lon="5.92964">
        <ele>489.190689</ele>
        <time>2022-04-30T17:35:36.432Z</time>
      </trkpt>
      <trkpt lat="43.69842" lon="5.93022">
        <ele>490.242809</ele>
        <time>2022-04-30T17:35:47.215Z</time>
      </trkpt>
      <trkpt lat="43.69853" lon="5.93052">
        <ele>490.562992</ele>
        <time>2022-04-30T17:35:53.012Z</time>
      </trkpt>
      <trkpt lat="43.6987" lon="5.93106">
        <ele>491.134439</ele>
        <time>2022-04-30T17:36:01.991Z</time>
      </trkpt>
      <trkpt lat="43.69866" lon="5.93143">
        <ele>491.502798</ele>
        <time>2022-04-30T17:36:07.443Z</time>
      </trkpt>
      <trkpt lat="43.6985" lon="5.93178">
        <ele>491.902669</ele>
        <time>2022-04-30T17:36:12.255Z</time>
      </trkpt>
      <trkpt lat="43.69845" lon="5.93187">
        <ele>492.008821</ele>
        <time>2022-04-30T17:36:13.572Z</time>
      </trkpt>
      <trkpt lat="43.69829" lon="5.93233">
        <ele>492.50061</ele>
        <time>2022-04-30T17:36:19.664Z</time>
      </trkpt>
      <trkpt lat="43.69814" lon="5.93305">
        <ele>493.122788</ele>
        <time>2022-04-30T17:36:30.068Z</time>
      </trkpt>
      <trkpt lat="43.698" lon="5.93364">
        <ele>493.632404</ele>
        <time>2022-04-30T17:36:39.226Z</time>
      </trkpt>
      <trkpt lat="43.69792" lon="5.93485">
        <ele>494.759974</ele>
        <time>2022-04-30T17:36:56.071Z</time>
      </trkpt>
      <trkpt lat="43.69773" lon="5.93539">
        <ele>495.928732</ele>
        <time>2022-04-30T17:37:05.522Z</time>
      </trkpt>
      <trkpt lat="43.69763" lon="5.93589">
        <ele>496.916529</ele>
        <time>2022-04-30T17:37:14.106Z</time>
      </trkpt>
      <trkpt lat="43.69777" lon="5.93651">
        <ele>498.157395</ele>
        <time>2022-04-30T17:37:25.369Z</time>
      </trkpt>
      <trkpt lat="43.69784" lon="5.93679">
        <ele>498.731434</ele>
        <time>2022-04-30T17:37:32.452Z</time>
      </trkpt>
      <trkpt lat="43.69782" lon="5.93709">
        <ele>499.301991</ele>
        <time>2022-04-30T17:37:39.602Z</time>
      </trkpt>
      <trkpt lat="43.69735" lon="5.93827">
        <ele>504.387891</ele>
        <time>2022-04-30T17:38:13.560Z</time>
      </trkpt>
      <trkpt lat="43.69711" lon="5.93874">
        <ele>506.522771</ele>
        <time>2022-04-30T17:38:29.278Z</time>
      </trkpt>
      <trkpt lat="43.69685" lon="5.93927">
        <ele>508.908288</ele>
        <time>2022-04-30T17:38:46.408Z</time>
      </trkpt>
      <trkpt lat="43.69667" lon="5.93983">
        <ele>511.162034</ele>
        <time>2022-04-30T17:39:03.413Z</time>
      </trkpt>
      <trkpt lat="43.69668" lon="5.94001">
        <ele>511.813734</ele>
        <time>2022-04-30T17:39:08.379Z</time>
      </trkpt>
      <trkpt lat="43.69676" lon="5.94005">
        <ele>512.258808</ele>
        <time>2022-04-30T17:39:12.149Z</time>
      </trkpt>
      <trkpt lat="43.69691" lon="5.94">
        <ele>513.028054</ele>
        <time>2022-04-30T17:39:17.709Z</time>
      </trkpt>
      <trkpt lat="43.69702" lon="5.93992">
        <ele>513.665734</ele>
        <time>2022-04-30T17:39:22.796Z</time>
      </trkpt>
      <trkpt lat="43.69718" lon="5.93985">
        <ele>514.517592</ele>
        <time>2022-04-30T17:39:28.655Z</time>
      </trkpt>
      <trkpt lat="43.69783" lon="5.93936">
        <ele>517.955161</ele>
        <time>2022-04-30T17:39:51.611Z</time>
      </trkpt>
      <trkpt lat="43.698" lon="5.93931">
        <ele>518.305521</ele>
        <time>2022-04-30T17:39:56.933Z</time>
      </trkpt>
      <trkpt lat="43.69816" lon="5.93946">
        <ele>518.703445</ele>
        <time>2022-04-30T17:40:02.791Z</time>
      </trkpt>
      <trkpt lat="43.69816" lon="5.93993">
        <ele>519.369958</ele>
        <time>2022-04-30T17:40:11.007Z</time>
      </trkpt>
      <trkpt lat="43.69806" lon="5.94082">
        <ele>520.671349</ele>
        <time>2022-04-30T17:40:23.852Z</time>
      </trkpt>
      <trkpt lat="43.69809" lon="5.94115">
        <ele>521.156827</ele>
        <time>2022-04-30T17:40:27.913Z</time>
      </trkpt>
      <trkpt lat="43.69818" lon="5.9414">
        <ele>521.373968</ele>
        <time>2022-04-30T17:40:31.198Z</time>
      </trkpt>
      <trkpt lat="43.69844" lon="5.94211">
        <ele>521.526724</ele>
        <time>2022-04-30T17:40:39.774Z</time>
      </trkpt>
      <trkpt lat="43.69877" lon="5.94386">
        <ele>522.076378</ele>
        <time>2022-04-30T17:40:59.606Z</time>
      </trkpt>
      <trkpt lat="43.69905" lon="5.94495">
        <ele>523.19943</ele>
        <time>2022-04-30T17:41:15.832Z</time>
      </trkpt>
      <trkpt lat="43.69907" lon="5.945">
        <ele>523.250007</ele>
        <time>2022-04-30T17:41:16.643Z</time>
      </trkpt>
      <trkpt lat="43.69914" lon="5.94536">
        <ele>523.612637</ele>
        <time>2022-04-30T17:41:22.529Z</time>
      </trkpt>
      <trkpt lat="43.69919" lon="5.94611">
        <ele>524.502433</ele>
        <time>2022-04-30T17:41:35.293Z</time>
      </trkpt>
      <trkpt lat="43.69921" lon="5.94656">
        <ele>525.555763</ele>
        <time>2022-04-30T17:41:43.414Z</time>
      </trkpt>
      <trkpt lat="43.69938" lon="5.94743">
        <ele>527.664568</ele>
        <time>2022-04-30T17:42:00.506Z</time>
      </trkpt>
      <trkpt lat="43.69948" lon="5.94909">
        <ele>532.127854</ele>
        <time>2022-04-30T17:42:37.872Z</time>
      </trkpt>
      <trkpt lat="43.69955" lon="5.94997">
        <ele>534.971295</ele>
        <time>2022-04-30T17:42:59.963Z</time>
      </trkpt>
      <trkpt lat="43.69962" lon="5.95022">
        <ele>535.816115</ele>
        <time>2022-04-30T17:43:06.624Z</time>
      </trkpt>
      <trkpt lat="43.69967" lon="5.95043">
        <ele>536.553462</ele>
        <time>2022-04-30T17:43:11.979Z</time>
      </trkpt>
      <trkpt lat="43.6998" lon="5.95101">
        <ele>538.299448</ele>
        <time>2022-04-30T17:43:26.408Z</time>
      </trkpt>
      <trkpt lat="43.69981" lon="5.95108">
        <ele>538.424274</ele>
        <time>2022-04-30T17:43:28.097Z</time>
      </trkpt>
      <trkpt lat="43.69983" lon="5.95141">
        <ele>538.976582</ele>
        <time>2022-04-30T17:43:35.165Z</time>
      </trkpt>
      <trkpt lat="43.69978" lon="5.95195">
        <ele>539.904974</ele>
        <time>2022-04-30T17:43:46.281Z</time>
      </trkpt>
      <trkpt lat="43.69973" lon="5.95225">
        <ele>540.443623</ele>
        <time>2022-04-30T17:43:52.153Z</time>
      </trkpt>
      <trkpt lat="43.69968" lon="5.95251">
        <ele>540.899473</ele>
        <time>2022-04-30T17:43:56.533Z</time>
      </trkpt>
      <trkpt lat="43.69963" lon="5.95272">
        <ele>541.276175</ele>
        <time>2022-04-30T17:43:59.712Z</time>
      </trkpt>
      <trkpt lat="43.69958" lon="5.95288">
        <ele>541.557468</ele>
        <time>2022-04-30T17:44:02.073Z</time>
      </trkpt>
      <trkpt lat="43.69944" lon="5.95343">
        <ele>542.182206</ele>
        <time>2022-04-30T17:44:08.963Z</time>
      </trkpt>
      <trkpt lat="43.6994" lon="5.95357">
        <ele>542.069526</ele>
        <time>2022-04-30T17:44:10.334Z</time>
      </trkpt>
      <trkpt lat="43.69917" lon="5.95413">
        <ele>541.545425</ele>
        <time>2022-04-30T17:44:16.376Z</time>
      </trkpt>
      <trkpt lat="43.69909" lon="5.9543">
        <ele>541.384935</ele>
        <time>2022-04-30T17:44:18.135Z</time>
      </trkpt>
      <trkpt lat="43.69885" lon="5.95522">
        <ele>540.595425</ele>
        <time>2022-04-30T17:44:26.213Z</time>
      </trkpt>
      <trkpt lat="43.6988" lon="5.95539">
        <ele>540.445164</ele>
        <time>2022-04-30T17:44:27.666Z</time>
      </trkpt>
      <trkpt lat="43.69872" lon="5.95575">
        <ele>540.053451</ele>
        <time>2022-04-30T17:44:30.587Z</time>
      </trkpt>
      <trkpt lat="43.69871" lon="5.95578">
        <ele>540.015105</ele>
        <time>2022-04-30T17:44:30.813Z</time>
      </trkpt>
      <trkpt lat="43.69868" lon="5.95619">
        <ele>539.494048</ele>
        <time>2022-04-30T17:44:34.005Z</time>
      </trkpt>
      <trkpt lat="43.69865" lon="5.95655">
        <ele>539.037552</ele>
        <time>2022-04-30T17:44:36.793Z</time>
      </trkpt>
      <trkpt lat="43.69863" lon="5.95681">
        <ele>538.709542</ele>
        <time>2022-04-30T17:44:38.811Z</time>
      </trkpt>
      <trkpt lat="43.69863" lon="5.95689">
        <ele>538.610102</ele>
        <time>2022-04-30T17:44:39.427Z</time>
      </trkpt>
      <trkpt lat="43.69862" lon="5.95699">
        <ele>538.4817</ele>
        <time>2022-04-30T17:44:40.258Z</time>
      </trkpt>
      <trkpt lat="43.69862" lon="5.95705">
        <ele>538.409967</ele>
        <time>2022-04-30T17:44:40.722Z</time>
      </trkpt>
      <trkpt lat="43.69862" lon="5.95715">
        <ele>538.284158</ele>
        <time>2022-04-30T17:44:41.539Z</time>
      </trkpt>
      <trkpt lat="43.69861" lon="5.95759">
        <ele>537.725723</ele>
        <time>2022-04-30T17:44:45.201Z</time>
      </trkpt>
      <trkpt lat="43.69861" lon="5.95775">
        <ele>537.52583</ele>
        <time>2022-04-30T17:44:46.550Z</time>
      </trkpt>
      <trkpt lat="43.69859" lon="5.95789">
        <ele>537.349651</ele>
        <time>2022-04-30T17:44:47.752Z</time>
      </trkpt>
      <trkpt lat="43.69847" lon="5.9584">
        <ele>537.317702</ele>
        <time>2022-04-30T17:44:52.880Z</time>
      </trkpt>
      <trkpt lat="43.69836" lon="5.95878">
        <ele>537.464698</ele>
        <time>2022-04-30T17:44:57.291Z</time>
      </trkpt>
      <trkpt lat="43.69833" lon="5.95889">
        <ele>537.50683</ele>
        <time>2022-04-30T17:44:58.736Z</time>
      </trkpt>
      <trkpt lat="43.69821" lon="5.95958">
        <ele>537.762408</ele>
        <time>2022-04-30T17:45:08.149Z</time>
      </trkpt>
      <trkpt lat="43.6982" lon="5.95966">
        <ele>537.789606</ele>
        <time>2022-04-30T17:45:09.205Z</time>
      </trkpt>
      <trkpt lat="43.69819" lon="5.95973">
        <ele>537.81636</ele>
        <time>2022-04-30T17:45:10.229Z</time>
      </trkpt>
      <trkpt lat="43.69803" lon="5.96092">
        <ele>538.55506</ele>
        <time>2022-04-30T17:45:27.739Z</time>
      </trkpt>
      <trkpt lat="43.69798" lon="5.96118">
        <ele>538.812201</ele>
        <time>2022-04-30T17:45:31.909Z</time>
      </trkpt>
      <trkpt lat="43.69791" lon="5.96154">
        <ele>539.167573</ele>
        <time>2022-04-30T17:45:37.436Z</time>
      </trkpt>
      <trkpt lat="43.69783" lon="5.96183">
        <ele>539.46314</ele>
        <time>2022-04-30T17:45:42.026Z</time>
      </trkpt>
      <trkpt lat="43.69779" lon="5.962">
        <ele>539.636899</ele>
        <time>2022-04-30T17:45:44.818Z</time>
      </trkpt>
      <trkpt lat="43.69773" lon="5.96222">
        <ele>539.852306</ele>
        <time>2022-04-30T17:45:48.098Z</time>
      </trkpt>
      <trkpt lat="43.69761" lon="5.96263">
        <ele>540.274744</ele>
        <time>2022-04-30T17:45:54.462Z</time>
      </trkpt>
      <trkpt lat="43.69751" lon="5.96289">
        <ele>540.533219</ele>
        <time>2022-04-30T17:45:58.607Z</time>
      </trkpt>
      <trkpt lat="43.69729" lon="5.96338">
        <ele>540.963654</ele>
        <time>2022-04-30T17:46:06.218Z</time>
      </trkpt>
      <trkpt lat="43.69726" lon="5.96346">
        <ele>541.035471</ele>
        <time>2022-04-30T17:46:07.456Z</time>
      </trkpt>
      <trkpt lat="43.69705" lon="5.9638">
        <ele>541.367314</ele>
        <time>2022-04-30T17:46:13.563Z</time>
      </trkpt>
      <trkpt lat="43.69675" lon="5.964">
        <ele>541.708456</ele>
        <time>2022-04-30T17:46:20.590Z</time>
      </trkpt>
      <trkpt lat="43.69634" lon="5.96416">
        <ele>542.154514</ele>
        <time>2022-04-30T17:46:29.449Z</time>
      </trkpt>
      <trkpt lat="43.69626" lon="5.96421">
        <ele>542.243971</ele>
        <time>2022-04-30T17:46:31.002Z</time>
      </trkpt>
      <trkpt lat="43.6962" lon="5.96425">
        <ele>542.285663</ele>
        <time>2022-04-30T17:46:32.241Z</time>
      </trkpt>
      <trkpt lat="43.69615" lon="5.96429">
        <ele>542.174813</ele>
        <time>2022-04-30T17:46:33.287Z</time>
      </trkpt>
      <trkpt lat="43.69598" lon="5.96448">
        <ele>541.7749</ele>
        <time>2022-04-30T17:46:36.902Z</time>
      </trkpt>
      <trkpt lat="43.6955" lon="5.96505">
        <ele>540.612324</ele>
        <time>2022-04-30T17:46:44.608Z</time>
      </trkpt>
      <trkpt lat="43.69519" lon="5.96522">
        <ele>540.020486</ele>
        <time>2022-04-30T17:46:47.988Z</time>
      </trkpt>
      <trkpt lat="43.69458" lon="5.96533">
        <ele>538.708013</ele>
        <time>2022-04-30T17:46:54.126Z</time>
      </trkpt>
      <trkpt lat="43.69422" lon="5.96549">
        <ele>536.99583</ele>
        <time>2022-04-30T17:46:57.803Z</time>
      </trkpt>
      <trkpt lat="43.69403" lon="5.96562">
        <ele>536.063515</ele>
        <time>2022-04-30T17:46:59.756Z</time>
      </trkpt>
      <trkpt lat="43.69368" lon="5.96594">
        <ele>534.179221</ele>
        <time>2022-04-30T17:47:03.688Z</time>
      </trkpt>
      <trkpt lat="43.6926" lon="5.96733">
        <ele>528.706574</ele>
        <time>2022-04-30T17:47:17.952Z</time>
      </trkpt>
      <trkpt lat="43.69201" lon="5.96817">
        <ele>526.210663</ele>
        <time>2022-04-30T17:47:26.957Z</time>
      </trkpt>
      <trkpt lat="43.69086" lon="5.97014">
        <ele>523.805514</ele>
        <time>2022-04-30T17:47:48.792Z</time>
      </trkpt>
      <trkpt lat="43.69041" lon="5.97071">
        <ele>523.716217</ele>
        <time>2022-04-30T17:47:57.133Z</time>
      </trkpt>
      <trkpt lat="43.68892" lon="5.97149">
        <ele>524.341304</ele>
        <time>2022-04-30T17:48:23.494Z</time>
      </trkpt>
      <trkpt lat="43.68866" lon="5.97171">
        <ele>524.768412</ele>
        <time>2022-04-30T17:48:29.640Z</time>
      </trkpt>
      <trkpt lat="43.68779" lon="5.97268">
        <ele>526.31705</ele>
        <time>2022-04-30T17:48:53.505Z</time>
      </trkpt>
      <trkpt lat="43.68736" lon="5.97327">
        <ele>527.184622</ele>
        <time>2022-04-30T17:49:07.220Z</time>
      </trkpt>
      <trkpt lat="43.68728" lon="5.9734">
        <ele>527.373679</ele>
        <time>2022-04-30T17:49:09.987Z</time>
      </trkpt>
      <trkpt lat="43.6865" lon="5.97462">
        <ele>529.084675</ele>
        <time>2022-04-30T17:49:34.320Z</time>
      </trkpt>
      <trkpt lat="43.68564" lon="5.97561">
        <ele>529.458886</ele>
        <time>2022-04-30T17:49:53.262Z</time>
      </trkpt>
      <trkpt lat="43.68493" lon="5.97644">
        <ele>529.513657</ele>
        <time>2022-04-30T17:50:06.199Z</time>
      </trkpt>
      <trkpt lat="43.68431" lon="5.97721">
        <ele>528.907761</ele>
        <time>2022-04-30T17:50:16.943Z</time>
      </trkpt>
      <trkpt lat="43.68384" lon="5.97782">
        <ele>528.438781</ele>
        <time>2022-04-30T17:50:24.800Z</time>
      </trkpt>
      <trkpt lat="43.68349" lon="5.97826">
        <ele>528.036653</ele>
        <time>2022-04-30T17:50:30.532Z</time>
      </trkpt>
      <trkpt lat="43.68338" lon="5.9784">
        <ele>527.89936</ele>
        <time>2022-04-30T17:50:32.362Z</time>
      </trkpt>
      <trkpt lat="43.68321" lon="5.97862">
        <ele>527.689138</ele>
        <time>2022-04-30T17:50:35.246Z</time>
      </trkpt>
      <trkpt lat="43.68284" lon="5.97909">
        <ele>527.244969</ele>
        <time>2022-04-30T17:50:41.238Z</time>
      </trkpt>
      <trkpt lat="43.6826" lon="5.97952">
        <ele>526.888055</ele>
        <time>2022-04-30T17:50:46.173Z</time>
      </trkpt>
      <trkpt lat="43.68258" lon="5.97956">
        <ele>526.85546</ele>
        <time>2022-04-30T17:50:46.679Z</time>
      </trkpt>
      <trkpt lat="43.68239" lon="5.97995">
        <ele>526.535646</ele>
        <time>2022-04-30T17:50:51.354Z</time>
      </trkpt>
      <trkpt lat="43.68221" lon="5.98038">
        <ele>526.18734</ele>
        <time>2022-04-30T17:50:56.425Z</time>
      </trkpt>
      <trkpt lat="43.68217" lon="5.98119">
        <ele>525.619577</ele>
        <time>2022-04-30T17:51:03.545Z</time>
      </trkpt>
      <trkpt lat="43.68216" lon="5.98153">
        <ele>525.382456</ele>
        <time>2022-04-30T17:51:06.421Z</time>
      </trkpt>
      <trkpt lat="43.68216" lon="5.98171">
        <ele>525.256192</ele>
        <time>2022-04-30T17:51:07.869Z</time>
      </trkpt>
      <trkpt lat="43.68214" lon="5.98204">
        <ele>525.020026</ele>
        <time>2022-04-30T17:51:10.793Z</time>
      </trkpt>
      <trkpt lat="43.68214" lon="5.98208">
        <ele>524.975667</ele>
        <time>2022-04-30T17:51:11.111Z</time>
      </trkpt>
      <trkpt lat="43.68206" lon="5.98247">
        <ele>524.377632</ele>
        <time>2022-04-30T17:51:14.483Z</time>
      </trkpt>
      <trkpt lat="43.68193" lon="5.98265">
        <ele>524.007337</ele>
        <time>2022-04-30T17:51:16.529Z</time>
      </trkpt>
      <trkpt lat="43.68186" lon="5.98275">
        <ele>523.796163</ele>
        <time>2022-04-30T17:51:17.694Z</time>
      </trkpt>
      <trkpt lat="43.68162" lon="5.98315">
        <ele>523.031743</ele>
        <time>2022-04-30T17:51:21.944Z</time>
      </trkpt>
      <trkpt lat="43.68161" lon="5.98344">
        <ele>522.606539</ele>
        <time>2022-04-30T17:51:24.289Z</time>
      </trkpt>
      <trkpt lat="43.68161" lon="5.98385">
        <ele>521.999651</ele>
        <time>2022-04-30T17:51:27.466Z</time>
      </trkpt>
      <trkpt lat="43.68139" lon="5.9847">
        <ele>520.567548</ele>
        <time>2022-04-30T17:51:33.993Z</time>
      </trkpt>
      <trkpt lat="43.68133" lon="5.98491">
        <ele>520.185621</ele>
        <time>2022-04-30T17:51:35.672Z</time>
      </trkpt>
      <trkpt lat="43.68122" lon="5.98525">
        <ele>519.55441</ele>
        <time>2022-04-30T17:51:38.576Z</time>
      </trkpt>
      <trkpt lat="43.68111" lon="5.9854">
        <ele>519.185694</ele>
        <time>2022-04-30T17:51:40.341Z</time>
      </trkpt>
      <trkpt lat="43.6807" lon="5.98553">
        <ele>518.204664</ele>
        <time>2022-04-30T17:51:44.934Z</time>
      </trkpt>
      <trkpt lat="43.68053" lon="5.98552">
        <ele>517.799192</ele>
        <time>2022-04-30T17:51:46.738Z</time>
      </trkpt>
      <trkpt lat="43.68045" lon="5.98546">
        <ele>517.588591</ele>
        <time>2022-04-30T17:51:47.741Z</time>
      </trkpt>
      <trkpt lat="43.68003" lon="5.98461">
        <ele>516.361754</ele>
        <time>2022-04-30T17:51:55.922Z</time>
      </trkpt>
      <trkpt lat="43.67984" lon="5.98444">
        <ele>516.048849</ele>
        <time>2022-04-30T17:51:58.413Z</time>
      </trkpt>
      <trkpt lat="43.6782" lon="5.98419">
        <ele>514.312087</ele>
        <time>2022-04-30T17:52:18.924Z</time>
      </trkpt>
      <trkpt lat="43.67764" lon="5.98442">
        <ele>514.012254</ele>
        <time>2022-04-30T17:52:26.648Z</time>
      </trkpt>
      <trkpt lat="43.6766" lon="5.98486">
        <ele>513.63493</ele>
        <time>2022-04-30T17:52:42.162Z</time>
      </trkpt>
      <trkpt lat="43.67475" lon="5.98548">
        <ele>513.293519</ele>
        <time>2022-04-30T17:53:09.528Z</time>
      </trkpt>
      <trkpt lat="43.67231" lon="5.98619">
        <ele>512.782599</ele>
        <time>2022-04-30T17:53:43.374Z</time>
      </trkpt>
      <trkpt lat="43.67183" lon="5.98638">
        <ele>512.71142</ele>
        <time>2022-04-30T17:53:50.747Z</time>
      </trkpt>
      <trkpt lat="43.67091" lon="5.9871">
        <ele>513.961636</ele>
        <time>2022-04-30T17:54:10.155Z</time>
      </trkpt>
      <trkpt lat="43.67072" lon="5.98734">
        <ele>514.263818</ele>
        <time>2022-04-30T17:54:15.548Z</time>
      </trkpt>
      <trkpt lat="43.67059" lon="5.98763">
        <ele>514.557099</ele>
        <time>2022-04-30T17:54:21.080Z</time>
      </trkpt>
      <trkpt lat="43.66944" lon="5.99096">
        <ele>519.410319</ele>
        <time>2022-04-30T17:55:23.187Z</time>
      </trkpt>
      <trkpt lat="43.66934" lon="5.99111">
        <ele>519.612988</ele>
        <time>2022-04-30T17:55:26.300Z</time>
      </trkpt>
      <trkpt lat="43.66926" lon="5.99122">
        <ele>519.758092</ele>
        <time>2022-04-30T17:55:27.824Z</time>
      </trkpt>
      <trkpt lat="43.66864" lon="5.99164">
        <ele>520.691719</ele>
        <time>2022-04-30T17:55:40.794Z</time>
      </trkpt>
      <trkpt lat="43.66835" lon="5.99203">
        <ele>521.193157</ele>
        <time>2022-04-30T17:55:48.113Z</time>
      </trkpt>
      <trkpt lat="43.66726" lon="5.99426">
        <ele>523.062474</ele>
        <time>2022-04-30T17:56:26.009Z</time>
      </trkpt>
      <trkpt lat="43.66692" lon="5.99474">
        <ele>523.243192</ele>
        <time>2022-04-30T17:56:34.229Z</time>
      </trkpt>
      <trkpt lat="43.66619" lon="5.99536">
        <ele>523.563743</ele>
        <time>2022-04-30T17:56:47.404Z</time>
      </trkpt>
      <trkpt lat="43.66597" lon="5.99563">
        <ele>523.627826</ele>
        <time>2022-04-30T17:56:51.255Z</time>
      </trkpt>
      <trkpt lat="43.66495" lon="5.9969">
        <ele>523.781126</ele>
        <time>2022-04-30T17:57:11.001Z</time>
      </trkpt>
      <trkpt lat="43.66404" lon="5.99784">
        <ele>525.152644</ele>
        <time>2022-04-30T17:57:32.813Z</time>
      </trkpt>
      <trkpt lat="43.66389" lon="5.99816">
        <ele>525.576168</ele>
        <time>2022-04-30T17:57:38.723Z</time>
      </trkpt>
      <trkpt lat="43.66373" lon="5.99882">
        <ele>526.348271</ele>
        <time>2022-04-30T17:57:50.572Z</time>
      </trkpt>
      <trkpt lat="43.6637" lon="5.99893">
        <ele>526.477898</ele>
        <time>2022-04-30T17:57:52.389Z</time>
      </trkpt>
      <trkpt lat="43.66342" lon="6.00011">
        <ele>528.668677</ele>
        <time>2022-04-30T17:58:14.928Z</time>
      </trkpt>
      <trkpt lat="43.66329" lon="6.00046">
        <ele>529.384299</ele>
        <time>2022-04-30T17:58:22.041Z</time>
      </trkpt>
      <trkpt lat="43.66319" lon="6.00052">
        <ele>529.648192</ele>
        <time>2022-04-30T17:58:25.230Z</time>
      </trkpt>
      <trkpt lat="43.66288" lon="6.00075">
        <ele>530.534022</ele>
        <time>2022-04-30T17:58:34.220Z</time>
      </trkpt>
      <trkpt lat="43.66064" lon="6.00233">
        <ele>535.353571</ele>
        <time>2022-04-30T17:59:32.819Z</time>
      </trkpt>
      <trkpt lat="43.65948" lon="6.00315">
        <ele>536.599215</ele>
        <time>2022-04-30T17:59:54.905Z</time>
      </trkpt>
      <trkpt lat="43.6584" lon="6.0035">
        <ele>536.960434</ele>
        <time>2022-04-30T18:00:11.539Z</time>
      </trkpt>
      <trkpt lat="43.65824" lon="6.00354">
        <ele>537.015429</ele>
        <time>2022-04-30T18:00:14.461Z</time>
      </trkpt>
      <trkpt lat="43.6574" lon="6.00414">
        <ele>537.401927</ele>
        <time>2022-04-30T18:00:30.481Z</time>
      </trkpt>
      <trkpt lat="43.65681" lon="6.00452">
        <ele>537.741556</ele>
        <time>2022-04-30T18:00:41.936Z</time>
      </trkpt>
      <trkpt lat="43.65653" lon="6.0046">
        <ele>537.888015</ele>
        <time>2022-04-30T18:00:46.672Z</time>
      </trkpt>
      <trkpt lat="43.65525" lon="6.00443">
        <ele>538.540183</ele>
        <time>2022-04-30T18:01:07.580Z</time>
      </trkpt>
      <trkpt lat="43.655" lon="6.00447">
        <ele>538.667032</ele>
        <time>2022-04-30T18:01:11.604Z</time>
      </trkpt>
      <trkpt lat="43.65425" lon="6.00479">
        <ele>539.099145</ele>
        <time>2022-04-30T18:01:25.356Z</time>
      </trkpt>
      <trkpt lat="43.6539" lon="6.00501">
        <ele>539.44618</ele>
        <time>2022-04-30T18:01:32.400Z</time>
      </trkpt>
      <trkpt lat="43.65348" lon="6.00558">
        <ele>539.980118</ele>
        <time>2022-04-30T18:01:43.661Z</time>
      </trkpt>
      <trkpt lat="43.65325" lon="6.0059">
        <ele>540.270991</ele>
        <time>2022-04-30T18:01:49.868Z</time>
      </trkpt>
      <trkpt lat="43.65082" lon="6.00919">
        <ele>542.391415</ele>
        <time>2022-04-30T18:02:49.783Z</time>
      </trkpt>
      <trkpt lat="43.64873" lon="6.01253">
        <ele>542.180378</ele>
        <time>2022-04-30T18:03:36.304Z</time>
      </trkpt>
      <trkpt lat="43.6485" lon="6.01319">
        <ele>541.934189</ele>
        <time>2022-04-30T18:03:43.047Z</time>
      </trkpt>
      <trkpt lat="43.64806" lon="6.01516">
        <ele>540.943057</ele>
        <time>2022-04-30T18:04:01.692Z</time>
      </trkpt>
      <trkpt lat="43.64743" lon="6.01796">
        <ele>539.254579</ele>
        <time>2022-04-30T18:04:28.996Z</time>
      </trkpt>
      <trkpt lat="43.64731" lon="6.0183">
        <ele>539.033015</ele>
        <time>2022-04-30T18:04:32.242Z</time>
      </trkpt>
      <trkpt lat="43.64729" lon="6.01832">
        <ele>539.00952</ele>
        <time>2022-04-30T18:04:32.594Z</time>
      </trkpt>
      <trkpt lat="43.64733" lon="6.01841">
        <ele>538.952077</ele>
        <time>2022-04-30T18:04:33.436Z</time>
      </trkpt>
      <trkpt lat="43.64812" lon="6.02011">
        <ele>537.802546</ele>
        <time>2022-04-30T18:04:51.177Z</time>
      </trkpt>
      <trkpt lat="43.64982" lon="6.0235">
        <ele>537.506076</ele>
        <time>2022-04-30T18:05:35.293Z</time>
      </trkpt>
      <trkpt lat="43.65061" lon="6.02553">
        <ele>537.870801</ele>
        <time>2022-04-30T18:06:01.695Z</time>
      </trkpt>
      <trkpt lat="43.65074" lon="6.02602">
        <ele>538.001408</ele>
        <time>2022-04-30T18:06:07.599Z</time>
      </trkpt>
      <trkpt lat="43.65075" lon="6.02604">
        <ele>538.006423</ele>
        <time>2022-04-30T18:06:07.839Z</time>
      </trkpt>
      <trkpt lat="43.65086" lon="6.02682">
        <ele>538.208876</ele>
        <time>2022-04-30T18:06:17.294Z</time>
      </trkpt>
      <trkpt lat="43.65087" lon="6.02728">
        <ele>538.406456</ele>
        <time>2022-04-30T18:06:23.008Z</time>
      </trkpt>
      <trkpt lat="43.65072" lon="6.02819">
        <ele>539.04098</ele>
        <time>2022-04-30T18:06:34.943Z</time>
      </trkpt>
      <trkpt lat="43.64977" lon="6.03155">
        <ele>542.030742</ele>
        <time>2022-04-30T18:07:26.125Z</time>
      </trkpt>
      <trkpt lat="43.64962" lon="6.03256">
        <ele>543.271015</ele>
        <time>2022-04-30T18:07:42.011Z</time>
      </trkpt>
      <trkpt lat="43.6494" lon="6.03392">
        <ele>545.081849</ele>
        <time>2022-04-30T18:08:04.557Z</time>
      </trkpt>
      <trkpt lat="43.64888" lon="6.03567">
        <ele>547.789182</ele>
        <time>2022-04-30T18:08:35.776Z</time>
      </trkpt>
      <trkpt lat="43.64834" lon="6.03838">
        <ele>552.145169</ele>
        <time>2022-04-30T18:09:22.368Z</time>
      </trkpt>
      <trkpt lat="43.64768" lon="6.04204">
        <ele>558.798434</ele>
        <time>2022-04-30T18:10:31.990Z</time>
      </trkpt>
      <trkpt lat="43.6475" lon="6.04293">
        <ele>560.076009</ele>
        <time>2022-04-30T18:10:47.818Z</time>
      </trkpt>
      <trkpt lat="43.64735" lon="6.04339">
        <ele>560.784409</ele>
        <time>2022-04-30T18:10:56.156Z</time>
      </trkpt>
      <trkpt lat="43.6465" lon="6.04504">
        <ele>560.703905</ele>
        <time>2022-04-30T18:11:19.652Z</time>
      </trkpt>
      <trkpt lat="43.64479" lon="6.04706">
        <ele>556.5694</ele>
        <time>2022-04-30T18:11:43.920Z</time>
      </trkpt>
      <trkpt lat="43.64381" lon="6.0478">
        <ele>553.335252</ele>
        <time>2022-04-30T18:11:55.373Z</time>
      </trkpt>
      <trkpt lat="43.64335" lon="6.04821">
        <ele>551.713126</ele>
        <time>2022-04-30T18:12:00.953Z</time>
      </trkpt>
      <trkpt lat="43.64299" lon="6.04861">
        <ele>550.329317</ele>
        <time>2022-04-30T18:12:05.697Z</time>
      </trkpt>
      <trkpt lat="43.64278" lon="6.0489">
        <ele>549.426369</ele>
        <time>2022-04-30T18:12:08.734Z</time>
      </trkpt>
      <trkpt lat="43.64215" lon="6.04985">
        <ele>546.620141</ele>
        <time>2022-04-30T18:12:18.217Z</time>
      </trkpt>
      <trkpt lat="43.64075" lon="6.05239">
        <ele>540.028122</ele>
        <time>2022-04-30T18:12:42.189Z</time>
      </trkpt>
      <trkpt lat="43.64066" lon="6.05283">
        <ele>538.903365</ele>
        <time>2022-04-30T18:12:45.690Z</time>
      </trkpt>
      <trkpt lat="43.64069" lon="6.05329">
        <ele>537.772208</ele>
        <time>2022-04-30T18:12:49.184Z</time>
      </trkpt>
      <trkpt lat="43.64084" lon="6.05369">
        <ele>536.692752</ele>
        <time>2022-04-30T18:12:52.493Z</time>
      </trkpt>
      <trkpt lat="43.64119" lon="6.05423">
        <ele>534.911777</ele>
        <time>2022-04-30T18:12:57.885Z</time>
      </trkpt>
      <trkpt lat="43.6421" lon="6.05568">
        <ele>526.378766</ele>
        <time>2022-04-30T18:13:10.624Z</time>
      </trkpt>
      <trkpt lat="43.64228" lon="6.05604">
        <ele>524.349777</ele>
        <time>2022-04-30T18:13:13.438Z</time>
      </trkpt>
      <trkpt lat="43.64261" lon="6.05672">
        <ele>520.014026</ele>
        <time>2022-04-30T18:13:18.655Z</time>
      </trkpt>
      <trkpt lat="43.64267" lon="6.05701">
        <ele>518.316498</ele>
        <time>2022-04-30T18:13:20.554Z</time>
      </trkpt>
      <trkpt lat="43.64265" lon="6.05715">
        <ele>517.460736</ele>
        <time>2022-04-30T18:13:21.482Z</time>
      </trkpt>
      <trkpt lat="43.64254" lon="6.05741">
        <ele>515.744557</ele>
        <time>2022-04-30T18:13:23.419Z</time>
      </trkpt>
      <trkpt lat="43.64245" lon="6.05751">
        <ele>514.827186</ele>
        <time>2022-04-30T18:13:24.413Z</time>
      </trkpt>
      <trkpt lat="43.64198" lon="6.05775">
        <ele>510.916005</ele>
        <time>2022-04-30T18:13:28.781Z</time>
      </trkpt>
      <trkpt lat="43.64179" lon="6.05794">
        <ele>509.041973</ele>
        <time>2022-04-30T18:13:30.887Z</time>
      </trkpt>
      <trkpt lat="43.64129" lon="6.05914">
        <ele>504.128629</ele>
        <time>2022-04-30T18:13:40.460Z</time>
      </trkpt>
      <trkpt lat="43.64126" lon="6.05931">
        <ele>503.503586</ele>
        <time>2022-04-30T18:13:41.765Z</time>
      </trkpt>
      <trkpt lat="43.64137" lon="6.05944">
        <ele>502.834303</ele>
        <time>2022-04-30T18:13:43.057Z</time>
      </trkpt>
      <trkpt lat="43.64147" lon="6.05942">
        <ele>502.350061</ele>
        <time>2022-04-30T18:13:43.988Z</time>
      </trkpt>
      <trkpt lat="43.64191" lon="6.0591">
        <ele>499.984532</ele>
        <time>2022-04-30T18:13:48.941Z</time>
      </trkpt>
      <trkpt lat="43.64215" lon="6.05904">
        <ele>498.922564</ele>
        <time>2022-04-30T18:13:51.308Z</time>
      </trkpt>
      <trkpt lat="43.64261" lon="6.05924">
        <ele>496.827173</ele>
        <time>2022-04-30T18:13:55.991Z</time>
      </trkpt>
      <trkpt lat="43.64277" lon="6.05949">
        <ele>495.778042</ele>
        <time>2022-04-30T18:13:58.211Z</time>
      </trkpt>
      <trkpt lat="43.64312" lon="6.06028">
        <ele>492.853786</ele>
        <time>2022-04-30T18:14:04.652Z</time>
      </trkpt>
      <trkpt lat="43.64345" lon="6.06131">
        <ele>490.308066</ele>
        <time>2022-04-30T18:14:12.625Z</time>
      </trkpt>
      <trkpt lat="43.64377" lon="6.06205">
        <ele>488.569639</ele>
        <time>2022-04-30T18:14:19.132Z</time>
      </trkpt>
      <trkpt lat="43.64383" lon="6.06217">
        <ele>488.255178</ele>
        <time>2022-04-30T18:14:20.253Z</time>
      </trkpt>
      <trkpt lat="43.64389" lon="6.06235">
        <ele>487.859567</ele>
        <time>2022-04-30T18:14:21.845Z</time>
      </trkpt>
      <trkpt lat="43.64393" lon="6.06247">
        <ele>487.588464</ele>
        <time>2022-04-30T18:14:22.881Z</time>
      </trkpt>
      <trkpt lat="43.64394" lon="6.06273">
        <ele>487.125501</ele>
        <time>2022-04-30T18:14:25.028Z</time>
      </trkpt>
      <trkpt lat="43.64394" lon="6.06276">
        <ele>487.118975</ele>
        <time>2022-04-30T18:14:25.418Z</time>
      </trkpt>
      <trkpt lat="43.64395" lon="6.0629">
        <ele>487.092588</ele>
        <time>2022-04-30T18:14:26.790Z</time>
      </trkpt>
      <trkpt lat="43.64398" lon="6.06294">
        <ele>487.08363</ele>
        <time>2022-04-30T18:14:27.203Z</time>
      </trkpt>
      <trkpt lat="43.64402" lon="6.06298">
        <ele>487.070983</ele>
        <time>2022-04-30T18:14:27.795Z</time>
      </trkpt>
      <trkpt lat="43.64415" lon="6.06295">
        <ele>487.039683</ele>
        <time>2022-04-30T18:14:29.595Z</time>
      </trkpt>
      <trkpt lat="43.64418" lon="6.0629">
        <ele>487.028352</ele>
        <time>2022-04-30T18:14:30.472Z</time>
      </trkpt>
      <trkpt lat="43.64439" lon="6.06286">
        <ele>486.97579</ele>
        <time>2022-04-30T18:14:35.067Z</time>
      </trkpt>
      <trkpt lat="43.64473" lon="6.06286">
        <ele>486.889594</ele>
        <time>2022-04-30T18:14:42.804Z</time>
      </trkpt>
      <trkpt lat="43.64507" lon="6.06299">
        <ele>486.801949</ele>
        <time>2022-04-30T18:14:50.548Z</time>
      </trkpt>
      <trkpt lat="43.64549" lon="6.06331">
        <ele>486.673049</ele>
        <time>2022-04-30T18:14:59.634Z</time>
      </trkpt>
      <trkpt lat="43.64564" lon="6.06335">
        <ele>486.430051</ele>
        <time>2022-04-30T18:15:02.475Z</time>
      </trkpt>
      <trkpt lat="43.64657" lon="6.06343">
        <ele>484.91624</ele>
        <time>2022-04-30T18:15:19.091Z</time>
      </trkpt>
      <trkpt lat="43.64665" lon="6.06358">
        <ele>484.697493</ele>
        <time>2022-04-30T18:15:21.434Z</time>
      </trkpt>
      <trkpt lat="43.64686" lon="6.06367">
        <ele>484.327431</ele>
        <time>2022-04-30T18:15:24.800Z</time>
      </trkpt>
      <trkpt lat="43.64734" lon="6.0636">
        <ele>483.146272</ele>
        <time>2022-04-30T18:15:31.597Z</time>
      </trkpt>
      <trkpt lat="43.64738" lon="6.06366">
        <ele>482.870903</ele>
        <time>2022-04-30T18:15:32.341Z</time>
      </trkpt>
      <trkpt lat="43.6476" lon="6.06366">
        <ele>481.797052</ele>
        <time>2022-04-30T18:15:35.561Z</time>
      </trkpt>
      <trkpt lat="43.6476" lon="6.06366">
        <ele>481.782543</ele>
        <time>2022-04-30T18:15:35.602Z</time>
      </trkpt>
      <trkpt lat="43.6479" lon="6.06351">
        <ele>480.240819</ele>
        <time>2022-04-30T18:15:40.037Z</time>
      </trkpt>
      <trkpt lat="43.64805" lon="6.06347">
        <ele>479.516909</ele>
        <time>2022-04-30T18:15:42.045Z</time>
      </trkpt>
      <trkpt lat="43.64816" lon="6.06346">
        <ele>478.982339</ele>
        <time>2022-04-30T18:15:43.650Z</time>
      </trkpt>
      <trkpt lat="43.64809" lon="6.06378">
        <ele>477.815806</ele>
        <time>2022-04-30T18:15:45.837Z</time>
      </trkpt>
      <trkpt lat="43.64772" lon="6.06405">
        <ele>475.806719</ele>
        <time>2022-04-30T18:15:49.683Z</time>
      </trkpt>
      <trkpt lat="43.64732" lon="6.06459">
        <ele>472.915212</ele>
        <time>2022-04-30T18:15:54.857Z</time>
      </trkpt>
      <trkpt lat="43.64718" lon="6.06502">
        <ele>471.07215</ele>
        <time>2022-04-30T18:15:58.033Z</time>
      </trkpt>
      <trkpt lat="43.64705" lon="6.06511">
        <ele>470.334144</ele>
        <time>2022-04-30T18:15:59.251Z</time>
      </trkpt>
      <trkpt lat="43.64695" lon="6.06502">
        <ele>469.695487</ele>
        <time>2022-04-30T18:16:00.510Z</time>
      </trkpt>
      <trkpt lat="43.64685" lon="6.06509">
        <ele>469.096001</ele>
        <time>2022-04-30T18:16:01.620Z</time>
      </trkpt>
      <trkpt lat="43.64683" lon="6.06525">
        <ele>468.470179</ele>
        <time>2022-04-30T18:16:02.696Z</time>
      </trkpt>
      <trkpt lat="43.64686" lon="6.06532">
        <ele>468.144005</ele>
        <time>2022-04-30T18:16:03.298Z</time>
      </trkpt>
      <trkpt lat="43.64657" lon="6.06591">
        <ele>465.441721</ele>
        <time>2022-04-30T18:16:08.345Z</time>
      </trkpt>
      <trkpt lat="43.6459" lon="6.06723">
        <ele>461.017434</ele>
        <time>2022-04-30T18:16:19.496Z</time>
      </trkpt>
      <trkpt lat="43.6459" lon="6.06868">
        <ele>457.685048</ele>
        <time>2022-04-30T18:16:30.574Z</time>
      </trkpt>
      <trkpt lat="43.6459" lon="6.069">
        <ele>457.153924</ele>
        <time>2022-04-30T18:16:33.107Z</time>
      </trkpt>
      <trkpt lat="43.64575" lon="6.07083">
        <ele>454.026607</ele>
        <time>2022-04-30T18:16:47.551Z</time>
      </trkpt>
      <trkpt lat="43.64588" lon="6.07385">
        <ele>449.365277</ele>
        <time>2022-04-30T18:17:10.455Z</time>
      </trkpt>
      <trkpt lat="43.6459" lon="6.07515">
        <ele>448.421721</ele>
        <time>2022-04-30T18:17:22.568Z</time>
      </trkpt>
      <trkpt lat="43.64589" lon="6.07535">
        <ele>448.275171</ele>
        <time>2022-04-30T18:17:24.857Z</time>
      </trkpt>
      <trkpt lat="43.64587" lon="6.07628">
        <ele>449.396882</ele>
        <time>2022-04-30T18:17:37.863Z</time>
      </trkpt>
      <trkpt lat="43.64585" lon="6.07827">
        <ele>452.960736</ele>
        <time>2022-04-30T18:18:15.784Z</time>
      </trkpt>
      <trkpt lat="43.64597" lon="6.07912">
        <ele>455.559727</ele>
        <time>2022-04-30T18:18:33.668Z</time>
      </trkpt>
      <trkpt lat="43.64601" lon="6.07939">
        <ele>456.38396</ele>
        <time>2022-04-30T18:18:39.494Z</time>
      </trkpt>
      <trkpt lat="43.64615" lon="6.08091">
        <ele>461.343629</ele>
        <time>2022-04-30T18:19:19.024Z</time>
      </trkpt>
      <trkpt lat="43.64623" lon="6.08107">
        <ele>462.044543</ele>
        <time>2022-04-30T18:19:25.801Z</time>
      </trkpt>
      <trkpt lat="43.64636" lon="6.08119">
        <ele>462.846632</ele>
        <time>2022-04-30T18:19:30.469Z</time>
      </trkpt>
      <trkpt lat="43.64673" lon="6.08132">
        <ele>464.795895</ele>
        <time>2022-04-30T18:19:44.088Z</time>
      </trkpt>
      <trkpt lat="43.6468" lon="6.08141">
        <ele>465.298973</ele>
        <time>2022-04-30T18:19:46.688Z</time>
      </trkpt>
      <trkpt lat="43.64682" lon="6.08153">
        <ele>465.725194</ele>
        <time>2022-04-30T18:19:51.910Z</time>
      </trkpt>
      <trkpt lat="43.64678" lon="6.08163">
        <ele>466.165359</ele>
        <time>2022-04-30T18:19:54.576Z</time>
      </trkpt>
      <trkpt lat="43.6467" lon="6.0817">
        <ele>466.671858</ele>
        <time>2022-04-30T18:19:57.194Z</time>
      </trkpt>
      <trkpt lat="43.64626" lon="6.08188">
        <ele>468.958082</ele>
        <time>2022-04-30T18:20:12.444Z</time>
      </trkpt>
      <trkpt lat="43.64505" lon="6.08287">
        <ele>475.010173</ele>
        <time>2022-04-30T18:20:57.561Z</time>
      </trkpt>
      <trkpt lat="43.64495" lon="6.08304">
        <ele>475.678088</ele>
        <time>2022-04-30T18:21:01.966Z</time>
      </trkpt>
      <trkpt lat="43.64492" lon="6.08323">
        <ele>476.300127</ele>
        <time>2022-04-30T18:21:06.337Z</time>
      </trkpt>
      <trkpt lat="43.64497" lon="6.08379">
        <ele>478.461691</ele>
        <time>2022-04-30T18:21:19.298Z</time>
      </trkpt>
      <trkpt lat="43.64503" lon="6.08404">
        <ele>479.482389</ele>
        <time>2022-04-30T18:21:25.512Z</time>
      </trkpt>
      <trkpt lat="43.64521" lon="6.08427">
        <ele>480.800752</ele>
        <time>2022-04-30T18:21:33.932Z</time>
      </trkpt>
      <trkpt lat="43.64675" lon="6.08495">
        <ele>489.855028</ele>
        <time>2022-04-30T18:22:38.649Z</time>
      </trkpt>
      <trkpt lat="43.64858" lon="6.08571">
        <ele>500.150918</ele>
        <time>2022-04-30T18:23:50.099Z</time>
      </trkpt>
      <trkpt lat="43.64905" lon="6.08574">
        <ele>502.343466</ele>
        <time>2022-04-30T18:24:03.785Z</time>
      </trkpt>
      <trkpt lat="43.64918" lon="6.08579">
        <ele>502.983742</ele>
        <time>2022-04-30T18:24:07.723Z</time>
      </trkpt>
      <trkpt lat="43.64921" lon="6.08587">
        <ele>503.274429</ele>
        <time>2022-04-30T18:24:09.846Z</time>
      </trkpt>
      <trkpt lat="43.64922" lon="6.08598">
        <ele>503.65033</ele>
        <time>2022-04-30T18:24:12.481Z</time>
      </trkpt>
      <trkpt lat="43.64912" lon="6.08613">
        <ele>504.357931</ele>
        <time>2022-04-30T18:24:17.099Z</time>
      </trkpt>
      <trkpt lat="43.64893" lon="6.08628">
        <ele>505.341244</ele>
        <time>2022-04-30T18:24:24.828Z</time>
      </trkpt>
      <trkpt lat="43.64828" lon="6.08714">
        <ele>508.963336</ele>
        <time>2022-04-30T18:24:52.324Z</time>
      </trkpt>
      <trkpt lat="43.64778" lon="6.0876">
        <ele>511.358452</ele>
        <time>2022-04-30T18:25:11.216Z</time>
      </trkpt>
      <trkpt lat="43.64755" lon="6.08777">
        <ele>512.414464</ele>
        <time>2022-04-30T18:25:18.915Z</time>
      </trkpt>
      <trkpt lat="43.64732" lon="6.08794">
        <ele>513.057297</ele>
        <time>2022-04-30T18:25:26.824Z</time>
      </trkpt>
      <trkpt lat="43.64711" lon="6.08827">
        <ele>513.80687</ele>
        <time>2022-04-30T18:25:35.932Z</time>
      </trkpt>
      <trkpt lat="43.64707" lon="6.08849">
        <ele>514.195134</ele>
        <time>2022-04-30T18:25:40.835Z</time>
      </trkpt>
      <trkpt lat="43.64711" lon="6.08879">
        <ele>514.71086</ele>
        <time>2022-04-30T18:25:46.760Z</time>
      </trkpt>
      <trkpt lat="43.65167" lon="6.1026">
        <ele>526.918561</ele>
        <time>2022-04-30T18:29:12.615Z</time>
      </trkpt>
      <trkpt lat="43.65359" lon="6.10844">
        <ele>534.496288</ele>
        <time>2022-04-30T18:30:53.623Z</time>
      </trkpt>
      <trkpt lat="43.65379" lon="6.10933">
        <ele>535.494532</ele>
        <time>2022-04-30T18:31:07.841Z</time>
      </trkpt>
      <trkpt lat="43.65395" lon="6.1107">
        <ele>536.677038</ele>
        <time>2022-04-30T18:31:27.791Z</time>
      </trkpt>
      <trkpt lat="43.65409" lon="6.11174">
        <ele>536.98211</ele>
        <time>2022-04-30T18:31:41.084Z</time>
      </trkpt>
      <trkpt lat="43.65424" lon="6.11243">
        <ele>537.189889</ele>
        <time>2022-04-30T18:31:49.030Z</time>
      </trkpt>
      <trkpt lat="43.65523" lon="6.11534">
        <ele>536.351473</ele>
        <time>2022-04-30T18:32:19.228Z</time>
      </trkpt>
      <trkpt lat="43.65595" lon="6.11784">
        <ele>536.320665</ele>
        <time>2022-04-30T18:32:49.368Z</time>
      </trkpt>
      <trkpt lat="43.65559" lon="6.11816">
        <ele>536.306167</ele>
        <time>2022-04-30T18:32:58.335Z</time>
      </trkpt>
      <trkpt lat="43.65515" lon="6.11883">
        <ele>536.283932</ele>
        <time>2022-04-30T18:33:11.322Z</time>
      </trkpt>
      <trkpt lat="43.65467" lon="6.11943">
        <ele>536.105406</ele>
        <time>2022-04-30T18:33:23.540Z</time>
      </trkpt>
      <trkpt lat="43.65454" lon="6.11982">
        <ele>535.965641</ele>
        <time>2022-04-30T18:33:29.287Z</time>
      </trkpt>
      <trkpt lat="43.65451" lon="6.12105">
        <ele>535.565729</ele>
        <time>2022-04-30T18:33:45.630Z</time>
      </trkpt>
      <trkpt lat="43.6545" lon="6.12139">
        <ele>535.459275</ele>
        <time>2022-04-30T18:33:50.246Z</time>
      </trkpt>
      <trkpt lat="43.6541" lon="6.12485">
        <ele>534.349421</ele>
        <time>2022-04-30T18:34:39.450Z</time>
      </trkpt>
      <trkpt lat="43.65404" lon="6.12637">
        <ele>533.378804</ele>
        <time>2022-04-30T18:34:58.041Z</time>
      </trkpt>
      <trkpt lat="43.654" lon="6.12686">
        <ele>532.687911</ele>
        <time>2022-04-30T18:35:03.947Z</time>
      </trkpt>
      <trkpt lat="43.65383" lon="6.12768">
        <ele>531.498685</ele>
        <time>2022-04-30T18:35:13.834Z</time>
      </trkpt>
      <trkpt lat="43.65333" lon="6.1286">
        <ele>529.946301</ele>
        <time>2022-04-30T18:35:26.563Z</time>
      </trkpt>
      <trkpt lat="43.65315" lon="6.12878">
        <ele>529.66807</ele>
        <time>2022-04-30T18:35:29.958Z</time>
      </trkpt>
      <trkpt lat="43.65288" lon="6.12884">
        <ele>529.324536</ele>
        <time>2022-04-30T18:35:34.296Z</time>
      </trkpt>
      <trkpt lat="43.65273" lon="6.1291">
        <ele>529.03571</ele>
        <time>2022-04-30T18:35:38.217Z</time>
      </trkpt>
      <trkpt lat="43.65261" lon="6.12943">
        <ele>528.70038</ele>
        <time>2022-04-30T18:35:42.824Z</time>
      </trkpt>
      <trkpt lat="43.65243" lon="6.12991">
        <ele>528.216736</ele>
        <time>2022-04-30T18:35:49.848Z</time>
      </trkpt>
      <trkpt lat="43.65219" lon="6.13055">
        <ele>527.893348</ele>
        <time>2022-04-30T18:35:59.905Z</time>
      </trkpt>
      <trkpt lat="43.65205" lon="6.13099">
        <ele>528.060173</ele>
        <time>2022-04-30T18:36:06.605Z</time>
      </trkpt>
      <trkpt lat="43.65169" lon="6.1321">
        <ele>528.485796</ele>
        <time>2022-04-30T18:36:25.513Z</time>
      </trkpt>
      <trkpt lat="43.65331" lon="6.13264">
        <ele>530.313453</ele>
        <time>2022-04-30T18:37:10.978Z</time>
      </trkpt>
      <trkpt lat="43.65418" lon="6.13271">
        <ele>530.517238</ele>
        <time>2022-04-30T18:37:30.593Z</time>
      </trkpt>
      <trkpt lat="43.65467" lon="6.13321">
        <ele>529.708137</ele>
        <time>2022-04-30T18:37:41.271Z</time>
      </trkpt>
      <trkpt lat="43.65465" lon="6.13326">
        <ele>529.65088</ele>
        <time>2022-04-30T18:37:41.924Z</time>
      </trkpt>
      <trkpt lat="43.6546" lon="6.13339">
        <ele>529.511105</ele>
        <time>2022-04-30T18:37:43.611Z</time>
      </trkpt>
      <trkpt lat="43.65445" lon="6.13373">
        <ele>529.12881</ele>
        <time>2022-04-30T18:37:48.325Z</time>
      </trkpt>
      <trkpt lat="43.65427" lon="6.13425">
        <ele>528.520698</ele>
        <time>2022-04-30T18:37:54.727Z</time>
      </trkpt>
      <trkpt lat="43.65395" lon="6.13509">
        <ele>525.900699</ele>
        <time>2022-04-30T18:38:04.310Z</time>
      </trkpt>
      <trkpt lat="43.65381" lon="6.1359">
        <ele>523.586064</ele>
        <time>2022-04-30T18:38:12.555Z</time>
      </trkpt>
      <trkpt lat="43.65298" lon="6.13816">
        <ele>517.09276</ele>
        <time>2022-04-30T18:38:38.744Z</time>
      </trkpt>
      <trkpt lat="43.6526" lon="6.13982">
        <ele>513.88156</ele>
        <time>2022-04-30T18:38:57.257Z</time>
      </trkpt>
      <trkpt lat="43.65252" lon="6.14029">
        <ele>513.167263</ele>
        <time>2022-04-30T18:39:02.827Z</time>
      </trkpt>
      <trkpt lat="43.65252" lon="6.14117">
        <ele>511.880497</ele>
        <time>2022-04-30T18:39:13.628Z</time>
      </trkpt>
      <trkpt lat="43.65229" lon="6.14226">
        <ele>512.049518</ele>
        <time>2022-04-30T18:39:30.191Z</time>
      </trkpt>
      <trkpt lat="43.65218" lon="6.14308">
        <ele>512.189691</ele>
        <time>2022-04-30T18:39:43.554Z</time>
      </trkpt>
      <trkpt lat="43.65216" lon="6.14475">
        <ele>512.591515</ele>
        <time>2022-04-30T18:40:12.361Z</time>
      </trkpt>
      <trkpt lat="43.65226" lon="6.14525">
        <ele>512.734781</ele>
        <time>2022-04-30T18:40:20.532Z</time>
      </trkpt>
      <trkpt lat="43.6524" lon="6.14559">
        <ele>512.842452</ele>
        <time>2022-04-30T18:40:26.158Z</time>
      </trkpt>
      <trkpt lat="43.6525" lon="6.14591">
        <ele>512.937895</ele>
        <time>2022-04-30T18:40:30.949Z</time>
      </trkpt>
      <trkpt lat="43.6525" lon="6.14636">
        <ele>512.868448</ele>
        <time>2022-04-30T18:40:37.034Z</time>
      </trkpt>
      <trkpt lat="43.652" lon="6.14805">
        <ele>512.391778</ele>
        <time>2022-04-30T18:40:55.668Z</time>
      </trkpt>
      <trkpt lat="43.652" lon="6.14846">
        <ele>512.241509</ele>
        <time>2022-04-30T18:40:59.490Z</time>
      </trkpt>
      <trkpt lat="43.6521" lon="6.14919">
        <ele>511.772168</ele>
        <time>2022-04-30T18:41:05.920Z</time>
      </trkpt>
      <trkpt lat="43.65208" lon="6.14955">
        <ele>511.539136</ele>
        <time>2022-04-30T18:41:09.197Z</time>
      </trkpt>
      <trkpt lat="43.65189" lon="6.15032">
        <ele>511.028454</ele>
        <time>2022-04-30T18:41:16.856Z</time>
      </trkpt>
      <trkpt lat="43.65159" lon="6.15153">
        <ele>509.991781</ele>
        <time>2022-04-30T18:41:27.931Z</time>
      </trkpt>
      <trkpt lat="43.65139" lon="6.15258">
        <ele>509.001145</ele>
        <time>2022-04-30T18:41:37.017Z</time>
      </trkpt>
      <trkpt lat="43.65136" lon="6.15298">
        <ele>508.637726</ele>
        <time>2022-04-30T18:41:40.464Z</time>
      </trkpt>
      <trkpt lat="43.65139" lon="6.15343">
        <ele>508.268034</ele>
        <time>2022-04-30T18:41:44.376Z</time>
      </trkpt>
      <trkpt lat="43.65156" lon="6.1547">
        <ele>507.263549</ele>
        <time>2022-04-30T18:41:55.872Z</time>
      </trkpt>
      <trkpt lat="43.65153" lon="6.15516">
        <ele>506.900174</ele>
        <time>2022-04-30T18:41:59.956Z</time>
      </trkpt>
      <trkpt lat="43.65105" lon="6.157">
        <ele>505.204844</ele>
        <time>2022-04-30T18:42:16.706Z</time>
      </trkpt>
      <trkpt lat="43.65077" lon="6.15801">
        <ele>504.318091</ele>
        <time>2022-04-30T18:42:25.701Z</time>
      </trkpt>
      <trkpt lat="43.65045" lon="6.15871">
        <ele>504.302449</ele>
        <time>2022-04-30T18:42:33.318Z</time>
      </trkpt>
      <trkpt lat="43.65035" lon="6.15909">
        <ele>504.294918</ele>
        <time>2022-04-30T18:42:37.858Z</time>
      </trkpt>
      <trkpt lat="43.65032" lon="6.15951">
        <ele>504.286814</ele>
        <time>2022-04-30T18:42:43.027Z</time>
      </trkpt>
      <trkpt lat="43.65036" lon="6.16031">
        <ele>504.32239</ele>
        <time>2022-04-30T18:42:52.707Z</time>
      </trkpt>
      <trkpt lat="43.65032" lon="6.16136">
        <ele>505.146976</ele>
        <time>2022-04-30T18:43:08.559Z</time>
      </trkpt>
      <trkpt lat="43.6502" lon="6.1625">
        <ele>506.054727</ele>
        <time>2022-04-30T18:43:25.683Z</time>
      </trkpt>
      <trkpt lat="43.65019" lon="6.16314">
        <ele>506.011131</ele>
        <time>2022-04-30T18:43:33.407Z</time>
      </trkpt>
      <trkpt lat="43.6502" lon="6.16382">
        <ele>505.651678</ele>
        <time>2022-04-30T18:43:39.898Z</time>
      </trkpt>
      <trkpt lat="43.65021" lon="6.16691">
        <ele>503.648603</ele>
        <time>2022-04-30T18:44:05.802Z</time>
      </trkpt>
      <trkpt lat="43.65069" lon="6.1689">
        <ele>502.580334</ele>
        <time>2022-04-30T18:44:27.401Z</time>
      </trkpt>
      <trkpt lat="43.6512" lon="6.1704">
        <ele>502.24048</ele>
        <time>2022-04-30T18:44:42.188Z</time>
      </trkpt>
      <trkpt lat="43.65123" lon="6.17075">
        <ele>502.307854</ele>
        <time>2022-04-30T18:44:45.521Z</time>
      </trkpt>
      <trkpt lat="43.65117" lon="6.17121">
        <ele>502.398209</ele>
        <time>2022-04-30T18:44:50.185Z</time>
      </trkpt>
      <trkpt lat="43.65105" lon="6.1715">
        <ele>502.463784</ele>
        <time>2022-04-30T18:44:53.832Z</time>
      </trkpt>
      <trkpt lat="43.65085" lon="6.17178">
        <ele>502.539227</ele>
        <time>2022-04-30T18:44:58.283Z</time>
      </trkpt>
      <trkpt lat="43.6511" lon="6.17153">
        <ele>502.620562</ele>
        <time>2022-04-30T18:45:04.647Z</time>
      </trkpt>
      <trkpt lat="43.65119" lon="6.17133">
        <ele>503.610583</ele>
        <time>2022-04-30T18:45:08.730Z</time>
      </trkpt>
      <trkpt lat="43.65132" lon="6.17124">
        <ele>504.519496</ele>
        <time>2022-04-30T18:45:12.533Z</time>
      </trkpt>
      <trkpt lat="43.65132" lon="6.17124">
        <ele>504.519496</ele>
        <time>2022-04-30T18:45:12.589Z</time>
      </trkpt>
      <trkpt lat="43.65142" lon="6.17121">
        <ele>505.153689</ele>
        <time>2022-04-30T18:45:15.221Z</time>
      </trkpt>
      <trkpt lat="43.65192" lon="6.1711">
        <ele>508.284531</ele>
        <time>2022-04-30T18:45:33.357Z</time>
      </trkpt>
      <trkpt lat="43.65178" lon="6.17072">
        <ele>510.187285</ele>
        <time>2022-04-30T18:45:47.047Z</time>
      </trkpt>
      <trkpt lat="43.65327" lon="6.16913">
        <ele>526.587719</ele>
        <time>2022-04-30T18:47:28.119Z</time>
      </trkpt>
      <trkpt lat="43.65337" lon="6.16897">
        <ele>528.014619</ele>
        <time>2022-04-30T18:47:36.512Z</time>
      </trkpt>
      <trkpt lat="43.65366" lon="6.16806">
        <ele>535.246988</ele>
        <time>2022-04-30T18:48:16.689Z</time>
      </trkpt>
      <trkpt lat="43.65363" lon="6.16791">
        <ele>536.381582</ele>
        <time>2022-04-30T18:48:22.585Z</time>
      </trkpt>
      <trkpt lat="43.65322" lon="6.16771">
        <ele>540.756816</ele>
        <time>2022-04-30T18:48:45.772Z</time>
      </trkpt>
      <trkpt lat="43.65307" lon="6.16764">
        <ele>542.395242</ele>
        <time>2022-04-30T18:48:54.507Z</time>
      </trkpt>
      <trkpt lat="43.65296" lon="6.16758">
        <ele>543.608392</ele>
        <time>2022-04-30T18:49:01.918Z</time>
      </trkpt>
      <trkpt lat="43.65298" lon="6.16728">
        <ele>545.818559</ele>
        <time>2022-04-30T18:49:14.960Z</time>
      </trkpt>
      <trkpt lat="43.65254" lon="6.16695">
        <ele>550.901391</ele>
        <time>2022-04-30T18:49:47.234Z</time>
      </trkpt>
      <trkpt lat="43.65252" lon="6.16689">
        <ele>551.446631</ele>
        <time>2022-04-30T18:49:50.033Z</time>
      </trkpt>
      <trkpt lat="43.65256" lon="6.16682">
        <ele>552.095285</ele>
        <time>2022-04-30T18:49:54.547Z</time>
      </trkpt>
      <trkpt lat="43.6527" lon="6.1669">
        <ele>553.679787</ele>
        <time>2022-04-30T18:50:04.688Z</time>
      </trkpt>
      <trkpt lat="43.65275" lon="6.16686">
        <ele>554.299136</ele>
        <time>2022-04-30T18:50:08.978Z</time>
      </trkpt>
      <trkpt lat="43.65316" lon="6.16695">
        <ele>558.684069</ele>
        <time>2022-04-30T18:50:32.698Z</time>
      </trkpt>
      <trkpt lat="43.65326" lon="6.16688">
        <ele>559.803103</ele>
        <time>2022-04-30T18:50:38.320Z</time>
      </trkpt>
      <trkpt lat="43.65327" lon="6.16678">
        <ele>560.585051</ele>
        <time>2022-04-30T18:50:42.597Z</time>
      </trkpt>
      <trkpt lat="43.65342" lon="6.16664">
        <ele>562.440084</ele>
        <time>2022-04-30T18:50:52.089Z</time>
      </trkpt>
      <trkpt lat="43.65381" lon="6.16652">
        <ele>566.578152</ele>
        <time>2022-04-30T18:51:14.282Z</time>
      </trkpt>
      <trkpt lat="43.65388" lon="6.16643">
        <ele>567.665715</ele>
        <time>2022-04-30T18:51:21.196Z</time>
      </trkpt>
      <trkpt lat="43.65399" lon="6.16626">
        <ele>569.141558</ele>
        <time>2022-04-30T18:51:31.570Z</time>
      </trkpt>
      <trkpt lat="43.65408" lon="6.16594">
        <ele>570.878397</ele>
        <time>2022-04-30T18:51:44.639Z</time>
      </trkpt>
      <trkpt lat="43.65431" lon="6.16434">
        <ele>579.149502</ele>
        <time>2022-04-30T18:52:34.825Z</time>
      </trkpt>
      <trkpt lat="43.65443" lon="6.16402">
        <ele>580.957058</ele>
        <time>2022-04-30T18:52:43.031Z</time>
      </trkpt>
      <trkpt lat="43.6545" lon="6.16392">
        <ele>581.422955</ele>
        <time>2022-04-30T18:52:46.415Z</time>
      </trkpt>
      <trkpt lat="43.65457" lon="6.16381">
        <ele>581.66666</ele>
        <time>2022-04-30T18:52:49.371Z</time>
      </trkpt>
      <trkpt lat="43.65478" lon="6.16343">
        <ele>582.479564</ele>
        <time>2022-04-30T18:52:58.506Z</time>
      </trkpt>
      <trkpt lat="43.65531" lon="6.16279">
        <ele>584.154108</ele>
        <time>2022-04-30T18:53:14.125Z</time>
      </trkpt>
      <trkpt lat="43.65548" lon="6.16266">
        <ele>584.604721</ele>
        <time>2022-04-30T18:53:17.704Z</time>
      </trkpt>
      <trkpt lat="43.65572" lon="6.16253">
        <ele>585.232523</ele>
        <time>2022-04-30T18:53:22.987Z</time>
      </trkpt>
      <trkpt lat="43.6559" lon="6.16273">
        <ele>585.685725</ele>
        <time>2022-04-30T18:53:27.373Z</time>
      </trkpt>
      <trkpt lat="43.65599" lon="6.16257">
        <ele>585.902937</ele>
        <time>2022-04-30T18:53:30.803Z</time>
      </trkpt>
      <trkpt lat="43.65628" lon="6.1623">
        <ele>586.418974</ele>
        <time>2022-04-30T18:53:38.978Z</time>
      </trkpt>
      <trkpt lat="43.65766" lon="6.16163">
        <ele>588.036765</ele>
        <time>2022-04-30T18:54:09.588Z</time>
      </trkpt>
      <trkpt lat="43.65845" lon="6.16128">
        <ele>587.504329</ele>
        <time>2022-04-30T18:54:20.759Z</time>
      </trkpt>
      <trkpt lat="43.65932" lon="6.16086">
        <ele>586.839279</ele>
        <time>2022-04-30T18:54:30.903Z</time>
      </trkpt>
      <trkpt lat="43.65958" lon="6.16068">
        <ele>586.558087</ele>
        <time>2022-04-30T18:54:33.965Z</time>
      </trkpt>
      <trkpt lat="43.66034" lon="6.15983">
        <ele>585.59168</ele>
        <time>2022-04-30T18:54:45.593Z</time>
      </trkpt>
      <trkpt lat="43.66048" lon="6.15974">
        <ele>585.443881</ele>
        <time>2022-04-30T18:54:47.471Z</time>
      </trkpt>
      <trkpt lat="43.66061" lon="6.15968">
        <ele>585.303244</ele>
        <time>2022-04-30T18:54:50.285Z</time>
      </trkpt>
      <trkpt lat="43.66166" lon="6.15964">
        <ele>587.568544</ele>
        <time>2022-04-30T18:55:13.277Z</time>
      </trkpt>
      <trkpt lat="43.6633" lon="6.15953">
        <ele>591.998228</ele>
        <time>2022-04-30T18:56:00.136Z</time>
      </trkpt>
      <trkpt lat="43.6643" lon="6.15939">
        <ele>595.087762</ele>
        <time>2022-04-30T18:56:26.764Z</time>
      </trkpt>
      <trkpt lat="43.66485" lon="6.15923">
        <ele>596.455649</ele>
        <time>2022-04-30T18:56:40.795Z</time>
      </trkpt>
      <trkpt lat="43.66621" lon="6.15866">
        <ele>599.838699</ele>
        <time>2022-04-30T18:57:14.951Z</time>
      </trkpt>
      <trkpt lat="43.66755" lon="6.15872">
        <ele>602.703822</ele>
        <time>2022-04-30T18:57:46.631Z</time>
      </trkpt>
      <trkpt lat="43.66894" lon="6.15886">
        <ele>605.191897</ele>
        <time>2022-04-30T18:58:17.491Z</time>
      </trkpt>
      <trkpt lat="43.67011" lon="6.1592">
        <ele>606.816816</ele>
        <time>2022-04-30T18:58:41.986Z</time>
      </trkpt>
      <trkpt lat="43.67116" lon="6.15942">
        <ele>607.86514</ele>
        <time>2022-04-30T18:59:01.620Z</time>
      </trkpt>
      <trkpt lat="43.67325" lon="6.15952">
        <ele>608.843646</ele>
        <time>2022-04-30T18:59:36.331Z</time>
      </trkpt>
      <trkpt lat="43.67371" lon="6.15954">
        <ele>608.820848</ele>
        <time>2022-04-30T18:59:43.134Z</time>
      </trkpt>
      <trkpt lat="43.67621" lon="6.15935">
        <ele>608.577778</ele>
        <time>2022-04-30T19:00:18.646Z</time>
      </trkpt>
      <trkpt lat="43.67825" lon="6.15976">
        <ele>608.607591</ele>
        <time>2022-04-30T19:00:49.095Z</time>
      </trkpt>
      <trkpt lat="43.67863" lon="6.15976">
        <ele>608.716893</ele>
        <time>2022-04-30T19:00:55.150Z</time>
      </trkpt>
      <trkpt lat="43.67888" lon="6.15967">
        <ele>608.876763</ele>
        <time>2022-04-30T19:00:59.580Z</time>
      </trkpt>
      <trkpt lat="43.67905" lon="6.15962">
        <ele>608.984107</ele>
        <time>2022-04-30T19:01:02.377Z</time>
      </trkpt>
      <trkpt lat="43.67941" lon="6.15936">
        <ele>609.22939</ele>
        <time>2022-04-30T19:01:09.342Z</time>
      </trkpt>
      <trkpt lat="43.68024" lon="6.15862">
        <ele>609.885073</ele>
        <time>2022-04-30T19:01:27.513Z</time>
      </trkpt>
      <trkpt lat="43.68065" lon="6.15829">
        <ele>610.283545</ele>
        <time>2022-04-30T19:01:36.126Z</time>
      </trkpt>
      <trkpt lat="43.681" lon="6.15809">
        <ele>610.60036</ele>
        <time>2022-04-30T19:01:43.158Z</time>
      </trkpt>
      <trkpt lat="43.68307" lon="6.15758">
        <ele>612.03321</ele>
        <time>2022-04-30T19:02:20.482Z</time>
      </trkpt>
      <trkpt lat="43.68412" lon="6.15723">
        <ele>612.456718</ele>
        <time>2022-04-30T19:02:37.722Z</time>
      </trkpt>
      <trkpt lat="43.68444" lon="6.15711">
        <ele>612.537834</ele>
        <time>2022-04-30T19:02:42.960Z</time>
      </trkpt>
      <trkpt lat="43.68484" lon="6.15677">
        <ele>612.653278</ele>
        <time>2022-04-30T19:02:50.087Z</time>
      </trkpt>
      <trkpt lat="43.68557" lon="6.15648">
        <ele>612.999657</ele>
        <time>2022-04-30T19:03:01.960Z</time>
      </trkpt>
      <trkpt lat="43.68649" lon="6.15612">
        <ele>613.632553</ele>
        <time>2022-04-30T19:03:18.588Z</time>
      </trkpt>
      <trkpt lat="43.68803" lon="6.15511">
        <ele>615.316111</ele>
        <time>2022-04-30T19:03:51.550Z</time>
      </trkpt>
      <trkpt lat="43.6889" lon="6.15447">
        <ele>616.478563</ele>
        <time>2022-04-30T19:04:10.660Z</time>
      </trkpt>
      <trkpt lat="43.6898" lon="6.15396">
        <ele>617.722621</ele>
        <time>2022-04-30T19:04:29.746Z</time>
      </trkpt>
      <trkpt lat="43.69023" lon="6.1539">
        <ele>618.298214</ele>
        <time>2022-04-30T19:04:38.516Z</time>
      </trkpt>
      <trkpt lat="43.69086" lon="6.15407">
        <ele>619.608386</ele>
        <time>2022-04-30T19:04:52.536Z</time>
      </trkpt>
      <trkpt lat="43.69112" lon="6.15406">
        <ele>620.135078</ele>
        <time>2022-04-30T19:04:58.518Z</time>
      </trkpt>
      <trkpt lat="43.69286" lon="6.15355">
        <ele>623.474729</ele>
        <time>2022-04-30T19:05:41.926Z</time>
      </trkpt>
      <trkpt lat="43.69382" lon="6.15351">
        <ele>624.956279</ele>
        <time>2022-04-30T19:06:01.413Z</time>
      </trkpt>
      <trkpt lat="43.69441" lon="6.1534">
        <ele>624.654824</ele>
        <time>2022-04-30T19:06:09.746Z</time>
      </trkpt>
      <trkpt lat="43.69482" lon="6.15308">
        <ele>624.417801</ele>
        <time>2022-04-30T19:06:15.640Z</time>
      </trkpt>
      <trkpt lat="43.69518" lon="6.15272">
        <ele>624.192084</ele>
        <time>2022-04-30T19:06:20.887Z</time>
      </trkpt>
      <trkpt lat="43.69568" lon="6.15211">
        <ele>624.014749</ele>
        <time>2022-04-30T19:06:28.853Z</time>
      </trkpt>
      <trkpt lat="43.69601" lon="6.15151">
        <ele>623.931229</ele>
        <time>2022-04-30T19:06:35.695Z</time>
      </trkpt>
      <trkpt lat="43.69618" lon="6.1513">
        <ele>623.895772</ele>
        <time>2022-04-30T19:06:39.015Z</time>
      </trkpt>
      <trkpt lat="43.69673" lon="6.151">
        <ele>623.85333</ele>
        <time>2022-04-30T19:06:50.007Z</time>
      </trkpt>
      <trkpt lat="43.69742" lon="6.15087">
        <ele>625.376723</ele>
        <time>2022-04-30T19:07:05.081Z</time>
      </trkpt>
      <trkpt lat="43.69975" lon="6.15049">
        <ele>631.69766</ele>
        <time>2022-04-30T19:08:05.424Z</time>
      </trkpt>
      <trkpt lat="43.70036" lon="6.15032">
        <ele>633.643103</ele>
        <time>2022-04-30T19:08:24.126Z</time>
      </trkpt>
      <trkpt lat="43.70064" lon="6.15022">
        <ele>634.586798</ele>
        <time>2022-04-30T19:08:33.255Z</time>
      </trkpt>
      <trkpt lat="43.70101" lon="6.15">
        <ele>635.922157</ele>
        <time>2022-04-30T19:08:46.016Z</time>
      </trkpt>
      <trkpt lat="43.70143" lon="6.14962">
        <ele>637.571759</ele>
        <time>2022-04-30T19:09:00.280Z</time>
      </trkpt>
      <trkpt lat="43.70177" lon="6.14921">
        <ele>639.045025</ele>
        <time>2022-04-30T19:09:12.202Z</time>
      </trkpt>
      <trkpt lat="43.70198" lon="6.14872">
        <ele>639.226938</ele>
        <time>2022-04-30T19:09:21.447Z</time>
      </trkpt>
      <trkpt lat="43.70236" lon="6.14815">
        <ele>639.180462</ele>
        <time>2022-04-30T19:09:29.788Z</time>
      </trkpt>
      <trkpt lat="43.70309" lon="6.14781">
        <ele>639.116232</ele>
        <time>2022-04-30T19:09:39.193Z</time>
      </trkpt>
      <trkpt lat="43.70369" lon="6.14727">
        <ele>638.044542</ele>
        <time>2022-04-30T19:09:47.141Z</time>
      </trkpt>
      <trkpt lat="43.70387" lon="6.14702">
        <ele>637.593691</ele>
        <time>2022-04-30T19:09:49.932Z</time>
      </trkpt>
      <trkpt lat="43.70412" lon="6.14623">
        <ele>636.488951</ele>
        <time>2022-04-30T19:09:56.621Z</time>
      </trkpt>
      <trkpt lat="43.70428" lon="6.14591">
        <ele>635.976266</ele>
        <time>2022-04-30T19:09:59.764Z</time>
      </trkpt>
      <trkpt lat="43.70459" lon="6.14561">
        <ele>636.010545</ele>
        <time>2022-04-30T19:10:04.133Z</time>
      </trkpt>
      <trkpt lat="43.70495" lon="6.14539">
        <ele>636.141147</ele>
        <time>2022-04-30T19:10:09.504Z</time>
      </trkpt>
      <trkpt lat="43.70524" lon="6.14503">
        <ele>636.272714</ele>
        <time>2022-04-30T19:10:16.378Z</time>
      </trkpt>
      <trkpt lat="43.70542" lon="6.14457">
        <ele>636.398171</ele>
        <time>2022-04-30T19:10:23.922Z</time>
      </trkpt>
      <trkpt lat="43.70556" lon="6.14301">
        <ele>638.46996</ele>
        <time>2022-04-30T19:10:50.145Z</time>
      </trkpt>
      <trkpt lat="43.7057" lon="6.14233">
        <ele>639.693294</ele>
        <time>2022-04-30T19:11:03.287Z</time>
      </trkpt>
      <trkpt lat="43.70581" lon="6.14214">
        <ele>640.088418</ele>
        <time>2022-04-30T19:11:07.527Z</time>
      </trkpt>
      <trkpt lat="43.7059" lon="6.14213">
        <ele>640.316794</ele>
        <time>2022-04-30T19:11:10.140Z</time>
      </trkpt>
      <trkpt lat="43.70595" lon="6.14223">
        <ele>640.515714</ele>
        <time>2022-04-30T19:11:12.287Z</time>
      </trkpt>
      <trkpt lat="43.70592" lon="6.14277">
        <ele>641.726586</ele>
        <time>2022-04-30T19:11:22.473Z</time>
      </trkpt>
      <trkpt lat="43.70603" lon="6.14325">
        <ele>642.903856</ele>
        <time>2022-04-30T19:11:31.658Z</time>
      </trkpt>
      <trkpt lat="43.70614" lon="6.14349">
        <ele>643.590475</ele>
        <time>2022-04-30T19:11:37.063Z</time>
      </trkpt>
      <trkpt lat="43.70634" lon="6.14363">
        <ele>644.329554</ele>
        <time>2022-04-30T19:11:43.377Z</time>
      </trkpt>
      <trkpt lat="43.70757" lon="6.14323">
        <ele>648.412964</ele>
        <time>2022-04-30T19:12:21.717Z</time>
      </trkpt>
      <trkpt lat="43.70788" lon="6.14309">
        <ele>649.447494</ele>
        <time>2022-04-30T19:12:31.820Z</time>
      </trkpt>
      <trkpt lat="43.70843" lon="6.14312">
        <ele>651.200456</ele>
        <time>2022-04-30T19:12:47.533Z</time>
      </trkpt>
      <trkpt lat="43.70885" lon="6.14308">
        <ele>652.34667</ele>
        <time>2022-04-30T19:12:57.378Z</time>
      </trkpt>
      <trkpt lat="43.70906" lon="6.14323">
        <ele>652.126412</ele>
        <time>2022-04-30T19:13:02.309Z</time>
      </trkpt>
      <trkpt lat="43.70929" lon="6.14361">
        <ele>651.808973</ele>
        <time>2022-04-30T19:13:08.392Z</time>
      </trkpt>
      <trkpt lat="43.7096" lon="6.14434">
        <ele>651.255912</ele>
        <time>2022-04-30T19:13:15.347Z</time>
      </trkpt>
      <trkpt lat="43.70976" lon="6.14448">
        <ele>651.084777</ele>
        <time>2022-04-30T19:13:17.293Z</time>
      </trkpt>
      <trkpt lat="43.70989" lon="6.14443">
        <ele>650.96343</ele>
        <time>2022-04-30T19:13:18.637Z</time>
      </trkpt>
      <trkpt lat="43.71017" lon="6.14382">
        <ele>650.084571</ele>
        <time>2022-04-30T19:13:24.012Z</time>
      </trkpt>
      <trkpt lat="43.71091" lon="6.14292">
        <ele>647.834181</ele>
        <time>2022-04-30T19:13:34.316Z</time>
      </trkpt>
      <trkpt lat="43.7115" lon="6.14213">
        <ele>646.90882</ele>
        <time>2022-04-30T19:13:43.410Z</time>
      </trkpt>
      <trkpt lat="43.71254" lon="6.14112">
        <ele>647.968583</ele>
        <time>2022-04-30T19:14:09.459Z</time>
      </trkpt>
      <trkpt lat="43.71268" lon="6.14103">
        <ele>648.102539</ele>
        <time>2022-04-30T19:14:13.359Z</time>
      </trkpt>
      <trkpt lat="43.71346" lon="6.14071">
        <ele>649.08627</ele>
        <time>2022-04-30T19:14:33.099Z</time>
      </trkpt>
      <trkpt lat="43.71392" lon="6.14052">
        <ele>649.684508</ele>
        <time>2022-04-30T19:14:43.693Z</time>
      </trkpt>
      <trkpt lat="43.71433" lon="6.14032">
        <ele>650.227997</ele>
        <time>2022-04-30T19:14:51.614Z</time>
      </trkpt>
      <trkpt lat="43.71469" lon="6.13995">
        <ele>649.302334</ele>
        <time>2022-04-30T19:14:57.061Z</time>
      </trkpt>
      <trkpt lat="43.7149" lon="6.13964">
        <ele>648.231733</ele>
        <time>2022-04-30T19:15:00.207Z</time>
      </trkpt>
      <trkpt lat="43.71518" lon="6.13924">
        <ele>646.794319</ele>
        <time>2022-04-30T19:15:04.270Z</time>
      </trkpt>
      <trkpt lat="43.71572" lon="6.13887">
        <ele>644.657884</ele>
        <time>2022-04-30T19:15:10.093Z</time>
      </trkpt>
      <trkpt lat="43.716" lon="6.1388">
        <ele>643.12065</ele>
        <time>2022-04-30T19:15:12.708Z</time>
      </trkpt>
      <trkpt lat="43.7162" lon="6.13867">
        <ele>641.355124</ele>
        <time>2022-04-30T19:15:14.619Z</time>
      </trkpt>
      <trkpt lat="43.71637" lon="6.13838">
        <ele>639.129418</ele>
        <time>2022-04-30T19:15:17.020Z</time>
      </trkpt>
      <trkpt lat="43.71691" lon="6.13787">
        <ele>633.797062</ele>
        <time>2022-04-30T19:15:22.687Z</time>
      </trkpt>
      <trkpt lat="43.71707" lon="6.13753">
        <ele>631.36615</ele>
        <time>2022-04-30T19:15:25.269Z</time>
      </trkpt>
      <trkpt lat="43.71705" lon="6.13732">
        <ele>630.142432</ele>
        <time>2022-04-30T19:15:26.561Z</time>
      </trkpt>
      <trkpt lat="43.71675" lon="6.13659">
        <ele>626.886466</ele>
        <time>2022-04-30T19:15:31.885Z</time>
      </trkpt>
      <trkpt lat="43.71668" lon="6.13643">
        <ele>626.239773</ele>
        <time>2022-04-30T19:15:33.073Z</time>
      </trkpt>
      <trkpt lat="43.7164" lon="6.13578">
        <ele>623.610554</ele>
        <time>2022-04-30T19:15:38.083Z</time>
      </trkpt>
      <trkpt lat="43.71625" lon="6.13539">
        <ele>622.085756</ele>
        <time>2022-04-30T19:15:41.450Z</time>
      </trkpt>
      <trkpt lat="43.71608" lon="6.13498">
        <ele>620.920215</ele>
        <time>2022-04-30T19:15:47.156Z</time>
      </trkpt>
      <trkpt lat="43.71602" lon="6.13476">
        <ele>621.717553</ele>
        <time>2022-04-30T19:15:52.381Z</time>
      </trkpt>
      <trkpt lat="43.71602" lon="6.13427">
        <ele>623.35602</ele>
        <time>2022-04-30T19:16:03.906Z</time>
      </trkpt>
      <trkpt lat="43.71604" lon="6.13418">
        <ele>623.668909</ele>
        <time>2022-04-30T19:16:05.763Z</time>
      </trkpt>
      <trkpt lat="43.71604" lon="6.13414">
        <ele>623.792697</ele>
        <time>2022-04-30T19:16:06.498Z</time>
      </trkpt>
      <trkpt lat="43.71609" lon="6.13405">
        <ele>624.15399</ele>
        <time>2022-04-30T19:16:08.962Z</time>
      </trkpt>
      <trkpt lat="43.71618" lon="6.13389">
        <ele>624.833311</ele>
        <time>2022-04-30T19:16:15.707Z</time>
      </trkpt>
      <trkpt lat="43.71626" lon="6.13389">
        <ele>625.223079</ele>
        <time>2022-04-30T19:16:18.082Z</time>
      </trkpt>
      <trkpt lat="43.71675" lon="6.13415">
        <ele>627.66321</ele>
        <time>2022-04-30T19:16:40.567Z</time>
      </trkpt>
      <trkpt lat="43.71694" lon="6.13426">
        <ele>628.579071</ele>
        <time>2022-04-30T19:16:48.803Z</time>
      </trkpt>
      <trkpt lat="43.71714" lon="6.13436">
        <ele>629.056727</ele>
        <time>2022-04-30T19:16:57.899Z</time>
      </trkpt>
      <trkpt lat="43.71732" lon="6.13453">
        <ele>629.101961</ele>
        <time>2022-04-30T19:17:05.171Z</time>
      </trkpt>
      <trkpt lat="43.71755" lon="6.13481">
        <ele>629.166519</ele>
        <time>2022-04-30T19:17:15.134Z</time>
      </trkpt>
      <trkpt lat="43.7177" lon="6.13503">
        <ele>629.214767</ele>
        <time>2022-04-30T19:17:19.480Z</time>
      </trkpt>
      <trkpt lat="43.71787" lon="6.13519">
        <ele>629.257122</ele>
        <time>2022-04-30T19:17:22.288Z</time>
      </trkpt>
      <trkpt lat="43.71841" lon="6.13542">
        <ele>629.3769</ele>
        <time>2022-04-30T19:17:28.024Z</time>
      </trkpt>
      <trkpt lat="43.7186" lon="6.13533">
        <ele>629.174019</ele>
        <time>2022-04-30T19:17:29.877Z</time>
      </trkpt>
      <trkpt lat="43.71864" lon="6.13521">
        <ele>628.488485</ele>
        <time>2022-04-30T19:17:30.768Z</time>
      </trkpt>
      <trkpt lat="43.71885" lon="6.1326">
        <ele>615.804301</ele>
        <time>2022-04-30T19:17:47.619Z</time>
      </trkpt>
      <trkpt lat="43.71862" lon="6.13163">
        <ele>612.041318</ele>
        <time>2022-04-30T19:17:54.476Z</time>
      </trkpt>
      <trkpt lat="43.71867" lon="6.13144">
        <ele>611.297369</ele>
        <time>2022-04-30T19:17:55.898Z</time>
      </trkpt>
      <trkpt lat="43.71879" lon="6.13139">
        <ele>610.656642</ele>
        <time>2022-04-30T19:17:57.091Z</time>
      </trkpt>
      <trkpt lat="43.71899" lon="6.13142">
        <ele>609.634051</ele>
        <time>2022-04-30T19:17:59.044Z</time>
      </trkpt>
      <trkpt lat="43.72002" lon="6.13146">
        <ele>606.204629</ele>
        <time>2022-04-30T19:18:09.679Z</time>
      </trkpt>
      <trkpt lat="43.72026" lon="6.13136">
        <ele>605.607746</ele>
        <time>2022-04-30T19:18:12.371Z</time>
      </trkpt>
      <trkpt lat="43.72036" lon="6.13111">
        <ele>605.093118</ele>
        <time>2022-04-30T19:18:14.582Z</time>
      </trkpt>
      <trkpt lat="43.72029" lon="6.13034">
        <ele>603.729758</ele>
        <time>2022-04-30T19:18:20.474Z</time>
      </trkpt>
      <trkpt lat="43.72032" lon="6.13006">
        <ele>603.530584</ele>
        <time>2022-04-30T19:18:22.813Z</time>
      </trkpt>
      <trkpt lat="43.72045" lon="6.12986">
        <ele>603.642096</ele>
        <time>2022-04-30T19:18:25.010Z</time>
      </trkpt>
      <trkpt lat="43.72127" lon="6.12952">
        <ele>604.145245</ele>
        <time>2022-04-30T19:18:39.161Z</time>
      </trkpt>
      <trkpt lat="43.72142" lon="6.1293">
        <ele>604.268585</ele>
        <time>2022-04-30T19:18:44.108Z</time>
      </trkpt>
      <trkpt lat="43.72155" lon="6.12896">
        <ele>604.433731</ele>
        <time>2022-04-30T19:18:50.973Z</time>
      </trkpt>
      <trkpt lat="43.72186" lon="6.12868">
        <ele>604.900919</ele>
        <time>2022-04-30T19:18:59.939Z</time>
      </trkpt>
      <trkpt lat="43.72207" lon="6.1286">
        <ele>605.287154</ele>
        <time>2022-04-30T19:19:05.312Z</time>
      </trkpt>
      <trkpt lat="43.72236" lon="6.1287">
        <ele>605.815604</ele>
        <time>2022-04-30T19:19:12.907Z</time>
      </trkpt>
      <trkpt lat="43.72261" lon="6.12894">
        <ele>606.350084</ele>
        <time>2022-04-30T19:19:20.115Z</time>
      </trkpt>
      <trkpt lat="43.72277" lon="6.1292">
        <ele>606.790438</ele>
        <time>2022-04-30T19:19:25.638Z</time>
      </trkpt>
      <trkpt lat="43.72315" lon="6.13039">
        <ele>606.688207</ele>
        <time>2022-04-30T19:19:43.289Z</time>
      </trkpt>
      <trkpt lat="43.72326" lon="6.13057">
        <ele>606.279139</ele>
        <time>2022-04-30T19:19:45.322Z</time>
      </trkpt>
      <trkpt lat="43.72346" lon="6.13061">
        <ele>605.813099</ele>
        <time>2022-04-30T19:19:47.475Z</time>
      </trkpt>
      <trkpt lat="43.72362" lon="6.13051">
        <ele>605.401018</ele>
        <time>2022-04-30T19:19:49.297Z</time>
      </trkpt>
      <trkpt lat="43.72397" lon="6.13013">
        <ele>604.364037</ele>
        <time>2022-04-30T19:19:53.711Z</time>
      </trkpt>
      <trkpt lat="43.72482" lon="6.12969">
        <ele>600.998314</ele>
        <time>2022-04-30T19:20:02.238Z</time>
      </trkpt>
      <trkpt lat="43.72501" lon="6.12953">
        <ele>599.906446</ele>
        <time>2022-04-30T19:20:04.407Z</time>
      </trkpt>
      <trkpt lat="43.72512" lon="6.12934">
        <ele>599.107027</ele>
        <time>2022-04-30T19:20:05.989Z</time>
      </trkpt>
      <trkpt lat="43.72509" lon="6.12802">
        <ele>594.723293</ele>
        <time>2022-04-30T19:20:15.080Z</time>
      </trkpt>
      <trkpt lat="43.72526" lon="6.12757">
        <ele>593.579509</ele>
        <time>2022-04-30T19:20:18.644Z</time>
      </trkpt>
      <trkpt lat="43.72568" lon="6.127">
        <ele>591.682307</ele>
        <time>2022-04-30T19:20:24.665Z</time>
      </trkpt>
      <trkpt lat="43.72586" lon="6.12666">
        <ele>590.734126</ele>
        <time>2022-04-30T19:20:27.781Z</time>
      </trkpt>
      <trkpt lat="43.72598" lon="6.12588">
        <ele>589.026556</ele>
        <time>2022-04-30T19:20:33.957Z</time>
      </trkpt>
      <trkpt lat="43.72604" lon="6.12572">
        <ele>588.729971</ele>
        <time>2022-04-30T19:20:35.357Z</time>
      </trkpt>
      <trkpt lat="43.7267" lon="6.12524">
        <ele>587.11911</ele>
        <time>2022-04-30T19:20:43.471Z</time>
      </trkpt>
      <trkpt lat="43.72679" lon="6.12518">
        <ele>586.898824</ele>
        <time>2022-04-30T19:20:44.556Z</time>
      </trkpt>
      <trkpt lat="43.72687" lon="6.12512">
        <ele>586.692357</ele>
        <time>2022-04-30T19:20:45.642Z</time>
      </trkpt>
      <trkpt lat="43.72697" lon="6.12507">
        <ele>586.475561</ele>
        <time>2022-04-30T19:20:46.676Z</time>
      </trkpt>
      <trkpt lat="43.72711" lon="6.12499">
        <ele>586.1424</ele>
        <time>2022-04-30T19:20:48.243Z</time>
      </trkpt>
      <trkpt lat="43.72733" lon="6.12499">
        <ele>585.658754</ele>
        <time>2022-04-30T19:20:50.629Z</time>
      </trkpt>
      <trkpt lat="43.72779" lon="6.12585">
        <ele>584.501696</ele>
        <time>2022-04-30T19:20:59.300Z</time>
      </trkpt>
      <trkpt lat="43.7282" lon="6.12632">
        <ele>583.787197</ele>
        <time>2022-04-30T19:21:05.415Z</time>
      </trkpt>
      <trkpt lat="43.72833" lon="6.12647">
        <ele>583.553401</ele>
        <time>2022-04-30T19:21:07.743Z</time>
      </trkpt>
      <trkpt lat="43.72851" lon="6.12668">
        <ele>583.239504</ele>
        <time>2022-04-30T19:21:10.693Z</time>
      </trkpt>
      <trkpt lat="43.72856" lon="6.12674">
        <ele>583.149753</ele>
        <time>2022-04-30T19:21:11.584Z</time>
      </trkpt>
      <trkpt lat="43.7286" lon="6.12679">
        <ele>583.077157</ele>
        <time>2022-04-30T19:21:12.296Z</time>
      </trkpt>
      <trkpt lat="43.72899" lon="6.12727">
        <ele>582.513358</ele>
        <time>2022-04-30T19:21:18.836Z</time>
      </trkpt>
      <trkpt lat="43.72971" lon="6.12763">
        <ele>581.742314</ele>
        <time>2022-04-30T19:21:29.050Z</time>
      </trkpt>
      <trkpt lat="43.73166" lon="6.12816">
        <ele>578.388489</ele>
        <time>2022-04-30T19:21:51.386Z</time>
      </trkpt>
      <trkpt lat="43.73276" lon="6.1283">
        <ele>576.040798</ele>
        <time>2022-04-30T19:22:02.755Z</time>
      </trkpt>
      <trkpt lat="43.73324" lon="6.12846">
        <ele>574.931991</ele>
        <time>2022-04-30T19:22:08.205Z</time>
      </trkpt>
      <trkpt lat="43.73338" lon="6.12855">
        <ele>574.589153</ele>
        <time>2022-04-30T19:22:09.758Z</time>
      </trkpt>
      <trkpt lat="43.7335" lon="6.12864">
        <ele>574.278768</ele>
        <time>2022-04-30T19:22:11.516Z</time>
      </trkpt>
      <trkpt lat="43.73385" lon="6.12916">
        <ele>573.161409</ele>
        <time>2022-04-30T19:22:17.276Z</time>
      </trkpt>
      <trkpt lat="43.73492" lon="6.13089">
        <ele>569.686181</ele>
        <time>2022-04-30T19:22:35.860Z</time>
      </trkpt>
      <trkpt lat="43.73519" lon="6.13138">
        <ele>567.082056</ele>
        <time>2022-04-30T19:22:40.177Z</time>
      </trkpt>
      <trkpt lat="43.73559" lon="6.13244">
        <ele>561.997209</ele>
        <time>2022-04-30T19:22:48.104Z</time>
      </trkpt>
      <trkpt lat="43.73568" lon="6.1331">
        <ele>559.19091</ele>
        <time>2022-04-30T19:22:52.341Z</time>
      </trkpt>
      <trkpt lat="43.73561" lon="6.13384">
        <ele>556.340365</ele>
        <time>2022-04-30T19:22:57.055Z</time>
      </trkpt>
      <trkpt lat="43.73546" lon="6.13476">
        <ele>552.695878</ele>
        <time>2022-04-30T19:23:03.561Z</time>
      </trkpt>
      <trkpt lat="43.73531" lon="6.13514">
        <ele>551.02538</ele>
        <time>2022-04-30T19:23:06.673Z</time>
      </trkpt>
      <trkpt lat="43.73485" lon="6.13542">
        <ele>549.266385</ele>
        <time>2022-04-30T19:23:11.557Z</time>
      </trkpt>
      <trkpt lat="43.73457" lon="6.1357">
        <ele>548.656661</ele>
        <time>2022-04-30T19:23:15.637Z</time>
      </trkpt>
      <trkpt lat="43.7345" lon="6.13601">
        <ele>548.240385</ele>
        <time>2022-04-30T19:23:20.129Z</time>
      </trkpt>
      <trkpt lat="43.73459" lon="6.13617">
        <ele>547.973391</ele>
        <time>2022-04-30T19:23:21.517Z</time>
      </trkpt>
      <trkpt lat="43.73511" lon="6.13632">
        <ele>547.040371</ele>
        <time>2022-04-30T19:23:29.969Z</time>
      </trkpt>
      <trkpt lat="43.73566" lon="6.13685">
        <ele>544.602089</ele>
        <time>2022-04-30T19:23:37.614Z</time>
      </trkpt>
      <trkpt lat="43.73573" lon="6.13697">
        <ele>544.031259</ele>
        <time>2022-04-30T19:23:38.765Z</time>
      </trkpt>
      <trkpt lat="43.73576" lon="6.13817">
        <ele>539.708071</ele>
        <time>2022-04-30T19:23:46.831Z</time>
      </trkpt>
      <trkpt lat="43.73585" lon="6.13873">
        <ele>537.650957</ele>
        <time>2022-04-30T19:23:50.506Z</time>
      </trkpt>
      <trkpt lat="43.7359" lon="6.13947">
        <ele>533.417041</ele>
        <time>2022-04-30T19:23:55.206Z</time>
      </trkpt>
      <trkpt lat="43.73603" lon="6.13999">
        <ele>530.236298</ele>
        <time>2022-04-30T19:23:58.705Z</time>
      </trkpt>
      <trkpt lat="43.73612" lon="6.14038">
        <ele>527.89371</ele>
        <time>2022-04-30T19:24:01.285Z</time>
      </trkpt>
      <trkpt lat="43.73612" lon="6.14054">
        <ele>526.943963</ele>
        <time>2022-04-30T19:24:02.331Z</time>
      </trkpt>
      <trkpt lat="43.73611" lon="6.14089">
        <ele>524.946361</ele>
        <time>2022-04-30T19:24:04.540Z</time>
      </trkpt>
      <trkpt lat="43.73603" lon="6.14122">
        <ele>523.006517</ele>
        <time>2022-04-30T19:24:06.764Z</time>
      </trkpt>
      <trkpt lat="43.73411" lon="6.14449">
        <ele>506.367053</ele>
        <time>2022-04-30T19:24:35.123Z</time>
      </trkpt>
      <trkpt lat="43.73372" lon="6.14498">
        <ele>503.811408</ele>
        <time>2022-04-30T19:24:40.245Z</time>
      </trkpt>
      <trkpt lat="43.73345" lon="6.14524">
        <ele>503.157641</ele>
        <time>2022-04-30T19:24:43.446Z</time>
      </trkpt>
      <trkpt lat="43.73284" lon="6.14559">
        <ele>501.812586</ele>
        <time>2022-04-30T19:24:50.397Z</time>
      </trkpt>
      <trkpt lat="43.73235" lon="6.14571">
        <ele>500.792866</ele>
        <time>2022-04-30T19:24:56.051Z</time>
      </trkpt>
      <trkpt lat="43.73168" lon="6.14572">
        <ele>501.509</ele>
        <time>2022-04-30T19:25:06.098Z</time>
      </trkpt>
      <trkpt lat="43.73143" lon="6.14578">
        <ele>502.436626</ele>
        <time>2022-04-30T19:25:12.239Z</time>
      </trkpt>
      <trkpt lat="43.73071" lon="6.14612">
        <ele>505.148126</ele>
        <time>2022-04-30T19:25:36.486Z</time>
      </trkpt>
      <trkpt lat="43.72945" lon="6.14605">
        <ele>512.283582</ele>
        <time>2022-04-30T19:26:29.550Z</time>
      </trkpt>
      <trkpt lat="43.72909" lon="6.14617">
        <ele>514.725012</ele>
        <time>2022-04-30T19:26:46.545Z</time>
      </trkpt>
      <trkpt lat="43.72888" lon="6.14639">
        <ele>516.467474</ele>
        <time>2022-04-30T19:26:58.047Z</time>
      </trkpt>
      <trkpt lat="43.72871" lon="6.14669">
        <ele>518.293236</ele>
        <time>2022-04-30T19:27:08.811Z</time>
      </trkpt>
      <trkpt lat="43.72844" lon="6.14787">
        <ele>522.578432</ele>
        <time>2022-04-30T19:27:40.071Z</time>
      </trkpt>
      <trkpt lat="43.72831" lon="6.14821">
        <ele>523.912552</ele>
        <time>2022-04-30T19:27:48.321Z</time>
      </trkpt>
      <trkpt lat="43.72811" lon="6.14849">
        <ele>525.261463</ele>
        <time>2022-04-30T19:27:55.989Z</time>
      </trkpt>
      <trkpt lat="43.72746" lon="6.14904">
        <ele>529.886342</ele>
        <time>2022-04-30T19:28:20.540Z</time>
      </trkpt>
      <trkpt lat="43.72666" lon="6.14971">
        <ele>536.967736</ele>
        <time>2022-04-30T19:29:01.898Z</time>
      </trkpt>
      <trkpt lat="43.72607" lon="6.15019">
        <ele>542.442501</ele>
        <time>2022-04-30T19:29:41.510Z</time>
      </trkpt>
      <trkpt lat="43.72587" lon="6.15043">
        <ele>544.988405</ele>
        <time>2022-04-30T19:29:56.763Z</time>
      </trkpt>
      <trkpt lat="43.72573" lon="6.15074">
        <ele>547.436629</ele>
        <time>2022-04-30T19:30:11.557Z</time>
      </trkpt>
      <trkpt lat="43.72565" lon="6.15116">
        <ele>550.418186</ele>
        <time>2022-04-30T19:30:30.530Z</time>
      </trkpt>
      <trkpt lat="43.72577" lon="6.15229">
        <ele>557.821699</ele>
        <time>2022-04-30T19:31:11.054Z</time>
      </trkpt>
      <trkpt lat="43.72574" lon="6.1534">
        <ele>560.655653</ele>
        <time>2022-04-30T19:31:40.187Z</time>
      </trkpt>
      <trkpt lat="43.72578" lon="6.1537">
        <ele>561.41934</ele>
        <time>2022-04-30T19:31:44.708Z</time>
      </trkpt>
      <trkpt lat="43.72588" lon="6.15398">
        <ele>562.22033</ele>
        <time>2022-04-30T19:31:49.074Z</time>
      </trkpt>
      <trkpt lat="43.72654" lon="6.15512">
        <ele>563.762848</ele>
        <time>2022-04-30T19:32:07.364Z</time>
      </trkpt>
      <trkpt lat="43.72666" lon="6.15541">
        <ele>563.696426</ele>
        <time>2022-04-30T19:32:10.907Z</time>
      </trkpt>
      <trkpt lat="43.72671" lon="6.15575">
        <ele>563.627125</ele>
        <time>2022-04-30T19:32:14.348Z</time>
      </trkpt>
      <trkpt lat="43.7267" lon="6.15706">
        <ele>562.917203</ele>
        <time>2022-04-30T19:32:26.180Z</time>
      </trkpt>
      <trkpt lat="43.72679" lon="6.15748">
        <ele>562.17225</ele>
        <time>2022-04-30T19:32:29.680Z</time>
      </trkpt>
      <trkpt lat="43.72699" lon="6.15781">
        <ele>561.436179</ele>
        <time>2022-04-30T19:32:33.033Z</time>
      </trkpt>
      <trkpt lat="43.72728" lon="6.15806">
        <ele>560.614117</ele>
        <time>2022-04-30T19:32:36.650Z</time>
      </trkpt>
      <trkpt lat="43.72925" lon="6.15875">
        <ele>554.785658</ele>
        <time>2022-04-30T19:32:57.107Z</time>
      </trkpt>
      <trkpt lat="43.73047" lon="6.15945">
        <ele>551.34851</ele>
        <time>2022-04-30T19:33:11.115Z</time>
      </trkpt>
      <trkpt lat="43.7311" lon="6.15953">
        <ele>549.831879</ele>
        <time>2022-04-30T19:33:18.033Z</time>
      </trkpt>
      <trkpt lat="43.73177" lon="6.15965">
        <ele>547.653354</ele>
        <time>2022-04-30T19:33:25.177Z</time>
      </trkpt>
      <trkpt lat="43.73197" lon="6.15979">
        <ele>546.805855</ele>
        <time>2022-04-30T19:33:27.564Z</time>
      </trkpt>
      <trkpt lat="43.73224" lon="6.16009">
        <ele>545.549362</ele>
        <time>2022-04-30T19:33:30.956Z</time>
      </trkpt>
      <trkpt lat="43.73248" lon="6.16058">
        <ele>543.958743</ele>
        <time>2022-04-30T19:33:35.115Z</time>
      </trkpt>
      <trkpt lat="43.73253" lon="6.16107">
        <ele>542.647243</ele>
        <time>2022-04-30T19:33:38.467Z</time>
      </trkpt>
      <trkpt lat="43.73252" lon="6.16141">
        <ele>541.126085</ele>
        <time>2022-04-30T19:33:40.788Z</time>
      </trkpt>
      <trkpt lat="43.73242" lon="6.16187">
        <ele>538.966115</ele>
        <time>2022-04-30T19:33:44.023Z</time>
      </trkpt>
      <trkpt lat="43.73221" lon="6.16224">
        <ele>536.865574</ele>
        <time>2022-04-30T19:33:47.113Z</time>
      </trkpt>
      <trkpt lat="43.73058" lon="6.16401">
        <ele>524.543367</ele>
        <time>2022-04-30T19:34:05.805Z</time>
      </trkpt>
      <trkpt lat="43.73029" lon="6.16446">
        <ele>522.047242</ele>
        <time>2022-04-30T19:34:09.961Z</time>
      </trkpt>
      <trkpt lat="43.73016" lon="6.16489">
        <ele>520.694562</ele>
        <time>2022-04-30T19:34:13.254Z</time>
      </trkpt>
      <trkpt lat="43.7301" lon="6.16534">
        <ele>519.805541</ele>
        <time>2022-04-30T19:34:16.734Z</time>
      </trkpt>
      <trkpt lat="43.73012" lon="6.16582">
        <ele>518.896336</ele>
        <time>2022-04-30T19:34:20.485Z</time>
      </trkpt>
      <trkpt lat="43.73023" lon="6.16627">
        <ele>517.991643</ele>
        <time>2022-04-30T19:34:24.464Z</time>
      </trkpt>
      <trkpt lat="43.73072" lon="6.16762">
        <ele>515.642605</ele>
        <time>2022-04-30T19:34:35.945Z</time>
      </trkpt>
      <trkpt lat="43.73074" lon="6.16806">
        <ele>515.144512</ele>
        <time>2022-04-30T19:34:39.162Z</time>
      </trkpt>
      <trkpt lat="43.73067" lon="6.16839">
        <ele>514.748991</ele>
        <time>2022-04-30T19:34:42.027Z</time>
      </trkpt>
      <trkpt lat="43.73051" lon="6.16872">
        <ele>514.307083</ele>
        <time>2022-04-30T19:34:45.304Z</time>
      </trkpt>
      <trkpt lat="43.72977" lon="6.16962">
        <ele>514.263825</ele>
        <time>2022-04-30T19:35:00.235Z</time>
      </trkpt>
      <trkpt lat="43.72961" lon="6.1699">
        <ele>514.590033</ele>
        <time>2022-04-30T19:35:06.155Z</time>
      </trkpt>
      <trkpt lat="43.72952" lon="6.17034">
        <ele>514.993008</ele>
        <time>2022-04-30T19:35:13.154Z</time>
      </trkpt>
      <trkpt lat="43.72957" lon="6.17081">
        <ele>515.423717</ele>
        <time>2022-04-30T19:35:21.039Z</time>
      </trkpt>
      <trkpt lat="43.72978" lon="6.17134">
        <ele>515.949658</ele>
        <time>2022-04-30T19:35:31.434Z</time>
      </trkpt>
      <trkpt lat="43.73017" lon="6.17215">
        <ele>516.703889</ele>
        <time>2022-04-30T19:35:46.018Z</time>
      </trkpt>
      <trkpt lat="43.73026" lon="6.17251">
        <ele>517.001437</ele>
        <time>2022-04-30T19:35:50.725Z</time>
      </trkpt>
      <trkpt lat="43.73024" lon="6.17308">
        <ele>517.444554</ele>
        <time>2022-04-30T19:35:57.937Z</time>
      </trkpt>
      <trkpt lat="43.73012" lon="6.1734">
        <ele>517.725378</ele>
        <time>2022-04-30T19:36:01.412Z</time>
      </trkpt>
      <trkpt lat="43.72996" lon="6.17367">
        <ele>518.151352</ele>
        <time>2022-04-30T19:36:04.925Z</time>
      </trkpt>
      <trkpt lat="43.72883" lon="6.17463">
        <ele>520.552144</ele>
        <time>2022-04-30T19:36:34.665Z</time>
      </trkpt>
      <trkpt lat="43.72825" lon="6.17496">
        <ele>522.042695</ele>
        <time>2022-04-30T19:36:52.327Z</time>
      </trkpt>
      <trkpt lat="43.7277" lon="6.17517">
        <ele>523.632037</ele>
        <time>2022-04-30T19:37:08.201Z</time>
      </trkpt>
      <trkpt lat="43.72687" lon="6.17579">
        <ele>526.116415</ele>
        <time>2022-04-30T19:37:32.742Z</time>
      </trkpt>
      <trkpt lat="43.72683" lon="6.17582">
        <ele>526.172901</ele>
        <time>2022-04-30T19:37:33.844Z</time>
      </trkpt>
      <trkpt lat="43.72482" lon="6.17691">
        <ele>528.010158</ele>
        <time>2022-04-30T19:38:13.371Z</time>
      </trkpt>
      <trkpt lat="43.72383" lon="6.17774">
        <ele>527.782079</ele>
        <time>2022-04-30T19:38:28.804Z</time>
      </trkpt>
      <trkpt lat="43.72313" lon="6.17841">
        <ele>527.103044</ele>
        <time>2022-04-30T19:38:38.915Z</time>
      </trkpt>
      <trkpt lat="43.72188" lon="6.17946">
        <ele>525.490146</ele>
        <time>2022-04-30T19:38:57.035Z</time>
      </trkpt>
      <trkpt lat="43.72145" lon="6.17991">
        <ele>524.635066</ele>
        <time>2022-04-30T19:39:03.970Z</time>
      </trkpt>
      <trkpt lat="43.72124" lon="6.1803">
        <ele>524.078939</ele>
        <time>2022-04-30T19:39:08.034Z</time>
      </trkpt>
      <trkpt lat="43.7211" lon="6.18078">
        <ele>523.483747</ele>
        <time>2022-04-30T19:39:12.114Z</time>
      </trkpt>
      <trkpt lat="43.72106" lon="6.18123">
        <ele>522.385477</ele>
        <time>2022-04-30T19:39:15.596Z</time>
      </trkpt>
      <trkpt lat="43.72109" lon="6.18158">
        <ele>521.07385</ele>
        <time>2022-04-30T19:39:18.057Z</time>
      </trkpt>
      <trkpt lat="43.7211" lon="6.18163">
        <ele>520.878316</ele>
        <time>2022-04-30T19:39:18.431Z</time>
      </trkpt>
      <trkpt lat="43.72145" lon="6.18328">
        <ele>514.303505</ele>
        <time>2022-04-30T19:39:29.930Z</time>
      </trkpt>
      <trkpt lat="43.72159" lon="6.18391">
        <ele>511.09194</ele>
        <time>2022-04-30T19:39:34.159Z</time>
      </trkpt>
      <trkpt lat="43.72197" lon="6.18562">
        <ele>501.851146</ele>
        <time>2022-04-30T19:39:45.551Z</time>
      </trkpt>
      <trkpt lat="43.72214" lon="6.18612">
        <ele>500.944527</ele>
        <time>2022-04-30T19:39:49.218Z</time>
      </trkpt>
      <trkpt lat="43.72271" lon="6.18743">
        <ele>501.475056</ele>
        <time>2022-04-30T19:40:04.377Z</time>
      </trkpt>
      <trkpt lat="43.72291" lon="6.18788">
        <ele>501.658037</ele>
        <time>2022-04-30T19:40:19.424Z</time>
      </trkpt>
      <trkpt lat="43.72298" lon="6.18812">
        <ele>502.865922</ele>
        <time>2022-04-30T19:40:29.606Z</time>
      </trkpt>
      <trkpt lat="43.72298" lon="6.18865">
        <ele>506.159754</ele>
        <time>2022-04-30T19:40:49.026Z</time>
      </trkpt>
      <trkpt lat="43.72292" lon="6.18891">
        <ele>507.915983</ele>
        <time>2022-04-30T19:40:59.276Z</time>
      </trkpt>
      <trkpt lat="43.72278" lon="6.18923">
        <ele>510.265582</ele>
        <time>2022-04-30T19:41:13.744Z</time>
      </trkpt>
      <trkpt lat="43.72259" lon="6.18949">
        <ele>512.563362</ele>
        <time>2022-04-30T19:41:28.553Z</time>
      </trkpt>
      <trkpt lat="43.72234" lon="6.18966">
        <ele>515.012857</ele>
        <time>2022-04-30T19:41:44.556Z</time>
      </trkpt>
      <trkpt lat="43.72154" lon="6.18988">
        <ele>520.247054</ele>
        <time>2022-04-30T19:42:23.015Z</time>
      </trkpt>
      <trkpt lat="43.72129" lon="6.18987">
        <ele>521.627943</ele>
        <time>2022-04-30T19:42:31.947Z</time>
      </trkpt>
      <trkpt lat="43.72089" lon="6.18973">
        <ele>523.822727</ele>
        <time>2022-04-30T19:42:43.787Z</time>
      </trkpt>
      <trkpt lat="43.72065" lon="6.18973">
        <ele>525.105664</ele>
        <time>2022-04-30T19:42:49.912Z</time>
      </trkpt>
      <trkpt lat="43.72041" lon="6.18992">
        <ele>526.595094</ele>
        <time>2022-04-30T19:42:57.585Z</time>
      </trkpt>
      <trkpt lat="43.71993" lon="6.19052">
        <ele>530.238261</ele>
        <time>2022-04-30T19:43:18.458Z</time>
      </trkpt>
      <trkpt lat="43.71808" lon="6.19212">
        <ele>542.279627</ele>
        <time>2022-04-30T19:44:46.542Z</time>
      </trkpt>
      <trkpt lat="43.71758" lon="6.19228">
        <ele>545.101691</ele>
        <time>2022-04-30T19:45:04.865Z</time>
      </trkpt>
      <trkpt lat="43.71662" lon="6.19222">
        <ele>549.574552</ele>
        <time>2022-04-30T19:45:33.352Z</time>
      </trkpt>
      <trkpt lat="43.71608" lon="6.19221">
        <ele>551.838313</ele>
        <time>2022-04-30T19:45:49.215Z</time>
      </trkpt>
      <trkpt lat="43.71567" lon="6.19235">
        <ele>553.597981</ele>
        <time>2022-04-30T19:46:03.645Z</time>
      </trkpt>
      <trkpt lat="43.7149" lon="6.19298">
        <ele>557.779951</ele>
        <time>2022-04-30T19:46:34.988Z</time>
      </trkpt>
      <trkpt lat="43.7148" lon="6.19307">
        <ele>558.349137</ele>
        <time>2022-04-30T19:46:39.202Z</time>
      </trkpt>
      <trkpt lat="43.71446" lon="6.19336">
        <ele>560.254491</ele>
        <time>2022-04-30T19:46:52.985Z</time>
      </trkpt>
      <trkpt lat="43.71419" lon="6.19346">
        <ele>561.59412</ele>
        <time>2022-04-30T19:47:02.880Z</time>
      </trkpt>
      <trkpt lat="43.71347" lon="6.19335">
        <ele>564.174553</ele>
        <time>2022-04-30T19:47:25.885Z</time>
      </trkpt>
      <trkpt lat="43.7132" lon="6.1934">
        <ele>564.914477</ele>
        <time>2022-04-30T19:47:33.433Z</time>
      </trkpt>
      <trkpt lat="43.71245" lon="6.19403">
        <ele>567.272955</ele>
        <time>2022-04-30T19:47:52.525Z</time>
      </trkpt>
      <trkpt lat="43.71053" lon="6.19488">
        <ele>571.940242</ele>
        <time>2022-04-30T19:48:38.718Z</time>
      </trkpt>
      <trkpt lat="43.71028" lon="6.19513">
        <ele>573.424499</ele>
        <time>2022-04-30T19:48:48.075Z</time>
      </trkpt>
      <trkpt lat="43.70999" lon="6.19566">
        <ele>575.843896</ele>
        <time>2022-04-30T19:49:03.906Z</time>
      </trkpt>
      <trkpt lat="43.70964" lon="6.1962">
        <ele>578.489598</ele>
        <time>2022-04-30T19:49:22.800Z</time>
      </trkpt>
      <trkpt lat="43.70823" lon="6.19761">
        <ele>589.415909</ele>
        <time>2022-04-30T19:50:34.959Z</time>
      </trkpt>
      <trkpt lat="43.70557" lon="6.19974">
        <ele>610.596584</ele>
        <time>2022-04-30T19:52:48.855Z</time>
      </trkpt>
      <trkpt lat="43.70511" lon="6.20001">
        <ele>613.746127</ele>
        <time>2022-04-30T19:53:08.628Z</time>
      </trkpt>
      <trkpt lat="43.70464" lon="6.20004">
        <ele>616.720311</ele>
        <time>2022-04-30T19:53:26.305Z</time>
      </trkpt>
      <trkpt lat="43.70371" lon="6.19948">
        <ele>622.262848</ele>
        <time>2022-04-30T19:54:01.765Z</time>
      </trkpt>
      <trkpt lat="43.70298" lon="6.19932">
        <ele>626.263676</ele>
        <time>2022-04-30T19:54:28.776Z</time>
      </trkpt>
      <trkpt lat="43.70149" lon="6.19964">
        <ele>635.331112</ele>
        <time>2022-04-30T19:55:26.591Z</time>
      </trkpt>
      <trkpt lat="43.6998" lon="6.19938">
        <ele>646.426882</ele>
        <time>2022-04-30T19:56:37.568Z</time>
      </trkpt>
      <trkpt lat="43.69941" lon="6.19944">
        <ele>649.054647</ele>
        <time>2022-04-30T19:56:54.181Z</time>
      </trkpt>
      <trkpt lat="43.69895" lon="6.19959">
        <ele>652.096211</ele>
        <time>2022-04-30T19:57:14.399Z</time>
      </trkpt>
      <trkpt lat="43.69499" lon="6.20093">
        <ele>676.211217</ele>
        <time>2022-04-30T19:59:52.726Z</time>
      </trkpt>
      <trkpt lat="43.69459" lon="6.20112">
        <ele>678.428625</ele>
        <time>2022-04-30T20:00:06.721Z</time>
      </trkpt>
      <trkpt lat="43.69362" lon="6.20179">
        <ele>683.788873</ele>
        <time>2022-04-30T20:00:42.918Z</time>
      </trkpt>
      <trkpt lat="43.69175" lon="6.20337">
        <ele>692.745026</ele>
        <time>2022-04-30T20:01:55.865Z</time>
      </trkpt>
      <trkpt lat="43.69119" lon="6.20405">
        <ele>695.222496</ele>
        <time>2022-04-30T20:02:15.360Z</time>
      </trkpt>
      <trkpt lat="43.68626" lon="6.21092">
        <ele>699.420738</ele>
        <time>2022-04-30T20:04:14.402Z</time>
      </trkpt>
      <trkpt lat="43.68528" lon="6.21246">
        <ele>698.890528</ele>
        <time>2022-04-30T20:04:33.750Z</time>
      </trkpt>
      <trkpt lat="43.68371" lon="6.21438">
        <ele>698.010706</ele>
        <time>2022-04-30T20:05:00.474Z</time>
      </trkpt>
      <trkpt lat="43.68201" lon="6.21695">
        <ele>699.648435</ele>
        <time>2022-04-30T20:05:44.914Z</time>
      </trkpt>
      <trkpt lat="43.68147" lon="6.2179">
        <ele>700.978126</ele>
        <time>2022-04-30T20:06:03.691Z</time>
      </trkpt>
      <trkpt lat="43.68031" lon="6.2202">
        <ele>704.62057</ele>
        <time>2022-04-30T20:06:49.719Z</time>
      </trkpt>
      <trkpt lat="43.67854" lon="6.22234">
        <ele>709.054925</ele>
        <time>2022-04-30T20:07:41.102Z</time>
      </trkpt>
      <trkpt lat="43.67838" lon="6.22257">
        <ele>709.656676</ele>
        <time>2022-04-30T20:07:46.548Z</time>
      </trkpt>
      <trkpt lat="43.67831" lon="6.22288">
        <ele>710.26871</ele>
        <time>2022-04-30T20:07:51.917Z</time>
      </trkpt>
      <trkpt lat="43.6781" lon="6.22295">
        <ele>710.833473</ele>
        <time>2022-04-30T20:07:58.230Z</time>
      </trkpt>
      <trkpt lat="43.67786" lon="6.22312">
        <ele>711.526867</ele>
        <time>2022-04-30T20:08:05.048Z</time>
      </trkpt>
      <trkpt lat="43.67712" lon="6.22406">
        <ele>714.224638</ele>
        <time>2022-04-30T20:08:31.769Z</time>
      </trkpt>
      <trkpt lat="43.677" lon="6.2242">
        <ele>714.653294</ele>
        <time>2022-04-30T20:08:36.874Z</time>
      </trkpt>
      <trkpt lat="43.67676" lon="6.22431">
        <ele>715.34475</ele>
        <time>2022-04-30T20:08:43.022Z</time>
      </trkpt>
      <trkpt lat="43.6767" lon="6.22437">
        <ele>715.550517</ele>
        <time>2022-04-30T20:08:45.141Z</time>
      </trkpt>
      <trkpt lat="43.67674" lon="6.22453">
        <ele>715.885365</ele>
        <time>2022-04-30T20:08:48.135Z</time>
      </trkpt>
      <trkpt lat="43.67671" lon="6.22472">
        <ele>716.268316</ele>
        <time>2022-04-30T20:08:51.559Z</time>
      </trkpt>
      <trkpt lat="43.66842" lon="6.23657">
        <ele>747.378711</ele>
        <time>2022-04-30T20:13:51.382Z</time>
      </trkpt>
      <trkpt lat="43.66805" lon="6.23682">
        <ele>748.636722</ele>
        <time>2022-04-30T20:14:01.038Z</time>
      </trkpt>
      <trkpt lat="43.66721" lon="6.23703">
        <ele>751.24489</ele>
        <time>2022-04-30T20:14:26.362Z</time>
      </trkpt>
      <trkpt lat="43.66667" lon="6.23752">
        <ele>753.412192</ele>
        <time>2022-04-30T20:14:44.915Z</time>
      </trkpt>
      <trkpt lat="43.66651" lon="6.23754">
        <ele>753.954502</ele>
        <time>2022-04-30T20:14:50.324Z</time>
      </trkpt>
      <trkpt lat="43.66636" lon="6.23834">
        <ele>755.963748</ele>
        <time>2022-04-30T20:15:06.298Z</time>
      </trkpt>
      <trkpt lat="43.66628" lon="6.23989">
        <ele>759.709141</ele>
        <time>2022-04-30T20:15:37.681Z</time>
      </trkpt>
      <trkpt lat="43.66589" lon="6.24095">
        <ele>762.553126</ele>
        <time>2022-04-30T20:15:59.976Z</time>
      </trkpt>
      <trkpt lat="43.66525" lon="6.24347">
        <ele>770.408727</ele>
        <time>2022-04-30T20:17:01.782Z</time>
      </trkpt>
      <trkpt lat="43.6651" lon="6.24378">
        <ele>771.520361</ele>
        <time>2022-04-30T20:17:10.588Z</time>
      </trkpt>
      <trkpt lat="43.66488" lon="6.24412">
        <ele>772.848254</ele>
        <time>2022-04-30T20:17:21.253Z</time>
      </trkpt>
      <trkpt lat="43.66471" lon="6.24527">
        <ele>776.251623</ele>
        <time>2022-04-30T20:17:47.517Z</time>
      </trkpt>
      <trkpt lat="43.66422" lon="6.24631">
        <ele>779.845885</ele>
        <time>2022-04-30T20:18:14.011Z</time>
      </trkpt>
      <trkpt lat="43.66375" lon="6.24682">
        <ele>782.225712</ele>
        <time>2022-04-30T20:18:32.386Z</time>
      </trkpt>
      <trkpt lat="43.66327" lon="6.24767">
        <ele>785.381304</ele>
        <time>2022-04-30T20:18:56.903Z</time>
      </trkpt>
      <trkpt lat="43.66301" lon="6.24848">
        <ele>788.146779</ele>
        <time>2022-04-30T20:19:17.254Z</time>
      </trkpt>
      <trkpt lat="43.66257" lon="6.24912">
        <ele>790.949843</ele>
        <time>2022-04-30T20:19:38.202Z</time>
      </trkpt>
      <trkpt lat="43.66238" lon="6.24959">
        <ele>792.654553</ele>
        <time>2022-04-30T20:19:51.302Z</time>
      </trkpt>
      <trkpt lat="43.662" lon="6.25111">
        <ele>797.161482</ele>
        <time>2022-04-30T20:20:28.189Z</time>
      </trkpt>
      <trkpt lat="43.66201" lon="6.25194">
        <ele>799.453556</ele>
        <time>2022-04-30T20:20:45.804Z</time>
      </trkpt>
      <trkpt lat="43.66186" lon="6.25272">
        <ele>800.994582</ele>
        <time>2022-04-30T20:21:01.127Z</time>
      </trkpt>
      <trkpt lat="43.66188" lon="6.25365">
        <ele>802.29611</ele>
        <time>2022-04-30T20:21:16.306Z</time>
      </trkpt>
      <trkpt lat="43.66184" lon="6.25421">
        <ele>803.088515</ele>
        <time>2022-04-30T20:21:24.409Z</time>
      </trkpt>
      <trkpt lat="43.66161" lon="6.25503">
        <ele>804.319613</ele>
        <time>2022-04-30T20:21:36.785Z</time>
      </trkpt>
      <trkpt lat="43.66152" lon="6.25581">
        <ele>805.418281</ele>
        <time>2022-04-30T20:21:48.892Z</time>
      </trkpt>
      <trkpt lat="43.66121" lon="6.25653">
        <ele>806.588383</ele>
        <time>2022-04-30T20:22:03.421Z</time>
      </trkpt>
      <trkpt lat="43.66093" lon="6.25756">
        <ele>808.405231</ele>
        <time>2022-04-30T20:22:23.453Z</time>
      </trkpt>
      <trkpt lat="43.66071" lon="6.25832">
        <ele>809.904004</ele>
        <time>2022-04-30T20:22:38.783Z</time>
      </trkpt>
      <trkpt lat="43.66032" lon="6.25899">
        <ele>811.474476</ele>
        <time>2022-04-30T20:22:54.410Z</time>
      </trkpt>
      <trkpt lat="43.66016" lon="6.25948">
        <ele>812.310503</ele>
        <time>2022-04-30T20:23:03.679Z</time>
      </trkpt>
      <trkpt lat="43.65997" lon="6.26019">
        <ele>813.359815</ele>
        <time>2022-04-30T20:23:15.466Z</time>
      </trkpt>
      <trkpt lat="43.65981" lon="6.26144">
        <ele>815.130135</ele>
        <time>2022-04-30T20:23:35.038Z</time>
      </trkpt>
      <trkpt lat="43.6597" lon="6.26175">
        <ele>815.793073</ele>
        <time>2022-04-30T20:23:40.669Z</time>
      </trkpt>
      <trkpt lat="43.65759" lon="6.26521">
        <ele>826.201997</ele>
        <time>2022-04-30T20:25:09.964Z</time>
      </trkpt>
      <trkpt lat="43.65624" lon="6.26716">
        <ele>835.80561</ele>
        <time>2022-04-30T20:26:20.047Z</time>
      </trkpt>
      <trkpt lat="43.65601" lon="6.26752">
        <ele>837.439093</ele>
        <time>2022-04-30T20:26:32.748Z</time>
      </trkpt>
      <trkpt lat="43.65447" lon="6.27098">
        <ele>849.963944</ele>
        <time>2022-04-30T20:28:08.332Z</time>
      </trkpt>
      <trkpt lat="43.65355" lon="6.27358">
        <ele>854.688929</ele>
        <time>2022-04-30T20:28:56.136Z</time>
      </trkpt>
      <trkpt lat="43.65338" lon="6.27394">
        <ele>855.062804</ele>
        <time>2022-04-30T20:29:01.925Z</time>
      </trkpt>
      <trkpt lat="43.65235" lon="6.2749">
        <ele>856.540548</ele>
        <time>2022-04-30T20:29:26.028Z</time>
      </trkpt>
      <trkpt lat="43.65171" lon="6.2755">
        <ele>857.154324</ele>
        <time>2022-04-30T20:29:40.476Z</time>
      </trkpt>
      <trkpt lat="43.6513" lon="6.27605">
        <ele>857.50233</ele>
        <time>2022-04-30T20:29:50.673Z</time>
      </trkpt>
      <trkpt lat="43.65099" lon="6.27633">
        <ele>857.734009</ele>
        <time>2022-04-30T20:29:57.251Z</time>
      </trkpt>
      <trkpt lat="43.65076" lon="6.27681">
        <ele>857.87824</ele>
        <time>2022-04-30T20:30:03.625Z</time>
      </trkpt>
      <trkpt lat="43.64977" lon="6.27832">
        <ele>856.872341</ele>
        <time>2022-04-30T20:30:22.276Z</time>
      </trkpt>
      <trkpt lat="43.64963" lon="6.27843">
        <ele>856.761202</ele>
        <time>2022-04-30T20:30:24.293Z</time>
      </trkpt>
      <trkpt lat="43.64934" lon="6.2785">
        <ele>856.496033</ele>
        <time>2022-04-30T20:30:27.780Z</time>
      </trkpt>
      <trkpt lat="43.64926" lon="6.27868">
        <ele>856.338829</ele>
        <time>2022-04-30T20:30:29.634Z</time>
      </trkpt>
      <trkpt lat="43.6492" lon="6.27911">
        <ele>856.027742</ele>
        <time>2022-04-30T20:30:33.357Z</time>
      </trkpt>
      <trkpt lat="43.64911" lon="6.27929">
        <ele>855.866757</ele>
        <time>2022-04-30T20:30:35.281Z</time>
      </trkpt>
      <trkpt lat="43.64853" lon="6.27991">
        <ele>855.134966</ele>
        <time>2022-04-30T20:30:44.295Z</time>
      </trkpt>
      <trkpt lat="43.64816" lon="6.28039">
        <ele>854.543245</ele>
        <time>2022-04-30T20:30:50.676Z</time>
      </trkpt>
      <trkpt lat="43.6474" lon="6.28108">
        <ele>853.364589</ele>
        <time>2022-04-30T20:31:01.711Z</time>
      </trkpt>
      <trkpt lat="43.64697" lon="6.28163">
        <ele>852.605663</ele>
        <time>2022-04-30T20:31:08.365Z</time>
      </trkpt>
      <trkpt lat="43.64595" lon="6.28408">
        <ele>848.629805</ele>
        <time>2022-04-30T20:31:30.317Z</time>
      </trkpt>
      <trkpt lat="43.64572" lon="6.28447">
        <ele>848.423513</ele>
        <time>2022-04-30T20:31:34.545Z</time>
      </trkpt>
      <trkpt lat="43.64523" lon="6.28497">
        <ele>848.075275</ele>
        <time>2022-04-30T20:31:42.878Z</time>
      </trkpt>
      <trkpt lat="43.6443" lon="6.28553">
        <ele>847.861148</ele>
        <time>2022-04-30T20:32:00.411Z</time>
      </trkpt>
      <trkpt lat="43.6439" lon="6.28604">
        <ele>848.02728</ele>
        <time>2022-04-30T20:32:09.652Z</time>
      </trkpt>
      <trkpt lat="43.64321" lon="6.28654">
        <ele>848.266022</ele>
        <time>2022-04-30T20:32:21.715Z</time>
      </trkpt>
      <trkpt lat="43.6431" lon="6.28688">
        <ele>847.902164</ele>
        <time>2022-04-30T20:32:25.688Z</time>
      </trkpt>
      <trkpt lat="43.64305" lon="6.28757">
        <ele>846.971834</ele>
        <time>2022-04-30T20:32:32.169Z</time>
      </trkpt>
      <trkpt lat="43.64298" lon="6.28782">
        <ele>846.615098</ele>
        <time>2022-04-30T20:32:34.418Z</time>
      </trkpt>
      <trkpt lat="43.64257" lon="6.28837">
        <ele>845.559179</ele>
        <time>2022-04-30T20:32:40.522Z</time>
      </trkpt>
      <trkpt lat="43.64241" lon="6.28852">
        <ele>845.198746</ele>
        <time>2022-04-30T20:32:42.459Z</time>
      </trkpt>
      <trkpt lat="43.64217" lon="6.28863">
        <ele>844.319864</ele>
        <time>2022-04-30T20:32:44.902Z</time>
      </trkpt>
      <trkpt lat="43.64181" lon="6.28881">
        <ele>842.272198</ele>
        <time>2022-04-30T20:32:48.640Z</time>
      </trkpt>
      <trkpt lat="43.64133" lon="6.2892">
        <ele>839.385721</ele>
        <time>2022-04-30T20:32:53.812Z</time>
      </trkpt>
      <trkpt lat="43.64093" lon="6.28962">
        <ele>836.722622</ele>
        <time>2022-04-30T20:32:58.462Z</time>
      </trkpt>
      <trkpt lat="43.64004" lon="6.29105">
        <ele>827.958742</ele>
        <time>2022-04-30T20:33:10.745Z</time>
      </trkpt>
      <trkpt lat="43.63931" lon="6.29263">
        <ele>819.428586</ele>
        <time>2022-04-30T20:33:23.138Z</time>
      </trkpt>
      <trkpt lat="43.63914" lon="6.29313">
        <ele>817.039245</ele>
        <time>2022-04-30T20:33:26.799Z</time>
      </trkpt>
      <trkpt lat="43.63892" lon="6.29418">
        <ele>812.437617</ele>
        <time>2022-04-30T20:33:34.054Z</time>
      </trkpt>
      <trkpt lat="43.63884" lon="6.29522">
        <ele>808.736984</ele>
        <time>2022-04-30T20:33:41.214Z</time>
      </trkpt>
      <trkpt lat="43.63884" lon="6.29587">
        <ele>806.447029</ele>
        <time>2022-04-30T20:33:45.666Z</time>
      </trkpt>
      <trkpt lat="43.63865" lon="6.29631">
        <ele>804.621563</ele>
        <time>2022-04-30T20:33:49.260Z</time>
      </trkpt>
      <trkpt lat="43.63858" lon="6.29659">
        <ele>803.674766</ele>
        <time>2022-04-30T20:33:51.296Z</time>
      </trkpt>
      <trkpt lat="43.63848" lon="6.29799">
        <ele>799.521099</ele>
        <time>2022-04-30T20:34:01.164Z</time>
      </trkpt>
      <trkpt lat="43.63831" lon="6.29901">
        <ele>796.430897</ele>
        <time>2022-04-30T20:34:08.643Z</time>
      </trkpt>
      <trkpt lat="43.6383" lon="6.29973">
        <ele>794.52735</ele>
        <time>2022-04-30T20:34:13.716Z</time>
      </trkpt>
      <trkpt lat="43.63804" lon="6.30018">
        <ele>792.962405</ele>
        <time>2022-04-30T20:34:17.893Z</time>
      </trkpt>
      <trkpt lat="43.63793" lon="6.30047">
        <ele>792.098254</ele>
        <time>2022-04-30T20:34:20.216Z</time>
      </trkpt>
      <trkpt lat="43.63781" lon="6.30182">
        <ele>788.09261</ele>
        <time>2022-04-30T20:34:30.081Z</time>
      </trkpt>
      <trkpt lat="43.63771" lon="6.30231">
        <ele>786.434665</ele>
        <time>2022-04-30T20:34:33.651Z</time>
      </trkpt>
      <trkpt lat="43.63722" lon="6.30374">
        <ele>781.190441</ele>
        <time>2022-04-30T20:34:44.394Z</time>
      </trkpt>
      <trkpt lat="43.63705" lon="6.30414">
        <ele>779.49389</ele>
        <time>2022-04-30T20:34:47.530Z</time>
      </trkpt>
      <trkpt lat="43.63668" lon="6.30498">
        <ele>775.902169</ele>
        <time>2022-04-30T20:34:54.198Z</time>
      </trkpt>
      <trkpt lat="43.63628" lon="6.30646">
        <ele>770.956014</ele>
        <time>2022-04-30T20:35:05.038Z</time>
      </trkpt>
      <trkpt lat="43.63592" lon="6.30711">
        <ele>768.824205</ele>
        <time>2022-04-30T20:35:11.172Z</time>
      </trkpt>
      <trkpt lat="43.63567" lon="6.30892">
        <ele>764.14612</ele>
        <time>2022-04-30T20:35:24.747Z</time>
      </trkpt>
      <trkpt lat="43.63554" lon="6.3091">
        <ele>763.483758</ele>
        <time>2022-04-30T20:35:26.664Z</time>
      </trkpt>
      <trkpt lat="43.63494" lon="6.30941">
        <ele>761.299321</ele>
        <time>2022-04-30T20:35:32.967Z</time>
      </trkpt>
      <trkpt lat="43.63457" lon="6.30992">
        <ele>759.232703</ele>
        <time>2022-04-30T20:35:38.183Z</time>
      </trkpt>
      <trkpt lat="43.63433" lon="6.31015">
        <ele>757.886006</ele>
        <time>2022-04-30T20:35:41.058Z</time>
      </trkpt>
      <trkpt lat="43.63417" lon="6.31019">
        <ele>757.168153</ele>
        <time>2022-04-30T20:35:42.579Z</time>
      </trkpt>
      <trkpt lat="43.63394" lon="6.31014">
        <ele>756.08807</ele>
        <time>2022-04-30T20:35:44.818Z</time>
      </trkpt>
      <trkpt lat="43.63367" lon="6.31023">
        <ele>754.78948</ele>
        <time>2022-04-30T20:35:47.469Z</time>
      </trkpt>
      <trkpt lat="43.63347" lon="6.31035">
        <ele>753.814672</ele>
        <time>2022-04-30T20:35:49.436Z</time>
      </trkpt>
      <trkpt lat="43.63289" lon="6.31092">
        <ele>750.307548</ele>
        <time>2022-04-30T20:35:56.160Z</time>
      </trkpt>
      <trkpt lat="43.63247" lon="6.31106">
        <ele>748.027172</ele>
        <time>2022-04-30T20:36:00.246Z</time>
      </trkpt>
      <trkpt lat="43.63225" lon="6.31112">
        <ele>746.859465</ele>
        <time>2022-04-30T20:36:02.285Z</time>
      </trkpt>
      <trkpt lat="43.63185" lon="6.31135">
        <ele>744.572944</ele>
        <time>2022-04-30T20:36:06.347Z</time>
      </trkpt>
      <trkpt lat="43.63042" lon="6.31318">
        <ele>734.209433</ele>
        <time>2022-04-30T20:36:24.560Z</time>
      </trkpt>
      <trkpt lat="43.63004" lon="6.3136">
        <ele>731.62974</ele>
        <time>2022-04-30T20:36:29.023Z</time>
      </trkpt>
      <trkpt lat="43.62971" lon="6.31414">
        <ele>728.830161</ele>
        <time>2022-04-30T20:36:33.856Z</time>
      </trkpt>
      <trkpt lat="43.62951" lon="6.31448">
        <ele>727.0785</ele>
        <time>2022-04-30T20:36:36.878Z</time>
      </trkpt>
      <trkpt lat="43.62915" lon="6.31538">
        <ele>723.032876</ele>
        <time>2022-04-30T20:36:43.729Z</time>
      </trkpt>
      <trkpt lat="43.62875" lon="6.31602">
        <ele>719.994075</ele>
        <time>2022-04-30T20:36:49.413Z</time>
      </trkpt>
      <trkpt lat="43.62852" lon="6.31651">
        <ele>717.925436</ele>
        <time>2022-04-30T20:36:53.373Z</time>
      </trkpt>
      <trkpt lat="43.6284" lon="6.31706">
        <ele>715.829735</ele>
        <time>2022-04-30T20:36:57.409Z</time>
      </trkpt>
      <trkpt lat="43.62828" lon="6.31869">
        <ele>710.857021</ele>
        <time>2022-04-30T20:37:08.690Z</time>
      </trkpt>
      <trkpt lat="43.62842" lon="6.31945">
        <ele>708.627887</ele>
        <time>2022-04-30T20:37:14.367Z</time>
      </trkpt>
      <trkpt lat="43.62842" lon="6.31993">
        <ele>707.265534</ele>
        <time>2022-04-30T20:37:17.909Z</time>
      </trkpt>
      <trkpt lat="43.62854" lon="6.32043">
        <ele>706.111803</ele>
        <time>2022-04-30T20:37:21.793Z</time>
      </trkpt>
      <trkpt lat="43.62847" lon="6.32073">
        <ele>705.422856</ele>
        <time>2022-04-30T20:37:24.155Z</time>
      </trkpt>
      <trkpt lat="43.62816" lon="6.32111">
        <ele>704.200011</ele>
        <time>2022-04-30T20:37:28.411Z</time>
      </trkpt>
      <trkpt lat="43.628" lon="6.32158">
        <ele>703.093902</ele>
        <time>2022-04-30T20:37:32.264Z</time>
      </trkpt>
      <trkpt lat="43.62798" lon="6.32214">
        <ele>701.892383</ele>
        <time>2022-04-30T20:37:36.484Z</time>
      </trkpt>
      <trkpt lat="43.62815" lon="6.32299">
        <ele>699.969156</ele>
        <time>2022-04-30T20:37:43.106Z</time>
      </trkpt>
      <trkpt lat="43.62814" lon="6.32379">
        <ele>698.223515</ele>
        <time>2022-04-30T20:37:49.080Z</time>
      </trkpt>
      <trkpt lat="43.62806" lon="6.32466">
        <ele>696.289342</ele>
        <time>2022-04-30T20:37:55.547Z</time>
      </trkpt>
      <trkpt lat="43.6279" lon="6.3253">
        <ele>694.416774</ele>
        <time>2022-04-30T20:38:00.460Z</time>
      </trkpt>
      <trkpt lat="43.62738" lon="6.32645">
        <ele>690.676087</ele>
        <time>2022-04-30T20:38:10.051Z</time>
      </trkpt>
      <trkpt lat="43.62618" lon="6.32788">
        <ele>684.421812</ele>
        <time>2022-04-30T20:38:25.431Z</time>
      </trkpt>
      <trkpt lat="43.62608" lon="6.32818">
        <ele>683.462618</ele>
        <time>2022-04-30T20:38:27.783Z</time>
      </trkpt>
      <trkpt lat="43.62585" lon="6.32972">
        <ele>679.788787</ele>
        <time>2022-04-30T20:38:39.092Z</time>
      </trkpt>
      <trkpt lat="43.62567" lon="6.33056">
        <ele>677.862179</ele>
        <time>2022-04-30T20:38:45.770Z</time>
      </trkpt>
      <trkpt lat="43.62564" lon="6.33082">
        <ele>677.298239</ele>
        <time>2022-04-30T20:38:47.737Z</time>
      </trkpt>
      <trkpt lat="43.62522" lon="6.33428">
        <ele>672.072053</ele>
        <time>2022-04-30T20:39:15.651Z</time>
      </trkpt>
      <trkpt lat="43.62533" lon="6.33482">
        <ele>671.296597</ele>
        <time>2022-04-30T20:39:20.226Z</time>
      </trkpt>
      <trkpt lat="43.62615" lon="6.33701">
        <ele>667.643854</ele>
        <time>2022-04-30T20:39:39.955Z</time>
      </trkpt>
      <trkpt lat="43.62629" lon="6.33755">
        <ele>666.747064</ele>
        <time>2022-04-30T20:39:44.409Z</time>
      </trkpt>
      <trkpt lat="43.62635" lon="6.33809">
        <ele>665.872172</ele>
        <time>2022-04-30T20:39:48.576Z</time>
      </trkpt>
      <trkpt lat="43.62624" lon="6.339">
        <ele>663.950266</ele>
        <time>2022-04-30T20:39:55.609Z</time>
      </trkpt>
      <trkpt lat="43.62616" lon="6.33933">
        <ele>663.245721</ele>
        <time>2022-04-30T20:39:58.143Z</time>
      </trkpt>
      <trkpt lat="43.62602" lon="6.33956">
        <ele>662.598824</ele>
        <time>2022-04-30T20:40:00.470Z</time>
      </trkpt>
      <trkpt lat="43.62548" lon="6.34011">
        <ele>660.684068</ele>
        <time>2022-04-30T20:40:07.233Z</time>
      </trkpt>
      <trkpt lat="43.62499" lon="6.34054">
        <ele>658.835234</ele>
        <time>2022-04-30T20:40:13.048Z</time>
      </trkpt>
      <trkpt lat="43.62386" lon="6.34186">
        <ele>654.459799</ele>
        <time>2022-04-30T20:40:28.125Z</time>
      </trkpt>
      <trkpt lat="43.62363" lon="6.34214">
        <ele>653.811247</ele>
        <time>2022-04-30T20:40:31.338Z</time>
      </trkpt>
      <trkpt lat="43.62349" lon="6.34221">
        <ele>653.495225</ele>
        <time>2022-04-30T20:40:32.922Z</time>
      </trkpt>
      <trkpt lat="43.62307" lon="6.3423">
        <ele>652.615516</ele>
        <time>2022-04-30T20:40:37.466Z</time>
      </trkpt>
      <trkpt lat="43.62229" lon="6.34301">
        <ele>651.159668</ele>
        <time>2022-04-30T20:40:48.551Z</time>
      </trkpt>
      <trkpt lat="43.62142" lon="6.34371">
        <ele>650.643692</ele>
        <time>2022-04-30T20:41:02.514Z</time>
      </trkpt>
      <trkpt lat="43.62008" lon="6.34435">
        <ele>649.756989</ele>
        <time>2022-04-30T20:41:22.167Z</time>
      </trkpt>
      <trkpt lat="43.6199" lon="6.34449">
        <ele>649.614427</ele>
        <time>2022-04-30T20:41:24.932Z</time>
      </trkpt>
      <trkpt lat="43.61978" lon="6.34474">
        <ele>649.4693</ele>
        <time>2022-04-30T20:41:27.506Z</time>
      </trkpt>
      <trkpt lat="43.61957" lon="6.34547">
        <ele>648.860278</ele>
        <time>2022-04-30T20:41:34.397Z</time>
      </trkpt>
      <trkpt lat="43.61942" lon="6.34574">
        <ele>648.335688</ele>
        <time>2022-04-30T20:41:37.164Z</time>
      </trkpt>
      <trkpt lat="43.61865" lon="6.34653">
        <ele>646.304126</ele>
        <time>2022-04-30T20:41:47.240Z</time>
      </trkpt>
      <trkpt lat="43.61755" lon="6.3479">
        <ele>643.250117</ele>
        <time>2022-04-30T20:42:03.145Z</time>
      </trkpt>
      <trkpt lat="43.61662" lon="6.34897">
        <ele>641.36996</ele>
        <time>2022-04-30T20:42:16.823Z</time>
      </trkpt>
      <trkpt lat="43.61534" lon="6.35005">
        <ele>640.350003</ele>
        <time>2022-04-30T20:42:36.759Z</time>
      </trkpt>
      <trkpt lat="43.61439" lon="6.35072">
        <ele>640.410633</ele>
        <time>2022-04-30T20:42:52.790Z</time>
      </trkpt>
      <trkpt lat="43.6139" lon="6.3519">
        <ele>640.630418</ele>
        <time>2022-04-30T20:43:09.026Z</time>
      </trkpt>
      <trkpt lat="43.61311" lon="6.35309">
        <ele>641.165993</ele>
        <time>2022-04-30T20:43:27.889Z</time>
      </trkpt>
      <trkpt lat="43.61248" lon="6.35383">
        <ele>642.078584</ele>
        <time>2022-04-30T20:43:42.846Z</time>
      </trkpt>
      <trkpt lat="43.61232" lon="6.35413">
        <ele>642.436006</ele>
        <time>2022-04-30T20:43:48.614Z</time>
      </trkpt>
      <trkpt lat="43.61207" lon="6.35487">
        <ele>643.232117</ele>
        <time>2022-04-30T20:44:01.262Z</time>
      </trkpt>
      <trkpt lat="43.61194" lon="6.35509">
        <ele>643.505546</ele>
        <time>2022-04-30T20:44:05.326Z</time>
      </trkpt>
      <trkpt lat="43.61173" lon="6.355">
        <ele>643.807552</ele>
        <time>2022-04-30T20:44:10.479Z</time>
      </trkpt>
      <trkpt lat="43.61117" lon="6.35427">
        <ele>644.978597</ele>
        <time>2022-04-30T20:44:27.214Z</time>
      </trkpt>
      <trkpt lat="43.61098" lon="6.35367">
        <ele>645.704135</ele>
        <time>2022-04-30T20:44:37.650Z</time>
      </trkpt>
      <trkpt lat="43.61039" lon="6.35348">
        <ele>646.412538</ele>
        <time>2022-04-30T20:44:49.657Z</time>
      </trkpt>
      <trkpt lat="43.61006" lon="6.35354">
        <ele>646.412881</ele>
        <time>2022-04-30T20:44:55.294Z</time>
      </trkpt>
      <trkpt lat="43.60908" lon="6.35424">
        <ele>646.41401</ele>
        <time>2022-04-30T20:45:10.868Z</time>
      </trkpt>
      <trkpt lat="43.60883" lon="6.35432">
        <ele>646.378101</ele>
        <time>2022-04-30T20:45:14.222Z</time>
      </trkpt>
      <trkpt lat="43.60857" lon="6.35426">
        <ele>646.042424</ele>
        <time>2022-04-30T20:45:17.556Z</time>
      </trkpt>
      <trkpt lat="43.6073" lon="6.3537">
        <ele>644.371752</ele>
        <time>2022-04-30T20:45:33.093Z</time>
      </trkpt>
      <trkpt lat="43.60704" lon="6.35365">
        <ele>643.973438</ele>
        <time>2022-04-30T20:45:36.068Z</time>
      </trkpt>
      <trkpt lat="43.60559" lon="6.35421">
        <ele>641.001426</ele>
        <time>2022-04-30T20:45:52.576Z</time>
      </trkpt>
      <trkpt lat="43.60543" lon="6.35443">
        <ele>640.565544</ele>
        <time>2022-04-30T20:45:54.975Z</time>
      </trkpt>
      <trkpt lat="43.60438" lon="6.35677">
        <ele>636.853398</ele>
        <time>2022-04-30T20:46:17.181Z</time>
      </trkpt>
      <trkpt lat="43.60415" lon="6.35718">
        <ele>636.2277</ele>
        <time>2022-04-30T20:46:21.376Z</time>
      </trkpt>
      <trkpt lat="43.60419" lon="6.35725">
        <ele>636.131689</ele>
        <time>2022-04-30T20:46:21.999Z</time>
      </trkpt>
      <trkpt lat="43.60422" lon="6.35733">
        <ele>636.01299</ele>
        <time>2022-04-30T20:46:22.772Z</time>
      </trkpt>
      <trkpt lat="43.60426" lon="6.3575">
        <ele>635.796402</ele>
        <time>2022-04-30T20:46:24.186Z</time>
      </trkpt>
      <trkpt lat="43.60426" lon="6.35764">
        <ele>635.625835</ele>
        <time>2022-04-30T20:46:25.375Z</time>
      </trkpt>
      <trkpt lat="43.60303" lon="6.36185">
        <ele>631.467574</ele>
        <time>2022-04-30T20:47:03.148Z</time>
      </trkpt>
      <trkpt lat="43.60295" lon="6.36223">
        <ele>631.448773</ele>
        <time>2022-04-30T20:47:07.420Z</time>
      </trkpt>
      <trkpt lat="43.60296" lon="6.36244">
        <ele>631.438797</ele>
        <time>2022-04-30T20:47:10.208Z</time>
      </trkpt>
      <trkpt lat="43.60305" lon="6.36274">
        <ele>631.423434</ele>
        <time>2022-04-30T20:47:14.396Z</time>
      </trkpt>
      <trkpt lat="43.60313" lon="6.36292">
        <ele>631.413124</ele>
        <time>2022-04-30T20:47:18.115Z</time>
      </trkpt>
      <trkpt lat="43.60322" lon="6.36337">
        <ele>631.3882</ele>
        <time>2022-04-30T20:47:24.790Z</time>
      </trkpt>
      <trkpt lat="43.60298" lon="6.36428">
        <ele>631.107896</ele>
        <time>2022-04-30T20:47:36.729Z</time>
      </trkpt>
      <trkpt lat="43.60297" lon="6.36472">
        <ele>630.980463</ele>
        <time>2022-04-30T20:47:41.521Z</time>
      </trkpt>
      <trkpt lat="43.60299" lon="6.36516">
        <ele>630.852061</ele>
        <time>2022-04-30T20:47:45.666Z</time>
      </trkpt>
      <trkpt lat="43.60308" lon="6.36542">
        <ele>630.770001</ele>
        <time>2022-04-30T20:47:47.853Z</time>
      </trkpt>
      <trkpt lat="43.60416" lon="6.36661">
        <ele>628.655107</ele>
        <time>2022-04-30T20:48:02.829Z</time>
      </trkpt>
      <trkpt lat="43.60441" lon="6.36696">
        <ele>628.027895</ele>
        <time>2022-04-30T20:48:06.652Z</time>
      </trkpt>
      <trkpt lat="43.60589" lon="6.36976">
        <ele>625.560759</ele>
        <time>2022-04-30T20:48:39.983Z</time>
      </trkpt>
      <trkpt lat="43.606" lon="6.37005">
        <ele>625.138024</ele>
        <time>2022-04-30T20:48:42.563Z</time>
      </trkpt>
      <trkpt lat="43.60637" lon="6.3716">
        <ele>622.974</ele>
        <time>2022-04-30T20:48:55.361Z</time>
      </trkpt>
      <trkpt lat="43.60643" lon="6.37218">
        <ele>621.763429</ele>
        <time>2022-04-30T20:48:59.698Z</time>
      </trkpt>
      <trkpt lat="43.60643" lon="6.37233">
        <ele>621.444489</ele>
        <time>2022-04-30T20:49:00.785Z</time>
      </trkpt>
      <trkpt lat="43.60659" lon="6.37234">
        <ele>621.000862</ele>
        <time>2022-04-30T20:49:02.469Z</time>
      </trkpt>
      <trkpt lat="43.60666" lon="6.37241">
        <ele>620.762099</ele>
        <time>2022-04-30T20:49:03.380Z</time>
      </trkpt>
      <trkpt lat="43.60665" lon="6.373">
        <ele>619.55124</ele>
        <time>2022-04-30T20:49:07.780Z</time>
      </trkpt>
      <trkpt lat="43.60662" lon="6.37318">
        <ele>619.162899</ele>
        <time>2022-04-30T20:49:09.133Z</time>
      </trkpt>
      <trkpt lat="43.60636" lon="6.37366">
        <ele>617.91781</ele>
        <time>2022-04-30T20:49:13.627Z</time>
      </trkpt>
      <trkpt lat="43.60579" lon="6.37437">
        <ele>614.715447</ele>
        <time>2022-04-30T20:49:21.381Z</time>
      </trkpt>
      <trkpt lat="43.60536" lon="6.37477">
        <ele>612.560287</ele>
        <time>2022-04-30T20:49:26.393Z</time>
      </trkpt>
      <trkpt lat="43.6052" lon="6.37504">
        <ele>611.546099</ele>
        <time>2022-04-30T20:49:28.731Z</time>
      </trkpt>
      <trkpt lat="43.60492" lon="6.3762">
        <ele>606.320487</ele>
        <time>2022-04-30T20:49:36.932Z</time>
      </trkpt>
      <trkpt lat="43.60488" lon="6.37656">
        <ele>604.534525</ele>
        <time>2022-04-30T20:49:39.371Z</time>
      </trkpt>
      <trkpt lat="43.60499" lon="6.37872">
        <ele>593.894473</ele>
        <time>2022-04-30T20:49:53.297Z</time>
      </trkpt>
      <trkpt lat="43.60497" lon="6.37914">
        <ele>591.743462</ele>
        <time>2022-04-30T20:49:56.024Z</time>
      </trkpt>
      <trkpt lat="43.6049" lon="6.37995">
        <ele>587.557484</ele>
        <time>2022-04-30T20:50:01.357Z</time>
      </trkpt>
      <trkpt lat="43.60496" lon="6.38024">
        <ele>586.012201</ele>
        <time>2022-04-30T20:50:03.349Z</time>
      </trkpt>
      <trkpt lat="43.60511" lon="6.38041">
        <ele>585.402794</ele>
        <time>2022-04-30T20:50:05.073Z</time>
      </trkpt>
      <trkpt lat="43.6054" lon="6.3806">
        <ele>584.556427</ele>
        <time>2022-04-30T20:50:08.076Z</time>
      </trkpt>
      <trkpt lat="43.6056" lon="6.38101">
        <ele>583.632808</ele>
        <time>2022-04-30T20:50:11.588Z</time>
      </trkpt>
      <trkpt lat="43.60564" lon="6.38109">
        <ele>583.445837</ele>
        <time>2022-04-30T20:50:12.418Z</time>
      </trkpt>
      <trkpt lat="43.60571" lon="6.38125">
        <ele>583.078243</ele>
        <time>2022-04-30T20:50:14.294Z</time>
      </trkpt>
      <trkpt lat="43.60597" lon="6.38178">
        <ele>581.85758</ele>
        <time>2022-04-30T20:50:21.315Z</time>
      </trkpt>
      <trkpt lat="43.60611" lon="6.38201">
        <ele>581.296084</ele>
        <time>2022-04-30T20:50:25.249Z</time>
      </trkpt>
      <trkpt lat="43.60656" lon="6.38228">
        <ele>580.044098</ele>
        <time>2022-04-30T20:50:31.428Z</time>
      </trkpt>
      <trkpt lat="43.60692" lon="6.38272">
        <ele>578.822514</ele>
        <time>2022-04-30T20:50:36.577Z</time>
      </trkpt>
      <trkpt lat="43.60701" lon="6.38285">
        <ele>578.478978</ele>
        <time>2022-04-30T20:50:38.037Z</time>
      </trkpt>
      <trkpt lat="43.60701" lon="6.38293">
        <ele>578.348525</ele>
        <time>2022-04-30T20:50:38.584Z</time>
      </trkpt>
      <trkpt lat="43.60701" lon="6.38312">
        <ele>577.985266</ele>
        <time>2022-04-30T20:50:40.107Z</time>
      </trkpt>
      <trkpt lat="43.60714" lon="6.38334">
        <ele>577.456069</ele>
        <time>2022-04-30T20:50:42.367Z</time>
      </trkpt>
      <trkpt lat="43.60719" lon="6.38342">
        <ele>577.270335</ele>
        <time>2022-04-30T20:50:43.098Z</time>
      </trkpt>
      <trkpt lat="43.6072" lon="6.3835">
        <ele>577.121835</ele>
        <time>2022-04-30T20:50:43.699Z</time>
      </trkpt>
      <trkpt lat="43.60725" lon="6.3835">
        <ele>576.977026</ele>
        <time>2022-04-30T20:50:44.499Z</time>
      </trkpt>
      <trkpt lat="43.60746" lon="6.38357">
        <ele>576.138394</ele>
        <time>2022-04-30T20:50:47.482Z</time>
      </trkpt>
      <trkpt lat="43.60805" lon="6.38354">
        <ele>571.382616</ele>
        <time>2022-04-30T20:50:55.025Z</time>
      </trkpt>
      <trkpt lat="43.60825" lon="6.38347">
        <ele>569.700435</ele>
        <time>2022-04-30T20:50:57.593Z</time>
      </trkpt>
      <trkpt lat="43.60895" lon="6.38349">
        <ele>564.004918</ele>
        <time>2022-04-30T20:51:06.144Z</time>
      </trkpt>
      <trkpt lat="43.61017" lon="6.38341">
        <ele>553.154835</ele>
        <time>2022-04-30T20:51:21.235Z</time>
      </trkpt>
      <trkpt lat="43.61053" lon="6.38345">
        <ele>549.91948</ele>
        <time>2022-04-30T20:51:25.625Z</time>
      </trkpt>
      <trkpt lat="43.61063" lon="6.38352">
        <ele>548.889816</ele>
        <time>2022-04-30T20:51:26.980Z</time>
      </trkpt>
      <trkpt lat="43.6109" lon="6.38333">
        <ele>546.133577</ele>
        <time>2022-04-30T20:51:29.659Z</time>
      </trkpt>
      <trkpt lat="43.61108" lon="6.38322">
        <ele>544.741796</ele>
        <time>2022-04-30T20:51:31.466Z</time>
      </trkpt>
      <trkpt lat="43.61135" lon="6.38326">
        <ele>543.140704</ele>
        <time>2022-04-30T20:51:33.831Z</time>
      </trkpt>
      <trkpt lat="43.61147" lon="6.38337">
        <ele>542.306342</ele>
        <time>2022-04-30T20:51:35.120Z</time>
      </trkpt>
      <trkpt lat="43.61169" lon="6.38381">
        <ele>539.949613</ele>
        <time>2022-04-30T20:51:38.700Z</time>
      </trkpt>
      <trkpt lat="43.61183" lon="6.38448">
        <ele>536.954312</ele>
        <time>2022-04-30T20:51:43.332Z</time>
      </trkpt>
      <trkpt lat="43.61187" lon="6.3847">
        <ele>535.939353</ele>
        <time>2022-04-30T20:51:44.930Z</time>
      </trkpt>
      <trkpt lat="43.61184" lon="6.38498">
        <ele>534.820639</ele>
        <time>2022-04-30T20:51:46.868Z</time>
      </trkpt>
      <trkpt lat="43.61108" lon="6.38633">
        <ele>532.225234</ele>
        <time>2022-04-30T20:52:00.050Z</time>
      </trkpt>
      <trkpt lat="43.61087" lon="6.3873">
        <ele>531.615388</ele>
        <time>2022-04-30T20:52:09.396Z</time>
      </trkpt>
      <trkpt lat="43.61049" lon="6.38799">
        <ele>533.307026</ele>
        <time>2022-04-30T20:52:19.799Z</time>
      </trkpt>
      <trkpt lat="43.6104" lon="6.38826">
        <ele>533.884239</ele>
        <time>2022-04-30T20:52:25.869Z</time>
      </trkpt>
      <trkpt lat="43.61046" lon="6.38958">
        <ele>537.102404</ele>
        <time>2022-04-30T20:53:00.365Z</time>
      </trkpt>
      <trkpt lat="43.6106" lon="6.38988">
        <ele>538.712545</ele>
        <time>2022-04-30T20:53:10.869Z</time>
      </trkpt>
      <trkpt lat="43.61093" lon="6.39023">
        <ele>541.210681</ele>
        <time>2022-04-30T20:53:28.784Z</time>
      </trkpt>
      <trkpt lat="43.61165" lon="6.39085">
        <ele>546.285633</ele>
        <time>2022-04-30T20:54:02.694Z</time>
      </trkpt>
      <trkpt lat="43.61248" lon="6.3911">
        <ele>549.89679</ele>
        <time>2022-04-30T20:54:31.448Z</time>
      </trkpt>
      <trkpt lat="43.61293" lon="6.39136">
        <ele>551.858594</ele>
        <time>2022-04-30T20:54:44.193Z</time>
      </trkpt>
      <trkpt lat="43.61307" lon="6.39158">
        <ele>552.717824</ele>
        <time>2022-04-30T20:54:49.715Z</time>
      </trkpt>
      <trkpt lat="43.61307" lon="6.39185">
        <ele>553.527385</ele>
        <time>2022-04-30T20:54:55.299Z</time>
      </trkpt>
      <trkpt lat="43.61299" lon="6.39211">
        <ele>554.388404</ele>
        <time>2022-04-30T20:55:01.386Z</time>
      </trkpt>
      <trkpt lat="43.61284" lon="6.39231">
        <ele>555.261987</ele>
        <time>2022-04-30T20:55:08.061Z</time>
      </trkpt>
      <trkpt lat="43.61252" lon="6.39241">
        <ele>556.687019</ele>
        <time>2022-04-30T20:55:18.341Z</time>
      </trkpt>
      <trkpt lat="43.61205" lon="6.39242">
        <ele>558.680754</ele>
        <time>2022-04-30T20:55:33.180Z</time>
      </trkpt>
      <trkpt lat="43.61138" lon="6.39199">
        <ele>561.829816</ele>
        <time>2022-04-30T20:55:58.682Z</time>
      </trkpt>
      <trkpt lat="43.61102" lon="6.39201">
        <ele>563.052042</ele>
        <time>2022-04-30T20:56:10.528Z</time>
      </trkpt>
      <trkpt lat="43.61078" lon="6.39218">
        <ele>563.944781</ele>
        <time>2022-04-30T20:56:18.824Z</time>
      </trkpt>
      <trkpt lat="43.60985" lon="6.3931">
        <ele>567.798215</ele>
        <time>2022-04-30T20:56:48.424Z</time>
      </trkpt>
      <trkpt lat="43.60963" lon="6.39339">
        <ele>568.434386</ele>
        <time>2022-04-30T20:56:55.732Z</time>
      </trkpt>
      <trkpt lat="43.60948" lon="6.39373">
        <ele>569.038652</ele>
        <time>2022-04-30T20:57:03.131Z</time>
      </trkpt>
      <trkpt lat="43.6094" lon="6.39413">
        <ele>569.66503</ele>
        <time>2022-04-30T20:57:10.379Z</time>
      </trkpt>
      <trkpt lat="43.60937" lon="6.39463">
        <ele>570.42556</ele>
        <time>2022-04-30T20:57:18.723Z</time>
      </trkpt>
      <trkpt lat="43.60946" lon="6.39496">
        <ele>570.961511</ele>
        <time>2022-04-30T20:57:24.115Z</time>
      </trkpt>
      <trkpt lat="43.60985" lon="6.39525">
        <ele>571.790933</ele>
        <time>2022-04-30T20:57:33.591Z</time>
      </trkpt>
      <trkpt lat="43.61006" lon="6.39545">
        <ele>572.171002</ele>
        <time>2022-04-30T20:57:38.373Z</time>
      </trkpt>
      <trkpt lat="43.61012" lon="6.39558">
        <ele>572.323271</ele>
        <time>2022-04-30T20:57:40.662Z</time>
      </trkpt>
      <trkpt lat="43.61014" lon="6.39662">
        <ele>573.436431</ele>
        <time>2022-04-30T20:57:55.786Z</time>
      </trkpt>
      <trkpt lat="43.61039" lon="6.39758">
        <ele>574.853927</ele>
        <time>2022-04-30T20:58:11.267Z</time>
      </trkpt>
      <trkpt lat="43.61039" lon="6.39771">
        <ele>575.123317</ele>
        <time>2022-04-30T20:58:13.466Z</time>
      </trkpt>
      <trkpt lat="43.61022" lon="6.39833">
        <ele>576.555558</ele>
        <time>2022-04-30T20:58:25.276Z</time>
      </trkpt>
      <trkpt lat="43.61018" lon="6.39881">
        <ele>577.60642</ele>
        <time>2022-04-30T20:58:35.184Z</time>
      </trkpt>
      <trkpt lat="43.61009" lon="6.39905">
        <ele>578.184214</ele>
        <time>2022-04-30T20:58:40.937Z</time>
      </trkpt>
      <trkpt lat="43.60909" lon="6.40001">
        <ele>582.570436</ele>
        <time>2022-04-30T20:59:18.167Z</time>
      </trkpt>
      <trkpt lat="43.6087" lon="6.40075">
        <ele>585.240276</ele>
        <time>2022-04-30T20:59:40.350Z</time>
      </trkpt>
      <trkpt lat="43.60863" lon="6.4008">
        <ele>585.558535</ele>
        <time>2022-04-30T20:59:43.201Z</time>
      </trkpt>
      <trkpt lat="43.60852" lon="6.40088">
        <ele>586.049992</ele>
        <time>2022-04-30T20:59:45.889Z</time>
      </trkpt>
      <trkpt lat="43.60835" lon="6.40111">
        <ele>586.957596</ele>
        <time>2022-04-30T20:59:53.828Z</time>
      </trkpt>
      <trkpt lat="43.60813" lon="6.40171">
        <ele>588.560963</ele>
        <time>2022-04-30T21:00:06.008Z</time>
      </trkpt>
      <trkpt lat="43.60793" lon="6.40186">
        <ele>589.29243</ele>
        <time>2022-04-30T21:00:12.708Z</time>
      </trkpt>
      <trkpt lat="43.60748" lon="6.40176">
        <ele>590.78319</ele>
        <time>2022-04-30T21:00:24.571Z</time>
      </trkpt>
      <trkpt lat="43.60721" lon="6.40177">
        <ele>591.680746</ele>
        <time>2022-04-30T21:00:33.205Z</time>
      </trkpt>
      <trkpt lat="43.60696" lon="6.40188">
        <ele>592.530655</ele>
        <time>2022-04-30T21:00:40.007Z</time>
      </trkpt>
      <trkpt lat="43.60678" lon="6.40209">
        <ele>593.235856</ele>
        <time>2022-04-30T21:00:46.140Z</time>
      </trkpt>
      <trkpt lat="43.60668" lon="6.4024">
        <ele>593.958608</ele>
        <time>2022-04-30T21:00:53.602Z</time>
      </trkpt>
      <trkpt lat="43.60625" lon="6.40489">
        <ele>598.753376</ele>
        <time>2022-04-30T21:01:41.888Z</time>
      </trkpt>
      <trkpt lat="43.6061" lon="6.4057">
        <ele>599.704055</ele>
        <time>2022-04-30T21:01:55.687Z</time>
      </trkpt>
      <trkpt lat="43.60553" lon="6.409">
        <ele>601.476714</ele>
        <time>2022-04-30T21:02:35.397Z</time>
      </trkpt>
      <trkpt lat="43.60551" lon="6.40916">
        <ele>601.551463</ele>
        <time>2022-04-30T21:02:37.277Z</time>
      </trkpt>
      <trkpt lat="43.60435" lon="6.41589">
        <ele>606.096236</ele>
        <time>2022-04-30T21:04:08.030Z</time>
      </trkpt>
      <trkpt lat="43.60315" lon="6.42293">
        <ele>617.557234</ele>
        <time>2022-04-30T21:06:14.335Z</time>
      </trkpt>
      <trkpt lat="43.60317" lon="6.42678">
        <ele>622.708379</ele>
        <time>2022-04-30T21:07:17.321Z</time>
      </trkpt>
      <trkpt lat="43.6032" lon="6.42721">
        <ele>623.100669</ele>
        <time>2022-04-30T21:07:23.613Z</time>
      </trkpt>
      <trkpt lat="43.60343" lon="6.42817">
        <ele>623.999285</ele>
        <time>2022-04-30T21:07:37.194Z</time>
      </trkpt>
      <trkpt lat="43.60344" lon="6.4289">
        <ele>624.2896</ele>
        <time>2022-04-30T21:07:46.472Z</time>
      </trkpt>
      <trkpt lat="43.60353" lon="6.4293">
        <ele>624.288046</ele>
        <time>2022-04-30T21:07:51.414Z</time>
      </trkpt>
      <trkpt lat="43.60369" lon="6.43002">
        <ele>624.285205</ele>
        <time>2022-04-30T21:07:58.700Z</time>
      </trkpt>
      <trkpt lat="43.60367" lon="6.43029">
        <ele>624.284148</ele>
        <time>2022-04-30T21:08:01.502Z</time>
      </trkpt>
      <trkpt lat="43.6035" lon="6.43089">
        <ele>624.278243</ele>
        <time>2022-04-30T21:08:07.786Z</time>
      </trkpt>
      <trkpt lat="43.60345" lon="6.43122">
        <ele>624.160048</ele>
        <time>2022-04-30T21:08:11.320Z</time>
      </trkpt>
      <trkpt lat="43.60348" lon="6.43139">
        <ele>624.099073</ele>
        <time>2022-04-30T21:08:13.078Z</time>
      </trkpt>
      <trkpt lat="43.60375" lon="6.43182">
        <ele>623.902522</ele>
        <time>2022-04-30T21:08:18.797Z</time>
      </trkpt>
      <trkpt lat="43.60434" lon="6.4329">
        <ele>623.428709</ele>
        <time>2022-04-30T21:08:32.902Z</time>
      </trkpt>
      <trkpt lat="43.60448" lon="6.43335">
        <ele>622.651049</ele>
        <time>2022-04-30T21:08:36.758Z</time>
      </trkpt>
      <trkpt lat="43.60448" lon="6.43354">
        <ele>622.340981</ele>
        <time>2022-04-30T21:08:38.095Z</time>
      </trkpt>
      <trkpt lat="43.60448" lon="6.43364">
        <ele>622.175445</ele>
        <time>2022-04-30T21:08:38.898Z</time>
      </trkpt>
      <trkpt lat="43.6044" lon="6.43377">
        <ele>621.879033</ele>
        <time>2022-04-30T21:08:40.381Z</time>
      </trkpt>
      <trkpt lat="43.60421" lon="6.43385">
        <ele>621.416087</ele>
        <time>2022-04-30T21:08:42.460Z</time>
      </trkpt>
      <trkpt lat="43.60366" lon="6.43371">
        <ele>620.135623</ele>
        <time>2022-04-30T21:08:48.274Z</time>
      </trkpt>
      <trkpt lat="43.60315" lon="6.4336">
        <ele>619.034223</ele>
        <time>2022-04-30T21:08:53.495Z</time>
      </trkpt>
      <trkpt lat="43.60296" lon="6.4337">
        <ele>618.71755</ele>
        <time>2022-04-30T21:08:55.673Z</time>
      </trkpt>
      <trkpt lat="43.60276" lon="6.43403">
        <ele>618.232832</ele>
        <time>2022-04-30T21:08:58.862Z</time>
      </trkpt>
      <trkpt lat="43.60266" lon="6.43458">
        <ele>617.616697</ele>
        <time>2022-04-30T21:09:03.050Z</time>
      </trkpt>
      <trkpt lat="43.60272" lon="6.43487">
        <ele>617.281116</ele>
        <time>2022-04-30T21:09:05.396Z</time>
      </trkpt>
      <trkpt lat="43.60332" lon="6.43539">
        <ele>616.577221</ele>
        <time>2022-04-30T21:09:19.002Z</time>
      </trkpt>
      <trkpt lat="43.60343" lon="6.43567">
        <ele>616.702621</ele>
        <time>2022-04-30T21:09:24.056Z</time>
      </trkpt>
      <trkpt lat="43.60353" lon="6.43633">
        <ele>616.968451</ele>
        <time>2022-04-30T21:09:36.506Z</time>
      </trkpt>
      <trkpt lat="43.60344" lon="6.43691">
        <ele>617.201995</ele>
        <time>2022-04-30T21:09:44.634Z</time>
      </trkpt>
      <trkpt lat="43.60345" lon="6.43726">
        <ele>617.340405</ele>
        <time>2022-04-30T21:09:48.631Z</time>
      </trkpt>
      <trkpt lat="43.60348" lon="6.43763">
        <ele>617.117732</ele>
        <time>2022-04-30T21:09:51.512Z</time>
      </trkpt>
      <trkpt lat="43.60336" lon="6.43801">
        <ele>615.219081</ele>
        <time>2022-04-30T21:09:54.654Z</time>
      </trkpt>
      <trkpt lat="43.60347" lon="6.43864">
        <ele>612.308471</ele>
        <time>2022-04-30T21:09:59.108Z</time>
      </trkpt>
      <trkpt lat="43.60349" lon="6.43901">
        <ele>610.63361</ele>
        <time>2022-04-30T21:10:01.471Z</time>
      </trkpt>
      <trkpt lat="43.60334" lon="6.4392">
        <ele>609.361196</ele>
        <time>2022-04-30T21:10:03.310Z</time>
      </trkpt>
      <trkpt lat="43.60294" lon="6.43951">
        <ele>606.507257</ele>
        <time>2022-04-30T21:10:07.268Z</time>
      </trkpt>
      <trkpt lat="43.60232" lon="6.44006">
        <ele>598.805829</ele>
        <time>2022-04-30T21:10:13.583Z</time>
      </trkpt>
      <trkpt lat="43.60216" lon="6.44032">
        <ele>596.18109</ele>
        <time>2022-04-30T21:10:15.678Z</time>
      </trkpt>
      <trkpt lat="43.60213" lon="6.44047">
        <ele>594.953557</ele>
        <time>2022-04-30T21:10:16.657Z</time>
      </trkpt>
      <trkpt lat="43.60213" lon="6.44079">
        <ele>592.453467</ele>
        <time>2022-04-30T21:10:18.654Z</time>
      </trkpt>
      <trkpt lat="43.60229" lon="6.44179">
        <ele>584.715497</ele>
        <time>2022-04-30T21:10:24.977Z</time>
      </trkpt>
      <trkpt lat="43.60281" lon="6.44287">
        <ele>575.327349</ele>
        <time>2022-04-30T21:10:33.048Z</time>
      </trkpt>
      <trkpt lat="43.60286" lon="6.44316">
        <ele>573.202629</ele>
        <time>2022-04-30T21:10:34.893Z</time>
      </trkpt>
      <trkpt lat="43.60282" lon="6.44337">
        <ele>571.620951</ele>
        <time>2022-04-30T21:10:36.269Z</time>
      </trkpt>
      <trkpt lat="43.6026" lon="6.44384">
        <ele>568.040639</ele>
        <time>2022-04-30T21:10:39.797Z</time>
      </trkpt>
      <trkpt lat="43.60253" lon="6.44419">
        <ele>566.272123</ele>
        <time>2022-04-30T21:10:42.092Z</time>
      </trkpt>
      <trkpt lat="43.60266" lon="6.4455">
        <ele>559.81838</ele>
        <time>2022-04-30T21:10:50.780Z</time>
      </trkpt>
      <trkpt lat="43.60266" lon="6.44595">
        <ele>557.606189</ele>
        <time>2022-04-30T21:10:53.885Z</time>
      </trkpt>
      <trkpt lat="43.60263" lon="6.44656">
        <ele>555.011313</ele>
        <time>2022-04-30T21:10:58.071Z</time>
      </trkpt>
      <trkpt lat="43.60254" lon="6.44686">
        <ele>553.693241</ele>
        <time>2022-04-30T21:11:00.260Z</time>
      </trkpt>
      <trkpt lat="43.60241" lon="6.44718">
        <ele>552.228137</ele>
        <time>2022-04-30T21:11:02.685Z</time>
      </trkpt>
      <trkpt lat="43.60209" lon="6.44774">
        <ele>549.332485</ele>
        <time>2022-04-30T21:11:07.511Z</time>
      </trkpt>
      <trkpt lat="43.60199" lon="6.44803">
        <ele>548.033541</ele>
        <time>2022-04-30T21:11:09.676Z</time>
      </trkpt>
      <trkpt lat="43.60182" lon="6.44844">
        <ele>546.174351</ele>
        <time>2022-04-30T21:11:12.874Z</time>
      </trkpt>
      <trkpt lat="43.6011" lon="6.44934">
        <ele>541.102851</ele>
        <time>2022-04-30T21:11:21.775Z</time>
      </trkpt>
      <trkpt lat="43.60052" lon="6.4498">
        <ele>537.625007</ele>
        <time>2022-04-30T21:11:28.062Z</time>
      </trkpt>
      <trkpt lat="43.6004" lon="6.44999">
        <ele>536.896349</ele>
        <time>2022-04-30T21:11:29.857Z</time>
      </trkpt>
      <trkpt lat="43.60024" lon="6.45059">
        <ele>535.137356</ele>
        <time>2022-04-30T21:11:34.568Z</time>
      </trkpt>
      <trkpt lat="43.60022" lon="6.45141">
        <ele>532.901499</ele>
        <time>2022-04-30T21:11:40.541Z</time>
      </trkpt>
      <trkpt lat="43.60019" lon="6.45153">
        <ele>532.559636</ele>
        <time>2022-04-30T21:11:41.474Z</time>
      </trkpt>
      <trkpt lat="43.60009" lon="6.45168">
        <ele>532.001581</ele>
        <time>2022-04-30T21:11:42.968Z</time>
      </trkpt>
      <trkpt lat="43.59995" lon="6.45171">
        <ele>531.448605</ele>
        <time>2022-04-30T21:11:44.423Z</time>
      </trkpt>
      <trkpt lat="43.59979" lon="6.45161">
        <ele>530.813659</ele>
        <time>2022-04-30T21:11:46.110Z</time>
      </trkpt>
      <trkpt lat="43.59923" lon="6.45058">
        <ele>526.251019</ele>
        <time>2022-04-30T21:11:54.987Z</time>
      </trkpt>
      <trkpt lat="43.59898" lon="6.45006">
        <ele>524.044274</ele>
        <time>2022-04-30T21:11:59.202Z</time>
      </trkpt>
      <trkpt lat="43.59895" lon="6.45001">
        <ele>523.799152</ele>
        <time>2022-04-30T21:11:59.678Z</time>
      </trkpt>
      <trkpt lat="43.59877" lon="6.44979">
        <ele>522.611968</ele>
        <time>2022-04-30T21:12:01.998Z</time>
      </trkpt>
      <trkpt lat="43.59806" lon="6.44972">
        <ele>516.139714</ele>
        <time>2022-04-30T21:12:08.548Z</time>
      </trkpt>
      <trkpt lat="43.59794" lon="6.44979">
        <ele>514.8575</ele>
        <time>2022-04-30T21:12:09.657Z</time>
      </trkpt>
      <trkpt lat="43.59776" lon="6.45003">
        <ele>512.307649</ele>
        <time>2022-04-30T21:12:11.780Z</time>
      </trkpt>
      <trkpt lat="43.59749" lon="6.45032">
        <ele>508.834948</ele>
        <time>2022-04-30T21:12:14.642Z</time>
      </trkpt>
      <trkpt lat="43.59736" lon="6.45037">
        <ele>507.421365</ele>
        <time>2022-04-30T21:12:15.842Z</time>
      </trkpt>
      <trkpt lat="43.59705" lon="6.45029">
        <ele>504.268046</ele>
        <time>2022-04-30T21:12:18.450Z</time>
      </trkpt>
      <trkpt lat="43.59667" lon="6.45022">
        <ele>499.531654</ele>
        <time>2022-04-30T21:12:21.623Z</time>
      </trkpt>
      <trkpt lat="43.59647" lon="6.45024">
        <ele>496.881828</ele>
        <time>2022-04-30T21:12:23.324Z</time>
      </trkpt>
      <trkpt lat="43.59609" lon="6.4504">
        <ele>491.734722</ele>
        <time>2022-04-30T21:12:26.687Z</time>
      </trkpt>
      <trkpt lat="43.59574" lon="6.45082">
        <ele>485.791914</ele>
        <time>2022-04-30T21:12:30.579Z</time>
      </trkpt>
      <trkpt lat="43.59554" lon="6.45122">
        <ele>481.301533</ele>
        <time>2022-04-30T21:12:33.513Z</time>
      </trkpt>
      <trkpt lat="43.59543" lon="6.45152">
        <ele>478.613782</ele>
        <time>2022-04-30T21:12:36.465Z</time>
      </trkpt>
      <trkpt lat="43.5954" lon="6.45169">
        <ele>477.405992</ele>
        <time>2022-04-30T21:12:37.590Z</time>
      </trkpt>
      <trkpt lat="43.59545" lon="6.45219">
        <ele>473.884031</ele>
        <time>2022-04-30T21:12:40.685Z</time>
      </trkpt>
      <trkpt lat="43.59522" lon="6.45266">
        <ele>469.887989</ele>
        <time>2022-04-30T21:12:44.252Z</time>
      </trkpt>
      <trkpt lat="43.59515" lon="6.4531">
        <ele>466.733444</ele>
        <time>2022-04-30T21:12:47.118Z</time>
      </trkpt>
      <trkpt lat="43.59508" lon="6.45326">
        <ele>465.387352</ele>
        <time>2022-04-30T21:12:48.296Z</time>
      </trkpt>
      <trkpt lat="43.59494" lon="6.45369">
        <ele>462.306894</ele>
        <time>2022-04-30T21:12:51.369Z</time>
      </trkpt>
      <trkpt lat="43.59489" lon="6.45425">
        <ele>459.176824</ele>
        <time>2022-04-30T21:12:54.989Z</time>
      </trkpt>
      <trkpt lat="43.59496" lon="6.45542">
        <ele>452.736515</ele>
        <time>2022-04-30T21:13:02.390Z</time>
      </trkpt>
      <trkpt lat="43.5951" lon="6.45613">
        <ele>448.895475</ele>
        <time>2022-04-30T21:13:07.330Z</time>
      </trkpt>
      <trkpt lat="43.59504" lon="6.45776">
        <ele>443.261465</ele>
        <time>2022-04-30T21:13:18.533Z</time>
      </trkpt>
      <trkpt lat="43.59507" lon="6.4582">
        <ele>441.721579</ele>
        <time>2022-04-30T21:13:21.657Z</time>
      </trkpt>
      <trkpt lat="43.59527" lon="6.45908">
        <ele>439.321379</ele>
        <time>2022-04-30T21:13:28.218Z</time>
      </trkpt>
      <trkpt lat="43.59556" lon="6.45976">
        <ele>437.590595</ele>
        <time>2022-04-30T21:13:33.896Z</time>
      </trkpt>
      <trkpt lat="43.59559" lon="6.46002">
        <ele>437.009201</ele>
        <time>2022-04-30T21:13:35.795Z</time>
      </trkpt>
      <trkpt lat="43.59548" lon="6.46077">
        <ele>435.320546</ele>
        <time>2022-04-30T21:13:41.944Z</time>
      </trkpt>
      <trkpt lat="43.59563" lon="6.46136">
        <ele>434.556271</ele>
        <time>2022-04-30T21:13:47.082Z</time>
      </trkpt>
      <trkpt lat="43.59586" lon="6.46177">
        <ele>433.978906</ele>
        <time>2022-04-30T21:13:51.306Z</time>
      </trkpt>
      <trkpt lat="43.59644" lon="6.462">
        <ele>433.052976</ele>
        <time>2022-04-30T21:13:58.072Z</time>
      </trkpt>
      <trkpt lat="43.59643" lon="6.4622">
        <ele>432.828132</ele>
        <time>2022-04-30T21:13:59.708Z</time>
      </trkpt>
      <trkpt lat="43.59616" lon="6.46396">
        <ele>431.989018</ele>
        <time>2022-04-30T21:14:16.482Z</time>
      </trkpt>
      <trkpt lat="43.5959" lon="6.46572">
        <ele>432.804871</ele>
        <time>2022-04-30T21:14:35.951Z</time>
      </trkpt>
      <trkpt lat="43.59582" lon="6.466">
        <ele>433.259346</ele>
        <time>2022-04-30T21:14:40.450Z</time>
      </trkpt>
      <trkpt lat="43.59554" lon="6.46646">
        <ele>434.1501</ele>
        <time>2022-04-30T21:14:51.547Z</time>
      </trkpt>
      <trkpt lat="43.59536" lon="6.4667">
        <ele>434.670477</ele>
        <time>2022-04-30T21:14:58.644Z</time>
      </trkpt>
      <trkpt lat="43.59455" lon="6.46751">
        <ele>438.055892</ele>
        <time>2022-04-30T21:15:28.869Z</time>
      </trkpt>
      <trkpt lat="43.59451" lon="6.46765">
        <ele>438.503529</ele>
        <time>2022-04-30T21:15:32.755Z</time>
      </trkpt>
      <trkpt lat="43.59529" lon="6.46807">
        <ele>441.914535</ele>
        <time>2022-04-30T21:15:57.156Z</time>
      </trkpt>
      <trkpt lat="43.59531" lon="6.46821">
        <ele>442.357858</ele>
        <time>2022-04-30T21:16:00.517Z</time>
      </trkpt>
      <trkpt lat="43.59532" lon="6.46827">
        <ele>442.5498</ele>
        <time>2022-04-30T21:16:02.580Z</time>
      </trkpt>
      <trkpt lat="43.59543" lon="6.46824">
        <ele>443.066115</ele>
        <time>2022-04-30T21:16:06.873Z</time>
      </trkpt>
      <trkpt lat="43.59575" lon="6.46846">
        <ele>444.803667</ele>
        <time>2022-04-30T21:16:20.320Z</time>
      </trkpt>
      <trkpt lat="43.59613" lon="6.46895">
        <ele>447.364692</ele>
        <time>2022-04-30T21:16:38.557Z</time>
      </trkpt>
      <trkpt lat="43.59635" lon="6.46938">
        <ele>449.232991</ele>
        <time>2022-04-30T21:16:51.726Z</time>
      </trkpt>
      <trkpt lat="43.59663" lon="6.47022">
        <ele>452.162359</ele>
        <time>2022-04-30T21:17:13.972Z</time>
      </trkpt>
      <trkpt lat="43.59684" lon="6.47138">
        <ele>454.886252</ele>
        <time>2022-04-30T21:17:42.291Z</time>
      </trkpt>
      <trkpt lat="43.59696" lon="6.47164">
        <ele>455.592955</ele>
        <time>2022-04-30T21:17:49.445Z</time>
      </trkpt>
      <trkpt lat="43.59727" lon="6.47205">
        <ele>456.940667</ele>
        <time>2022-04-30T21:17:58.691Z</time>
      </trkpt>
      <trkpt lat="43.59836" lon="6.47295">
        <ele>456.359239</ele>
        <time>2022-04-30T21:18:13.486Z</time>
      </trkpt>
      <trkpt lat="43.59881" lon="6.47345">
        <ele>455.928031</ele>
        <time>2022-04-30T21:18:20.013Z</time>
      </trkpt>
      <trkpt lat="43.59965" lon="6.47415">
        <ele>457.725933</ele>
        <time>2022-04-30T21:18:39.664Z</time>
      </trkpt>
      <trkpt lat="43.60061" lon="6.47491">
        <ele>459.932533</ele>
        <time>2022-04-30T21:19:10.957Z</time>
      </trkpt>
      <trkpt lat="43.60125" lon="6.47626">
        <ele>462.540697</ele>
        <time>2022-04-30T21:19:44.086Z</time>
      </trkpt>
      <trkpt lat="43.6023" lon="6.47759">
        <ele>462.076291</ele>
        <time>2022-04-30T21:20:01.142Z</time>
      </trkpt>
      <trkpt lat="43.60273" lon="6.47812">
        <ele>461.343454</ele>
        <time>2022-04-30T21:20:07.518Z</time>
      </trkpt>
      <trkpt lat="43.6029" lon="6.47823">
        <ele>461.10605</ele>
        <time>2022-04-30T21:20:09.469Z</time>
      </trkpt>
      <trkpt lat="43.60381" lon="6.47855">
        <ele>460.293759</ele>
        <time>2022-04-30T21:20:20.617Z</time>
      </trkpt>
      <trkpt lat="43.60394" lon="6.47859">
        <ele>460.176964</ele>
        <time>2022-04-30T21:20:22.101Z</time>
      </trkpt>
      <trkpt lat="43.60411" lon="6.47865">
        <ele>460.030759</ele>
        <time>2022-04-30T21:20:24.736Z</time>
      </trkpt>
      <trkpt lat="43.60458" lon="6.47888">
        <ele>459.59794</ele>
        <time>2022-04-30T21:20:31.743Z</time>
      </trkpt>
      <trkpt lat="43.60515" lon="6.47945">
        <ele>459.90244</ele>
        <time>2022-04-30T21:20:43.172Z</time>
      </trkpt>
      <trkpt lat="43.60565" lon="6.47996">
        <ele>460.230893</ele>
        <time>2022-04-30T21:20:53.712Z</time>
      </trkpt>
      <trkpt lat="43.6062" lon="6.48051">
        <ele>460.766006</ele>
        <time>2022-04-30T21:21:05.782Z</time>
      </trkpt>
      <trkpt lat="43.6066" lon="6.48075">
        <ele>461.489102</ele>
        <time>2022-04-30T21:21:14.726Z</time>
      </trkpt>
      <trkpt lat="43.60741" lon="6.48089">
        <ele>462.839737</ele>
        <time>2022-04-30T21:21:33.307Z</time>
      </trkpt>
      <trkpt lat="43.60807" lon="6.48129">
        <ele>464.036524</ele>
        <time>2022-04-30T21:21:50.072Z</time>
      </trkpt>
      <trkpt lat="43.60834" lon="6.48144">
        <ele>464.51685</ele>
        <time>2022-04-30T21:21:56.170Z</time>
      </trkpt>
      <trkpt lat="43.60925" lon="6.48178">
        <ele>466.072985</ele>
        <time>2022-04-30T21:22:16.375Z</time>
      </trkpt>
      <trkpt lat="43.60951" lon="6.48183">
        <ele>466.554505</ele>
        <time>2022-04-30T21:22:21.385Z</time>
      </trkpt>
      <trkpt lat="43.60972" lon="6.48204">
        <ele>467.356586</ele>
        <time>2022-04-30T21:22:26.022Z</time>
      </trkpt>
      <trkpt lat="43.60981" lon="6.4822">
        <ele>467.824131</ele>
        <time>2022-04-30T21:22:29.004Z</time>
      </trkpt>
      <trkpt lat="43.60994" lon="6.48239">
        <ele>468.425048</ele>
        <time>2022-04-30T21:22:33.162Z</time>
      </trkpt>
      <trkpt lat="43.60997" lon="6.48241">
        <ele>468.524353</ele>
        <time>2022-04-30T21:22:33.819Z</time>
      </trkpt>
      <trkpt lat="43.61012" lon="6.48247">
        <ele>468.996835</ele>
        <time>2022-04-30T21:22:37.522Z</time>
      </trkpt>
      <trkpt lat="43.61039" lon="6.4825">
        <ele>469.854661</ele>
        <time>2022-04-30T21:22:44.530Z</time>
      </trkpt>
      <trkpt lat="43.61068" lon="6.48228">
        <ele>470.87505</ele>
        <time>2022-04-30T21:22:54.402Z</time>
      </trkpt>
      <trkpt lat="43.61102" lon="6.48199">
        <ele>472.218623</ele>
        <time>2022-04-30T21:23:08.432Z</time>
      </trkpt>
      <trkpt lat="43.61116" lon="6.48195">
        <ele>473.392417</ele>
        <time>2022-04-30T21:23:14.098Z</time>
      </trkpt>
      <trkpt lat="43.61154" lon="6.48195">
        <ele>476.535741</ele>
        <time>2022-04-30T21:23:30.006Z</time>
      </trkpt>
      <trkpt lat="43.6118" lon="6.48175">
        <ele>479.004651</ele>
        <time>2022-04-30T21:23:43.935Z</time>
      </trkpt>
      <trkpt lat="43.61238" lon="6.48129">
        <ele>484.604107</ele>
        <time>2022-04-30T21:24:19.426Z</time>
      </trkpt>
      <trkpt lat="43.61252" lon="6.48116">
        <ele>485.986333</ele>
        <time>2022-04-30T21:24:28.718Z</time>
      </trkpt>
      <trkpt lat="43.61267" lon="6.48119">
        <ele>487.254023</ele>
        <time>2022-04-30T21:24:37.373Z</time>
      </trkpt>
      <trkpt lat="43.6128" lon="6.48132">
        <ele>488.796538</ele>
        <time>2022-04-30T21:24:47.048Z</time>
      </trkpt>
      <trkpt lat="43.61285" lon="6.48136">
        <ele>489.257392</ele>
        <time>2022-04-30T21:24:49.948Z</time>
      </trkpt>
      <trkpt lat="43.61295" lon="6.48138">
        <ele>490.160746</ele>
        <time>2022-04-30T21:24:55.853Z</time>
      </trkpt>
      <trkpt lat="43.61318" lon="6.48137">
        <ele>492.268758</ele>
        <time>2022-04-30T21:25:08.876Z</time>
      </trkpt>
      <trkpt lat="43.61372" lon="6.48129">
        <ele>497.247593</ele>
        <time>2022-04-30T21:25:38.360Z</time>
      </trkpt>
      <trkpt lat="43.6139" lon="6.48122">
        <ele>498.915499</ele>
        <time>2022-04-30T21:25:47.209Z</time>
      </trkpt>
      <trkpt lat="43.61446" lon="6.48098">
        <ele>504.017967</ele>
        <time>2022-04-30T21:26:13.920Z</time>
      </trkpt>
      <trkpt lat="43.61512" lon="6.48089">
        <ele>508.586014</ele>
        <time>2022-04-30T21:26:40.586Z</time>
      </trkpt>
      <trkpt lat="43.61589" lon="6.48041">
        <ele>514.410055</ele>
        <time>2022-04-30T21:27:16.624Z</time>
      </trkpt>
      <trkpt lat="43.61635" lon="6.48038">
        <ele>518.337784</ele>
        <time>2022-04-30T21:27:34.992Z</time>
      </trkpt>
      <trkpt lat="43.61656" lon="6.48052">
        <ele>520.6414</ele>
        <time>2022-04-30T21:27:45.513Z</time>
      </trkpt>
      <trkpt lat="43.6169" lon="6.4805">
        <ele>523.993552</ele>
        <time>2022-04-30T21:28:01.976Z</time>
      </trkpt>
      <trkpt lat="43.61766" lon="6.48037">
        <ele>531.529332</ele>
        <time>2022-04-30T21:28:48.746Z</time>
      </trkpt>
      <trkpt lat="43.61811" lon="6.48053">
        <ele>536.371326</ele>
        <time>2022-04-30T21:29:21.082Z</time>
      </trkpt>
      <trkpt lat="43.61922" lon="6.48139">
        <ele>550.061933</ele>
        <time>2022-04-30T21:30:37.584Z</time>
      </trkpt>
      <trkpt lat="43.62012" lon="6.48197">
        <ele>556.087768</ele>
        <time>2022-04-30T21:31:20.632Z</time>
      </trkpt>
      <trkpt lat="43.62019" lon="6.48206">
        <ele>556.510203</ele>
        <time>2022-04-30T21:31:23.364Z</time>
      </trkpt>
      <trkpt lat="43.6202" lon="6.48225">
        <ele>557.14297</ele>
        <time>2022-04-30T21:31:27.078Z</time>
      </trkpt>
      <trkpt lat="43.62014" lon="6.48235">
        <ele>557.553499</ele>
        <time>2022-04-30T21:31:29.696Z</time>
      </trkpt>
      <trkpt lat="43.62004" lon="6.48238">
        <ele>558.022688</ele>
        <time>2022-04-30T21:31:32.182Z</time>
      </trkpt>
      <trkpt lat="43.61973" lon="6.48206">
        <ele>559.754384</ele>
        <time>2022-04-30T21:31:39.529Z</time>
      </trkpt>
      <trkpt lat="43.6194" lon="6.48183">
        <ele>561.307725</ele>
        <time>2022-04-30T21:31:46.893Z</time>
      </trkpt>
      <trkpt lat="43.61921" lon="6.4816">
        <ele>562.313549</ele>
        <time>2022-04-30T21:31:53.201Z</time>
      </trkpt>
      <trkpt lat="43.61912" lon="6.48157">
        <ele>562.652235</ele>
        <time>2022-04-30T21:31:55.220Z</time>
      </trkpt>
      <trkpt lat="43.61905" lon="6.48166">
        <ele>563.052823</ele>
        <time>2022-04-30T21:31:57.773Z</time>
      </trkpt>
      <trkpt lat="43.6191" lon="6.48185">
        <ele>563.630269</ele>
        <time>2022-04-30T21:32:02.763Z</time>
      </trkpt>
      <trkpt lat="43.61941" lon="6.48204">
        <ele>564.961111</ele>
        <time>2022-04-30T21:32:14.404Z</time>
      </trkpt>
      <trkpt lat="43.61991" lon="6.48257">
        <ele>567.448742</ele>
        <time>2022-04-30T21:32:37.344Z</time>
      </trkpt>
      <trkpt lat="43.62061" lon="6.48307">
        <ele>569.878602</ele>
        <time>2022-04-30T21:33:03.472Z</time>
      </trkpt>
      <trkpt lat="43.62083" lon="6.48317">
        <ele>570.584356</ele>
        <time>2022-04-30T21:33:10.328Z</time>
      </trkpt>
      <trkpt lat="43.62113" lon="6.48324">
        <ele>571.4716</ele>
        <time>2022-04-30T21:33:18.232Z</time>
      </trkpt>
      <trkpt lat="43.62146" lon="6.48318">
        <ele>572.465359</ele>
        <time>2022-04-30T21:33:25.875Z</time>
      </trkpt>
      <trkpt lat="43.62269" lon="6.48253">
        <ele>575.4887</ele>
        <time>2022-04-30T21:33:44.659Z</time>
      </trkpt>
      <trkpt lat="43.62324" lon="6.48218">
        <ele>576.782803</ele>
        <time>2022-04-30T21:34:02.168Z</time>
      </trkpt>
      <trkpt lat="43.6235" lon="6.48215">
        <ele>578.106133</ele>
        <time>2022-04-30T21:34:12.625Z</time>
      </trkpt>
      <trkpt lat="43.6251" lon="6.48348">
        <ele>590.572405</ele>
        <time>2022-04-30T21:35:43.147Z</time>
      </trkpt>
      <trkpt lat="43.62563" lon="6.48425">
        <ele>591.7705</ele>
        <time>2022-04-30T21:36:02.219Z</time>
      </trkpt>
      <trkpt lat="43.62594" lon="6.48498">
        <ele>592.71878</ele>
        <time>2022-04-30T21:36:09.279Z</time>
      </trkpt>
      <trkpt lat="43.62612" lon="6.48506">
        <ele>593.023956</ele>
        <time>2022-04-30T21:36:11.427Z</time>
      </trkpt>
      <trkpt lat="43.6263" lon="6.48492">
        <ele>592.783888</ele>
        <time>2022-04-30T21:36:13.355Z</time>
      </trkpt>
      <trkpt lat="43.62639" lon="6.4846">
        <ele>592.447672</ele>
        <time>2022-04-30T21:36:16.078Z</time>
      </trkpt>
      <trkpt lat="43.62654" lon="6.48336">
        <ele>591.195612</ele>
        <time>2022-04-30T21:36:26.569Z</time>
      </trkpt>
      <trkpt lat="43.62661" lon="6.4831">
        <ele>590.923491</ele>
        <time>2022-04-30T21:36:28.529Z</time>
      </trkpt>
      <trkpt lat="43.6269" lon="6.48233">
        <ele>591.840947</ele>
        <time>2022-04-30T21:36:40.241Z</time>
      </trkpt>
      <trkpt lat="43.62711" lon="6.48135">
        <ele>594.274971</ele>
        <time>2022-04-30T21:37:01.943Z</time>
      </trkpt>
      <trkpt lat="43.6272" lon="6.48123">
        <ele>594.698925</ele>
        <time>2022-04-30T21:37:06.107Z</time>
      </trkpt>
      <trkpt lat="43.62732" lon="6.48116">
        <ele>595.123972</ele>
        <time>2022-04-30T21:37:11.274Z</time>
      </trkpt>
      <trkpt lat="43.62744" lon="6.48122">
        <ele>595.542853</ele>
        <time>2022-04-30T21:37:16.067Z</time>
      </trkpt>
      <trkpt lat="43.62752" lon="6.48134">
        <ele>595.94182</ele>
        <time>2022-04-30T21:37:20.348Z</time>
      </trkpt>
      <trkpt lat="43.62755" lon="6.48166">
        <ele>596.827889</ele>
        <time>2022-04-30T21:37:28.263Z</time>
      </trkpt>
      <trkpt lat="43.62745" lon="6.48336">
        <ele>603.345307</ele>
        <time>2022-04-30T21:38:10.571Z</time>
      </trkpt>
      <trkpt lat="43.6276" lon="6.48374">
        <ele>605.006012</ele>
        <time>2022-04-30T21:38:23.352Z</time>
      </trkpt>
      <trkpt lat="43.62811" lon="6.48429">
        <ele>608.508294</ele>
        <time>2022-04-30T21:38:48.759Z</time>
      </trkpt>
      <trkpt lat="43.6282" lon="6.48447">
        <ele>609.36743</ele>
        <time>2022-04-30T21:38:54.629Z</time>
      </trkpt>
      <trkpt lat="43.62821" lon="6.48476">
        <ele>610.523195</ele>
        <time>2022-04-30T21:39:02.242Z</time>
      </trkpt>
      <trkpt lat="43.62802" lon="6.48519">
        <ele>612.534373</ele>
        <time>2022-04-30T21:39:15.076Z</time>
      </trkpt>
      <trkpt lat="43.62798" lon="6.48559">
        <ele>614.102579</ele>
        <time>2022-04-30T21:39:25.167Z</time>
      </trkpt>
      <trkpt lat="43.62809" lon="6.4862">
        <ele>616.565002</ele>
        <time>2022-04-30T21:39:41.224Z</time>
      </trkpt>
      <trkpt lat="43.62816" lon="6.48707">
        <ele>619.912718</ele>
        <time>2022-04-30T21:40:04.687Z</time>
      </trkpt>
      <trkpt lat="43.62858" lon="6.48824">
        <ele>624.899194</ele>
        <time>2022-04-30T21:40:38.413Z</time>
      </trkpt>
      <trkpt lat="43.62855" lon="6.4885">
        <ele>625.855079</ele>
        <time>2022-04-30T21:40:45.172Z</time>
      </trkpt>
      <trkpt lat="43.62839" lon="6.48888">
        <ele>627.417703</ele>
        <time>2022-04-30T21:40:56.640Z</time>
      </trkpt>
      <trkpt lat="43.62834" lon="6.48913">
        <ele>628.358395</ele>
        <time>2022-04-30T21:41:03.677Z</time>
      </trkpt>
      <trkpt lat="43.62829" lon="6.49105">
        <ele>635.528527</ele>
        <time>2022-04-30T21:41:49.872Z</time>
      </trkpt>
      <trkpt lat="43.62839" lon="6.49146">
        <ele>637.555101</ele>
        <time>2022-04-30T21:42:00.976Z</time>
      </trkpt>
      <trkpt lat="43.62867" lon="6.49214">
        <ele>641.244331</ele>
        <time>2022-04-30T21:42:23.648Z</time>
      </trkpt>
      <trkpt lat="43.62888" lon="6.49245">
        <ele>643.284961</ele>
        <time>2022-04-30T21:42:37.303Z</time>
      </trkpt>
      <trkpt lat="43.62917" lon="6.49272">
        <ele>645.552005</ele>
        <time>2022-04-30T21:42:53.594Z</time>
      </trkpt>
      <trkpt lat="43.62938" lon="6.49278">
        <ele>647.248474</ele>
        <time>2022-04-30T21:43:04.480Z</time>
      </trkpt>
      <trkpt lat="43.62963" lon="6.49264">
        <ele>649.531215</ele>
        <time>2022-04-30T21:43:18.050Z</time>
      </trkpt>
      <trkpt lat="43.63061" lon="6.49144">
        <ele>660.48754</ele>
        <time>2022-04-30T21:44:22.792Z</time>
      </trkpt>
      <trkpt lat="43.63083" lon="6.49132">
        <ele>662.256863</ele>
        <time>2022-04-30T21:44:32.981Z</time>
      </trkpt>
      <trkpt lat="43.63117" lon="6.49125">
        <ele>664.782127</ele>
        <time>2022-04-30T21:44:47.933Z</time>
      </trkpt>
      <trkpt lat="43.63129" lon="6.49112">
        <ele>665.917198</ele>
        <time>2022-04-30T21:44:55.242Z</time>
      </trkpt>
      <trkpt lat="43.63136" lon="6.49083">
        <ele>667.54731</ele>
        <time>2022-04-30T21:45:05.054Z</time>
      </trkpt>
      <trkpt lat="43.63135" lon="6.49048">
        <ele>669.389347</ele>
        <time>2022-04-30T21:45:16.307Z</time>
      </trkpt>
      <trkpt lat="43.63117" lon="6.48978">
        <ele>673.327763</ele>
        <time>2022-04-30T21:45:38.250Z</time>
      </trkpt>
      <trkpt lat="43.63115" lon="6.48948">
        <ele>674.900015</ele>
        <time>2022-04-30T21:45:47.544Z</time>
      </trkpt>
      <trkpt lat="43.63119" lon="6.48907">
        <ele>677.030122</ele>
        <time>2022-04-30T21:46:01.209Z</time>
      </trkpt>
      <trkpt lat="43.63131" lon="6.48875">
        <ele>678.849239</ele>
        <time>2022-04-30T21:46:12.804Z</time>
      </trkpt>
      <trkpt lat="43.63204" lon="6.48785">
        <ele>685.755768</ele>
        <time>2022-04-30T21:46:55.893Z</time>
      </trkpt>
      <trkpt lat="43.63226" lon="6.48777">
        <ele>687.229991</ele>
        <time>2022-04-30T21:47:05.925Z</time>
      </trkpt>
      <trkpt lat="43.63262" lon="6.48774">
        <ele>689.059568</ele>
        <time>2022-04-30T21:47:19.164Z</time>
      </trkpt>
      <trkpt lat="43.63283" lon="6.4876">
        <ele>690.235305</ele>
        <time>2022-04-30T21:47:27.298Z</time>
      </trkpt>
      <trkpt lat="43.63293" lon="6.48745">
        <ele>690.950277</ele>
        <time>2022-04-30T21:47:32.433Z</time>
      </trkpt>
      <trkpt lat="43.63327" lon="6.48659">
        <ele>694.547077</ele>
        <time>2022-04-30T21:47:56.279Z</time>
      </trkpt>
      <trkpt lat="43.63345" lon="6.48636">
        <ele>695.844784</ele>
        <time>2022-04-30T21:48:04.019Z</time>
      </trkpt>
      <trkpt lat="43.63383" lon="6.48602">
        <ele>697.481058</ele>
        <time>2022-04-30T21:48:17.284Z</time>
      </trkpt>
      <trkpt lat="43.63401" lon="6.48573">
        <ele>698.466635</ele>
        <time>2022-04-30T21:48:25.615Z</time>
      </trkpt>
      <trkpt lat="43.63411" lon="6.48532">
        <ele>699.589019</ele>
        <time>2022-04-30T21:48:34.910Z</time>
      </trkpt>
      <trkpt lat="43.63406" lon="6.48415">
        <ele>702.624174</ele>
        <time>2022-04-30T21:48:58.758Z</time>
      </trkpt>
      <trkpt lat="43.63419" lon="6.48337">
        <ele>704.520713</ele>
        <time>2022-04-30T21:49:14.471Z</time>
      </trkpt>
      <trkpt lat="43.63427" lon="6.48313">
        <ele>705.131141</ele>
        <time>2022-04-30T21:49:19.163Z</time>
      </trkpt>
      <trkpt lat="43.6344" lon="6.48293">
        <ele>705.757627</ele>
        <time>2022-04-30T21:49:23.958Z</time>
      </trkpt>
      <trkpt lat="43.63481" lon="6.48267">
        <ele>707.265234</ele>
        <time>2022-04-30T21:49:36.711Z</time>
      </trkpt>
      <trkpt lat="43.63492" lon="6.48246">
        <ele>707.854536</ele>
        <time>2022-04-30T21:49:41.847Z</time>
      </trkpt>
      <trkpt lat="43.63489" lon="6.48222">
        <ele>708.551381</ele>
        <time>2022-04-30T21:49:47.059Z</time>
      </trkpt>
      <trkpt lat="43.63465" lon="6.48186">
        <ele>710.623568</ele>
        <time>2022-04-30T21:49:58.677Z</time>
      </trkpt>
      <trkpt lat="43.63457" lon="6.48155">
        <ele>711.994398</ele>
        <time>2022-04-30T21:50:07.014Z</time>
      </trkpt>
      <trkpt lat="43.63467" lon="6.48092">
        <ele>714.720381</ele>
        <time>2022-04-30T21:50:25.208Z</time>
      </trkpt>
      <trkpt lat="43.63485" lon="6.4805">
        <ele>716.785285</ele>
        <time>2022-04-30T21:50:40.130Z</time>
      </trkpt>
      <trkpt lat="43.63535" lon="6.47972">
        <ele>722.04788</ele>
        <time>2022-04-30T21:51:13.374Z</time>
      </trkpt>
      <trkpt lat="43.63549" lon="6.47959">
        <ele>723.439046</ele>
        <time>2022-04-30T21:51:21.446Z</time>
      </trkpt>
      <trkpt lat="43.6361" lon="6.4796">
        <ele>728.241361</ele>
        <time>2022-04-30T21:51:48.653Z</time>
      </trkpt>
      <trkpt lat="43.6365" lon="6.47943">
        <ele>731.585065</ele>
        <time>2022-04-30T21:52:08.768Z</time>
      </trkpt>
      <trkpt lat="43.63675" lon="6.4789">
        <ele>735.282911</ele>
        <time>2022-04-30T21:52:33.928Z</time>
      </trkpt>
      <trkpt lat="43.63693" lon="6.47865">
        <ele>737.352098</ele>
        <time>2022-04-30T21:52:45.738Z</time>
      </trkpt>
      <trkpt lat="43.63705" lon="6.47864">
        <ele>738.397857</ele>
        <time>2022-04-30T21:52:53.107Z</time>
      </trkpt>
      <trkpt lat="43.63755" lon="6.47883">
        <ele>742.66869</ele>
        <time>2022-04-30T21:53:16.043Z</time>
      </trkpt>
      <trkpt lat="43.63772" lon="6.47883">
        <ele>744.038237</ele>
        <time>2022-04-30T21:53:26.336Z</time>
      </trkpt>
      <trkpt lat="43.63847" lon="6.47816">
        <ele>750.659731</ele>
        <time>2022-04-30T21:54:04.065Z</time>
      </trkpt>
      <trkpt lat="43.63937" lon="6.4776">
        <ele>757.135694</ele>
        <time>2022-04-30T21:54:46.828Z</time>
      </trkpt>
      <trkpt lat="43.63959" lon="6.4776">
        <ele>758.573094</ele>
        <time>2022-04-30T21:54:54.304Z</time>
      </trkpt>
      <trkpt lat="43.6401" lon="6.47775">
        <ele>761.563917</ele>
        <time>2022-04-30T21:55:12.130Z</time>
      </trkpt>
      <trkpt lat="43.64067" lon="6.4775">
        <ele>764.754149</ele>
        <time>2022-04-30T21:55:33.317Z</time>
      </trkpt>
      <trkpt lat="43.6418" lon="6.47718">
        <ele>770.81746</ele>
        <time>2022-04-30T21:56:16.533Z</time>
      </trkpt>
      <trkpt lat="43.64268" lon="6.47678">
        <ele>775.385213</ele>
        <time>2022-04-30T21:56:48.211Z</time>
      </trkpt>
      <trkpt lat="43.64373" lon="6.47584">
        <ele>781.822106</ele>
        <time>2022-04-30T21:57:29.467Z</time>
      </trkpt>
      <trkpt lat="43.644" lon="6.47558">
        <ele>783.586906</ele>
        <time>2022-04-30T21:57:41.375Z</time>
      </trkpt>
      <trkpt lat="43.64469" lon="6.47525">
        <ele>787.448022</ele>
        <time>2022-04-30T21:58:08.294Z</time>
      </trkpt>
      <trkpt lat="43.64518" lon="6.4751">
        <ele>790.731901</ele>
        <time>2022-04-30T21:58:29.734Z</time>
      </trkpt>
      <trkpt lat="43.64548" lon="6.47492">
        <ele>792.95164</ele>
        <time>2022-04-30T21:58:43.936Z</time>
      </trkpt>
      <trkpt lat="43.64578" lon="6.47459">
        <ele>795.482396</ele>
        <time>2022-04-30T21:58:59.811Z</time>
      </trkpt>
      <trkpt lat="43.64602" lon="6.47416">
        <ele>798.139473</ele>
        <time>2022-04-30T21:59:16.259Z</time>
      </trkpt>
      <trkpt lat="43.64621" lon="6.4739">
        <ele>799.91877</ele>
        <time>2022-04-30T21:59:28.145Z</time>
      </trkpt>
      <trkpt lat="43.64657" lon="6.47364">
        <ele>802.47504</ele>
        <time>2022-04-30T21:59:44.322Z</time>
      </trkpt>
      <trkpt lat="43.64689" lon="6.47356">
        <ele>804.616011</ele>
        <time>2022-04-30T21:59:58.160Z</time>
      </trkpt>
      <trkpt lat="43.64718" lon="6.47361">
        <ele>806.482211</ele>
        <time>2022-04-30T22:00:10.326Z</time>
      </trkpt>
      <trkpt lat="43.64755" lon="6.47383">
        <ele>809.048019</ele>
        <time>2022-04-30T22:00:27.857Z</time>
      </trkpt>
      <trkpt lat="43.64836" lon="6.47461">
        <ele>814.120352</ele>
        <time>2022-04-30T22:01:02.489Z</time>
      </trkpt>
      <trkpt lat="43.64871" lon="6.47501">
        <ele>816.125545</ele>
        <time>2022-04-30T22:01:17.444Z</time>
      </trkpt>
      <trkpt lat="43.64895" lon="6.47536">
        <ele>817.674335</ele>
        <time>2022-04-30T22:01:28.267Z</time>
      </trkpt>
      <trkpt lat="43.64908" lon="6.47554">
        <ele>818.509092</ele>
        <time>2022-04-30T22:01:33.744Z</time>
      </trkpt>
      <trkpt lat="43.64923" lon="6.47576">
        <ele>819.404556</ele>
        <time>2022-04-30T22:01:39.879Z</time>
      </trkpt>
      <trkpt lat="43.64947" lon="6.47612">
        <ele>820.507931</ele>
        <time>2022-04-30T22:01:49.533Z</time>
      </trkpt>
      <trkpt lat="43.65004" lon="6.4769">
        <ele>822.967244</ele>
        <time>2022-04-30T22:02:09.445Z</time>
      </trkpt>
      <trkpt lat="43.65048" lon="6.47721">
        <ele>824.494735</ele>
        <time>2022-04-30T22:02:22.937Z</time>
      </trkpt>
      <trkpt lat="43.65176" lon="6.47755">
        <ele>829.652021</ele>
        <time>2022-04-30T22:03:03.579Z</time>
      </trkpt>
      <trkpt lat="43.6525" lon="6.4776">
        <ele>832.606132</ele>
        <time>2022-04-30T22:03:27.449Z</time>
      </trkpt>
      <trkpt lat="43.65405" lon="6.47842">
        <ele>839.049894</ele>
        <time>2022-04-30T22:04:17.137Z</time>
      </trkpt>
      <trkpt lat="43.65447" lon="6.47857">
        <ele>840.892501</ele>
        <time>2022-04-30T22:04:30.194Z</time>
      </trkpt>
      <trkpt lat="43.65511" lon="6.47853">
        <ele>843.603147</ele>
        <time>2022-04-30T22:04:49.976Z</time>
      </trkpt>
      <trkpt lat="43.65776" lon="6.47764">
        <ele>855.87668</ele>
        <time>2022-04-30T22:06:22.788Z</time>
      </trkpt>
      <trkpt lat="43.65809" lon="6.47762">
        <ele>856.951146</ele>
        <time>2022-04-30T22:06:32.993Z</time>
      </trkpt>
      <trkpt lat="43.65843" lon="6.47778">
        <ele>858.134905</ele>
        <time>2022-04-30T22:06:43.826Z</time>
      </trkpt>
      <trkpt lat="43.65871" lon="6.4781">
        <ele>859.31475</ele>
        <time>2022-04-30T22:06:54.159Z</time>
      </trkpt>
      <trkpt lat="43.65953" lon="6.47977">
        <ele>861.564282</ele>
        <time>2022-04-30T22:07:25.245Z</time>
      </trkpt>
      <trkpt lat="43.65982" lon="6.4802">
        <ele>861.79764</ele>
        <time>2022-04-30T22:07:31.409Z</time>
      </trkpt>
      <trkpt lat="43.66004" lon="6.48036">
        <ele>861.928656</ele>
        <time>2022-04-30T22:07:34.503Z</time>
      </trkpt>
      <trkpt lat="43.6603" lon="6.48045">
        <ele>861.951588</ele>
        <time>2022-04-30T22:07:37.828Z</time>
      </trkpt>
      <trkpt lat="43.66129" lon="6.48052">
        <ele>860.834494</ele>
        <time>2022-04-30T22:07:49.250Z</time>
      </trkpt>
      <trkpt lat="43.66167" lon="6.48063">
        <ele>860.39581</ele>
        <time>2022-04-30T22:07:53.732Z</time>
      </trkpt>
      <trkpt lat="43.66196" lon="6.48088">
        <ele>860.015102</ele>
        <time>2022-04-30T22:07:57.838Z</time>
      </trkpt>
      <trkpt lat="43.66313" lon="6.48238">
        <ele>860.099587</ele>
        <time>2022-04-30T22:08:21.714Z</time>
      </trkpt>
      <trkpt lat="43.66325" lon="6.48265">
        <ele>860.127182</ele>
        <time>2022-04-30T22:08:25.870Z</time>
      </trkpt>
      <trkpt lat="43.66328" lon="6.48293">
        <ele>860.262412</ele>
        <time>2022-04-30T22:08:29.692Z</time>
      </trkpt>
      <trkpt lat="43.66309" lon="6.48402">
        <ele>860.797965</ele>
        <time>2022-04-30T22:08:45.059Z</time>
      </trkpt>
      <trkpt lat="43.66306" lon="6.48453">
        <ele>861.042305</ele>
        <time>2022-04-30T22:08:51.570Z</time>
      </trkpt>
      <trkpt lat="43.66316" lon="6.48525">
        <ele>861.206822</ele>
        <time>2022-04-30T22:09:00.307Z</time>
      </trkpt>
      <trkpt lat="43.6633" lon="6.48546">
        <ele>861.069992</ele>
        <time>2022-04-30T22:09:03.286Z</time>
      </trkpt>
      <trkpt lat="43.66355" lon="6.48557">
        <ele>860.894328</ele>
        <time>2022-04-30T22:09:06.976Z</time>
      </trkpt>
      <trkpt lat="43.66421" lon="6.48554">
        <ele>860.459531</ele>
        <time>2022-04-30T22:09:15.368Z</time>
      </trkpt>
      <trkpt lat="43.66477" lon="6.48579">
        <ele>860.015341</ele>
        <time>2022-04-30T22:09:22.296Z</time>
      </trkpt>
      <trkpt lat="43.66616" lon="6.48601">
        <ele>858.106265</ele>
        <time>2022-04-30T22:09:38.103Z</time>
      </trkpt>
      <trkpt lat="43.66658" lon="6.48623">
        <ele>857.510249</ele>
        <time>2022-04-30T22:09:43.801Z</time>
      </trkpt>
      <trkpt lat="43.66679" lon="6.48648">
        <ele>857.197449</ele>
        <time>2022-04-30T22:09:47.519Z</time>
      </trkpt>
      <trkpt lat="43.6669" lon="6.48685">
        <ele>856.870709</ele>
        <time>2022-04-30T22:09:51.252Z</time>
      </trkpt>
      <trkpt lat="43.66695" lon="6.48743">
        <ele>856.392484</ele>
        <time>2022-04-30T22:09:57.006Z</time>
      </trkpt>
      <trkpt lat="43.66696" lon="6.48833">
        <ele>855.657877</ele>
        <time>2022-04-30T22:10:05.502Z</time>
      </trkpt>
      <trkpt lat="43.667" lon="6.48852">
        <ele>855.391946</ele>
        <time>2022-04-30T22:10:06.805Z</time>
      </trkpt>
      <trkpt lat="43.66709" lon="6.4886">
        <ele>855.13931</ele>
        <time>2022-04-30T22:10:07.795Z</time>
      </trkpt>
      <trkpt lat="43.66723" lon="6.48858">
        <ele>854.836391</ele>
        <time>2022-04-30T22:10:09.632Z</time>
      </trkpt>
      <trkpt lat="43.66731" lon="6.48848">
        <ele>854.581191</ele>
        <time>2022-04-30T22:10:10.696Z</time>
      </trkpt>
      <trkpt lat="43.66755" lon="6.48807">
        <ele>853.741214</ele>
        <time>2022-04-30T22:10:14.474Z</time>
      </trkpt>
      <trkpt lat="43.66799" lon="6.48748">
        <ele>852.372791</ele>
        <time>2022-04-30T22:10:21.523Z</time>
      </trkpt>
      <trkpt lat="43.66818" lon="6.48742">
        <ele>851.928152</ele>
        <time>2022-04-30T22:10:23.410Z</time>
      </trkpt>
      <trkpt lat="43.66831" lon="6.48747">
        <ele>851.613755</ele>
        <time>2022-04-30T22:10:27.316Z</time>
      </trkpt>
      <trkpt lat="43.66848" lon="6.48771">
        <ele>851.716979</ele>
        <time>2022-04-30T22:10:29.760Z</time>
      </trkpt>
      <trkpt lat="43.66859" lon="6.48824">
        <ele>851.959635</ele>
        <time>2022-04-30T22:10:35.679Z</time>
      </trkpt>
      <trkpt lat="43.66866" lon="6.48935">
        <ele>852.451641</ele>
        <time>2022-04-30T22:10:49.961Z</time>
      </trkpt>
      <trkpt lat="43.66863" lon="6.49032">
        <ele>852.601704</ele>
        <time>2022-04-30T22:11:09.644Z</time>
      </trkpt>
      <trkpt lat="43.66878" lon="6.49078">
        <ele>852.518019</ele>
        <time>2022-04-30T22:11:16.205Z</time>
      </trkpt>
      <trkpt lat="43.66911" lon="6.49119">
        <ele>852.414883</ele>
        <time>2022-04-30T22:11:21.984Z</time>
      </trkpt>
      <trkpt lat="43.6694" lon="6.49123">
        <ele>852.348892</ele>
        <time>2022-04-30T22:11:25.209Z</time>
      </trkpt>
      <trkpt lat="43.66955" lon="6.49135">
        <ele>852.308461</ele>
        <time>2022-04-30T22:11:27.071Z</time>
      </trkpt>
      <trkpt lat="43.66976" lon="6.49167">
        <ele>851.868473</ele>
        <time>2022-04-30T22:11:30.395Z</time>
      </trkpt>
      <trkpt lat="43.6704" lon="6.49293">
        <ele>847.992135</ele>
        <time>2022-04-30T22:11:41.601Z</time>
      </trkpt>
      <trkpt lat="43.67067" lon="6.49328">
        <ele>846.688942</ele>
        <time>2022-04-30T22:11:45.228Z</time>
      </trkpt>
      <trkpt lat="43.67101" lon="6.49388">
        <ele>843.650853</ele>
        <time>2022-04-30T22:11:50.573Z</time>
      </trkpt>
      <trkpt lat="43.67153" lon="6.49428">
        <ele>839.776975</ele>
        <time>2022-04-30T22:11:56.007Z</time>
      </trkpt>
      <trkpt lat="43.67188" lon="6.49473">
        <ele>836.610179</ele>
        <time>2022-04-30T22:12:00.305Z</time>
      </trkpt>
      <trkpt lat="43.67213" lon="6.49485">
        <ele>834.828954</ele>
        <time>2022-04-30T22:12:02.674Z</time>
      </trkpt>
      <trkpt lat="43.67271" lon="6.49538">
        <ele>828.238091</ele>
        <time>2022-04-30T22:12:08.662Z</time>
      </trkpt>
      <trkpt lat="43.67304" lon="6.49552">
        <ele>824.809764</ele>
        <time>2022-04-30T22:12:11.599Z</time>
      </trkpt>
      <trkpt lat="43.67325" lon="6.49571">
        <ele>822.243044</ele>
        <time>2022-04-30T22:12:13.786Z</time>
      </trkpt>
      <trkpt lat="43.6744" lon="6.49711">
        <ele>806.900557</ele>
        <time>2022-04-30T22:12:26.941Z</time>
      </trkpt>
      <trkpt lat="43.6746" lon="6.49742">
        <ele>803.936326</ele>
        <time>2022-04-30T22:12:29.502Z</time>
      </trkpt>
      <trkpt lat="43.6747" lon="6.49771">
        <ele>801.605043</ele>
        <time>2022-04-30T22:12:31.515Z</time>
      </trkpt>
      <trkpt lat="43.67477" lon="6.49894">
        <ele>793.335071</ele>
        <time>2022-04-30T22:12:39.230Z</time>
      </trkpt>
      <trkpt lat="43.67475" lon="6.4992">
        <ele>791.647513</ele>
        <time>2022-04-30T22:12:40.887Z</time>
      </trkpt>
      <trkpt lat="43.67468" lon="6.49958">
        <ele>789.164114</ele>
        <time>2022-04-30T22:12:43.338Z</time>
      </trkpt>
      <trkpt lat="43.67434" lon="6.50052">
        <ele>782.428697</ele>
        <time>2022-04-30T22:12:50.024Z</time>
      </trkpt>
      <trkpt lat="43.6737" lon="6.50169">
        <ele>775.57889</ele>
        <time>2022-04-30T22:12:59.478Z</time>
      </trkpt>
      <trkpt lat="43.67348" lon="6.50196">
        <ele>773.648282</ele>
        <time>2022-04-30T22:13:02.238Z</time>
      </trkpt>
      <trkpt lat="43.67237" lon="6.50299">
        <ele>768.296175</ele>
        <time>2022-04-30T22:13:15.087Z</time>
      </trkpt>
      <trkpt lat="43.67218" lon="6.50329">
        <ele>767.506897</ele>
        <time>2022-04-30T22:13:18.252Z</time>
      </trkpt>
      <trkpt lat="43.6721" lon="6.50353">
        <ele>766.983264</ele>
        <time>2022-04-30T22:13:20.356Z</time>
      </trkpt>
      <trkpt lat="43.67197" lon="6.50421">
        <ele>765.814537</ele>
        <time>2022-04-30T22:13:26.854Z</time>
      </trkpt>
      <trkpt lat="43.6719" lon="6.5048">
        <ele>766.232682</ele>
        <time>2022-04-30T22:13:33.083Z</time>
      </trkpt>
      <trkpt lat="43.67202" lon="6.50538">
        <ele>766.650443</ele>
        <time>2022-04-30T22:13:40.577Z</time>
      </trkpt>
      <trkpt lat="43.67212" lon="6.50558">
        <ele>766.820329</ele>
        <time>2022-04-30T22:13:44.133Z</time>
      </trkpt>
      <trkpt lat="43.67231" lon="6.50579">
        <ele>767.057214</ele>
        <time>2022-04-30T22:13:49.698Z</time>
      </trkpt>
      <trkpt lat="43.67258" lon="6.50594">
        <ele>767.341262</ele>
        <time>2022-04-30T22:13:56.637Z</time>
      </trkpt>
      <trkpt lat="43.67338" lon="6.50606">
        <ele>769.170884</ele>
        <time>2022-04-30T22:14:16.502Z</time>
      </trkpt>
      <trkpt lat="43.67363" lon="6.50615">
        <ele>769.817636</ele>
        <time>2022-04-30T22:14:22.646Z</time>
      </trkpt>
      <trkpt lat="43.67424" lon="6.50645">
        <ele>771.498014</ele>
        <time>2022-04-30T22:14:39.485Z</time>
      </trkpt>
      <trkpt lat="43.675" lon="6.50654">
        <ele>773.642894</ele>
        <time>2022-04-30T22:14:59.614Z</time>
      </trkpt>
      <trkpt lat="43.67623" lon="6.50712">
        <ele>777.485101</ele>
        <time>2022-04-30T22:15:34.537Z</time>
      </trkpt>
      <trkpt lat="43.6768" lon="6.50727">
        <ele>779.134257</ele>
        <time>2022-04-30T22:15:49.858Z</time>
      </trkpt>
      <trkpt lat="43.67725" lon="6.50724">
        <ele>780.423134</ele>
        <time>2022-04-30T22:16:01.653Z</time>
      </trkpt>
      <trkpt lat="43.67804" lon="6.50696">
        <ele>782.712097</ele>
        <time>2022-04-30T22:16:22.903Z</time>
      </trkpt>
      <trkpt lat="43.67894" lon="6.50716">
        <ele>784.86175</ele>
        <time>2022-04-30T22:16:45.718Z</time>
      </trkpt>
      <trkpt lat="43.67922" lon="6.50728">
        <ele>785.541928</ele>
        <time>2022-04-30T22:16:52.742Z</time>
      </trkpt>
      <trkpt lat="43.67976" lon="6.5078">
        <ele>787.126742</ele>
        <time>2022-04-30T22:17:07.930Z</time>
      </trkpt>
      <trkpt lat="43.68011" lon="6.50826">
        <ele>788.336088</ele>
        <time>2022-04-30T22:17:18.500Z</time>
      </trkpt>
      <trkpt lat="43.68038" lon="6.50882">
        <ele>789.554703</ele>
        <time>2022-04-30T22:17:28.755Z</time>
      </trkpt>
      <trkpt lat="43.68064" lon="6.50965">
        <ele>791.187197</ele>
        <time>2022-04-30T22:17:45.010Z</time>
      </trkpt>
      <trkpt lat="43.68115" lon="6.51037">
        <ele>797.23688</ele>
        <time>2022-04-30T22:18:12.085Z</time>
      </trkpt>
      <trkpt lat="43.68137" lon="6.51045">
        <ele>799.202456</ele>
        <time>2022-04-30T22:18:22.588Z</time>
      </trkpt>
      <trkpt lat="43.6819" lon="6.5104">
        <ele>803.819534</ele>
        <time>2022-04-30T22:18:51.325Z</time>
      </trkpt>
      <trkpt lat="43.68286" lon="6.51052">
        <ele>814.898403</ele>
        <time>2022-04-30T22:20:00.566Z</time>
      </trkpt>
      <trkpt lat="43.68314" lon="6.51063">
        <ele>818.736355</ele>
        <time>2022-04-30T22:20:22.028Z</time>
      </trkpt>
      <trkpt lat="43.68359" lon="6.51104">
        <ele>825.86949</ele>
        <time>2022-04-30T22:21:01.150Z</time>
      </trkpt>
      <trkpt lat="43.68387" lon="6.51099">
        <ele>829.622077</ele>
        <time>2022-04-30T22:21:19.517Z</time>
      </trkpt>
      <trkpt lat="43.68498" lon="6.51021">
        <ele>839.170269</ele>
        <time>2022-04-30T22:22:22.768Z</time>
      </trkpt>
      <trkpt lat="43.68558" lon="6.5096">
        <ele>844.161152</ele>
        <time>2022-04-30T22:22:44.119Z</time>
      </trkpt>
      <trkpt lat="43.68602" lon="6.50941">
        <ele>845.567443</ele>
        <time>2022-04-30T22:22:55.475Z</time>
      </trkpt>
      <trkpt lat="43.68648" lon="6.50908">
        <ele>847.139381</ele>
        <time>2022-04-30T22:23:08.165Z</time>
      </trkpt>
      <trkpt lat="43.68742" lon="6.50896">
        <ele>850.198644</ele>
        <time>2022-04-30T22:23:34.079Z</time>
      </trkpt>
      <trkpt lat="43.6876" lon="6.50871">
        <ele>851.204188</ele>
        <time>2022-04-30T22:23:42.460Z</time>
      </trkpt>
      <trkpt lat="43.68777" lon="6.50809">
        <ele>853.041629</ele>
        <time>2022-04-30T22:23:57.465Z</time>
      </trkpt>
      <trkpt lat="43.68789" lon="6.50784">
        <ele>853.872416</ele>
        <time>2022-04-30T22:24:04.299Z</time>
      </trkpt>
      <trkpt lat="43.68816" lon="6.50756">
        <ele>855.201107</ele>
        <time>2022-04-30T22:24:14.765Z</time>
      </trkpt>
      <trkpt lat="43.68848" lon="6.50737">
        <ele>856.504333</ele>
        <time>2022-04-30T22:24:25.258Z</time>
      </trkpt>
      <trkpt lat="43.68882" lon="6.5073">
        <ele>857.608996</ele>
        <time>2022-04-30T22:24:35.513Z</time>
      </trkpt>
      <trkpt lat="43.68906" lon="6.50733">
        <ele>858.368645</ele>
        <time>2022-04-30T22:24:42.225Z</time>
      </trkpt>
      <trkpt lat="43.68957" lon="6.50756">
        <ele>860.099079</ele>
        <time>2022-04-30T22:24:57.164Z</time>
      </trkpt>
      <trkpt lat="43.68988" lon="6.50762">
        <ele>861.115218</ele>
        <time>2022-04-30T22:25:05.334Z</time>
      </trkpt>
      <trkpt lat="43.69059" lon="6.50734">
        <ele>863.653327</ele>
        <time>2022-04-30T22:25:23.686Z</time>
      </trkpt>
      <trkpt lat="43.69113" lon="6.50732">
        <ele>865.613003</ele>
        <time>2022-04-30T22:25:39.309Z</time>
      </trkpt>
      <trkpt lat="43.69212" lon="6.50678">
        <ele>869.556965</ele>
        <time>2022-04-30T22:26:13.022Z</time>
      </trkpt>
      <trkpt lat="43.69301" lon="6.50665">
        <ele>873.353837</ele>
        <time>2022-04-30T22:26:41.881Z</time>
      </trkpt>
      <trkpt lat="43.69348" lon="6.50648">
        <ele>875.409888</ele>
        <time>2022-04-30T22:26:56.969Z</time>
      </trkpt>
      <trkpt lat="43.69471" lon="6.50572">
        <ele>881.397125</ele>
        <time>2022-04-30T22:27:39.671Z</time>
      </trkpt>
      <trkpt lat="43.69503" lon="6.50565">
        <ele>882.843611</ele>
        <time>2022-04-30T22:27:51.366Z</time>
      </trkpt>
      <trkpt lat="43.69529" lon="6.50566">
        <ele>883.989707</ele>
        <time>2022-04-30T22:27:59.852Z</time>
      </trkpt>
      <trkpt lat="43.69562" lon="6.50557">
        <ele>885.251283</ele>
        <time>2022-04-30T22:28:11.484Z</time>
      </trkpt>
      <trkpt lat="43.69619" lon="6.50523">
        <ele>887.469218</ele>
        <time>2022-04-30T22:28:32.480Z</time>
      </trkpt>
      <trkpt lat="43.69644" lon="6.50502">
        <ele>888.507978</ele>
        <time>2022-04-30T22:28:41.446Z</time>
      </trkpt>
      <trkpt lat="43.69657" lon="6.50479">
        <ele>889.262605</ele>
        <time>2022-04-30T22:28:46.991Z</time>
      </trkpt>
      <trkpt lat="43.69682" lon="6.50404">
        <ele>890.123002</ele>
        <time>2022-04-30T22:29:00.943Z</time>
      </trkpt>
      <trkpt lat="43.69694" lon="6.50391">
        <ele>889.782314</ele>
        <time>2022-04-30T22:29:03.212Z</time>
      </trkpt>
      <trkpt lat="43.6971" lon="6.5039">
        <ele>889.443981</ele>
        <time>2022-04-30T22:29:05.156Z</time>
      </trkpt>
      <trkpt lat="43.69757" lon="6.50431">
        <ele>888.234633</ele>
        <time>2022-04-30T22:29:10.911Z</time>
      </trkpt>
      <trkpt lat="43.69827" lon="6.50469">
        <ele>886.514536</ele>
        <time>2022-04-30T22:29:18.187Z</time>
      </trkpt>
      <trkpt lat="43.69906" lon="6.50528">
        <ele>882.46144</ele>
        <time>2022-04-30T22:29:26.580Z</time>
      </trkpt>
      <trkpt lat="43.6993" lon="6.50539">
        <ele>881.289715</ele>
        <time>2022-04-30T22:29:29.003Z</time>
      </trkpt>
      <trkpt lat="43.69967" lon="6.50546">
        <ele>879.598808</ele>
        <time>2022-04-30T22:29:32.554Z</time>
      </trkpt>
      <trkpt lat="43.69979" lon="6.50554">
        <ele>879.008253</ele>
        <time>2022-04-30T22:29:33.830Z</time>
      </trkpt>
      <trkpt lat="43.70121" lon="6.50756">
        <ele>873.718442</ele>
        <time>2022-04-30T22:29:55.078Z</time>
      </trkpt>
      <trkpt lat="43.70189" lon="6.50798">
        <ele>873.912299</ele>
        <time>2022-04-30T22:30:04.473Z</time>
      </trkpt>
      <trkpt lat="43.70239" lon="6.50848">
        <ele>874.074989</ele>
        <time>2022-04-30T22:30:15.937Z</time>
      </trkpt>
      <trkpt lat="43.70272" lon="6.5086">
        <ele>874.338299</ele>
        <time>2022-04-30T22:30:24.056Z</time>
      </trkpt>
      <trkpt lat="43.70381" lon="6.50928">
        <ele>879.576209</ele>
        <time>2022-04-30T22:31:01.758Z</time>
      </trkpt>
      <trkpt lat="43.70462" lon="6.5096">
        <ele>884.081974</ele>
        <time>2022-04-30T22:31:32.979Z</time>
      </trkpt>
      <trkpt lat="43.70514" lon="6.50962">
        <ele>887.782362</ele>
        <time>2022-04-30T22:31:55.383Z</time>
      </trkpt>
      <trkpt lat="43.70535" lon="6.50954">
        <ele>889.387005</ele>
        <time>2022-04-30T22:32:07.128Z</time>
      </trkpt>
      <trkpt lat="43.7055" lon="6.50942">
        <ele>890.589438</ele>
        <time>2022-04-30T22:32:16.921Z</time>
      </trkpt>
      <trkpt lat="43.70565" lon="6.50916">
        <ele>892.321003</ele>
        <time>2022-04-30T22:32:28.525Z</time>
      </trkpt>
      <trkpt lat="43.70595" lon="6.5084">
        <ele>895.431473</ele>
        <time>2022-04-30T22:32:54.586Z</time>
      </trkpt>
      <trkpt lat="43.70598" lon="6.50779">
        <ele>896.288989</ele>
        <time>2022-04-30T22:33:07.866Z</time>
      </trkpt>
      <trkpt lat="43.70598" lon="6.5075">
        <ele>896.695557</ele>
        <time>2022-04-30T22:33:13.577Z</time>
      </trkpt>
      <trkpt lat="43.70604" lon="6.50727">
        <ele>897.04282</ele>
        <time>2022-04-30T22:33:16.845Z</time>
      </trkpt>
      <trkpt lat="43.70621" lon="6.50707">
        <ele>897.475256</ele>
        <time>2022-04-30T22:33:21.010Z</time>
      </trkpt>
      <trkpt lat="43.70638" lon="6.50703">
        <ele>897.81129</ele>
        <time>2022-04-30T22:33:23.725Z</time>
      </trkpt>
      <trkpt lat="43.70664" lon="6.50714">
        <ele>898.334609</ele>
        <time>2022-04-30T22:33:26.703Z</time>
      </trkpt>
      <trkpt lat="43.7074" lon="6.50821">
        <ele>894.899851</ele>
        <time>2022-04-30T22:33:37.037Z</time>
      </trkpt>
      <trkpt lat="43.70785" lon="6.50851">
        <ele>893.25347</ele>
        <time>2022-04-30T22:33:41.688Z</time>
      </trkpt>
      <trkpt lat="43.70799" lon="6.50855">
        <ele>892.745769</ele>
        <time>2022-04-30T22:33:43.311Z</time>
      </trkpt>
      <trkpt lat="43.70853" lon="6.50839">
        <ele>893.313278</ele>
        <time>2022-04-30T22:33:51.494Z</time>
      </trkpt>
      <trkpt lat="43.70911" lon="6.50878">
        <ele>894.671865</ele>
        <time>2022-04-30T22:34:07.904Z</time>
      </trkpt>
      <trkpt lat="43.70938" lon="6.50877">
        <ele>895.250658</ele>
        <time>2022-04-30T22:34:16.981Z</time>
      </trkpt>
      <trkpt lat="43.70942" lon="6.50874">
        <ele>895.347927</ele>
        <time>2022-04-30T22:34:18.511Z</time>
      </trkpt>
      <trkpt lat="43.70963" lon="6.50847">
        <ele>895.958947</ele>
        <time>2022-04-30T22:34:28.047Z</time>
      </trkpt>
      <trkpt lat="43.70975" lon="6.50839">
        <ele>896.228164</ele>
        <time>2022-04-30T22:34:32.206Z</time>
      </trkpt>
      <trkpt lat="43.70982" lon="6.50834">
        <ele>896.307939</ele>
        <time>2022-04-30T22:34:34.548Z</time>
      </trkpt>
      <trkpt lat="43.70992" lon="6.50816">
        <ele>896.483442</ele>
        <time>2022-04-30T22:34:38.799Z</time>
      </trkpt>
      <trkpt lat="43.71002" lon="6.50785">
        <ele>896.760779</ele>
        <time>2022-04-30T22:34:45.301Z</time>
      </trkpt>
      <trkpt lat="43.71007" lon="6.50769">
        <ele>896.894211</ele>
        <time>2022-04-30T22:34:48.169Z</time>
      </trkpt>
      <trkpt lat="43.71011" lon="6.50754">
        <ele>897.020641</ele>
        <time>2022-04-30T22:34:50.832Z</time>
      </trkpt>
      <trkpt lat="43.71015" lon="6.50746">
        <ele>897.097578</ele>
        <time>2022-04-30T22:34:52.582Z</time>
      </trkpt>
      <trkpt lat="43.71018" lon="6.5074">
        <ele>897.158556</ele>
        <time>2022-04-30T22:34:53.859Z</time>
      </trkpt>
      <trkpt lat="43.71021" lon="6.50735">
        <ele>897.212923</ele>
        <time>2022-04-30T22:34:54.962Z</time>
      </trkpt>
      <trkpt lat="43.71024" lon="6.50732">
        <ele>897.248165</ele>
        <time>2022-04-30T22:34:55.641Z</time>
      </trkpt>
      <trkpt lat="43.71027" lon="6.50729">
        <ele>897.285616</ele>
        <time>2022-04-30T22:34:56.281Z</time>
      </trkpt>
      <trkpt lat="43.71051" lon="6.50703">
        <ele>897.626246</ele>
        <time>2022-04-30T22:35:01.652Z</time>
      </trkpt>
      <trkpt lat="43.7107" lon="6.50682">
        <ele>897.889656</ele>
        <time>2022-04-30T22:35:04.523Z</time>
      </trkpt>
      <trkpt lat="43.71079" lon="6.50674">
        <ele>898.004624</ele>
        <time>2022-04-30T22:35:05.652Z</time>
      </trkpt>
      <trkpt lat="43.71123" lon="6.50616">
        <ele>896.977747</ele>
        <time>2022-04-30T22:35:12.343Z</time>
      </trkpt>
      <trkpt lat="43.71132" lon="6.50605">
        <ele>896.680616</ele>
        <time>2022-04-30T22:35:13.557Z</time>
      </trkpt>
      <trkpt lat="43.71192" lon="6.50572">
        <ele>894.995294</ele>
        <time>2022-04-30T22:35:20.362Z</time>
      </trkpt>
      <trkpt lat="43.7121" lon="6.50566">
        <ele>894.509596</ele>
        <time>2022-04-30T22:35:22.198Z</time>
      </trkpt>
      <trkpt lat="43.71213" lon="6.50565">
        <ele>894.431011</ele>
        <time>2022-04-30T22:35:22.508Z</time>
      </trkpt>
      <trkpt lat="43.71246" lon="6.50562">
        <ele>893.569338</ele>
        <time>2022-04-30T22:35:25.791Z</time>
      </trkpt>
      <trkpt lat="43.71273" lon="6.50566">
        <ele>892.646816</ele>
        <time>2022-04-30T22:35:28.524Z</time>
      </trkpt>
      <trkpt lat="43.71297" lon="6.50547">
        <ele>891.6568</ele>
        <time>2022-04-30T22:35:31.337Z</time>
      </trkpt>
      <trkpt lat="43.7135" lon="6.50497">
        <ele>889.404099</ele>
        <time>2022-04-30T22:35:37.815Z</time>
      </trkpt>
      <trkpt lat="43.71393" lon="6.50457">
        <ele>887.581154</ele>
        <time>2022-04-30T22:35:43.125Z</time>
      </trkpt>
      <trkpt lat="43.71447" lon="6.50413">
        <ele>884.55574</ele>
        <time>2022-04-30T22:35:49.071Z</time>
      </trkpt>
      <trkpt lat="43.71486" lon="6.50398">
        <ele>882.480155</ele>
        <time>2022-04-30T22:35:52.883Z</time>
      </trkpt>
      <trkpt lat="43.71523" lon="6.50396">
        <ele>880.606541</ele>
        <time>2022-04-30T22:35:56.338Z</time>
      </trkpt>
      <trkpt lat="43.71851" lon="6.50482">
        <ele>861.207146</ele>
        <time>2022-04-30T22:36:26.973Z</time>
      </trkpt>
      <trkpt lat="43.71907" lon="6.50505">
        <ele>857.773846</ele>
        <time>2022-04-30T22:36:32.384Z</time>
      </trkpt>
      <trkpt lat="43.71956" lon="6.50552">
        <ele>854.156669</ele>
        <time>2022-04-30T22:36:37.903Z</time>
      </trkpt>
      <trkpt lat="43.71984" lon="6.50599">
        <ele>851.47682</ele>
        <time>2022-04-30T22:36:41.941Z</time>
      </trkpt>
      <trkpt lat="43.72004" lon="6.50661">
        <ele>848.497333</ele>
        <time>2022-04-30T22:36:46.399Z</time>
      </trkpt>
      <trkpt lat="43.7201" lon="6.50722">
        <ele>845.775718</ele>
        <time>2022-04-30T22:36:50.445Z</time>
      </trkpt>
      <trkpt lat="43.72006" lon="6.50785">
        <ele>843.810096</ele>
        <time>2022-04-30T22:36:54.661Z</time>
      </trkpt>
      <trkpt lat="43.71963" lon="6.50939">
        <ele>838.721242</ele>
        <time>2022-04-30T22:37:06.068Z</time>
      </trkpt>
      <trkpt lat="43.71963" lon="6.50939">
        <ele>838.721242</ele>
        <time>2022-04-30T22:37:06.103Z</time>
      </trkpt>
      <trkpt lat="43.71831" lon="6.51379">
        <ele>835.264935</ele>
        <time>2022-04-30T22:37:51.027Z</time>
      </trkpt>
      <trkpt lat="43.71769" lon="6.51591">
        <ele>832.230066</ele>
        <time>2022-04-30T22:38:10.535Z</time>
      </trkpt>
      <trkpt lat="43.71677" lon="6.519">
        <ele>823.576539</ele>
        <time>2022-04-30T22:38:33.862Z</time>
      </trkpt>
      <trkpt lat="43.71655" lon="6.51978">
        <ele>822.388743</ele>
        <time>2022-04-30T22:38:39.936Z</time>
      </trkpt>
      <trkpt lat="43.71635" lon="6.52051">
        <ele>821.292596</ele>
        <time>2022-04-30T22:38:46.171Z</time>
      </trkpt>
      <trkpt lat="43.71613" lon="6.52129">
        <ele>820.669714</ele>
        <time>2022-04-30T22:38:55.272Z</time>
      </trkpt>
      <trkpt lat="43.71602" lon="6.52168">
        <ele>821.428329</ele>
        <time>2022-04-30T22:39:01.679Z</time>
      </trkpt>
      <trkpt lat="43.716" lon="6.52174">
        <ele>821.561029</ele>
        <time>2022-04-30T22:39:02.873Z</time>
      </trkpt>
      <trkpt lat="43.71581" lon="6.52269">
        <ele>823.363288</ele>
        <time>2022-04-30T22:39:22.482Z</time>
      </trkpt>
      <trkpt lat="43.71585" lon="6.52424">
        <ele>825.940366</ele>
        <time>2022-04-30T22:39:55.187Z</time>
      </trkpt>
      <trkpt lat="43.71594" lon="6.52602">
        <ele>828.532936</ele>
        <time>2022-04-30T22:40:23.312Z</time>
      </trkpt>
      <trkpt lat="43.71599" lon="6.52733">
        <ele>827.836965</ele>
        <time>2022-04-30T22:40:35.425Z</time>
      </trkpt>
      <trkpt lat="43.71596" lon="6.52852">
        <ele>827.231618</ele>
        <time>2022-04-30T22:40:45.073Z</time>
      </trkpt>
      <trkpt lat="43.71591" lon="6.52918">
        <ele>827.799366</ele>
        <time>2022-04-30T22:40:51.590Z</time>
      </trkpt>
      <trkpt lat="43.71578" lon="6.52974">
        <ele>828.307582</ele>
        <time>2022-04-30T22:40:59.034Z</time>
      </trkpt>
      <trkpt lat="43.71575" lon="6.52984">
        <ele>828.396538</ele>
        <time>2022-04-30T22:41:00.726Z</time>
      </trkpt>
      <trkpt lat="43.71574" lon="6.52989">
        <ele>828.439802</ele>
        <time>2022-04-30T22:41:01.547Z</time>
      </trkpt>
      <trkpt lat="43.71529" lon="6.53177">
        <ele>830.847531</ele>
        <time>2022-04-30T22:41:38.888Z</time>
      </trkpt>
      <trkpt lat="43.71511" lon="6.53275">
        <ele>832.495099</ele>
        <time>2022-04-30T22:41:58.952Z</time>
      </trkpt>
      <trkpt lat="43.7151" lon="6.53328">
        <ele>833.35547</ele>
        <time>2022-04-30T22:42:06.549Z</time>
      </trkpt>
      <trkpt lat="43.7152" lon="6.53385">
        <ele>832.830234</ele>
        <time>2022-04-30T22:42:12.576Z</time>
      </trkpt>
      <trkpt lat="43.71585" lon="6.53607">
        <ele>830.401082</ele>
        <time>2022-04-30T22:42:31.249Z</time>
      </trkpt>
      <trkpt lat="43.71591" lon="6.53631">
        <ele>830.150851</ele>
        <time>2022-04-30T22:42:33.311Z</time>
      </trkpt>
      <trkpt lat="43.71601" lon="6.53668">
        <ele>829.777058</ele>
        <time>2022-04-30T22:42:36.430Z</time>
      </trkpt>
      <trkpt lat="43.71625" lon="6.53776">
        <ele>828.694705</ele>
        <time>2022-04-30T22:42:46.137Z</time>
      </trkpt>
      <trkpt lat="43.71654" lon="6.54041">
        <ele>829.374851</ele>
        <time>2022-04-30T22:43:17.163Z</time>
      </trkpt>
      <trkpt lat="43.71656" lon="6.54109">
        <ele>831.287227</ele>
        <time>2022-04-30T22:43:29.549Z</time>
      </trkpt>
      <trkpt lat="43.71649" lon="6.54178">
        <ele>833.363518</ele>
        <time>2022-04-30T22:43:44.175Z</time>
      </trkpt>
      <trkpt lat="43.71553" lon="6.54667">
        <ele>852.545284</ele>
        <time>2022-04-30T22:46:06.709Z</time>
      </trkpt>
      <trkpt lat="43.71545" lon="6.54734">
        <ele>854.874295</ele>
        <time>2022-04-30T22:46:21.208Z</time>
      </trkpt>
      <trkpt lat="43.7155" lon="6.54835">
        <ele>857.194406</ele>
        <time>2022-04-30T22:46:39.991Z</time>
      </trkpt>
      <trkpt lat="43.7159" lon="6.5503">
        <ele>860.355748</ele>
        <time>2022-04-30T22:47:11.966Z</time>
      </trkpt>
      <trkpt lat="43.71597" lon="6.5508">
        <ele>861.434927</ele>
        <time>2022-04-30T22:47:20.390Z</time>
      </trkpt>
      <trkpt lat="43.71602" lon="6.55171">
        <ele>863.341367</ele>
        <time>2022-04-30T22:47:36.253Z</time>
      </trkpt>
      <trkpt lat="43.71591" lon="6.55357">
        <ele>868.981984</ele>
        <time>2022-04-30T22:48:18.868Z</time>
      </trkpt>
      <trkpt lat="43.71586" lon="6.55392">
        <ele>870.380071</ele>
        <time>2022-04-30T22:48:28.752Z</time>
      </trkpt>
      <trkpt lat="43.71503" lon="6.55594">
        <ele>879.641233</ele>
        <time>2022-04-30T22:49:36.254Z</time>
      </trkpt>
      <trkpt lat="43.71487" lon="6.55673">
        <ele>882.939342</ele>
        <time>2022-04-30T22:49:57.741Z</time>
      </trkpt>
      <trkpt lat="43.71481" lon="6.5573">
        <ele>885.208618</ele>
        <time>2022-04-30T22:50:11.729Z</time>
      </trkpt>
      <trkpt lat="43.71488" lon="6.55778">
        <ele>886.728067</ele>
        <time>2022-04-30T22:50:23.198Z</time>
      </trkpt>
      <trkpt lat="43.71519" lon="6.55869">
        <ele>889.856665</ele>
        <time>2022-04-30T22:50:45.285Z</time>
      </trkpt>
      <trkpt lat="43.71533" lon="6.56019">
        <ele>894.453528</ele>
        <time>2022-04-30T22:51:20.377Z</time>
      </trkpt>
      <trkpt lat="43.71565" lon="6.56119">
        <ele>897.718215</ele>
        <time>2022-04-30T22:51:46.950Z</time>
      </trkpt>
      <trkpt lat="43.71572" lon="6.56166">
        <ele>899.149203</ele>
        <time>2022-04-30T22:51:58.109Z</time>
      </trkpt>
      <trkpt lat="43.71571" lon="6.56177">
        <ele>899.500256</ele>
        <time>2022-04-30T22:52:00.757Z</time>
      </trkpt>
      <trkpt lat="43.71529" lon="6.56347">
        <ele>901.729516</ele>
        <time>2022-04-30T22:52:32.721Z</time>
      </trkpt>
      <trkpt lat="43.71497" lon="6.56541">
        <ele>901.497841</ele>
        <time>2022-04-30T22:52:50.906Z</time>
      </trkpt>
      <trkpt lat="43.71465" lon="6.56733">
        <ele>899.375244</ele>
        <time>2022-04-30T22:53:06.412Z</time>
      </trkpt>
      <trkpt lat="43.71446" lon="6.5685">
        <ele>898.029474</ele>
        <time>2022-04-30T22:53:15.696Z</time>
      </trkpt>
      <trkpt lat="43.71437" lon="6.56937">
        <ele>897.445615</ele>
        <time>2022-04-30T22:53:23.798Z</time>
      </trkpt>
      <trkpt lat="43.71447" lon="6.56998">
        <ele>898.568776</ele>
        <time>2022-04-30T22:53:32.320Z</time>
      </trkpt>
      <trkpt lat="43.71456" lon="6.57023">
        <ele>899.056733</ele>
        <time>2022-04-30T22:53:36.505Z</time>
      </trkpt>
      <trkpt lat="43.71573" lon="6.57263">
        <ele>905.001013</ele>
        <time>2022-04-30T22:54:40.989Z</time>
      </trkpt>
      <trkpt lat="43.71674" lon="6.57422">
        <ele>907.780059</ele>
        <time>2022-04-30T22:55:16.815Z</time>
      </trkpt>
      <trkpt lat="43.717" lon="6.57484">
        <ele>908.036527</ele>
        <time>2022-04-30T22:55:23.948Z</time>
      </trkpt>
      <trkpt lat="43.71708" lon="6.57536">
        <ele>908.228917</ele>
        <time>2022-04-30T22:55:28.860Z</time>
      </trkpt>
      <trkpt lat="43.71716" lon="6.57615">
        <ele>907.454534</ele>
        <time>2022-04-30T22:55:35.529Z</time>
      </trkpt>
      <trkpt lat="43.71726" lon="6.57702">
        <ele>906.315907</ele>
        <time>2022-04-30T22:55:42.464Z</time>
      </trkpt>
      <trkpt lat="43.71735" lon="6.57893">
        <ele>904.765236</ele>
        <time>2022-04-30T22:55:57.532Z</time>
      </trkpt>
      <trkpt lat="43.71735" lon="6.57908">
        <ele>904.716931</ele>
        <time>2022-04-30T22:55:59.001Z</time>
      </trkpt>
      <trkpt lat="43.71735" lon="6.57933">
        <ele>904.643693</ele>
        <time>2022-04-30T22:56:01.385Z</time>
      </trkpt>
      <trkpt lat="43.71708" lon="6.57945">
        <ele>904.522625</ele>
        <time>2022-04-30T22:56:05.591Z</time>
      </trkpt>
      <trkpt lat="43.7165" lon="6.57996">
        <ele>904.465698</ele>
        <time>2022-04-30T22:56:18.942Z</time>
      </trkpt>
      <trkpt lat="43.7156" lon="6.58026">
        <ele>905.571988</ele>
        <time>2022-04-30T22:56:39.935Z</time>
      </trkpt>
      <trkpt lat="43.7154" lon="6.5804">
        <ele>905.834622</ele>
        <time>2022-04-30T22:56:44.555Z</time>
      </trkpt>
      <trkpt lat="43.71492" lon="6.58028">
        <ele>906.408638</ele>
        <time>2022-04-30T22:56:53.435Z</time>
      </trkpt>
      <trkpt lat="43.71393" lon="6.58028">
        <ele>904.992102</ele>
        <time>2022-04-30T22:57:05.874Z</time>
      </trkpt>
      <trkpt lat="43.71356" lon="6.58006">
        <ele>904.395388</ele>
        <time>2022-04-30T22:57:10.200Z</time>
      </trkpt>
      <trkpt lat="43.71032" lon="6.57912">
        <ele>896.401164</ele>
        <time>2022-04-30T22:57:44.086Z</time>
      </trkpt>
      <trkpt lat="43.70938" lon="6.57941">
        <ele>895.491202</ele>
        <time>2022-04-30T22:57:57.905Z</time>
      </trkpt>
      <trkpt lat="43.70873" lon="6.57992">
        <ele>896.474618</ele>
        <time>2022-04-30T22:58:13.656Z</time>
      </trkpt>
      <trkpt lat="43.70862" lon="6.5799">
        <ele>896.623125</ele>
        <time>2022-04-30T22:58:16.713Z</time>
      </trkpt>
      <trkpt lat="43.70848" lon="6.57972">
        <ele>896.879845</ele>
        <time>2022-04-30T22:58:20.189Z</time>
      </trkpt>
      <trkpt lat="43.70788" lon="6.57959">
        <ele>897.808707</ele>
        <time>2022-04-30T22:58:33.708Z</time>
      </trkpt>
      <trkpt lat="43.70768" lon="6.57965">
        <ele>898.321192</ele>
        <time>2022-04-30T22:58:38.216Z</time>
      </trkpt>
      <trkpt lat="43.70747" lon="6.57982">
        <ele>898.898154</ele>
        <time>2022-04-30T22:58:43.520Z</time>
      </trkpt>
      <trkpt lat="43.70724" lon="6.58032">
        <ele>899.958469</ele>
        <time>2022-04-30T22:58:53.932Z</time>
      </trkpt>
      <trkpt lat="43.70698" lon="6.58069">
        <ele>900.877881</ele>
        <time>2022-04-30T22:59:03.891Z</time>
      </trkpt>
      <trkpt lat="43.70599" lon="6.58119">
        <ele>903.873115</ele>
        <time>2022-04-30T22:59:32.172Z</time>
      </trkpt>
      <trkpt lat="43.70514" lon="6.5814">
        <ele>906.617368</ele>
        <time>2022-04-30T22:59:57.145Z</time>
      </trkpt>
      <trkpt lat="43.70474" lon="6.58157">
        <ele>907.771777</ele>
        <time>2022-04-30T23:00:08.201Z</time>
      </trkpt>
      <trkpt lat="43.70439" lon="6.58194">
        <ele>908.533553</ele>
        <time>2022-04-30T23:00:19.496Z</time>
      </trkpt>
      <trkpt lat="43.70319" lon="6.58266">
        <ele>910.68196</ele>
        <time>2022-04-30T23:00:45.787Z</time>
      </trkpt>
      <trkpt lat="43.70306" lon="6.58277">
        <ele>910.643936</ele>
        <time>2022-04-30T23:00:48.135Z</time>
      </trkpt>
      <trkpt lat="43.70305" lon="6.58284">
        <ele>910.631561</ele>
        <time>2022-04-30T23:00:49.330Z</time>
      </trkpt>
      <trkpt lat="43.70374" lon="6.58306">
        <ele>910.454796</ele>
        <time>2022-04-30T23:00:59.893Z</time>
      </trkpt>
      <trkpt lat="43.70426" lon="6.58312">
        <ele>910.327502</ele>
        <time>2022-04-30T23:01:06.459Z</time>
      </trkpt>
      <trkpt lat="43.705" lon="6.58304">
        <ele>910.088523</ele>
        <time>2022-04-30T23:01:15.195Z</time>
      </trkpt>
      <trkpt lat="43.70553" lon="6.58287">
        <ele>909.886023</ele>
        <time>2022-04-30T23:01:22.004Z</time>
      </trkpt>
      <trkpt lat="43.70644" lon="6.58282">
        <ele>909.69233</ele>
        <time>2022-04-30T23:01:35.652Z</time>
      </trkpt>
      <trkpt lat="43.70662" lon="6.58286">
        <ele>909.924788</ele>
        <time>2022-04-30T23:01:39.107Z</time>
      </trkpt>
      <trkpt lat="43.70746" lon="6.58327">
        <ele>911.097822</ele>
        <time>2022-04-30T23:01:59.566Z</time>
      </trkpt>
      <trkpt lat="43.70774" lon="6.5835">
        <ele>911.523803</ele>
        <time>2022-04-30T23:02:05.931Z</time>
      </trkpt>
      <trkpt lat="43.70822" lon="6.58405">
        <ele>912.12542</ele>
        <time>2022-04-30T23:02:17.398Z</time>
      </trkpt>
      <trkpt lat="43.70853" lon="6.58428">
        <ele>912.340341</ele>
        <time>2022-04-30T23:02:24.472Z</time>
      </trkpt>
      <trkpt lat="43.70941" lon="6.58461">
        <ele>912.884215</ele>
        <time>2022-04-30T23:02:39.045Z</time>
      </trkpt>
      <trkpt lat="43.7094" lon="6.58493">
        <ele>913.021626</ele>
        <time>2022-04-30T23:02:43.634Z</time>
      </trkpt>
      <trkpt lat="43.70965" lon="6.58582">
        <ele>913.335861</ele>
        <time>2022-04-30T23:02:52.790Z</time>
      </trkpt>
      <trkpt lat="43.70985" lon="6.58711">
        <ele>913.768336</ele>
        <time>2022-04-30T23:03:12.291Z</time>
      </trkpt>
      <trkpt lat="43.71005" lon="6.58963">
        <ele>912.607606</ele>
        <time>2022-04-30T23:03:36.479Z</time>
      </trkpt>
      <trkpt lat="43.71055" lon="6.59221">
        <ele>907.997208</ele>
        <time>2022-04-30T23:03:56.323Z</time>
      </trkpt>
      <trkpt lat="43.71062" lon="6.59275">
        <ele>907.878295</ele>
        <time>2022-04-30T23:04:01.057Z</time>
      </trkpt>
      <trkpt lat="43.71059" lon="6.59303">
        <ele>907.816759</ele>
        <time>2022-04-30T23:04:03.900Z</time>
      </trkpt>
      <trkpt lat="43.71005" lon="6.59517">
        <ele>907.308863</ele>
        <time>2022-04-30T23:04:31.321Z</time>
      </trkpt>
      <trkpt lat="43.70997" lon="6.59567">
        <ele>907.185673</ele>
        <time>2022-04-30T23:04:36.932Z</time>
      </trkpt>
      <trkpt lat="43.71" lon="6.59643">
        <ele>907.000984</ele>
        <time>2022-04-30T23:04:44.078Z</time>
      </trkpt>
      <trkpt lat="43.71014" lon="6.5968">
        <ele>906.899012</ele>
        <time>2022-04-30T23:04:47.696Z</time>
      </trkpt>
      <trkpt lat="43.71045" lon="6.59697">
        <ele>906.753689</ele>
        <time>2022-04-30T23:04:51.454Z</time>
      </trkpt>
      <trkpt lat="43.71057" lon="6.59713">
        <ele>906.66524</ele>
        <time>2022-04-30T23:04:53.450Z</time>
      </trkpt>
      <trkpt lat="43.71091" lon="6.59841">
        <ele>906.163185</ele>
        <time>2022-04-30T23:05:05.923Z</time>
      </trkpt>
      <trkpt lat="43.71112" lon="6.60114">
        <ele>906.999853</ele>
        <time>2022-04-30T23:05:40.156Z</time>
      </trkpt>
      <trkpt lat="43.71126" lon="6.60183">
        <ele>907.499943</ele>
        <time>2022-04-30T23:05:50.040Z</time>
      </trkpt>
      <trkpt lat="43.71175" lon="6.60339">
        <ele>909.024272</ele>
        <time>2022-04-30T23:06:14.769Z</time>
      </trkpt>
      <trkpt lat="43.71184" lon="6.60382">
        <ele>909.420854</ele>
        <time>2022-04-30T23:06:21.269Z</time>
      </trkpt>
      <trkpt lat="43.71184" lon="6.60433">
        <ele>909.880778</ele>
        <time>2022-04-30T23:06:28.848Z</time>
      </trkpt>
      <trkpt lat="43.71162" lon="6.60547">
        <ele>910.929113</ele>
        <time>2022-04-30T23:06:46.127Z</time>
      </trkpt>
      <trkpt lat="43.7116" lon="6.60579">
        <ele>911.222826</ele>
        <time>2022-04-30T23:06:50.821Z</time>
      </trkpt>
      <trkpt lat="43.7119" lon="6.60724">
        <ele>912.369741</ele>
        <time>2022-04-30T23:07:10.775Z</time>
      </trkpt>
      <trkpt lat="43.71206" lon="6.60768">
        <ele>912.709353</ele>
        <time>2022-04-30T23:07:17.105Z</time>
      </trkpt>
      <trkpt lat="43.71241" lon="6.60854">
        <ele>913.446995</ele>
        <time>2022-04-30T23:07:30.627Z</time>
      </trkpt>
      <trkpt lat="43.713" lon="6.60954">
        <ele>915.228387</ele>
        <time>2022-04-30T23:07:50.001Z</time>
      </trkpt>
      <trkpt lat="43.71321" lon="6.61073">
        <ele>916.979923</ele>
        <time>2022-04-30T23:08:11.811Z</time>
      </trkpt>
      <trkpt lat="43.71377" lon="6.61235">
        <ele>920.558895</ele>
        <time>2022-04-30T23:08:45.632Z</time>
      </trkpt>
      <trkpt lat="43.71387" lon="6.61314">
        <ele>922.066686</ele>
        <time>2022-04-30T23:09:01.826Z</time>
      </trkpt>
      <trkpt lat="43.71386" lon="6.61525">
        <ele>925.31783</ele>
        <time>2022-04-30T23:09:36.826Z</time>
      </trkpt>
      <trkpt lat="43.71391" lon="6.6164">
        <ele>926.907253</ele>
        <time>2022-04-30T23:09:54.037Z</time>
      </trkpt>
      <trkpt lat="43.71401" lon="6.61659">
        <ele>927.218676</ele>
        <time>2022-04-30T23:09:57.851Z</time>
      </trkpt>
      <trkpt lat="43.71438" lon="6.61694">
        <ele>928.055629</ele>
        <time>2022-04-30T23:10:07.709Z</time>
      </trkpt>
      <trkpt lat="43.71451" lon="6.61748">
        <ele>928.815794</ele>
        <time>2022-04-30T23:10:16.721Z</time>
      </trkpt>
      <trkpt lat="43.71468" lon="6.61812">
        <ele>930.037868</ele>
        <time>2022-04-30T23:10:28.988Z</time>
      </trkpt>
      <trkpt lat="43.71501" lon="6.61931">
        <ele>932.427072</ele>
        <time>2022-04-30T23:10:53.587Z</time>
      </trkpt>
      <trkpt lat="43.71519" lon="6.6197">
        <ele>933.278189</ele>
        <time>2022-04-30T23:11:02.762Z</time>
      </trkpt>
      <trkpt lat="43.71623" lon="6.62106">
        <ele>935.827565</ele>
        <time>2022-04-30T23:11:33.800Z</time>
      </trkpt>
      <trkpt lat="43.71678" lon="6.62124">
        <ele>936.720044</ele>
        <time>2022-04-30T23:11:44.847Z</time>
      </trkpt>
      <trkpt lat="43.71725" lon="6.6215">
        <ele>937.143979</ele>
        <time>2022-04-30T23:11:54.866Z</time>
      </trkpt>
      <trkpt lat="43.71825" lon="6.62237">
        <ele>938.129752</ele>
        <time>2022-04-30T23:12:15.838Z</time>
      </trkpt>
      <trkpt lat="43.71886" lon="6.62262">
        <ele>938.332165</ele>
        <time>2022-04-30T23:12:26.175Z</time>
      </trkpt>
      <trkpt lat="43.7195" lon="6.62267">
        <ele>938.516785</ele>
        <time>2022-04-30T23:12:35.450Z</time>
      </trkpt>
      <trkpt lat="43.71969" lon="6.62274">
        <ele>938.573192</ele>
        <time>2022-04-30T23:12:38.163Z</time>
      </trkpt>
      <trkpt lat="43.72041" lon="6.62361">
        <ele>940.267914</ele>
        <time>2022-04-30T23:12:54.562Z</time>
      </trkpt>
      <trkpt lat="43.72049" lon="6.62385">
        <ele>940.773282</ele>
        <time>2022-04-30T23:12:59.016Z</time>
      </trkpt>
      <trkpt lat="43.72058" lon="6.6244">
        <ele>941.856432</ele>
        <time>2022-04-30T23:13:09.788Z</time>
      </trkpt>
      <trkpt lat="43.72064" lon="6.62452">
        <ele>942.13331</ele>
        <time>2022-04-30T23:13:12.792Z</time>
      </trkpt>
      <trkpt lat="43.72067" lon="6.62458">
        <ele>942.265898</ele>
        <time>2022-04-30T23:13:14.251Z</time>
      </trkpt>
      <trkpt lat="43.72187" lon="6.62658">
        <ele>951.123153</ele>
        <time>2022-04-30T23:14:21.231Z</time>
      </trkpt>
      <trkpt lat="43.72203" lon="6.62677">
        <ele>952.286501</ele>
        <time>2022-04-30T23:14:29.557Z</time>
      </trkpt>
      <trkpt lat="43.72248" lon="6.62709">
        <ele>954.925459</ele>
        <time>2022-04-30T23:14:49.422Z</time>
      </trkpt>
      <trkpt lat="43.72302" lon="6.62815">
        <ele>959.790726</ele>
        <time>2022-04-30T23:15:25.717Z</time>
      </trkpt>
      <trkpt lat="43.72315" lon="6.62841">
        <ele>960.947919</ele>
        <time>2022-04-30T23:15:33.184Z</time>
      </trkpt>
      <trkpt lat="43.7232" lon="6.62848">
        <ele>961.318924</ele>
        <time>2022-04-30T23:15:35.464Z</time>
      </trkpt>
      <trkpt lat="43.7233" lon="6.62865">
        <ele>962.129465</ele>
        <time>2022-04-30T23:15:40.131Z</time>
      </trkpt>
      <trkpt lat="43.72344" lon="6.62879">
        <ele>962.477354</ele>
        <time>2022-04-30T23:15:45.224Z</time>
      </trkpt>
      <trkpt lat="43.72397" lon="6.62902">
        <ele>962.878021</ele>
        <time>2022-04-30T23:15:57.982Z</time>
      </trkpt>
      <trkpt lat="43.7241" lon="6.62906">
        <ele>962.968533</ele>
        <time>2022-04-30T23:16:00.126Z</time>
      </trkpt>
      <trkpt lat="43.72412" lon="6.62906">
        <ele>962.986612</ele>
        <time>2022-04-30T23:16:00.556Z</time>
      </trkpt>
      <trkpt lat="43.72422" lon="6.629">
        <ele>963.065599</ele>
        <time>2022-04-30T23:16:02.159Z</time>
      </trkpt>
      <trkpt lat="43.72424" lon="6.62889">
        <ele>963.122512</ele>
        <time>2022-04-30T23:16:03.245Z</time>
      </trkpt>
      <trkpt lat="43.72433" lon="6.62863">
        <ele>963.27361</ele>
        <time>2022-04-30T23:16:05.799Z</time>
      </trkpt>
      <trkpt lat="43.72444" lon="6.6284">
        <ele>963.419394</ele>
        <time>2022-04-30T23:16:08.531Z</time>
      </trkpt>
      <trkpt lat="43.72454" lon="6.62824">
        <ele>963.532683</ele>
        <time>2022-04-30T23:16:10.382Z</time>
      </trkpt>
      <trkpt lat="43.72489" lon="6.62781">
        <ele>963.69397</ele>
        <time>2022-04-30T23:16:16.029Z</time>
      </trkpt>
      <trkpt lat="43.72493" lon="6.62775">
        <ele>963.696347</ele>
        <time>2022-04-30T23:16:16.772Z</time>
      </trkpt>
      <trkpt lat="43.72509" lon="6.62749">
        <ele>963.70617</ele>
        <time>2022-04-30T23:16:19.456Z</time>
      </trkpt>
      <trkpt lat="43.72534" lon="6.62724">
        <ele>963.718433</ele>
        <time>2022-04-30T23:16:22.848Z</time>
      </trkpt>
      <trkpt lat="43.72605" lon="6.62635">
        <ele>963.889969</ele>
        <time>2022-04-30T23:16:39.342Z</time>
      </trkpt>
      <trkpt lat="43.72652" lon="6.62529">
        <ele>967.528615</ele>
        <time>2022-04-30T23:17:09.172Z</time>
      </trkpt>
      <trkpt lat="43.72673" lon="6.62511">
        <ele>968.555102</ele>
        <time>2022-04-30T23:17:18.847Z</time>
      </trkpt>
      <trkpt lat="43.72684" lon="6.62508">
        <ele>969.024861</ele>
        <time>2022-04-30T23:17:23.339Z</time>
      </trkpt>
      <trkpt lat="43.72732" lon="6.62521">
        <ele>971.018587</ele>
        <time>2022-04-30T23:17:38.526Z</time>
      </trkpt>
      <trkpt lat="43.72742" lon="6.6253">
        <ele>971.260268</ele>
        <time>2022-04-30T23:17:42.673Z</time>
      </trkpt>
      <trkpt lat="43.72775" lon="6.626">
        <ele>972.368312</ele>
        <time>2022-04-30T23:17:58.317Z</time>
      </trkpt>
      <trkpt lat="43.72782" lon="6.62606">
        <ele>972.515384</ele>
        <time>2022-04-30T23:18:00.723Z</time>
      </trkpt>
      <trkpt lat="43.72798" lon="6.62606">
        <ele>972.798246</ele>
        <time>2022-04-30T23:18:05.283Z</time>
      </trkpt>
      <trkpt lat="43.72844" lon="6.62548">
        <ele>973.944258</ele>
        <time>2022-04-30T23:18:16.560Z</time>
      </trkpt>
      <trkpt lat="43.72882" lon="6.62545">
        <ele>974.30501</ele>
        <time>2022-04-30T23:18:21.249Z</time>
      </trkpt>
      <trkpt lat="43.72998" lon="6.62521">
        <ele>973.843256</ele>
        <time>2022-04-30T23:18:34.834Z</time>
      </trkpt>
      <trkpt lat="43.73013" lon="6.62533">
        <ele>973.775995</ele>
        <time>2022-04-30T23:18:37.389Z</time>
      </trkpt>
      <trkpt lat="43.73022" lon="6.6258">
        <ele>973.799624</ele>
        <time>2022-04-30T23:18:45.090Z</time>
      </trkpt>
      <trkpt lat="43.73038" lon="6.62585">
        <ele>974.250038</ele>
        <time>2022-04-30T23:18:48.411Z</time>
      </trkpt>
      <trkpt lat="43.73083" lon="6.62566">
        <ele>975.556974</ele>
        <time>2022-04-30T23:19:00.009Z</time>
      </trkpt>
      <trkpt lat="43.73116" lon="6.62573">
        <ele>976.492992</ele>
        <time>2022-04-30T23:19:08.748Z</time>
      </trkpt>
      <trkpt lat="43.73161" lon="6.62592">
        <ele>977.787507</ele>
        <time>2022-04-30T23:19:22.563Z</time>
      </trkpt>
      <trkpt lat="43.73225" lon="6.62587">
        <ele>980.121252</ele>
        <time>2022-04-30T23:19:40.279Z</time>
      </trkpt>
      <trkpt lat="43.73297" lon="6.6253">
        <ele>983.7616</ele>
        <time>2022-04-30T23:20:11.874Z</time>
      </trkpt>
      <trkpt lat="43.7332" lon="6.62505">
        <ele>985.067563</ele>
        <time>2022-04-30T23:20:20.024Z</time>
      </trkpt>
      <trkpt lat="43.73333" lon="6.62499">
        <ele>985.6485</ele>
        <time>2022-04-30T23:20:24.631Z</time>
      </trkpt>
      <trkpt lat="43.73339" lon="6.62498">
        <ele>985.902629</ele>
        <time>2022-04-30T23:20:26.414Z</time>
      </trkpt>
      <trkpt lat="43.73348" lon="6.62482">
        <ele>986.533995</ele>
        <time>2022-04-30T23:20:29.879Z</time>
      </trkpt>
      <trkpt lat="43.73389" lon="6.62487">
        <ele>987.931555</ele>
        <time>2022-04-30T23:20:42.355Z</time>
      </trkpt>
      <trkpt lat="43.73427" lon="6.62462">
        <ele>989.36101</ele>
        <time>2022-04-30T23:20:54.674Z</time>
      </trkpt>
      <trkpt lat="43.73431" lon="6.6244">
        <ele>989.90598</ele>
        <time>2022-04-30T23:21:00.272Z</time>
      </trkpt>
      <trkpt lat="43.73432" lon="6.62436">
        <ele>990.033989</ele>
        <time>2022-04-30T23:21:01.411Z</time>
      </trkpt>
      <trkpt lat="43.73459" lon="6.62439">
        <ele>990.931333</ele>
        <time>2022-04-30T23:21:10.904Z</time>
      </trkpt>
      <trkpt lat="43.73525" lon="6.62463">
        <ele>993.008517</ele>
        <time>2022-04-30T23:21:28.058Z</time>
      </trkpt>
      <trkpt lat="43.73532" lon="6.62475">
        <ele>993.251503</ele>
        <time>2022-04-30T23:21:30.216Z</time>
      </trkpt>
      <trkpt lat="43.73537" lon="6.62503">
        <ele>993.682377</ele>
        <time>2022-04-30T23:21:34.366Z</time>
      </trkpt>
      <trkpt lat="43.73549" lon="6.62513">
        <ele>993.974265</ele>
        <time>2022-04-30T23:21:36.753Z</time>
      </trkpt>
      <trkpt lat="43.73549" lon="6.62542">
        <ele>994.41763</ele>
        <time>2022-04-30T23:21:40.871Z</time>
      </trkpt>
      <trkpt lat="43.73557" lon="6.62581">
        <ele>995.018957</ele>
        <time>2022-04-30T23:21:46.430Z</time>
      </trkpt>
      <trkpt lat="43.73576" lon="6.62597">
        <ele>995.481079</ele>
        <time>2022-04-30T23:21:52.139Z</time>
      </trkpt>
      <trkpt lat="43.73589" lon="6.62597">
        <ele>995.738193</ele>
        <time>2022-04-30T23:21:53.886Z</time>
      </trkpt>
      <trkpt lat="43.73629" lon="6.62596">
        <ele>996.951004</ele>
        <time>2022-04-30T23:22:04.711Z</time>
      </trkpt>
      <trkpt lat="43.73649" lon="6.62607">
        <ele>998.233256</ele>
        <time>2022-04-30T23:22:11.888Z</time>
      </trkpt>
      <trkpt lat="43.73661" lon="6.62635">
        <ele>999.586737</ele>
        <time>2022-04-30T23:22:19.715Z</time>
      </trkpt>
      <trkpt lat="43.73656" lon="6.6271">
        <ele>1002.768624</ele>
        <time>2022-04-30T23:22:38.554Z</time>
      </trkpt>
      <trkpt lat="43.73665" lon="6.62746">
        <ele>1004.37093</ele>
        <time>2022-04-30T23:22:50.699Z</time>
      </trkpt>
      <trkpt lat="43.73686" lon="6.62777">
        <ele>1006.201566</ele>
        <time>2022-04-30T23:23:06.086Z</time>
      </trkpt>
      <trkpt lat="43.73726" lon="6.62818">
        <ele>1009.777657</ele>
        <time>2022-04-30T23:23:30.998Z</time>
      </trkpt>
      <trkpt lat="43.73751" lon="6.62824">
        <ele>1011.771125</ele>
        <time>2022-04-30T23:23:43.815Z</time>
      </trkpt>
      <trkpt lat="43.73791" lon="6.62819">
        <ele>1014.878372</ele>
        <time>2022-04-30T23:24:03.871Z</time>
      </trkpt>
      <trkpt lat="43.73824" lon="6.62823">
        <ele>1017.387336</ele>
        <time>2022-04-30T23:24:19.242Z</time>
      </trkpt>
      <trkpt lat="43.739" lon="6.62858">
        <ele>1022.615356</ele>
        <time>2022-04-30T23:24:49.585Z</time>
      </trkpt>
      <trkpt lat="43.73973" lon="6.62856">
        <ele>1026.228385</ele>
        <time>2022-04-30T23:25:14.088Z</time>
      </trkpt>
      <trkpt lat="43.74003" lon="6.62852">
        <ele>1027.701969</ele>
        <time>2022-04-30T23:25:23.347Z</time>
      </trkpt>
      <trkpt lat="43.74126" lon="6.62838">
        <ele>1034.74298</ele>
        <time>2022-04-30T23:26:05.827Z</time>
      </trkpt>
      <trkpt lat="43.74246" lon="6.62864">
        <ele>1042.300545</ele>
        <time>2022-04-30T23:26:58.285Z</time>
      </trkpt>
      <trkpt lat="43.74373" lon="6.6286">
        <ele>1051.097203</ele>
        <time>2022-04-30T23:27:52.162Z</time>
      </trkpt>
      <trkpt lat="43.74415" lon="6.62873">
        <ele>1053.974206</ele>
        <time>2022-04-30T23:28:11.171Z</time>
      </trkpt>
      <trkpt lat="43.74498" lon="6.62923">
        <ele>1059.511678</ele>
        <time>2022-04-30T23:28:47.680Z</time>
      </trkpt>
      <trkpt lat="43.74535" lon="6.62933">
        <ele>1061.871652</ele>
        <time>2022-04-30T23:29:02.179Z</time>
      </trkpt>
      <trkpt lat="43.74597" lon="6.62933">
        <ele>1065.382243</ele>
        <time>2022-04-30T23:29:24.565Z</time>
      </trkpt>
      <trkpt lat="43.74664" lon="6.62937">
        <ele>1068.631243</ele>
        <time>2022-04-30T23:29:49.050Z</time>
      </trkpt>
      <trkpt lat="43.7486" lon="6.62994">
        <ele>1075.594603</ele>
        <time>2022-04-30T23:30:52.771Z</time>
      </trkpt>
      <trkpt lat="43.74946" lon="6.62992">
        <ele>1076.330401</ele>
        <time>2022-04-30T23:31:05.690Z</time>
      </trkpt>
      <trkpt lat="43.74981" lon="6.62988">
        <ele>1074.741974</ele>
        <time>2022-04-30T23:31:09.331Z</time>
      </trkpt>
      <trkpt lat="43.75025" lon="6.62977">
        <ele>1072.750766</ele>
        <time>2022-04-30T23:31:13.585Z</time>
      </trkpt>
      <trkpt lat="43.75103" lon="6.62952">
        <ele>1069.15245</ele>
        <time>2022-04-30T23:31:20.841Z</time>
      </trkpt>
      <trkpt lat="43.75193" lon="6.62952">
        <ele>1063.161917</ele>
        <time>2022-04-30T23:31:28.812Z</time>
      </trkpt>
      <trkpt lat="43.75248" lon="6.62957">
        <ele>1059.520739</ele>
        <time>2022-04-30T23:31:33.723Z</time>
      </trkpt>
      <trkpt lat="43.75351" lon="6.6299">
        <ele>1055.046879</ele>
        <time>2022-04-30T23:31:43.870Z</time>
      </trkpt>
      <trkpt lat="43.75364" lon="6.62996">
        <ele>1054.676632</ele>
        <time>2022-04-30T23:31:45.147Z</time>
      </trkpt>
      <trkpt lat="43.75387" lon="6.63011">
        <ele>1053.917697</ele>
        <time>2022-04-30T23:31:47.834Z</time>
      </trkpt>
      <trkpt lat="43.75388" lon="6.63011">
        <ele>1053.892925</ele>
        <time>2022-04-30T23:31:47.927Z</time>
      </trkpt>
      <trkpt lat="43.75405" lon="6.62997">
        <ele>1053.311116</ele>
        <time>2022-04-30T23:31:50.071Z</time>
      </trkpt>
      <trkpt lat="43.75408" lon="6.62993">
        <ele>1053.191531</ele>
        <time>2022-04-30T23:31:50.523Z</time>
      </trkpt>
      <trkpt lat="43.75486" lon="6.62972">
        <ele>1052.202855</ele>
        <time>2022-04-30T23:32:01.026Z</time>
      </trkpt>
      <trkpt lat="43.75515" lon="6.62977">
        <ele>1052.513618</ele>
        <time>2022-04-30T23:32:06.494Z</time>
      </trkpt>
      <trkpt lat="43.75666" lon="6.63041">
        <ele>1053.798282</ele>
        <time>2022-04-30T23:32:40.836Z</time>
      </trkpt>
      <trkpt lat="43.75685" lon="6.63058">
        <ele>1053.832669</ele>
        <time>2022-04-30T23:32:45.534Z</time>
      </trkpt>
      <trkpt lat="43.75716" lon="6.63099">
        <ele>1053.899104</ele>
        <time>2022-04-30T23:32:53.361Z</time>
      </trkpt>
      <trkpt lat="43.75737" lon="6.6311">
        <ele>1053.932532</ele>
        <time>2022-04-30T23:32:56.499Z</time>
      </trkpt>
      <trkpt lat="43.75813" lon="6.63118">
        <ele>1053.029349</ele>
        <time>2022-04-30T23:33:05.221Z</time>
      </trkpt>
      <trkpt lat="43.75837" lon="6.63115">
        <ele>1052.093393</ele>
        <time>2022-04-30T23:33:07.611Z</time>
      </trkpt>
      <trkpt lat="43.75856" lon="6.63099">
        <ele>1051.193418</ele>
        <time>2022-04-30T23:33:09.874Z</time>
      </trkpt>
      <trkpt lat="43.75877" lon="6.63057">
        <ele>1049.756</ele>
        <time>2022-04-30T23:33:13.391Z</time>
      </trkpt>
      <trkpt lat="43.76023" lon="6.62864">
        <ele>1040.814452</ele>
        <time>2022-04-30T23:33:32.348Z</time>
      </trkpt>
      <trkpt lat="43.76067" lon="6.62762">
        <ele>1037.256571</ele>
        <time>2022-04-30T23:33:40.865Z</time>
      </trkpt>
      <trkpt lat="43.76081" lon="6.62744">
        <ele>1036.627716</ele>
        <time>2022-04-30T23:33:42.699Z</time>
      </trkpt>
      <trkpt lat="43.76124" lon="6.627">
        <ele>1034.834782</ele>
        <time>2022-04-30T23:33:48.131Z</time>
      </trkpt>
      <trkpt lat="43.76178" lon="6.62652">
        <ele>1032.669776</ele>
        <time>2022-04-30T23:33:54.519Z</time>
      </trkpt>
      <trkpt lat="43.76326" lon="6.62539">
        <ele>1029.964129</ele>
        <time>2022-04-30T23:34:12.963Z</time>
      </trkpt>
      <trkpt lat="43.76344" lon="6.62514">
        <ele>1029.774369</ele>
        <time>2022-04-30T23:34:17.764Z</time>
      </trkpt>
      <trkpt lat="43.76358" lon="6.62471">
        <ele>1030.13072</ele>
        <time>2022-04-30T23:34:25.275Z</time>
      </trkpt>
      <trkpt lat="43.76365" lon="6.62427">
        <ele>1030.471718</ele>
        <time>2022-04-30T23:34:34.902Z</time>
      </trkpt>
      <trkpt lat="43.76365" lon="6.62354">
        <ele>1031.027951</ele>
        <time>2022-04-30T23:34:44.151Z</time>
      </trkpt>
      <trkpt lat="43.76376" lon="6.62285">
        <ele>1031.561466</ele>
        <time>2022-04-30T23:34:54.804Z</time>
      </trkpt>
      <trkpt lat="43.7637" lon="6.62243">
        <ele>1030.76288</ele>
        <time>2022-04-30T23:34:59.446Z</time>
      </trkpt>
      <trkpt lat="43.76373" lon="6.62231">
        <ele>1030.503075</ele>
        <time>2022-04-30T23:35:02.434Z</time>
      </trkpt>
      <trkpt lat="43.76373" lon="6.62229">
        <ele>1030.458981</ele>
        <time>2022-04-30T23:35:02.596Z</time>
      </trkpt>
      <trkpt lat="43.76378" lon="6.6222">
        <ele>1030.243243</ele>
        <time>2022-04-30T23:35:03.339Z</time>
      </trkpt>
      <trkpt lat="43.76407" lon="6.62206">
        <ele>1029.397684</ele>
        <time>2022-04-30T23:35:06.477Z</time>
      </trkpt>
      <trkpt lat="43.76413" lon="6.6219">
        <ele>1029.039929</ele>
        <time>2022-04-30T23:35:07.649Z</time>
      </trkpt>
      <trkpt lat="43.76404" lon="6.62149">
        <ele>1028.178458</ele>
        <time>2022-04-30T23:35:10.680Z</time>
      </trkpt>
      <trkpt lat="43.76405" lon="6.62117">
        <ele>1027.531072</ele>
        <time>2022-04-30T23:35:12.900Z</time>
      </trkpt>
      <trkpt lat="43.76445" lon="6.61972">
        <ele>1025.103923</ele>
        <time>2022-04-30T23:35:23.632Z</time>
      </trkpt>
      <trkpt lat="43.76463" lon="6.61933">
        <ele>1024.471078</ele>
        <time>2022-04-30T23:35:27.861Z</time>
      </trkpt>
      <trkpt lat="43.76523" lon="6.61865">
        <ele>1023.312751</ele>
        <time>2022-04-30T23:35:39.833Z</time>
      </trkpt>
      <trkpt lat="43.76551" lon="6.61841">
        <ele>1023.916753</ele>
        <time>2022-04-30T23:35:46.190Z</time>
      </trkpt>
      <trkpt lat="43.7656" lon="6.61839">
        <ele>1024.09475</ele>
        <time>2022-04-30T23:35:47.911Z</time>
      </trkpt>
      <trkpt lat="43.76605" lon="6.61854">
        <ele>1024.936586</ele>
        <time>2022-04-30T23:35:58.082Z</time>
      </trkpt>
      <trkpt lat="43.7662" lon="6.61849">
        <ele>1025.228717</ele>
        <time>2022-04-30T23:36:02.284Z</time>
      </trkpt>
      <trkpt lat="43.76631" lon="6.61829">
        <ele>1025.564114</ele>
        <time>2022-04-30T23:36:06.839Z</time>
      </trkpt>
      <trkpt lat="43.7664" lon="6.61776">
        <ele>1026.296831</ele>
        <time>2022-04-30T23:36:17.865Z</time>
      </trkpt>
      <trkpt lat="43.76683" lon="6.61696">
        <ele>1027.251273</ele>
        <time>2022-04-30T23:36:34.158Z</time>
      </trkpt>
      <trkpt lat="43.76693" lon="6.61677">
        <ele>1027.464339</ele>
        <time>2022-04-30T23:36:37.943Z</time>
      </trkpt>
      <trkpt lat="43.76714" lon="6.61664">
        <ele>1027.743782</ele>
        <time>2022-04-30T23:36:41.981Z</time>
      </trkpt>
      <trkpt lat="43.76731" lon="6.61657">
        <ele>1027.970192</ele>
        <time>2022-04-30T23:36:45.391Z</time>
      </trkpt>
      <trkpt lat="43.76819" lon="6.6158">
        <ele>1027.927209</ele>
        <time>2022-04-30T23:37:02.414Z</time>
      </trkpt>
      <trkpt lat="43.7686" lon="6.61531">
        <ele>1026.911376</ele>
        <time>2022-04-30T23:37:09.006Z</time>
      </trkpt>
      <trkpt lat="43.76888" lon="6.61487">
        <ele>1026.127644</ele>
        <time>2022-04-30T23:37:13.360Z</time>
      </trkpt>
      <trkpt lat="43.76919" lon="6.61414">
        <ele>1024.38616</ele>
        <time>2022-04-30T23:37:19.295Z</time>
      </trkpt>
      <trkpt lat="43.76929" lon="6.61383">
        <ele>1023.219587</ele>
        <time>2022-04-30T23:37:21.612Z</time>
      </trkpt>
      <trkpt lat="43.76949" lon="6.61315">
        <ele>1020.692042</ele>
        <time>2022-04-30T23:37:26.769Z</time>
      </trkpt>
      <trkpt lat="43.76953" lon="6.61291">
        <ele>1019.849729</ele>
        <time>2022-04-30T23:37:28.398Z</time>
      </trkpt>
      <trkpt lat="43.76948" lon="6.61142">
        <ele>1014.65869</ele>
        <time>2022-04-30T23:37:38.449Z</time>
      </trkpt>
      <trkpt lat="43.76975" lon="6.60987">
        <ele>1008.996859</ele>
        <time>2022-04-30T23:37:49.416Z</time>
      </trkpt>
      <trkpt lat="43.77024" lon="6.60879">
        <ele>1004.799046</ele>
        <time>2022-04-30T23:37:58.174Z</time>
      </trkpt>
      <trkpt lat="43.77042" lon="6.608">
        <ele>1002.123776</ele>
        <time>2022-04-30T23:38:03.947Z</time>
      </trkpt>
      <trkpt lat="43.77081" lon="6.60735">
        <ele>999.390728</ele>
        <time>2022-04-30T23:38:09.839Z</time>
      </trkpt>
      <trkpt lat="43.77081" lon="6.60708">
        <ele>998.53282</ele>
        <time>2022-04-30T23:38:11.686Z</time>
      </trkpt>
      <trkpt lat="43.77057" lon="6.60663">
        <ele>996.744525</ele>
        <time>2022-04-30T23:38:15.575Z</time>
      </trkpt>
      <trkpt lat="43.77054" lon="6.60649">
        <ele>996.27271</ele>
        <time>2022-04-30T23:38:16.609Z</time>
      </trkpt>
      <trkpt lat="43.77043" lon="6.60519">
        <ele>992.072202</ele>
        <time>2022-04-30T23:38:25.715Z</time>
      </trkpt>
      <trkpt lat="43.77028" lon="6.60328">
        <ele>985.250213</ele>
        <time>2022-04-30T23:38:38.970Z</time>
      </trkpt>
      <trkpt lat="43.77031" lon="6.6027">
        <ele>983.162546</ele>
        <time>2022-04-30T23:38:42.840Z</time>
      </trkpt>
      <trkpt lat="43.77024" lon="6.60185">
        <ele>980.06553</ele>
        <time>2022-04-30T23:38:48.506Z</time>
      </trkpt>
      <trkpt lat="43.77032" lon="6.60135">
        <ele>978.218599</ele>
        <time>2022-04-30T23:38:51.910Z</time>
      </trkpt>
      <trkpt lat="43.77045" lon="6.60094">
        <ele>976.576012</ele>
        <time>2022-04-30T23:38:54.939Z</time>
      </trkpt>
      <trkpt lat="43.77062" lon="6.60064">
        <ele>975.212477</ele>
        <time>2022-04-30T23:38:57.560Z</time>
      </trkpt>
      <trkpt lat="43.77069" lon="6.60059">
        <ele>974.80666</ele>
        <time>2022-04-30T23:38:58.330Z</time>
      </trkpt>
      <trkpt lat="43.77082" lon="6.60042">
        <ele>974.007088</ele>
        <time>2022-04-30T23:39:00.125Z</time>
      </trkpt>
      <trkpt lat="43.77087" lon="6.60023">
        <ele>973.78374</ele>
        <time>2022-04-30T23:39:01.661Z</time>
      </trkpt>
      <trkpt lat="43.77086" lon="6.60002">
        <ele>973.549763</ele>
        <time>2022-04-30T23:39:03.278Z</time>
      </trkpt>
      <trkpt lat="43.77077" lon="6.59942">
        <ele>972.875281</ele>
        <time>2022-04-30T23:39:07.909Z</time>
      </trkpt>
      <trkpt lat="43.77078" lon="6.59913">
        <ele>972.548117</ele>
        <time>2022-04-30T23:39:10.356Z</time>
      </trkpt>
      <trkpt lat="43.77088" lon="6.599">
        <ele>972.336362</ele>
        <time>2022-04-30T23:39:12.080Z</time>
      </trkpt>
      <trkpt lat="43.77128" lon="6.59894">
        <ele>971.729089</ele>
        <time>2022-04-30T23:39:17.359Z</time>
      </trkpt>
      <trkpt lat="43.77137" lon="6.59875">
        <ele>971.470577</ele>
        <time>2022-04-30T23:39:20.453Z</time>
      </trkpt>
      <trkpt lat="43.77168" lon="6.598">
        <ele>971.323732</ele>
        <time>2022-04-30T23:39:30.662Z</time>
      </trkpt>
      <trkpt lat="43.77197" lon="6.59738">
        <ele>971.350726</ele>
        <time>2022-04-30T23:39:40.442Z</time>
      </trkpt>
      <trkpt lat="43.77208" lon="6.59713">
        <ele>971.361397</ele>
        <time>2022-04-30T23:39:44.664Z</time>
      </trkpt>
      <trkpt lat="43.7722" lon="6.59701">
        <ele>971.368452</ele>
        <time>2022-04-30T23:39:47.168Z</time>
      </trkpt>
      <trkpt lat="43.77265" lon="6.59676">
        <ele>971.234509</ele>
        <time>2022-04-30T23:39:53.184Z</time>
      </trkpt>
      <trkpt lat="43.77299" lon="6.59649">
        <ele>970.560264</ele>
        <time>2022-04-30T23:39:57.213Z</time>
      </trkpt>
      <trkpt lat="43.77361" lon="6.59623">
        <ele>969.452126</ele>
        <time>2022-04-30T23:40:04.176Z</time>
      </trkpt>
      <trkpt lat="43.77402" lon="6.59589">
        <ele>968.640858</ele>
        <time>2022-04-30T23:40:09.582Z</time>
      </trkpt>
      <trkpt lat="43.77406" lon="6.59586">
        <ele>968.555253</ele>
        <time>2022-04-30T23:40:10.181Z</time>
      </trkpt>
      <trkpt lat="43.7741" lon="6.59582">
        <ele>968.464979</ele>
        <time>2022-04-30T23:40:10.799Z</time>
      </trkpt>
      <trkpt lat="43.77425" lon="6.59562">
        <ele>968.411885</ele>
        <time>2022-04-30T23:40:13.182Z</time>
      </trkpt>
      <trkpt lat="43.77441" lon="6.59526">
        <ele>968.675424</ele>
        <time>2022-04-30T23:40:17.195Z</time>
      </trkpt>
      <trkpt lat="43.77464" lon="6.59404">
        <ele>969.468856</ele>
        <time>2022-04-30T23:40:31.300Z</time>
      </trkpt>
      <trkpt lat="43.77505" lon="6.59112">
        <ele>975.290632</ele>
        <time>2022-04-30T23:41:35.930Z</time>
      </trkpt>
      <trkpt lat="43.77522" lon="6.58995">
        <ele>975.140756</ele>
        <time>2022-04-30T23:41:51.233Z</time>
      </trkpt>
      <trkpt lat="43.77532" lon="6.58918">
        <ele>974.736665</ele>
        <time>2022-04-30T23:41:57.792Z</time>
      </trkpt>
      <trkpt lat="43.77552" lon="6.58778">
        <ele>972.840811</ele>
        <time>2022-04-30T23:42:08.305Z</time>
      </trkpt>
      <trkpt lat="43.77576" lon="6.58672">
        <ele>970.534782</ele>
        <time>2022-04-30T23:42:16.430Z</time>
      </trkpt>
      <trkpt lat="43.77612" lon="6.58561">
        <ele>968.585077</ele>
        <time>2022-04-30T23:42:25.809Z</time>
      </trkpt>
      <trkpt lat="43.77661" lon="6.58426">
        <ele>966.975779</ele>
        <time>2022-04-30T23:42:38.446Z</time>
      </trkpt>
      <trkpt lat="43.77698" lon="6.58331">
        <ele>967.097983</ele>
        <time>2022-04-30T23:42:48.901Z</time>
      </trkpt>
      <trkpt lat="43.77735" lon="6.58278">
        <ele>967.692593</ele>
        <time>2022-04-30T23:42:58.707Z</time>
      </trkpt>
      <trkpt lat="43.77743" lon="6.58256">
        <ele>967.890444</ele>
        <time>2022-04-30T23:43:02.579Z</time>
      </trkpt>
      <trkpt lat="43.7775" lon="6.58215">
        <ele>968.23263</ele>
        <time>2022-04-30T23:43:09.285Z</time>
      </trkpt>
      <trkpt lat="43.77754" lon="6.5819">
        <ele>968.437483</ele>
        <time>2022-04-30T23:43:14.744Z</time>
      </trkpt>
      <trkpt lat="43.77755" lon="6.58183">
        <ele>968.495972</ele>
        <time>2022-04-30T23:43:16.223Z</time>
      </trkpt>
      <trkpt lat="43.77769" lon="6.58092">
        <ele>970.810327</ele>
        <time>2022-04-30T23:43:34.098Z</time>
      </trkpt>
      <trkpt lat="43.77769" lon="6.5806">
        <ele>971.651838</ele>
        <time>2022-04-30T23:43:40.055Z</time>
      </trkpt>
      <trkpt lat="43.77747" lon="6.58032">
        <ele>972.733175</ele>
        <time>2022-04-30T23:43:48.162Z</time>
      </trkpt>
      <trkpt lat="43.77719" lon="6.58025">
        <ele>973.760286</ele>
        <time>2022-04-30T23:43:57.706Z</time>
      </trkpt>
      <trkpt lat="43.77696" lon="6.5802">
        <ele>974.616596</ele>
        <time>2022-04-30T23:44:05.906Z</time>
      </trkpt>
      <trkpt lat="43.7768" lon="6.58015">
        <ele>975.211963</ele>
        <time>2022-04-30T23:44:11.096Z</time>
      </trkpt>
      <trkpt lat="43.77654" lon="6.57979">
        <ele>976.860981</ele>
        <time>2022-04-30T23:44:24.031Z</time>
      </trkpt>
      <trkpt lat="43.77649" lon="6.57972">
        <ele>977.177699</ele>
        <time>2022-04-30T23:44:26.423Z</time>
      </trkpt>
      <trkpt lat="43.77636" lon="6.57947">
        <ele>978.135704</ele>
        <time>2022-04-30T23:44:34.778Z</time>
      </trkpt>
      <trkpt lat="43.77619" lon="6.579">
        <ele>979.809854</ele>
        <time>2022-04-30T23:44:47.574Z</time>
      </trkpt>
      <trkpt lat="43.77608" lon="6.57867">
        <ele>980.990207</ele>
        <time>2022-04-30T23:44:54.353Z</time>
      </trkpt>
      <trkpt lat="43.77576" lon="6.57798">
        <ele>983.429121</ele>
        <time>2022-04-30T23:45:11.810Z</time>
      </trkpt>
      <trkpt lat="43.7757" lon="6.57785">
        <ele>983.7747</ele>
        <time>2022-04-30T23:45:16.783Z</time>
      </trkpt>
      <trkpt lat="43.77562" lon="6.57774">
        <ele>984.104466</ele>
        <time>2022-04-30T23:45:19.805Z</time>
      </trkpt>
      <trkpt lat="43.77537" lon="6.57757">
        <ele>984.953679</ele>
        <time>2022-04-30T23:45:29.204Z</time>
      </trkpt>
      <trkpt lat="43.77505" lon="6.57751">
        <ele>985.955352</ele>
        <time>2022-04-30T23:45:38.857Z</time>
      </trkpt>
      <trkpt lat="43.77484" lon="6.57737">
        <ele>986.660882</ele>
        <time>2022-04-30T23:45:43.457Z</time>
      </trkpt>
      <trkpt lat="43.77475" lon="6.57731">
        <ele>986.944226</ele>
        <time>2022-04-30T23:45:47.303Z</time>
      </trkpt>
      <trkpt lat="43.77459" lon="6.57703">
        <ele>987.730136</ele>
        <time>2022-04-30T23:45:52.402Z</time>
      </trkpt>
      <trkpt lat="43.77446" lon="6.57642">
        <ele>988.703119</ele>
        <time>2022-04-30T23:46:03.809Z</time>
      </trkpt>
      <trkpt lat="43.77429" lon="6.57629">
        <ele>988.87074</ele>
        <time>2022-04-30T23:46:06.234Z</time>
      </trkpt>
      <trkpt lat="43.77384" lon="6.5765">
        <ele>989.297857</ele>
        <time>2022-04-30T23:46:14.898Z</time>
      </trkpt>
      <trkpt lat="43.77346" lon="6.5765">
        <ele>989.634938</ele>
        <time>2022-04-30T23:46:21.637Z</time>
      </trkpt>
      <trkpt lat="43.77336" lon="6.57659">
        <ele>989.738881</ele>
        <time>2022-04-30T23:46:24.091Z</time>
      </trkpt>
      <trkpt lat="43.77285" lon="6.57706">
        <ele>990.228745</ele>
        <time>2022-04-30T23:46:33.710Z</time>
      </trkpt>
      <trkpt lat="43.77235" lon="6.57699">
        <ele>990.52153</ele>
        <time>2022-04-30T23:46:43.164Z</time>
      </trkpt>
      <trkpt lat="43.77178" lon="6.57701">
        <ele>990.858393</ele>
        <time>2022-04-30T23:46:52.695Z</time>
      </trkpt>
      <trkpt lat="43.77151" lon="6.57673">
        <ele>991.053552</ele>
        <time>2022-04-30T23:46:59.369Z</time>
      </trkpt>
      <trkpt lat="43.7712" lon="6.57656">
        <ele>990.975153</ele>
        <time>2022-04-30T23:47:05.219Z</time>
      </trkpt>
      <trkpt lat="43.77071" lon="6.57645">
        <ele>990.182994</ele>
        <time>2022-04-30T23:47:11.590Z</time>
      </trkpt>
      <trkpt lat="43.77016" lon="6.57606">
        <ele>989.205971</ele>
        <time>2022-04-30T23:47:18.749Z</time>
      </trkpt>
      <trkpt lat="43.76985" lon="6.57532">
        <ele>988.020874</ele>
        <time>2022-04-30T23:47:25.097Z</time>
      </trkpt>
      <trkpt lat="43.76948" lon="6.57463">
        <ele>985.169556</ele>
        <time>2022-04-30T23:47:31.047Z</time>
      </trkpt>
      <trkpt lat="43.76935" lon="6.57421">
        <ele>983.624006</ele>
        <time>2022-04-30T23:47:34.111Z</time>
      </trkpt>
      <trkpt lat="43.76927" lon="6.57373">
        <ele>981.982286</ele>
        <time>2022-04-30T23:47:37.354Z</time>
      </trkpt>
      <trkpt lat="43.76923" lon="6.57301">
        <ele>979.635333</ele>
        <time>2022-04-30T23:47:42.348Z</time>
      </trkpt>
      <trkpt lat="43.76921" lon="6.57223">
        <ele>977.491137</ele>
        <time>2022-04-30T23:47:47.846Z</time>
      </trkpt>
      <trkpt lat="43.76896" lon="6.57161">
        <ele>975.533881</ele>
        <time>2022-04-30T23:47:52.998Z</time>
      </trkpt>
      <trkpt lat="43.7688" lon="6.57083">
        <ele>973.322966</ele>
        <time>2022-04-30T23:47:58.718Z</time>
      </trkpt>
      <trkpt lat="43.76853" lon="6.5704">
        <ele>972.259718</ele>
        <time>2022-04-30T23:48:02.943Z</time>
      </trkpt>
      <trkpt lat="43.76841" lon="6.56987">
        <ele>971.274164</ele>
        <time>2022-04-30T23:48:07.299Z</time>
      </trkpt>
      <trkpt lat="43.76841" lon="6.56948">
        <ele>970.59159</ele>
        <time>2022-04-30T23:48:10.349Z</time>
      </trkpt>
      <trkpt lat="43.76838" lon="6.56919">
        <ele>970.08868</ele>
        <time>2022-04-30T23:48:12.589Z</time>
      </trkpt>
      <trkpt lat="43.76807" lon="6.5679">
        <ele>968.056858</ele>
        <time>2022-04-30T23:48:23.347Z</time>
      </trkpt>
      <trkpt lat="43.76771" lon="6.56734">
        <ele>967.198733</ele>
        <time>2022-04-30T23:48:29.459Z</time>
      </trkpt>
      <trkpt lat="43.76751" lon="6.56678">
        <ele>966.482289</ele>
        <time>2022-04-30T23:48:34.755Z</time>
      </trkpt>
      <trkpt lat="43.76738" lon="6.56587">
        <ele>965.640712</ele>
        <time>2022-04-30T23:48:42.746Z</time>
      </trkpt>
      <trkpt lat="43.7674" lon="6.56554">
        <ele>965.443636</ele>
        <time>2022-04-30T23:48:45.611Z</time>
      </trkpt>
      <trkpt lat="43.76755" lon="6.56512">
        <ele>965.155391</ele>
        <time>2022-04-30T23:48:49.783Z</time>
      </trkpt>
      <trkpt lat="43.76751" lon="6.56464">
        <ele>964.861856</ele>
        <time>2022-04-30T23:48:53.906Z</time>
      </trkpt>
      <trkpt lat="43.76736" lon="6.56443">
        <ele>964.683844</ele>
        <time>2022-04-30T23:48:56.529Z</time>
      </trkpt>
      <trkpt lat="43.76707" lon="6.56433">
        <ele>964.426736</ele>
        <time>2022-04-30T23:49:00.360Z</time>
      </trkpt>
      <trkpt lat="43.76695" lon="6.56421">
        <ele>964.680881</ele>
        <time>2022-04-30T23:49:02.146Z</time>
      </trkpt>
      <trkpt lat="43.76688" lon="6.5637">
        <ele>965.782691</ele>
        <time>2022-04-30T23:49:08.635Z</time>
      </trkpt>
      <trkpt lat="43.76673" lon="6.56329">
        <ele>966.786218</ele>
        <time>2022-04-30T23:49:17.771Z</time>
      </trkpt>
      <trkpt lat="43.76672" lon="6.56322">
        <ele>966.937377</ele>
        <time>2022-04-30T23:49:19.074Z</time>
      </trkpt>
      <trkpt lat="43.76682" lon="6.5626">
        <ele>968.298238</ele>
        <time>2022-04-30T23:49:33.380Z</time>
      </trkpt>
      <trkpt lat="43.76694" lon="6.56214">
        <ele>969.339732</ele>
        <time>2022-04-30T23:49:45.004Z</time>
      </trkpt>
      <trkpt lat="43.76733" lon="6.56157">
        <ele>973.764519</ele>
        <time>2022-04-30T23:50:05.671Z</time>
      </trkpt>
      <trkpt lat="43.76738" lon="6.56097">
        <ele>977.859741</ele>
        <time>2022-04-30T23:50:22.977Z</time>
      </trkpt>
      <trkpt lat="43.76742" lon="6.56085">
        <ele>978.73401</ele>
        <time>2022-04-30T23:50:30.394Z</time>
      </trkpt>
      <trkpt lat="43.76771" lon="6.56079">
        <ele>981.460577</ele>
        <time>2022-04-30T23:50:48.188Z</time>
      </trkpt>
      <trkpt lat="43.7678" lon="6.56067">
        <ele>982.565951</ele>
        <time>2022-04-30T23:50:59.164Z</time>
      </trkpt>
      <trkpt lat="43.7677" lon="6.5594">
        <ele>992.17595</ele>
        <time>2022-04-30T23:51:56.169Z</time>
      </trkpt>
      <trkpt lat="43.76762" lon="6.55919">
        <ele>994.085717</ele>
        <time>2022-04-30T23:52:09.109Z</time>
      </trkpt>
      <trkpt lat="43.76732" lon="6.55852">
        <ele>1000.550197</ele>
        <time>2022-04-30T23:52:39.947Z</time>
      </trkpt>
      <trkpt lat="43.76694" lon="6.55782">
        <ele>1007.255418</ele>
        <time>2022-04-30T23:53:17.186Z</time>
      </trkpt>
      <trkpt lat="43.76658" lon="6.55743">
        <ele>1010.469332</ele>
        <time>2022-04-30T23:53:44.967Z</time>
      </trkpt>
      <trkpt lat="43.76646" lon="6.55719">
        <ele>1011.966176</ele>
        <time>2022-04-30T23:53:53.925Z</time>
      </trkpt>
      <trkpt lat="43.766" lon="6.55609">
        <ele>1018.328633</ele>
        <time>2022-04-30T23:54:25.413Z</time>
      </trkpt>
      <trkpt lat="43.76573" lon="6.55553">
        <ele>1020.655314</ele>
        <time>2022-04-30T23:54:41.095Z</time>
      </trkpt>
      <trkpt lat="43.76534" lon="6.55443">
        <ele>1024.112277</ele>
        <time>2022-04-30T23:55:09.326Z</time>
      </trkpt>
      <trkpt lat="43.76503" lon="6.55401">
        <ele>1025.786557</ele>
        <time>2022-04-30T23:55:22.287Z</time>
      </trkpt>
      <trkpt lat="43.76521" lon="6.55355">
        <ele>1026.583101</ele>
        <time>2022-04-30T23:55:31.387Z</time>
      </trkpt>
      <trkpt lat="43.7652" lon="6.55281">
        <ele>1027.242745</ele>
        <time>2022-04-30T23:55:42.970Z</time>
      </trkpt>
      <trkpt lat="43.76509" lon="6.5521">
        <ele>1027.881763</ele>
        <time>2022-04-30T23:55:53.173Z</time>
      </trkpt>
      <trkpt lat="43.76478" lon="6.55131">
        <ele>1027.874474</ele>
        <time>2022-04-30T23:56:03.741Z</time>
      </trkpt>
      <trkpt lat="43.76482" lon="6.55117">
        <ele>1027.462066</ele>
        <time>2022-04-30T23:56:04.951Z</time>
      </trkpt>
      <trkpt lat="43.76511" lon="6.55091">
        <ele>1026.190187</ele>
        <time>2022-04-30T23:56:08.617Z</time>
      </trkpt>
      <trkpt lat="43.76519" lon="6.55065">
        <ele>1025.424897</ele>
        <time>2022-04-30T23:56:10.631Z</time>
      </trkpt>
      <trkpt lat="43.76506" lon="6.54902">
        <ele>1020.687374</ele>
        <time>2022-04-30T23:56:21.658Z</time>
      </trkpt>
      <trkpt lat="43.76512" lon="6.54884">
        <ele>1019.939081</ele>
        <time>2022-04-30T23:56:22.970Z</time>
      </trkpt>
      <trkpt lat="43.76536" lon="6.5485">
        <ele>1018.163303</ele>
        <time>2022-04-30T23:56:26.114Z</time>
      </trkpt>
      <trkpt lat="43.76598" lon="6.54804">
        <ele>1014.540341</ele>
        <time>2022-04-30T23:56:32.733Z</time>
      </trkpt>
      <trkpt lat="43.76597" lon="6.54781">
        <ele>1013.659467</ele>
        <time>2022-04-30T23:56:34.392Z</time>
      </trkpt>
      <trkpt lat="43.76578" lon="6.54723">
        <ele>1011.395965</ele>
        <time>2022-04-30T23:56:38.757Z</time>
      </trkpt>
      <trkpt lat="43.76571" lon="6.54713">
        <ele>1010.905875</ele>
        <time>2022-04-30T23:56:39.761Z</time>
      </trkpt>
      <trkpt lat="43.76557" lon="6.54714">
        <ele>1010.283491</ele>
        <time>2022-04-30T23:56:41.135Z</time>
      </trkpt>
      <trkpt lat="43.76519" lon="6.54747">
        <ele>1008.188859</ele>
        <time>2022-04-30T23:56:45.625Z</time>
      </trkpt>
      <trkpt lat="43.76496" lon="6.54755">
        <ele>1007.086299</ele>
        <time>2022-04-30T23:56:47.912Z</time>
      </trkpt>
      <trkpt lat="43.7649" lon="6.54749">
        <ele>1006.708717</ele>
        <time>2022-04-30T23:56:48.681Z</time>
      </trkpt>
      <trkpt lat="43.7648" lon="6.54698">
        <ele>1004.946099</ele>
        <time>2022-04-30T23:56:52.220Z</time>
      </trkpt>
      <trkpt lat="43.76462" lon="6.54676">
        <ele>1003.761417</ele>
        <time>2022-04-30T23:56:54.408Z</time>
      </trkpt>
      <trkpt lat="43.76448" lon="6.54669">
        <ele>1002.823941</ele>
        <time>2022-04-30T23:56:55.831Z</time>
      </trkpt>
      <trkpt lat="43.76409" lon="6.54663">
        <ele>1000.466413</ele>
        <time>2022-04-30T23:56:59.357Z</time>
      </trkpt>
      <trkpt lat="43.76359" lon="6.54665">
        <ele>997.446068</ele>
        <time>2022-04-30T23:57:03.802Z</time>
      </trkpt>
      <trkpt lat="43.76326" lon="6.54654">
        <ele>995.353098</ele>
        <time>2022-04-30T23:57:06.952Z</time>
      </trkpt>
      <trkpt lat="43.76288" lon="6.5465">
        <ele>993.090295</ele>
        <time>2022-04-30T23:57:10.496Z</time>
      </trkpt>
      <trkpt lat="43.76239" lon="6.54663">
        <ele>990.943283</ele>
        <time>2022-04-30T23:57:15.245Z</time>
      </trkpt>
      <trkpt lat="43.76204" lon="6.5465">
        <ele>989.373233</ele>
        <time>2022-04-30T23:57:18.839Z</time>
      </trkpt>
      <trkpt lat="43.76143" lon="6.5466">
        <ele>986.748357</ele>
        <time>2022-04-30T23:57:25.153Z</time>
      </trkpt>
      <trkpt lat="43.76125" lon="6.54657">
        <ele>986.000613</ele>
        <time>2022-04-30T23:57:26.866Z</time>
      </trkpt>
      <trkpt lat="43.76114" lon="6.54644">
        <ele>985.324174</ele>
        <time>2022-04-30T23:57:28.260Z</time>
      </trkpt>
      <trkpt lat="43.76113" lon="6.54633">
        <ele>984.657283</ele>
        <time>2022-04-30T23:57:28.981Z</time>
      </trkpt>
      <trkpt lat="43.76119" lon="6.54628">
        <ele>984.095667</ele>
        <time>2022-04-30T23:57:29.611Z</time>
      </trkpt>
      <trkpt lat="43.76138" lon="6.54626">
        <ele>982.482123</ele>
        <time>2022-04-30T23:57:31.420Z</time>
      </trkpt>
      <trkpt lat="43.76195" lon="6.54599">
        <ele>977.416825</ele>
        <time>2022-04-30T23:57:36.834Z</time>
      </trkpt>
      <trkpt lat="43.76263" lon="6.54547">
        <ele>970.900061</ele>
        <time>2022-04-30T23:57:43.518Z</time>
      </trkpt>
      <trkpt lat="43.76365" lon="6.54506">
        <ele>957.579468</ele>
        <time>2022-04-30T23:57:52.354Z</time>
      </trkpt>
      <trkpt lat="43.76434" lon="6.54439">
        <ele>946.829441</ele>
        <time>2022-04-30T23:57:59.409Z</time>
      </trkpt>
      <trkpt lat="43.76442" lon="6.54417">
        <ele>945.350743</ele>
        <time>2022-04-30T23:58:00.917Z</time>
      </trkpt>
      <trkpt lat="43.76456" lon="6.54402">
        <ele>943.890237</ele>
        <time>2022-04-30T23:58:02.381Z</time>
      </trkpt>
      <trkpt lat="43.76506" lon="6.54412">
        <ele>939.663278</ele>
        <time>2022-04-30T23:58:06.805Z</time>
      </trkpt>
      <trkpt lat="43.7656" lon="6.5439">
        <ele>934.973281</ele>
        <time>2022-04-30T23:58:11.898Z</time>
      </trkpt>
      <trkpt lat="43.76588" lon="6.5438">
        <ele>932.621356</ele>
        <time>2022-04-30T23:58:14.586Z</time>
      </trkpt>
      <trkpt lat="43.76606" lon="6.54365">
        <ele>932.273953</ele>
        <time>2022-04-30T23:58:16.630Z</time>
      </trkpt>
      <trkpt lat="43.76605" lon="6.54355">
        <ele>932.296936</ele>
        <time>2022-04-30T23:58:19.899Z</time>
      </trkpt>
      <trkpt lat="43.76597" lon="6.54346">
        <ele>932.328759</ele>
        <time>2022-04-30T23:58:21.122Z</time>
      </trkpt>
      <trkpt lat="43.76531" lon="6.54303">
        <ele>932.543545</ele>
        <time>2022-04-30T23:58:33.842Z</time>
      </trkpt>
      <trkpt lat="43.76511" lon="6.54284">
        <ele>932.618421</ele>
        <time>2022-04-30T23:58:40.560Z</time>
      </trkpt>
      <trkpt lat="43.76456" lon="6.54221">
        <ele>932.297436</ele>
        <time>2022-04-30T23:58:57.288Z</time>
      </trkpt>
      <trkpt lat="43.76434" lon="6.54176">
        <ele>931.54673</ele>
        <time>2022-04-30T23:59:03.763Z</time>
      </trkpt>
      <trkpt lat="43.76424" lon="6.54165">
        <ele>931.286164</ele>
        <time>2022-04-30T23:59:05.889Z</time>
      </trkpt>
      <trkpt lat="43.76392" lon="6.54151">
        <ele>930.634505</ele>
        <time>2022-04-30T23:59:10.282Z</time>
      </trkpt>
      <trkpt lat="43.7639" lon="6.54137">
        <ele>930.442486</ele>
        <time>2022-04-30T23:59:11.412Z</time>
      </trkpt>
      <trkpt lat="43.76415" lon="6.54091">
        <ele>929.631026</ele>
        <time>2022-04-30T23:59:15.510Z</time>
      </trkpt>
      <trkpt lat="43.76431" lon="6.54043">
        <ele>927.254562</ele>
        <time>2022-04-30T23:59:18.860Z</time>
      </trkpt>
      <trkpt lat="43.76412" lon="6.53988">
        <ele>922.645435</ele>
        <time>2022-04-30T23:59:22.652Z</time>
      </trkpt>
      <trkpt lat="43.76438" lon="6.53946">
        <ele>918.533282</ele>
        <time>2022-04-30T23:59:26.013Z</time>
      </trkpt>
      <trkpt lat="43.7648" lon="6.53949">
        <ele>914.053902</ele>
        <time>2022-04-30T23:59:29.641Z</time>
      </trkpt>
      <trkpt lat="43.76535" lon="6.5392">
        <ele>907.97471</ele>
        <time>2022-04-30T23:59:34.595Z</time>
      </trkpt>
      <trkpt lat="43.76545" lon="6.53895">
        <ele>905.817438</ele>
        <time>2022-04-30T23:59:36.360Z</time>
      </trkpt>
      <trkpt lat="43.76571" lon="6.53866">
        <ele>902.436085</ele>
        <time>2022-04-30T23:59:39.127Z</time>
      </trkpt>
      <trkpt lat="43.76676" lon="6.53825">
        <ele>891.900454</ele>
        <time>2022-04-30T23:59:48.600Z</time>
      </trkpt>
      <trkpt lat="43.76713" lon="6.53825">
        <ele>891.033939</ele>
        <time>2022-04-30T23:59:52.152Z</time>
      </trkpt>
      <trkpt lat="43.76788" lon="6.53862">
        <ele>889.172746</ele>
        <time>2022-05-01T00:00:00.698Z</time>
      </trkpt>
      <trkpt lat="43.76795" lon="6.53861">
        <ele>888.992291</ele>
        <time>2022-05-01T00:00:01.758Z</time>
      </trkpt>
      <trkpt lat="43.76804" lon="6.53851">
        <ele>888.723112</ele>
        <time>2022-05-01T00:00:03.719Z</time>
      </trkpt>
      <trkpt lat="43.76835" lon="6.53766">
        <ele>887.773278</ele>
        <time>2022-05-01T00:00:18.164Z</time>
      </trkpt>
      <trkpt lat="43.76847" lon="6.53694">
        <ele>887.625805</ele>
        <time>2022-05-01T00:00:31.379Z</time>
      </trkpt>
      <trkpt lat="43.76839" lon="6.53641">
        <ele>887.516193</ele>
        <time>2022-05-01T00:00:36.958Z</time>
      </trkpt>
      <trkpt lat="43.76837" lon="6.53589">
        <ele>887.412325</ele>
        <time>2022-05-01T00:00:40.947Z</time>
      </trkpt>
      <trkpt lat="43.76837" lon="6.53499">
        <ele>885.269212</ele>
        <time>2022-05-01T00:00:47.345Z</time>
      </trkpt>
      <trkpt lat="43.76845" lon="6.53489">
        <ele>884.79619</ele>
        <time>2022-05-01T00:00:48.381Z</time>
      </trkpt>
      <trkpt lat="43.76852" lon="6.53497">
        <ele>884.382972</ele>
        <time>2022-05-01T00:00:49.212Z</time>
      </trkpt>
      <trkpt lat="43.76848" lon="6.53562">
        <ele>882.318778</ele>
        <time>2022-05-01T00:00:53.620Z</time>
      </trkpt>
      <trkpt lat="43.76855" lon="6.53619">
        <ele>880.48083</ele>
        <time>2022-05-01T00:00:57.668Z</time>
      </trkpt>
      <trkpt lat="43.76862" lon="6.5364">
        <ele>879.727815</ele>
        <time>2022-05-01T00:00:59.258Z</time>
      </trkpt>
      <trkpt lat="43.76893" lon="6.53684">
        <ele>878.726186</ele>
        <time>2022-05-01T00:01:03.463Z</time>
      </trkpt>
      <trkpt lat="43.76905" lon="6.53696">
        <ele>878.440162</ele>
        <time>2022-05-01T00:01:04.959Z</time>
      </trkpt>
      <trkpt lat="43.76915" lon="6.53693">
        <ele>878.234317</ele>
        <time>2022-05-01T00:01:06.056Z</time>
      </trkpt>
      <trkpt lat="43.76916" lon="6.53681">
        <ele>878.07279</ele>
        <time>2022-05-01T00:01:07.007Z</time>
      </trkpt>
      <trkpt lat="43.76897" lon="6.53665">
        <ele>877.642377</ele>
        <time>2022-05-01T00:01:09.648Z</time>
      </trkpt>
      <trkpt lat="43.76883" lon="6.53638">
        <ele>877.167761</ele>
        <time>2022-05-01T00:01:13.115Z</time>
      </trkpt>
      <trkpt lat="43.76874" lon="6.53598">
        <ele>876.580285</ele>
        <time>2022-05-01T00:01:17.333Z</time>
      </trkpt>
      <trkpt lat="43.76883" lon="6.53396">
        <ele>874.197874</ele>
        <time>2022-05-01T00:01:35.536Z</time>
      </trkpt>
      <trkpt lat="43.76882" lon="6.53343">
        <ele>873.614779</ele>
        <time>2022-05-01T00:01:39.374Z</time>
      </trkpt>
      <trkpt lat="43.76872" lon="6.53146">
        <ele>870.709591</ele>
        <time>2022-05-01T00:01:54.615Z</time>
      </trkpt>
      <trkpt lat="43.76851" lon="6.53035">
        <ele>868.57902</ele>
        <time>2022-05-01T00:02:04.393Z</time>
      </trkpt>
      <trkpt lat="43.76818" lon="6.52951">
        <ele>865.761246</ele>
        <time>2022-05-01T00:02:11.379Z</time>
      </trkpt>
      <trkpt lat="43.76806" lon="6.52879">
        <ele>863.604382</ele>
        <time>2022-05-01T00:02:16.569Z</time>
      </trkpt>
      <trkpt lat="43.76794" lon="6.52812">
        <ele>861.257698</ele>
        <time>2022-05-01T00:02:21.084Z</time>
      </trkpt>
      <trkpt lat="43.76782" lon="6.52686">
        <ele>854.70755</ele>
        <time>2022-05-01T00:02:29.260Z</time>
      </trkpt>
      <trkpt lat="43.76789" lon="6.52561">
        <ele>848.47843</ele>
        <time>2022-05-01T00:02:37.331Z</time>
      </trkpt>
      <trkpt lat="43.76776" lon="6.52505">
        <ele>846.263298</ele>
        <time>2022-05-01T00:02:41.286Z</time>
      </trkpt>
      <trkpt lat="43.76742" lon="6.52314">
        <ele>839.403819</ele>
        <time>2022-05-01T00:02:54.811Z</time>
      </trkpt>
      <trkpt lat="43.76734" lon="6.52166">
        <ele>836.711208</ele>
        <time>2022-05-01T00:03:05.759Z</time>
      </trkpt>
      <trkpt lat="43.76707" lon="6.52086">
        <ele>835.338758</ele>
        <time>2022-05-01T00:03:13.596Z</time>
      </trkpt>
      <trkpt lat="43.76672" lon="6.52036">
        <ele>835.374042</ele>
        <time>2022-05-01T00:03:21.724Z</time>
      </trkpt>
      <trkpt lat="43.76637" lon="6.52004">
        <ele>835.40383</ele>
        <time>2022-05-01T00:03:28.506Z</time>
      </trkpt>
      <trkpt lat="43.76604" lon="6.51929">
        <ele>835.448442</ele>
        <time>2022-05-01T00:03:39.693Z</time>
      </trkpt>
      <trkpt lat="43.76586" lon="6.51902">
        <ele>835.286894</ele>
        <time>2022-05-01T00:03:44.084Z</time>
      </trkpt>
      <trkpt lat="43.76522" lon="6.51835">
        <ele>834.092937</ele>
        <time>2022-05-01T00:03:53.929Z</time>
      </trkpt>
      <trkpt lat="43.7647" lon="6.51762">
        <ele>832.997817</ele>
        <time>2022-05-01T00:04:02.029Z</time>
      </trkpt>
      <trkpt lat="43.7636" lon="6.51727">
        <ele>830.031737</ele>
        <time>2022-05-01T00:04:13.371Z</time>
      </trkpt>
      <trkpt lat="43.76287" lon="6.51668">
        <ele>827.737977</ele>
        <time>2022-05-01T00:04:22.308Z</time>
      </trkpt>
      <trkpt lat="43.7624" lon="6.51606">
        <ele>826.844752</ele>
        <time>2022-05-01T00:04:29.654Z</time>
      </trkpt>
      <trkpt lat="43.76219" lon="6.51587">
        <ele>826.498623</ele>
        <time>2022-05-01T00:04:32.559Z</time>
      </trkpt>
      <trkpt lat="43.76195" lon="6.51578">
        <ele>826.147581</ele>
        <time>2022-05-01T00:04:35.589Z</time>
      </trkpt>
      <trkpt lat="43.76155" lon="6.51575">
        <ele>825.607114</ele>
        <time>2022-05-01T00:04:40.518Z</time>
      </trkpt>
      <trkpt lat="43.76094" lon="6.51556">
        <ele>824.745397</ele>
        <time>2022-05-01T00:04:48.533Z</time>
      </trkpt>
      <trkpt lat="43.76048" lon="6.51523">
        <ele>824.016912</ele>
        <time>2022-05-01T00:04:54.860Z</time>
      </trkpt>
      <trkpt lat="43.76013" lon="6.51485">
        <ele>823.404876</ele>
        <time>2022-05-01T00:04:59.761Z</time>
      </trkpt>
      <trkpt lat="43.75984" lon="6.51473">
        <ele>822.997081</ele>
        <time>2022-05-01T00:05:02.969Z</time>
      </trkpt>
      <trkpt lat="43.75917" lon="6.51466">
        <ele>821.999448</ele>
        <time>2022-05-01T00:05:10.641Z</time>
      </trkpt>
      <trkpt lat="43.75865" lon="6.51447">
        <ele>821.20499</ele>
        <time>2022-05-01T00:05:16.898Z</time>
      </trkpt>
      <trkpt lat="43.7577" lon="6.51453">
        <ele>819.035465</ele>
        <time>2022-05-01T00:05:28.725Z</time>
      </trkpt>
      <trkpt lat="43.75694" lon="6.51427">
        <ele>815.386158</ele>
        <time>2022-05-01T00:05:36.530Z</time>
      </trkpt>
      <trkpt lat="43.75622" lon="6.51381">
        <ele>811.704785</ele>
        <time>2022-05-01T00:05:43.630Z</time>
      </trkpt>
      <trkpt lat="43.75614" lon="6.51365">
        <ele>810.526908</ele>
        <time>2022-05-01T00:05:44.891Z</time>
      </trkpt>
      <trkpt lat="43.75607" lon="6.51341">
        <ele>808.957414</ele>
        <time>2022-05-01T00:05:46.572Z</time>
      </trkpt>
      <trkpt lat="43.75603" lon="6.51334">
        <ele>808.455715</ele>
        <time>2022-05-01T00:05:47.095Z</time>
      </trkpt>
      <trkpt lat="43.75495" lon="6.5127">
        <ele>798.740409</ele>
        <time>2022-05-01T00:05:57.339Z</time>
      </trkpt>
      <trkpt lat="43.75325" lon="6.51073">
        <ele>784.883924</ele>
        <time>2022-05-01T00:06:17.466Z</time>
      </trkpt>
      <trkpt lat="43.75291" lon="6.51028">
        <ele>783.510889</ele>
        <time>2022-05-01T00:06:22.237Z</time>
      </trkpt>
      <trkpt lat="43.75252" lon="6.50991">
        <ele>782.152701</ele>
        <time>2022-05-01T00:06:27.235Z</time>
      </trkpt>
      <trkpt lat="43.75252" lon="6.5099">
        <ele>782.137069</ele>
        <time>2022-05-01T00:06:27.283Z</time>
      </trkpt>
      <trkpt lat="43.75213" lon="6.50936">
        <ele>780.5344</ele>
        <time>2022-05-01T00:06:33.634Z</time>
      </trkpt>
      <trkpt lat="43.75182" lon="6.50902">
        <ele>779.912368</ele>
        <time>2022-05-01T00:06:38.548Z</time>
      </trkpt>
      <trkpt lat="43.75177" lon="6.50871">
        <ele>779.638182</ele>
        <time>2022-05-01T00:06:41.519Z</time>
      </trkpt>
      <trkpt lat="43.75182" lon="6.50735">
        <ele>778.47656</ele>
        <time>2022-05-01T00:06:53.429Z</time>
      </trkpt>
      <trkpt lat="43.75222" lon="6.50574">
        <ele>776.591112</ele>
        <time>2022-05-01T00:07:07.297Z</time>
      </trkpt>
      <trkpt lat="43.75226" lon="6.50544">
        <ele>776.231097</ele>
        <time>2022-05-01T00:07:09.739Z</time>
      </trkpt>
      <trkpt lat="43.75231" lon="6.50432">
        <ele>775.023683</ele>
        <time>2022-05-01T00:07:18.863Z</time>
      </trkpt>
      <trkpt lat="43.75219" lon="6.503">
        <ele>774.113222</ele>
        <time>2022-05-01T00:07:30.407Z</time>
      </trkpt>
      <trkpt lat="43.75197" lon="6.50225">
        <ele>773.556396</ele>
        <time>2022-05-01T00:07:37.935Z</time>
      </trkpt>
      <trkpt lat="43.75186" lon="6.50201">
        <ele>773.543575</ele>
        <time>2022-05-01T00:07:40.632Z</time>
      </trkpt>
      <trkpt lat="43.75091" lon="6.50035">
        <ele>774.255771</ele>
        <time>2022-05-01T00:08:06.919Z</time>
      </trkpt>
      <trkpt lat="43.75073" lon="6.49983">
        <ele>774.569942</ele>
        <time>2022-05-01T00:08:15.034Z</time>
      </trkpt>
      <trkpt lat="43.75055" lon="6.49958">
        <ele>774.796232</ele>
        <time>2022-05-01T00:08:19.704Z</time>
      </trkpt>
      <trkpt lat="43.75021" lon="6.49932">
        <ele>775.149173</ele>
        <time>2022-05-01T00:08:26.819Z</time>
      </trkpt>
      <trkpt lat="43.74989" lon="6.4992">
        <ele>775.442542</ele>
        <time>2022-05-01T00:08:32.801Z</time>
      </trkpt>
      <trkpt lat="43.74904" lon="6.49932">
        <ele>776.658467</ele>
        <time>2022-05-01T00:08:48.134Z</time>
      </trkpt>
      <trkpt lat="43.74879" lon="6.49942">
        <ele>777.271367</ele>
        <time>2022-05-01T00:08:53.699Z</time>
      </trkpt>
      <trkpt lat="43.74849" lon="6.49977">
        <ele>778.186226</ele>
        <time>2022-05-01T00:09:03.056Z</time>
      </trkpt>
      <trkpt lat="43.7482" lon="6.4998">
        <ele>778.849</ele>
        <time>2022-05-01T00:09:09.419Z</time>
      </trkpt>
      <trkpt lat="43.74733" lon="6.49906">
        <ele>782.18097</ele>
        <time>2022-05-01T00:09:39.791Z</time>
      </trkpt>
      <trkpt lat="43.74653" lon="6.49896">
        <ele>785.696567</ele>
        <time>2022-05-01T00:10:11.493Z</time>
      </trkpt>
      <trkpt lat="43.7459" lon="6.49902">
        <ele>787.636834</ele>
        <time>2022-05-01T00:10:31.485Z</time>
      </trkpt>
      <trkpt lat="43.74551" lon="6.49909">
        <ele>786.526307</ele>
        <time>2022-05-01T00:10:37.794Z</time>
      </trkpt>
      <trkpt lat="43.74511" lon="6.49916">
        <ele>785.3684</ele>
        <time>2022-05-01T00:10:42.259Z</time>
      </trkpt>
      <trkpt lat="43.74488" lon="6.49913">
        <ele>784.719972</ele>
        <time>2022-05-01T00:10:44.550Z</time>
      </trkpt>
      <trkpt lat="43.74447" lon="6.49891">
        <ele>783.474762</ele>
        <time>2022-05-01T00:10:48.574Z</time>
      </trkpt>
      <trkpt lat="43.74425" lon="6.49889">
        <ele>782.842694</ele>
        <time>2022-05-01T00:10:50.515Z</time>
      </trkpt>
      <trkpt lat="43.74415" lon="6.49893">
        <ele>781.937392</ele>
        <time>2022-05-01T00:10:51.435Z</time>
      </trkpt>
      <trkpt lat="43.74374" lon="6.49898">
        <ele>778.168833</ele>
        <time>2022-05-01T00:10:56.570Z</time>
      </trkpt>
      <trkpt lat="43.7432" lon="6.49915">
        <ele>773.23337</ele>
        <time>2022-05-01T00:11:03.232Z</time>
      </trkpt>
      <trkpt lat="43.74278" lon="6.49929">
        <ele>769.34831</ele>
        <time>2022-05-01T00:11:08.519Z</time>
      </trkpt>
      <trkpt lat="43.74266" lon="6.49929">
        <ele>768.259415</ele>
        <time>2022-05-01T00:11:10.038Z</time>
      </trkpt>
      <trkpt lat="43.74266" lon="6.49929">
        <ele>768.259415</ele>
        <time>2022-05-01T00:11:10.041Z</time>
      </trkpt>
      <trkpt lat="43.74263" lon="6.49912">
        <ele>767.185158</ele>
        <time>2022-05-01T00:11:11.540Z</time>
      </trkpt>
      <trkpt lat="43.74263" lon="6.49908">
        <ele>766.866885</ele>
        <time>2022-05-01T00:11:11.982Z</time>
      </trkpt>
      <trkpt lat="43.74259" lon="6.49884">
        <ele>765.912284</ele>
        <time>2022-05-01T00:11:14.204Z</time>
      </trkpt>
      <trkpt lat="43.74243" lon="6.49897">
        <ele>765.010173</ele>
        <time>2022-05-01T00:11:16.598Z</time>
      </trkpt>
      <trkpt lat="43.74235" lon="6.49904">
        <ele>764.55821</ele>
        <time>2022-05-01T00:11:17.808Z</time>
      </trkpt>
      <trkpt lat="43.74251" lon="6.49833">
        <ele>761.951948</ele>
        <time>2022-05-01T00:11:22.902Z</time>
      </trkpt>
      <trkpt lat="43.74235" lon="6.49755">
        <ele>759.144989</ele>
        <time>2022-05-01T00:11:28.833Z</time>
      </trkpt>
      <trkpt lat="43.74229" lon="6.4973">
        <ele>758.226942</ele>
        <time>2022-05-01T00:11:30.853Z</time>
      </trkpt>
      <trkpt lat="43.74191" lon="6.49571">
        <ele>756.245099</ele>
        <time>2022-05-01T00:11:44.256Z</time>
      </trkpt>
      <trkpt lat="43.74109" lon="6.49226">
        <ele>754.455019</ele>
        <time>2022-05-01T00:12:18.726Z</time>
      </trkpt>
      <trkpt lat="43.7411" lon="6.49133">
        <ele>754.675026</ele>
        <time>2022-05-01T00:12:29.266Z</time>
      </trkpt>
      <trkpt lat="43.74065" lon="6.48814">
        <ele>755.710904</ele>
        <time>2022-05-01T00:13:10.802Z</time>
      </trkpt>
      <trkpt lat="43.74074" lon="6.48721">
        <ele>755.655865</ele>
        <time>2022-05-01T00:13:21.144Z</time>
      </trkpt>
      <trkpt lat="43.74076" lon="6.48604">
        <ele>754.88978</ele>
        <time>2022-05-01T00:13:31.919Z</time>
      </trkpt>
      <trkpt lat="43.74102" lon="6.48481">
        <ele>753.683244</ele>
        <time>2022-05-01T00:13:42.538Z</time>
      </trkpt>
      <trkpt lat="43.74135" lon="6.48387">
        <ele>751.954306</ele>
        <time>2022-05-01T00:13:50.584Z</time>
      </trkpt>
      <trkpt lat="43.74179" lon="6.48279">
        <ele>749.956329</ele>
        <time>2022-05-01T00:13:59.930Z</time>
      </trkpt>
      <trkpt lat="43.74187" lon="6.48238">
        <ele>749.41914</ele>
        <time>2022-05-01T00:14:03.159Z</time>
      </trkpt>
      <trkpt lat="43.74191" lon="6.48197">
        <ele>748.888227</ele>
        <time>2022-05-01T00:14:06.428Z</time>
      </trkpt>
      <trkpt lat="43.74198" lon="6.48129">
        <ele>748.005176</ele>
        <time>2022-05-01T00:14:12.196Z</time>
      </trkpt>
      <trkpt lat="43.74214" lon="6.48077">
        <ele>747.286119</ele>
        <time>2022-05-01T00:14:16.868Z</time>
      </trkpt>
      <trkpt lat="43.74314" lon="6.4793">
        <ele>745.580535</ele>
        <time>2022-05-01T00:14:35.157Z</time>
      </trkpt>
      <trkpt lat="43.74705" lon="6.47517">
        <ele>738.417794</ele>
        <time>2022-05-01T00:15:31.905Z</time>
      </trkpt>
      <trkpt lat="43.74725" lon="6.47495">
        <ele>737.97794</ele>
        <time>2022-05-01T00:15:34.765Z</time>
      </trkpt>
      <trkpt lat="43.74752" lon="6.47465">
        <ele>737.396666</ele>
        <time>2022-05-01T00:15:38.583Z</time>
      </trkpt>
      <trkpt lat="43.7477" lon="6.47435">
        <ele>736.92322</ele>
        <time>2022-05-01T00:15:41.704Z</time>
      </trkpt>
      <trkpt lat="43.74776" lon="6.47422">
        <ele>736.73128</ele>
        <time>2022-05-01T00:15:43.014Z</time>
      </trkpt>
      <trkpt lat="43.74808" lon="6.47356">
        <ele>736.034692</ele>
        <time>2022-05-01T00:15:49.411Z</time>
      </trkpt>
      <trkpt lat="43.74993" lon="6.47099">
        <ele>733.253087</ele>
        <time>2022-05-01T00:16:21.678Z</time>
      </trkpt>
      <trkpt lat="43.75195" lon="6.4682">
        <ele>730.905843</ele>
        <time>2022-05-01T00:16:57.640Z</time>
      </trkpt>
      <trkpt lat="43.75232" lon="6.46766">
        <ele>730.476435</ele>
        <time>2022-05-01T00:17:04.494Z</time>
      </trkpt>
      <trkpt lat="43.7541" lon="6.4652">
        <ele>728.297523</ele>
        <time>2022-05-01T00:17:36.025Z</time>
      </trkpt>
      <trkpt lat="43.75511" lon="6.46373">
        <ele>726.612299</ele>
        <time>2022-05-01T00:17:53.428Z</time>
      </trkpt>
      <trkpt lat="43.75542" lon="6.46305">
        <ele>726.060519</ele>
        <time>2022-05-01T00:18:00.273Z</time>
      </trkpt>
      <trkpt lat="43.75569" lon="6.46221">
        <ele>725.502734</ele>
        <time>2022-05-01T00:18:08.474Z</time>
      </trkpt>
      <trkpt lat="43.75588" lon="6.46185">
        <ele>725.231309</ele>
        <time>2022-05-01T00:18:12.716Z</time>
      </trkpt>
      <trkpt lat="43.75602" lon="6.46169">
        <ele>725.077421</ele>
        <time>2022-05-01T00:18:15.276Z</time>
      </trkpt>
      <trkpt lat="43.75705" lon="6.46084">
        <ele>723.956305</ele>
        <time>2022-05-01T00:18:30.523Z</time>
      </trkpt>
      <trkpt lat="43.75741" lon="6.46048">
        <ele>723.529993</ele>
        <time>2022-05-01T00:18:35.885Z</time>
      </trkpt>
      <trkpt lat="43.75768" lon="6.4601">
        <ele>723.163613</ele>
        <time>2022-05-01T00:18:40.406Z</time>
      </trkpt>
      <trkpt lat="43.75807" lon="6.45924">
        <ele>722.345572</ele>
        <time>2022-05-01T00:18:49.077Z</time>
      </trkpt>
      <trkpt lat="43.75839" lon="6.45864">
        <ele>721.741138</ele>
        <time>2022-05-01T00:18:55.438Z</time>
      </trkpt>
      <trkpt lat="43.75981" lon="6.45743">
        <ele>720.241771</ele>
        <time>2022-05-01T00:19:16.622Z</time>
      </trkpt>
      <trkpt lat="43.76006" lon="6.45716">
        <ele>719.989815</ele>
        <time>2022-05-01T00:19:20.749Z</time>
      </trkpt>
      <trkpt lat="43.76023" lon="6.45687">
        <ele>719.777444</ele>
        <time>2022-05-01T00:19:24.081Z</time>
      </trkpt>
      <trkpt lat="43.76038" lon="6.45651">
        <ele>719.440338</ele>
        <time>2022-05-01T00:19:27.744Z</time>
      </trkpt>
      <trkpt lat="43.76055" lon="6.45606">
        <ele>718.941551</ele>
        <time>2022-05-01T00:19:32.208Z</time>
      </trkpt>
      <trkpt lat="43.76113" lon="6.45441">
        <ele>717.211302</ele>
        <time>2022-05-01T00:19:47.215Z</time>
      </trkpt>
      <trkpt lat="43.76129" lon="6.45396">
        <ele>716.924565</ele>
        <time>2022-05-01T00:19:51.693Z</time>
      </trkpt>
      <trkpt lat="43.76134" lon="6.45379">
        <ele>716.82162</ele>
        <time>2022-05-01T00:19:53.279Z</time>
      </trkpt>
      <trkpt lat="43.76137" lon="6.4537">
        <ele>716.762716</ele>
        <time>2022-05-01T00:19:54.211Z</time>
      </trkpt>
      <trkpt lat="43.76175" lon="6.45277">
        <ele>716.148937</ele>
        <time>2022-05-01T00:20:04.721Z</time>
      </trkpt>
      <trkpt lat="43.76288" lon="6.45131">
        <ele>714.405098</ele>
        <time>2022-05-01T00:20:24.048Z</time>
      </trkpt>
      <trkpt lat="43.76295" lon="6.45122">
        <ele>714.287993</ele>
        <time>2022-05-01T00:20:25.146Z</time>
      </trkpt>
      <trkpt lat="43.76286" lon="6.45095">
        <ele>714.032127</ele>
        <time>2022-05-01T00:20:27.377Z</time>
      </trkpt>
      <trkpt lat="43.7633" lon="6.45014">
        <ele>713.144099</ele>
        <time>2022-05-01T00:20:35.394Z</time>
      </trkpt>
      <trkpt lat="43.76336" lon="6.44987">
        <ele>712.896834</ele>
        <time>2022-05-01T00:20:37.751Z</time>
      </trkpt>
      <trkpt lat="43.76325" lon="6.44915">
        <ele>712.254296</ele>
        <time>2022-05-01T00:20:43.658Z</time>
      </trkpt>
      <trkpt lat="43.76314" lon="6.44855">
        <ele>711.715118</ele>
        <time>2022-05-01T00:20:49.608Z</time>
      </trkpt>
      <trkpt lat="43.76312" lon="6.44839">
        <ele>711.572486</ele>
        <time>2022-05-01T00:20:51.599Z</time>
      </trkpt>
      <trkpt lat="43.76263" lon="6.44825">
        <ele>711.97292</ele>
        <time>2022-05-01T00:20:58.883Z</time>
      </trkpt>
      <trkpt lat="43.76184" lon="6.448">
        <ele>712.977882</ele>
        <time>2022-05-01T00:21:14.837Z</time>
      </trkpt>
      <trkpt lat="43.76114" lon="6.44811">
        <ele>714.271363</ele>
        <time>2022-05-01T00:21:31.546Z</time>
      </trkpt>
      <trkpt lat="43.76077" lon="6.44809">
        <ele>716.007218</ele>
        <time>2022-05-01T00:21:40.596Z</time>
      </trkpt>
      <trkpt lat="43.76059" lon="6.44802">
        <ele>716.909199</ele>
        <time>2022-05-01T00:21:45.248Z</time>
      </trkpt>
      <trkpt lat="43.76024" lon="6.44769">
        <ele>718.92243</ele>
        <time>2022-05-01T00:21:59.241Z</time>
      </trkpt>
      <trkpt lat="43.7596" lon="6.44663">
        <ele>724.667901</ele>
        <time>2022-05-01T00:22:41.400Z</time>
      </trkpt>
      <trkpt lat="43.75952" lon="6.44625">
        <ele>727.043278</ele>
        <time>2022-05-01T00:22:57.194Z</time>
      </trkpt>
      <trkpt lat="43.75959" lon="6.44508">
        <ele>733.946548</ele>
        <time>2022-05-01T00:23:40.550Z</time>
      </trkpt>
      <trkpt lat="43.75968" lon="6.44417">
        <ele>738.615045</ele>
        <time>2022-05-01T00:24:10.372Z</time>
      </trkpt>
      <trkpt lat="43.75971" lon="6.44396">
        <ele>739.493813</ele>
        <time>2022-05-01T00:24:16.154Z</time>
      </trkpt>
      <trkpt lat="43.75961" lon="6.44391">
        <ele>740.080365</ele>
        <time>2022-05-01T00:24:20.322Z</time>
      </trkpt>
      <trkpt lat="43.75944" lon="6.44445">
        <ele>742.415075</ele>
        <time>2022-05-01T00:24:34.494Z</time>
      </trkpt>
      <trkpt lat="43.75923" lon="6.44463">
        <ele>743.82829</ele>
        <time>2022-05-01T00:24:42.634Z</time>
      </trkpt>
      <trkpt lat="43.75895" lon="6.4448">
        <ele>745.52684</ele>
        <time>2022-05-01T00:24:53.148Z</time>
      </trkpt>
      <trkpt lat="43.75851" lon="6.44513">
        <ele>748.34552</ele>
        <time>2022-05-01T00:25:11.201Z</time>
      </trkpt>
      <trkpt lat="43.75843" lon="6.44508">
        <ele>748.8782</ele>
        <time>2022-05-01T00:25:13.849Z</time>
      </trkpt>
      <trkpt lat="43.75842" lon="6.44499">
        <ele>749.25734</ele>
        <time>2022-05-01T00:25:16.096Z</time>
      </trkpt>
      <trkpt lat="43.75858" lon="6.44468">
        <ele>750.821485</ele>
        <time>2022-05-01T00:25:25.215Z</time>
      </trkpt>
      <trkpt lat="43.75877" lon="6.44406">
        <ele>753.645489</ele>
        <time>2022-05-01T00:25:43.673Z</time>
      </trkpt>
      <trkpt lat="43.75893" lon="6.44348">
        <ele>756.245666</ele>
        <time>2022-05-01T00:26:03.171Z</time>
      </trkpt>
      <trkpt lat="43.75908" lon="6.44239">
        <ele>761.34947</ele>
        <time>2022-05-01T00:26:35.299Z</time>
      </trkpt>
      <trkpt lat="43.75921" lon="6.44215">
        <ele>762.774313</ele>
        <time>2022-05-01T00:26:44.330Z</time>
      </trkpt>
      <trkpt lat="43.75945" lon="6.44206">
        <ele>764.42149</ele>
        <time>2022-05-01T00:26:54.210Z</time>
      </trkpt>
      <trkpt lat="43.75958" lon="6.44201">
        <ele>765.330189</ele>
        <time>2022-05-01T00:27:00.342Z</time>
      </trkpt>
      <trkpt lat="43.75991" lon="6.44168">
        <ele>768.011131</ele>
        <time>2022-05-01T00:27:15.515Z</time>
      </trkpt>
      <trkpt lat="43.76031" lon="6.44168">
        <ele>771.125924</ele>
        <time>2022-05-01T00:27:32.513Z</time>
      </trkpt>
      <trkpt lat="43.76035" lon="6.44158">
        <ele>771.868611</ele>
        <time>2022-05-01T00:27:36.468Z</time>
      </trkpt>
      <trkpt lat="43.76021" lon="6.44103">
        <ele>775.56791</ele>
        <time>2022-05-01T00:27:57.103Z</time>
      </trkpt>
      <trkpt lat="43.76013" lon="6.44096">
        <ele>776.424387</ele>
        <time>2022-05-01T00:28:02.558Z</time>
      </trkpt>
      <trkpt lat="43.75982" lon="6.44086">
        <ele>779.234377</ele>
        <time>2022-05-01T00:28:18.090Z</time>
      </trkpt>
      <trkpt lat="43.7596" lon="6.44068">
        <ele>781.49005</ele>
        <time>2022-05-01T00:28:31.122Z</time>
      </trkpt>
      <trkpt lat="43.75951" lon="6.44065">
        <ele>782.307456</ele>
        <time>2022-05-01T00:28:36.483Z</time>
      </trkpt>
      <trkpt lat="43.75905" lon="6.44088">
        <ele>786.488108</ele>
        <time>2022-05-01T00:29:05.264Z</time>
      </trkpt>
      <trkpt lat="43.75785" lon="6.44112">
        <ele>796.134588</ele>
        <time>2022-05-01T00:30:11.894Z</time>
      </trkpt>
      <trkpt lat="43.7576" lon="6.44115">
        <ele>798.080171</ele>
        <time>2022-05-01T00:30:20.133Z</time>
      </trkpt>
      <trkpt lat="43.75746" lon="6.44111">
        <ele>799.240191</ele>
        <time>2022-05-01T00:30:23.063Z</time>
      </trkpt>
      <trkpt lat="43.75736" lon="6.44101">
        <ele>799.090673</ele>
        <time>2022-05-01T00:30:26.028Z</time>
      </trkpt>
      <trkpt lat="43.75727" lon="6.44081">
        <ele>798.60616</ele>
        <time>2022-05-01T00:30:28.955Z</time>
      </trkpt>
      <trkpt lat="43.75721" lon="6.44042">
        <ele>797.76421</ele>
        <time>2022-05-01T00:30:32.716Z</time>
      </trkpt>
      <trkpt lat="43.7572" lon="6.44036">
        <ele>797.639172</ele>
        <time>2022-05-01T00:30:33.200Z</time>
      </trkpt>
      <trkpt lat="43.75689" lon="6.4393">
        <ele>795.254998</ele>
        <time>2022-05-01T00:30:41.290Z</time>
      </trkpt>
      <trkpt lat="43.75669" lon="6.4388">
        <ele>793.899867</ele>
        <time>2022-05-01T00:30:45.007Z</time>
      </trkpt>
      <trkpt lat="43.75633" lon="6.43814">
        <ele>790.016659</ele>
        <time>2022-05-01T00:30:50.210Z</time>
      </trkpt>
      <trkpt lat="43.75621" lon="6.43765">
        <ele>787.613936</ele>
        <time>2022-05-01T00:30:53.506Z</time>
      </trkpt>
      <trkpt lat="43.75619" lon="6.43727">
        <ele>785.84387</ele>
        <time>2022-05-01T00:30:56.010Z</time>
      </trkpt>
      <trkpt lat="43.7561" lon="6.43713">
        <ele>784.968256</ele>
        <time>2022-05-01T00:30:57.362Z</time>
      </trkpt>
      <trkpt lat="43.75601" lon="6.43712">
        <ele>784.342438</ele>
        <time>2022-05-01T00:30:58.206Z</time>
      </trkpt>
      <trkpt lat="43.75584" lon="6.4373">
        <ele>782.987958</ele>
        <time>2022-05-01T00:31:00.299Z</time>
      </trkpt>
      <trkpt lat="43.75569" lon="6.43767">
        <ele>781.664918</ele>
        <time>2022-05-01T00:31:03.307Z</time>
      </trkpt>
      <trkpt lat="43.75569" lon="6.43844">
        <ele>779.649168</ele>
        <time>2022-05-01T00:31:08.744Z</time>
      </trkpt>
      <trkpt lat="43.75561" lon="6.4387">
        <ele>778.915526</ele>
        <time>2022-05-01T00:31:10.841Z</time>
      </trkpt>
      <trkpt lat="43.7544" lon="6.4401">
        <ele>775.198267</ele>
        <time>2022-05-01T00:31:26.810Z</time>
      </trkpt>
      <trkpt lat="43.75416" lon="6.44018">
        <ele>774.940427</ele>
        <time>2022-05-01T00:31:29.674Z</time>
      </trkpt>
      <trkpt lat="43.75374" lon="6.44015">
        <ele>774.493162</ele>
        <time>2022-05-01T00:31:35.466Z</time>
      </trkpt>
      <trkpt lat="43.75357" lon="6.44008">
        <ele>774.306432</ele>
        <time>2022-05-01T00:31:37.923Z</time>
      </trkpt>
      <trkpt lat="43.75341" lon="6.43981">
        <ele>774.629846</ele>
        <time>2022-05-01T00:31:43.085Z</time>
      </trkpt>
      <trkpt lat="43.75328" lon="6.43914">
        <ele>778.10418</ele>
        <time>2022-05-01T00:31:58.991Z</time>
      </trkpt>
      <trkpt lat="43.75321" lon="6.43893">
        <ele>779.239009</ele>
        <time>2022-05-01T00:32:06.859Z</time>
      </trkpt>
      <trkpt lat="43.75309" lon="6.43873">
        <ele>780.549909</ele>
        <time>2022-05-01T00:32:15.942Z</time>
      </trkpt>
      <trkpt lat="43.75273" lon="6.43832">
        <ele>783.739836</ele>
        <time>2022-05-01T00:32:40.192Z</time>
      </trkpt>
      <trkpt lat="43.75251" lon="6.43815">
        <ele>785.527836</ele>
        <time>2022-05-01T00:32:53.698Z</time>
      </trkpt>
      <trkpt lat="43.75181" lon="6.43767">
        <ele>792.344842</ele>
        <time>2022-05-01T00:33:35.311Z</time>
      </trkpt>
      <trkpt lat="43.75076" lon="6.43662">
        <ele>803.885631</ele>
        <time>2022-05-01T00:34:41.461Z</time>
      </trkpt>
      <trkpt lat="43.7507" lon="6.43645">
        <ele>804.912293</ele>
        <time>2022-05-01T00:34:47.890Z</time>
      </trkpt>
      <trkpt lat="43.75081" lon="6.43595">
        <ele>807.748303</ele>
        <time>2022-05-01T00:35:04.013Z</time>
      </trkpt>
      <trkpt lat="43.75082" lon="6.43567">
        <ele>809.300645</ele>
        <time>2022-05-01T00:35:13.205Z</time>
      </trkpt>
      <trkpt lat="43.75078" lon="6.43551">
        <ele>810.210723</ele>
        <time>2022-05-01T00:35:17.807Z</time>
      </trkpt>
      <trkpt lat="43.75066" lon="6.43542">
        <ele>811.20583</ele>
        <time>2022-05-01T00:35:23.950Z</time>
      </trkpt>
      <trkpt lat="43.75016" lon="6.43558">
        <ele>815.058123</ele>
        <time>2022-05-01T00:35:45.923Z</time>
      </trkpt>
      <trkpt lat="43.7499" lon="6.43573">
        <ele>817.204684</ele>
        <time>2022-05-01T00:35:58.024Z</time>
      </trkpt>
      <trkpt lat="43.74907" lon="6.43659">
        <ele>824.743827</ele>
        <time>2022-05-01T00:36:47.607Z</time>
      </trkpt>
      <trkpt lat="43.74894" lon="6.43684">
        <ele>826.358252</ele>
        <time>2022-05-01T00:36:57.808Z</time>
      </trkpt>
      <trkpt lat="43.74878" lon="6.43738">
        <ele>829.454235</ele>
        <time>2022-05-01T00:37:13.708Z</time>
      </trkpt>
      <trkpt lat="43.74862" lon="6.43738">
        <ele>830.533307</ele>
        <time>2022-05-01T00:37:19.535Z</time>
      </trkpt>
      <trkpt lat="43.74858" lon="6.43724">
        <ele>831.243827</ele>
        <time>2022-05-01T00:37:24.665Z</time>
      </trkpt>
      <trkpt lat="43.74864" lon="6.43665">
        <ele>834.08869</ele>
        <time>2022-05-01T00:37:40.142Z</time>
      </trkpt>
      <trkpt lat="43.7485" lon="6.43601">
        <ele>837.207777</ele>
        <time>2022-05-01T00:37:57.379Z</time>
      </trkpt>
      <trkpt lat="43.74849" lon="6.4356">
        <ele>839.182587</ele>
        <time>2022-05-01T00:38:11.445Z</time>
      </trkpt>
      <trkpt lat="43.74854" lon="6.43505">
        <ele>841.92996</ele>
        <time>2022-05-01T00:38:30.899Z</time>
      </trkpt>
      <trkpt lat="43.74872" lon="6.43454">
        <ele>845.612961</ele>
        <time>2022-05-01T00:38:49.872Z</time>
      </trkpt>
      <trkpt lat="43.74873" lon="6.43436">
        <ele>846.797095</ele>
        <time>2022-05-01T00:38:56.400Z</time>
      </trkpt>
      <trkpt lat="43.74869" lon="6.43419">
        <ele>847.94894</ele>
        <time>2022-05-01T00:39:02.382Z</time>
      </trkpt>
      <trkpt lat="43.74858" lon="6.43406">
        <ele>849.215977</ele>
        <time>2022-05-01T00:39:09.678Z</time>
      </trkpt>
      <trkpt lat="43.74842" lon="6.43403">
        <ele>850.668755</ele>
        <time>2022-05-01T00:39:18.564Z</time>
      </trkpt>
      <trkpt lat="43.74821" lon="6.43418">
        <ele>852.79329</ele>
        <time>2022-05-01T00:39:30.967Z</time>
      </trkpt>
      <trkpt lat="43.74687" lon="6.43584">
        <ele>868.321206</ele>
        <time>2022-05-01T00:41:07.766Z</time>
      </trkpt>
      <trkpt lat="43.74676" lon="6.43591">
        <ele>869.294692</ele>
        <time>2022-05-01T00:41:12.593Z</time>
      </trkpt>
      <trkpt lat="43.74666" lon="6.43589">
        <ele>870.142363</ele>
        <time>2022-05-01T00:41:16.733Z</time>
      </trkpt>
      <trkpt lat="43.74658" lon="6.43573">
        <ele>871.307174</ele>
        <time>2022-05-01T00:41:22.456Z</time>
      </trkpt>
      <trkpt lat="43.74669" lon="6.43503">
        <ele>874.368059</ele>
        <time>2022-05-01T00:41:41.173Z</time>
      </trkpt>
      <trkpt lat="43.74669" lon="6.43484">
        <ele>874.995839</ele>
        <time>2022-05-01T00:41:45.573Z</time>
      </trkpt>
      <trkpt lat="43.74662" lon="6.43468">
        <ele>875.610312</ele>
        <time>2022-05-01T00:41:49.641Z</time>
      </trkpt>
      <trkpt lat="43.74619" lon="6.43457">
        <ele>877.638862</ele>
        <time>2022-05-01T00:42:02.773Z</time>
      </trkpt>
      <trkpt lat="43.74594" lon="6.43466">
        <ele>878.874031</ele>
        <time>2022-05-01T00:42:10.655Z</time>
      </trkpt>
      <trkpt lat="43.74578" lon="6.43502">
        <ele>880.281441</ele>
        <time>2022-05-01T00:42:19.275Z</time>
      </trkpt>
      <trkpt lat="43.74571" lon="6.43557">
        <ele>882.844496</ele>
        <time>2022-05-01T00:42:33.067Z</time>
      </trkpt>
      <trkpt lat="43.74562" lon="6.43578">
        <ele>884.197021</ele>
        <time>2022-05-01T00:42:39.517Z</time>
      </trkpt>
      <trkpt lat="43.74551" lon="6.43591">
        <ele>885.312236</ele>
        <time>2022-05-01T00:42:46.393Z</time>
      </trkpt>
      <trkpt lat="43.74478" lon="6.43646">
        <ele>891.590949</ele>
        <time>2022-05-01T00:43:24.449Z</time>
      </trkpt>
      <trkpt lat="43.74392" lon="6.43666">
        <ele>899.374864</ele>
        <time>2022-05-01T00:44:13.322Z</time>
      </trkpt>
      <trkpt lat="43.74276" lon="6.4365">
        <ele>911.173324</ele>
        <time>2022-05-01T00:45:19.094Z</time>
      </trkpt>
      <trkpt lat="43.74246" lon="6.43654">
        <ele>914.170629</ele>
        <time>2022-05-01T00:45:35.474Z</time>
      </trkpt>
      <trkpt lat="43.7416" lon="6.43679">
        <ele>922.545014</ele>
        <time>2022-05-01T00:46:20.647Z</time>
      </trkpt>
      <trkpt lat="43.74131" lon="6.43677">
        <ele>925.328278</ele>
        <time>2022-05-01T00:46:36.391Z</time>
      </trkpt>
      <trkpt lat="43.74058" lon="6.43659">
        <ele>932.735236</ele>
        <time>2022-05-01T00:47:15.042Z</time>
      </trkpt>
      <trkpt lat="43.73974" lon="6.43626">
        <ele>942.116345</ele>
        <time>2022-05-01T00:48:06.461Z</time>
      </trkpt>
      <trkpt lat="43.73912" lon="6.43595">
        <ele>949.281999</ele>
        <time>2022-05-01T00:48:46.700Z</time>
      </trkpt>
      <trkpt lat="43.7389" lon="6.43577">
        <ele>951.856818</ele>
        <time>2022-05-01T00:49:03.177Z</time>
      </trkpt>
      <trkpt lat="43.73718" lon="6.43415">
        <ele>970.110459</ele>
        <time>2022-05-01T00:50:54.209Z</time>
      </trkpt>
      <trkpt lat="43.73673" lon="6.43371">
        <ele>973.012461</ele>
        <time>2022-05-01T00:51:13.556Z</time>
      </trkpt>
      <trkpt lat="43.73642" lon="6.43329">
        <ele>975.238663</ele>
        <time>2022-05-01T00:51:25.554Z</time>
      </trkpt>
      <trkpt lat="43.73665" lon="6.4325">
        <ele>976.9814</ele>
        <time>2022-05-01T00:51:37.891Z</time>
      </trkpt>
      <trkpt lat="43.73697" lon="6.432">
        <ele>977.24822</ele>
        <time>2022-05-01T00:51:45.435Z</time>
      </trkpt>
      <trkpt lat="43.73741" lon="6.43155">
        <ele>977.551692</ele>
        <time>2022-05-01T00:51:53.172Z</time>
      </trkpt>
      <trkpt lat="43.7383" lon="6.43091">
        <ele>978.601097</ele>
        <time>2022-05-01T00:52:09.904Z</time>
      </trkpt>
      <trkpt lat="43.73868" lon="6.43046">
        <ele>979.327484</ele>
        <time>2022-05-01T00:52:20.650Z</time>
      </trkpt>
      <trkpt lat="43.73891" lon="6.42999">
        <ele>979.921523</ele>
        <time>2022-05-01T00:52:30.003Z</time>
      </trkpt>
      <trkpt lat="43.73915" lon="6.42872">
        <ele>981.688109</ele>
        <time>2022-05-01T00:52:52.387Z</time>
      </trkpt>
      <trkpt lat="43.73934" lon="6.42831">
        <ele>982.434503</ele>
        <time>2022-05-01T00:53:00.742Z</time>
      </trkpt>
      <trkpt lat="43.73992" lon="6.42749">
        <ele>984.155309</ele>
        <time>2022-05-01T00:53:19.984Z</time>
      </trkpt>
      <trkpt lat="43.74032" lon="6.42647">
        <ele>985.574768</ele>
        <time>2022-05-01T00:53:37.855Z</time>
      </trkpt>
      <trkpt lat="43.74089" lon="6.42585">
        <ele>986.810071</ele>
        <time>2022-05-01T00:53:53.297Z</time>
      </trkpt>
      <trkpt lat="43.74149" lon="6.42507">
        <ele>988.067718</ele>
        <time>2022-05-01T00:54:11.416Z</time>
      </trkpt>
      <trkpt lat="43.74175" lon="6.42467">
        <ele>988.624235</ele>
        <time>2022-05-01T00:54:19.784Z</time>
      </trkpt>
      <trkpt lat="43.74246" lon="6.42332">
        <ele>990.166793</ele>
        <time>2022-05-01T00:54:43.317Z</time>
      </trkpt>
      <trkpt lat="43.74265" lon="6.42306">
        <ele>990.396509</ele>
        <time>2022-05-01T00:54:48.006Z</time>
      </trkpt>
      <trkpt lat="43.74302" lon="6.42276">
        <ele>990.783981</ele>
        <time>2022-05-01T00:54:55.772Z</time>
      </trkpt>
      <trkpt lat="43.74389" lon="6.42265">
        <ele>991.622299</ele>
        <time>2022-05-01T00:55:11.284Z</time>
      </trkpt>
      <trkpt lat="43.74443" lon="6.42238">
        <ele>992.38289</ele>
        <time>2022-05-01T00:55:22.096Z</time>
      </trkpt>
      <trkpt lat="43.74479" lon="6.42192">
        <ele>993.046559</ele>
        <time>2022-05-01T00:55:32.195Z</time>
      </trkpt>
      <trkpt lat="43.74516" lon="6.42119">
        <ele>993.915758</ele>
        <time>2022-05-01T00:55:46.377Z</time>
      </trkpt>
      <trkpt lat="43.74623" lon="6.42022">
        <ele>995.861915</ele>
        <time>2022-05-01T00:56:14.302Z</time>
      </trkpt>
      <trkpt lat="43.74687" lon="6.41966">
        <ele>996.566111</ele>
        <time>2022-05-01T00:56:28.667Z</time>
      </trkpt>
      <trkpt lat="43.74739" lon="6.41911">
        <ele>996.539841</ele>
        <time>2022-05-01T00:56:39.270Z</time>
      </trkpt>
      <trkpt lat="43.74822" lon="6.41883">
        <ele>996.505858</ele>
        <time>2022-05-01T00:56:50.166Z</time>
      </trkpt>
      <trkpt lat="43.7485" lon="6.41883">
        <ele>996.444432</ele>
        <time>2022-05-01T00:56:53.578Z</time>
      </trkpt>
      <trkpt lat="43.74921" lon="6.41921">
        <ele>996.27563</ele>
        <time>2022-05-01T00:57:02.778Z</time>
      </trkpt>
      <trkpt lat="43.74965" lon="6.41931">
        <ele>996.178054</ele>
        <time>2022-05-01T00:57:09.319Z</time>
      </trkpt>
      <trkpt lat="43.75054" lon="6.41925">
        <ele>997.632796</ele>
        <time>2022-05-01T00:57:28.412Z</time>
      </trkpt>
      <trkpt lat="43.75078" lon="6.41918">
        <ele>998.25953</ele>
        <time>2022-05-01T00:57:34.374Z</time>
      </trkpt>
      <trkpt lat="43.75108" lon="6.41896">
        <ele>999.129652</ele>
        <time>2022-05-01T00:57:44.420Z</time>
      </trkpt>
      <trkpt lat="43.75132" lon="6.41871">
        <ele>999.929702</ele>
        <time>2022-05-01T00:57:53.592Z</time>
      </trkpt>
      <trkpt lat="43.75159" lon="6.41831">
        <ele>1000.860378</ele>
        <time>2022-05-01T00:58:04.122Z</time>
      </trkpt>
      <trkpt lat="43.75177" lon="6.41791">
        <ele>1001.268414</ele>
        <time>2022-05-01T00:58:13.133Z</time>
      </trkpt>
      <trkpt lat="43.75188" lon="6.41747">
        <ele>1001.669996</ele>
        <time>2022-05-01T00:58:21.682Z</time>
      </trkpt>
      <trkpt lat="43.75188" lon="6.41735">
        <ele>1001.772321</ele>
        <time>2022-05-01T00:58:23.638Z</time>
      </trkpt>
      <trkpt lat="43.75188" lon="6.41728">
        <ele>1001.832186</ele>
        <time>2022-05-01T00:58:24.802Z</time>
      </trkpt>
      <trkpt lat="43.7518" lon="6.41649">
        <ele>1002.528097</ele>
        <time>2022-05-01T00:58:33.547Z</time>
      </trkpt>
      <trkpt lat="43.75129" lon="6.41541">
        <ele>1002.133756</ele>
        <time>2022-05-01T00:58:45.400Z</time>
      </trkpt>
      <trkpt lat="43.75121" lon="6.41498">
        <ele>1001.692089</ele>
        <time>2022-05-01T00:58:49.068Z</time>
      </trkpt>
      <trkpt lat="43.7513" lon="6.41458">
        <ele>1001.282312</ele>
        <time>2022-05-01T00:58:52.790Z</time>
      </trkpt>
      <trkpt lat="43.75151" lon="6.41416">
        <ele>1000.772406</ele>
        <time>2022-05-01T00:58:57.066Z</time>
      </trkpt>
      <trkpt lat="43.75212" lon="6.41355">
        <ele>998.53687</ele>
        <time>2022-05-01T00:59:04.866Z</time>
      </trkpt>
      <trkpt lat="43.75218" lon="6.41314">
        <ele>997.411754</ele>
        <time>2022-05-01T00:59:07.975Z</time>
      </trkpt>
      <trkpt lat="43.75216" lon="6.41193">
        <ele>994.232566</ele>
        <time>2022-05-01T00:59:16.452Z</time>
      </trkpt>
      <trkpt lat="43.75215" lon="6.41058">
        <ele>989.753806</ele>
        <time>2022-05-01T00:59:25.583Z</time>
      </trkpt>
      <trkpt lat="43.75262" lon="6.40835">
        <ele>982.91323</ele>
        <time>2022-05-01T00:59:41.759Z</time>
      </trkpt>
      <trkpt lat="43.75263" lon="6.40751">
        <ele>980.84845</ele>
        <time>2022-05-01T00:59:48.011Z</time>
      </trkpt>
      <trkpt lat="43.75259" lon="6.40668">
        <ele>979.11053</ele>
        <time>2022-05-01T00:59:54.351Z</time>
      </trkpt>
      <trkpt lat="43.75255" lon="6.40566">
        <ele>977.798574</ele>
        <time>2022-05-01T01:00:02.572Z</time>
      </trkpt>
      <trkpt lat="43.75305" lon="6.40402">
        <ele>975.011369</ele>
        <time>2022-05-01T01:00:17.643Z</time>
      </trkpt>
      <trkpt lat="43.75314" lon="6.40301">
        <ele>972.77629</ele>
        <time>2022-05-01T01:00:25.235Z</time>
      </trkpt>
      <trkpt lat="43.75306" lon="6.40262">
        <ele>971.903912</ele>
        <time>2022-05-01T01:00:28.055Z</time>
      </trkpt>
      <trkpt lat="43.75219" lon="6.40099">
        <ele>965.391725</ele>
        <time>2022-05-01T01:00:42.091Z</time>
      </trkpt>
      <trkpt lat="43.75171" lon="6.40073">
        <ele>962.868406</ele>
        <time>2022-05-01T01:00:46.863Z</time>
      </trkpt>
      <trkpt lat="43.75126" lon="6.40033">
        <ele>959.820509</ele>
        <time>2022-05-01T01:00:51.784Z</time>
      </trkpt>
      <trkpt lat="43.75097" lon="6.39965">
        <ele>956.307005</ele>
        <time>2022-05-01T01:00:57.018Z</time>
      </trkpt>
      <trkpt lat="43.75002" lon="6.39858">
        <ele>948.448998</ele>
        <time>2022-05-01T01:01:08.097Z</time>
      </trkpt>
      <trkpt lat="43.74958" lon="6.39786">
        <ele>943.623017</ele>
        <time>2022-05-01T01:01:14.253Z</time>
      </trkpt>
      <trkpt lat="43.74908" lon="6.39742">
        <ele>939.428316</ele>
        <time>2022-05-01T01:01:19.594Z</time>
      </trkpt>
      <trkpt lat="43.74899" lon="6.39723">
        <ele>938.253391</ele>
        <time>2022-05-01T01:01:21.057Z</time>
      </trkpt>
      <trkpt lat="43.74889" lon="6.39676">
        <ele>934.431817</ele>
        <time>2022-05-01T01:01:24.178Z</time>
      </trkpt>
      <trkpt lat="43.74859" lon="6.396">
        <ele>927.507545</ele>
        <time>2022-05-01T01:01:29.603Z</time>
      </trkpt>
      <trkpt lat="43.74768" lon="6.39446">
        <ele>910.958802</ele>
        <time>2022-05-01T01:01:41.590Z</time>
      </trkpt>
      <trkpt lat="43.74706" lon="6.39319">
        <ele>897.231395</ele>
        <time>2022-05-01T01:01:50.966Z</time>
      </trkpt>
      <trkpt lat="43.74659" lon="6.39253">
        <ele>891.558223</ele>
        <time>2022-05-01T01:01:56.783Z</time>
      </trkpt>
      <trkpt lat="43.74619" lon="6.39244">
        <ele>888.380786</ele>
        <time>2022-05-01T01:02:00.396Z</time>
      </trkpt>
      <trkpt lat="43.74595" lon="6.39222">
        <ele>886.081043</ele>
        <time>2022-05-01T01:02:02.987Z</time>
      </trkpt>
      <trkpt lat="43.74555" lon="6.39111">
        <ele>879.449008</ele>
        <time>2022-05-01T01:02:11.165Z</time>
      </trkpt>
      <trkpt lat="43.74535" lon="6.39081">
        <ele>877.352968</ele>
        <time>2022-05-01T01:02:13.965Z</time>
      </trkpt>
      <trkpt lat="43.74521" lon="6.39072">
        <ele>876.32787</ele>
        <time>2022-05-01T01:02:15.264Z</time>
      </trkpt>
      <trkpt lat="43.74501" lon="6.39074">
        <ele>874.95035</ele>
        <time>2022-05-01T01:02:17.143Z</time>
      </trkpt>
      <trkpt lat="43.74442" lon="6.39113">
        <ele>870.444022</ele>
        <time>2022-05-01T01:02:22.993Z</time>
      </trkpt>
      <trkpt lat="43.74391" lon="6.39176">
        <ele>865.096033</ele>
        <time>2022-05-01T01:02:29.031Z</time>
      </trkpt>
      <trkpt lat="43.74373" lon="6.39182">
        <ele>863.584272</ele>
        <time>2022-05-01T01:02:30.721Z</time>
      </trkpt>
      <trkpt lat="43.74351" lon="6.39175">
        <ele>861.799068</ele>
        <time>2022-05-01T01:02:32.712Z</time>
      </trkpt>
      <trkpt lat="43.74291" lon="6.3913">
        <ele>856.299288</ele>
        <time>2022-05-01T01:02:38.734Z</time>
      </trkpt>
      <trkpt lat="43.74268" lon="6.39101">
        <ele>853.743831</ele>
        <time>2022-05-01T01:02:41.407Z</time>
      </trkpt>
      <trkpt lat="43.74223" lon="6.38993">
        <ele>845.896437</ele>
        <time>2022-05-01T01:02:49.279Z</time>
      </trkpt>
      <trkpt lat="43.74203" lon="6.38914">
        <ele>840.725464</ele>
        <time>2022-05-01T01:02:54.517Z</time>
      </trkpt>
      <trkpt lat="43.742" lon="6.38873">
        <ele>838.49064</ele>
        <time>2022-05-01T01:02:57.195Z</time>
      </trkpt>
      <trkpt lat="43.74201" lon="6.38819">
        <ele>836.005947</ele>
        <time>2022-05-01T01:03:00.699Z</time>
      </trkpt>
      <trkpt lat="43.74221" lon="6.38677">
        <ele>829.334833</ele>
        <time>2022-05-01T01:03:10.300Z</time>
      </trkpt>
      <trkpt lat="43.74187" lon="6.38567">
        <ele>824.486858</ele>
        <time>2022-05-01T01:03:18.375Z</time>
      </trkpt>
      <trkpt lat="43.74189" lon="6.3846">
        <ele>820.34101</ele>
        <time>2022-05-01T01:03:25.636Z</time>
      </trkpt>
      <trkpt lat="43.74202" lon="6.38378">
        <ele>817.11171</ele>
        <time>2022-05-01T01:03:31.332Z</time>
      </trkpt>
      <trkpt lat="43.74225" lon="6.38313">
        <ele>814.380374</ele>
        <time>2022-05-01T01:03:36.249Z</time>
      </trkpt>
      <trkpt lat="43.74243" lon="6.38275">
        <ele>812.598919</ele>
        <time>2022-05-01T01:03:39.353Z</time>
      </trkpt>
      <trkpt lat="43.74248" lon="6.38251">
        <ele>811.679813</ele>
        <time>2022-05-01T01:03:40.920Z</time>
      </trkpt>
      <trkpt lat="43.74239" lon="6.38224">
        <ele>810.534029</ele>
        <time>2022-05-01T01:03:42.981Z</time>
      </trkpt>
      <trkpt lat="43.74228" lon="6.38211">
        <ele>809.758333</ele>
        <time>2022-05-01T01:03:44.287Z</time>
      </trkpt>
      <trkpt lat="43.74174" lon="6.38189">
        <ele>806.303472</ele>
        <time>2022-05-01T01:03:49.685Z</time>
      </trkpt>
      <trkpt lat="43.74157" lon="6.3819">
        <ele>805.25015</ele>
        <time>2022-05-01T01:03:51.157Z</time>
      </trkpt>
      <trkpt lat="43.7412" lon="6.38216">
        <ele>802.587857</ele>
        <time>2022-05-01T01:03:54.992Z</time>
      </trkpt>
      <trkpt lat="43.74104" lon="6.38215">
        <ele>801.561529</ele>
        <time>2022-05-01T01:03:56.416Z</time>
      </trkpt>
      <trkpt lat="43.74055" lon="6.38197">
        <ele>798.308116</ele>
        <time>2022-05-01T01:04:00.899Z</time>
      </trkpt>
      <trkpt lat="43.74016" lon="6.38193">
        <ele>796.143536</ele>
        <time>2022-05-01T01:04:04.381Z</time>
      </trkpt>
      <trkpt lat="43.73924" lon="6.38132">
        <ele>791.053378</ele>
        <time>2022-05-01T01:04:13.892Z</time>
      </trkpt>
      <trkpt lat="43.73894" lon="6.38137">
        <ele>789.531077</ele>
        <time>2022-05-01T01:04:16.885Z</time>
      </trkpt>
      <trkpt lat="43.73874" lon="6.38151">
        <ele>788.393992</ele>
        <time>2022-05-01T01:04:19.157Z</time>
      </trkpt>
      <trkpt lat="43.73777" lon="6.38264">
        <ele>787.040138</ele>
        <time>2022-05-01T01:04:33.263Z</time>
      </trkpt>
      <trkpt lat="43.73753" lon="6.38307">
        <ele>786.627119</ele>
        <time>2022-05-01T01:04:40.358Z</time>
      </trkpt>
      <trkpt lat="43.73744" lon="6.38339">
        <ele>786.753443</ele>
        <time>2022-05-01T01:04:45.444Z</time>
      </trkpt>
      <trkpt lat="43.73745" lon="6.38369">
        <ele>787.352432</ele>
        <time>2022-05-01T01:04:50.244Z</time>
      </trkpt>
      <trkpt lat="43.7375" lon="6.38392">
        <ele>787.839211</ele>
        <time>2022-05-01T01:04:54.231Z</time>
      </trkpt>
      <trkpt lat="43.73863" lon="6.38598">
        <ele>792.90401</ele>
        <time>2022-05-01T01:05:47.294Z</time>
      </trkpt>
      <trkpt lat="43.73881" lon="6.38653">
        <ele>794.010514</ele>
        <time>2022-05-01T01:05:59.251Z</time>
      </trkpt>
      <trkpt lat="43.73884" lon="6.38709">
        <ele>795.059953</ele>
        <time>2022-05-01T01:06:09.467Z</time>
      </trkpt>
      <trkpt lat="43.73882" lon="6.38754">
        <ele>795.892585</ele>
        <time>2022-05-01T01:06:16.472Z</time>
      </trkpt>
      <trkpt lat="43.73865" lon="6.38791">
        <ele>795.9763</ele>
        <time>2022-05-01T01:06:22.444Z</time>
      </trkpt>
      <trkpt lat="43.73788" lon="6.3883">
        <ele>795.659654</ele>
        <time>2022-05-01T01:06:34.672Z</time>
      </trkpt>
      <trkpt lat="43.73774" lon="6.38843">
        <ele>795.590855</ele>
        <time>2022-05-01T01:06:36.835Z</time>
      </trkpt>
      <trkpt lat="43.73485" lon="6.39361">
        <ele>786.17378</ele>
        <time>2022-05-01T01:07:28.917Z</time>
      </trkpt>
      <trkpt lat="43.73477" lon="6.39369">
        <ele>785.786566</ele>
        <time>2022-05-01T01:07:30.099Z</time>
      </trkpt>
      <trkpt lat="43.73456" lon="6.39368">
        <ele>784.977291</ele>
        <time>2022-05-01T01:07:32.066Z</time>
      </trkpt>
      <trkpt lat="43.73444" lon="6.39356">
        <ele>784.405805</ele>
        <time>2022-05-01T01:07:33.640Z</time>
      </trkpt>
      <trkpt lat="43.73425" lon="6.39279">
        <ele>782.111461</ele>
        <time>2022-05-01T01:07:39.161Z</time>
      </trkpt>
      <trkpt lat="43.73391" lon="6.39235">
        <ele>779.53389</ele>
        <time>2022-05-01T01:07:43.432Z</time>
      </trkpt>
      <trkpt lat="43.73234" lon="6.39089">
        <ele>766.766771</ele>
        <time>2022-05-01T01:08:00.416Z</time>
      </trkpt>
      <trkpt lat="43.73203" lon="6.39002">
        <ele>761.98568</ele>
        <time>2022-05-01T01:08:06.699Z</time>
      </trkpt>
      <trkpt lat="43.73176" lon="6.38987">
        <ele>759.952411</ele>
        <time>2022-05-01T01:08:09.411Z</time>
      </trkpt>
      <trkpt lat="43.73113" lon="6.38977">
        <ele>754.740302</ele>
        <time>2022-05-01T01:08:15.211Z</time>
      </trkpt>
      <trkpt lat="43.73065" lon="6.38948">
        <ele>748.823694</ele>
        <time>2022-05-01T01:08:19.869Z</time>
      </trkpt>
      <trkpt lat="43.73005" lon="6.38903">
        <ele>741.192889</ele>
        <time>2022-05-01T01:08:25.591Z</time>
      </trkpt>
      <trkpt lat="43.7297" lon="6.38839">
        <ele>734.117008</ele>
        <time>2022-05-01T01:08:30.417Z</time>
      </trkpt>
      <trkpt lat="43.72969" lon="6.38806">
        <ele>730.833989</ele>
        <time>2022-05-01T01:08:32.367Z</time>
      </trkpt>
      <trkpt lat="43.72981" lon="6.38768">
        <ele>726.734167</ele>
        <time>2022-05-01T01:08:34.825Z</time>
      </trkpt>
      <trkpt lat="43.73052" lon="6.3865">
        <ele>711.923534</ele>
        <time>2022-05-01T01:08:44.143Z</time>
      </trkpt>
      <trkpt lat="43.73068" lon="6.38642">
        <ele>712.065584</ele>
        <time>2022-05-01T01:08:45.623Z</time>
      </trkpt>
      <trkpt lat="43.73089" lon="6.38654">
        <ele>712.260127</ele>
        <time>2022-05-01T01:08:47.663Z</time>
      </trkpt>
      <trkpt lat="43.73143" lon="6.38725">
        <ele>712.905676</ele>
        <time>2022-05-01T01:08:59.416Z</time>
      </trkpt>
      <trkpt lat="43.7316" lon="6.38737">
        <ele>713.063813</ele>
        <time>2022-05-01T01:09:07.523Z</time>
      </trkpt>
      <trkpt lat="43.73205" lon="6.38725">
        <ele>713.692314</ele>
        <time>2022-05-01T01:09:33.871Z</time>
      </trkpt>
      <trkpt lat="43.73278" lon="6.38738">
        <ele>722.057387</ele>
        <time>2022-05-01T01:10:16.411Z</time>
      </trkpt>
      <trkpt lat="43.73289" lon="6.3873">
        <ele>723.434339</ele>
        <time>2022-05-01T01:10:24.426Z</time>
      </trkpt>
      <trkpt lat="43.73299" lon="6.3871">
        <ele>725.418104</ele>
        <time>2022-05-01T01:10:36.304Z</time>
      </trkpt>
      <trkpt lat="43.733" lon="6.3862">
        <ele>732.731978</ele>
        <time>2022-05-01T01:11:17.481Z</time>
      </trkpt>
      <trkpt lat="43.73295" lon="6.38566">
        <ele>737.261383</ele>
        <time>2022-05-01T01:11:41.443Z</time>
      </trkpt>
      <trkpt lat="43.73305" lon="6.38507">
        <ele>742.171859</ele>
        <time>2022-05-01T01:12:07.375Z</time>
      </trkpt>
      <trkpt lat="43.73302" lon="6.38426">
        <ele>748.846478</ele>
        <time>2022-05-01T01:12:41.683Z</time>
      </trkpt>
      <trkpt lat="43.73293" lon="6.38335">
        <ele>756.335474</ele>
        <time>2022-05-01T01:13:24.142Z</time>
      </trkpt>
      <trkpt lat="43.73321" lon="6.38106">
        <ele>774.043144</ele>
        <time>2022-05-01T01:14:58.485Z</time>
      </trkpt>
      <trkpt lat="43.73316" lon="6.37927">
        <ele>785.051508</ele>
        <time>2022-05-01T01:16:10.572Z</time>
      </trkpt>
      <trkpt lat="43.73266" lon="6.3772">
        <ele>790.425171</ele>
        <time>2022-05-01T01:16:59.244Z</time>
      </trkpt>
      <trkpt lat="43.73266" lon="6.37705">
        <ele>790.580301</ele>
        <time>2022-05-01T01:17:00.205Z</time>
      </trkpt>
      <trkpt lat="43.73287" lon="6.37674">
        <ele>791.017107</ele>
        <time>2022-05-01T01:17:05.947Z</time>
      </trkpt>
      <trkpt lat="43.73299" lon="6.37632">
        <ele>790.772065</ele>
        <time>2022-05-01T01:17:09.466Z</time>
      </trkpt>
      <trkpt lat="43.73313" lon="6.37617">
        <ele>789.422684</ele>
        <time>2022-05-01T01:17:11.054Z</time>
      </trkpt>
      <trkpt lat="43.73326" lon="6.37613">
        <ele>788.390231</ele>
        <time>2022-05-01T01:17:12.428Z</time>
      </trkpt>
      <trkpt lat="43.73341" lon="6.37616">
        <ele>787.25703</ele>
        <time>2022-05-01T01:17:13.695Z</time>
      </trkpt>
      <trkpt lat="43.7337" lon="6.37656">
        <ele>784.157187</ele>
        <time>2022-05-01T01:17:17.233Z</time>
      </trkpt>
      <trkpt lat="43.73393" lon="6.37673">
        <ele>782.190213</ele>
        <time>2022-05-01T01:17:19.485Z</time>
      </trkpt>
      <trkpt lat="43.73482" lon="6.37697">
        <ele>778.249639</ele>
        <time>2022-05-01T01:17:27.370Z</time>
      </trkpt>
      <trkpt lat="43.73561" lon="6.37686">
        <ele>779.403907</ele>
        <time>2022-05-01T01:17:36.582Z</time>
      </trkpt>
      <trkpt lat="43.73631" lon="6.37686">
        <ele>780.705049</ele>
        <time>2022-05-01T01:18:09.965Z</time>
      </trkpt>
      <trkpt lat="43.73672" lon="6.37693">
        <ele>788.683597</ele>
        <time>2022-05-01T01:18:41.106Z</time>
      </trkpt>
      <trkpt lat="43.73734" lon="6.37666">
        <ele>800.901151</ele>
        <time>2022-05-01T01:19:41.739Z</time>
      </trkpt>
      <trkpt lat="43.73759" lon="6.37638">
        <ele>807.179724</ele>
        <time>2022-05-01T01:20:16.186Z</time>
      </trkpt>
      <trkpt lat="43.73787" lon="6.37571">
        <ele>818.290253</ele>
        <time>2022-05-01T01:21:15.486Z</time>
      </trkpt>
      <trkpt lat="43.73873" lon="6.37508">
        <ele>839.679659</ele>
        <time>2022-05-01T01:22:58.583Z</time>
      </trkpt>
      <trkpt lat="43.73978" lon="6.37386">
        <ele>866.511579</ele>
        <time>2022-05-01T01:25:07.239Z</time>
      </trkpt>
      <trkpt lat="43.74026" lon="6.37342">
        <ele>876.32758</ele>
        <time>2022-05-01T01:25:58.053Z</time>
      </trkpt>
      <trkpt lat="43.74024" lon="6.37331">
        <ele>877.760447</ele>
        <time>2022-05-01T01:26:05.441Z</time>
      </trkpt>
      <trkpt lat="43.74018" lon="6.37324">
        <ele>879.210007</ele>
        <time>2022-05-01T01:26:10.411Z</time>
      </trkpt>
      <trkpt lat="43.73992" lon="6.3732">
        <ele>883.60635</ele>
        <time>2022-05-01T01:26:32.600Z</time>
      </trkpt>
      <trkpt lat="43.73934" lon="6.37289">
        <ele>888.215858</ele>
        <time>2022-05-01T01:27:05.379Z</time>
      </trkpt>
      <trkpt lat="43.73904" lon="6.37284">
        <ele>889.98739</ele>
        <time>2022-05-01T01:27:14.111Z</time>
      </trkpt>
      <trkpt lat="43.73899" lon="6.37271">
        <ele>890.587346</ele>
        <time>2022-05-01T01:27:24.919Z</time>
      </trkpt>
      <trkpt lat="43.73919" lon="6.37234">
        <ele>892.504689</ele>
        <time>2022-05-01T01:27:33.188Z</time>
      </trkpt>
      <trkpt lat="43.73929" lon="6.37187">
        <ele>894.581654</ele>
        <time>2022-05-01T01:27:40.214Z</time>
      </trkpt>
      <trkpt lat="43.73919" lon="6.37132">
        <ele>894.249263</ele>
        <time>2022-05-01T01:27:47.278Z</time>
      </trkpt>
      <trkpt lat="43.73795" lon="6.37051">
        <ele>886.905354</ele>
        <time>2022-05-01T01:27:59.792Z</time>
      </trkpt>
      <trkpt lat="43.73764" lon="6.37046">
        <ele>885.015634</ele>
        <time>2022-05-01T01:28:02.517Z</time>
      </trkpt>
      <trkpt lat="43.73701" lon="6.37048">
        <ele>880.573431</ele>
        <time>2022-05-01T01:28:08.052Z</time>
      </trkpt>
      <trkpt lat="43.73646" lon="6.37068">
        <ele>876.615096</ele>
        <time>2022-05-01T01:28:13.002Z</time>
      </trkpt>
      <trkpt lat="43.73575" lon="6.37104">
        <ele>873.216804</ele>
        <time>2022-05-01T01:28:20.189Z</time>
      </trkpt>
      <trkpt lat="43.73533" lon="6.37112">
        <ele>873.119048</ele>
        <time>2022-05-01T01:28:24.640Z</time>
      </trkpt>
      <trkpt lat="43.73487" lon="6.37122">
        <ele>873.009854</ele>
        <time>2022-05-01T01:28:33.252Z</time>
      </trkpt>
      <trkpt lat="43.73429" lon="6.37146">
        <ele>872.871277</ele>
        <time>2022-05-01T01:28:48.063Z</time>
      </trkpt>
      <trkpt lat="43.73332" lon="6.37206">
        <ele>876.531535</ele>
        <time>2022-05-01T01:29:22.427Z</time>
      </trkpt>
      <trkpt lat="43.73272" lon="6.37264">
        <ele>879.085891</ele>
        <time>2022-05-01T01:29:42.653Z</time>
      </trkpt>
      <trkpt lat="43.73247" lon="6.3732">
        <ele>881.260535</ele>
        <time>2022-05-01T01:29:54.111Z</time>
      </trkpt>
      <trkpt lat="43.73233" lon="6.37325">
        <ele>881.947868</ele>
        <time>2022-05-01T01:29:57.582Z</time>
      </trkpt>
      <trkpt lat="43.73225" lon="6.37313">
        <ele>882.474732</ele>
        <time>2022-05-01T01:30:00.610Z</time>
      </trkpt>
      <trkpt lat="43.73226" lon="6.37301">
        <ele>882.902781</ele>
        <time>2022-05-01T01:30:03.047Z</time>
      </trkpt>
      <trkpt lat="43.73247" lon="6.37281">
        <ele>884.043955</ele>
        <time>2022-05-01T01:30:09.876Z</time>
      </trkpt>
      <trkpt lat="43.73297" lon="6.37182">
        <ele>889.011911</ele>
        <time>2022-05-01T01:30:43.812Z</time>
      </trkpt>
      <trkpt lat="43.73368" lon="6.37088">
        <ele>900.296255</ele>
        <time>2022-05-01T01:31:44.204Z</time>
      </trkpt>
      <trkpt lat="43.7339" lon="6.37051">
        <ele>904.283188</ele>
        <time>2022-05-01T01:32:07.802Z</time>
      </trkpt>
      <trkpt lat="43.73428" lon="6.36988">
        <ele>911.603556</ele>
        <time>2022-05-01T01:32:50.153Z</time>
      </trkpt>
      <trkpt lat="43.73488" lon="6.36841">
        <ele>928.147999</ele>
        <time>2022-05-01T01:34:12.261Z</time>
      </trkpt>
      <trkpt lat="43.73551" lon="6.36735">
        <ele>940.965956</ele>
        <time>2022-05-01T01:35:25.007Z</time>
      </trkpt>
      <trkpt lat="43.73555" lon="6.36704">
        <ele>943.801617</ele>
        <time>2022-05-01T01:35:40.933Z</time>
      </trkpt>
      <trkpt lat="43.73551" lon="6.36667">
        <ele>947.214377</ele>
        <time>2022-05-01T01:36:00.307Z</time>
      </trkpt>
      <trkpt lat="43.73547" lon="6.36632">
        <ele>950.386931</ele>
        <time>2022-05-01T01:36:15.768Z</time>
      </trkpt>
      <trkpt lat="43.73536" lon="6.3659">
        <ele>954.430741</ele>
        <time>2022-05-01T01:36:34.179Z</time>
      </trkpt>
      <trkpt lat="43.73537" lon="6.36551">
        <ele>955.230388</ele>
        <time>2022-05-01T01:36:48.193Z</time>
      </trkpt>
      <trkpt lat="43.73538" lon="6.36521">
        <ele>955.365636</ele>
        <time>2022-05-01T01:36:57.866Z</time>
      </trkpt>
      <trkpt lat="43.73534" lon="6.36489">
        <ele>955.514902</ele>
        <time>2022-05-01T01:37:06.288Z</time>
      </trkpt>
      <trkpt lat="43.73501" lon="6.36388">
        <ele>956.01849</ele>
        <time>2022-05-01T01:37:15.854Z</time>
      </trkpt>
      <trkpt lat="43.73486" lon="6.36363">
        <ele>956.16995</ele>
        <time>2022-05-01T01:37:18.010Z</time>
      </trkpt>
      <trkpt lat="43.73467" lon="6.36353">
        <ele>955.025275</ele>
        <time>2022-05-01T01:37:19.734Z</time>
      </trkpt>
      <trkpt lat="43.73456" lon="6.36351">
        <ele>953.912229</ele>
        <time>2022-05-01T01:37:20.704Z</time>
      </trkpt>
      <trkpt lat="43.73376" lon="6.36352">
        <ele>945.988944</ele>
        <time>2022-05-01T01:37:27.529Z</time>
      </trkpt>
      <trkpt lat="43.73281" lon="6.36364">
        <ele>936.608348</ele>
        <time>2022-05-01T01:37:35.696Z</time>
      </trkpt>
      <trkpt lat="43.73058" lon="6.36431">
        <ele>915.742839</ele>
        <time>2022-05-01T01:37:55.467Z</time>
      </trkpt>
      <trkpt lat="43.72911" lon="6.36453">
        <ele>904.252425</ele>
        <time>2022-05-01T01:38:08.585Z</time>
      </trkpt>
      <trkpt lat="43.72845" lon="6.36453">
        <ele>900.048531</ele>
        <time>2022-05-01T01:38:14.639Z</time>
      </trkpt>
      <trkpt lat="43.72811" lon="6.36468">
        <ele>897.833177</ele>
        <time>2022-05-01T01:38:17.899Z</time>
      </trkpt>
      <trkpt lat="43.72779" lon="6.36501">
        <ele>895.326349</ele>
        <time>2022-05-01T01:38:21.640Z</time>
      </trkpt>
      <trkpt lat="43.72758" lon="6.36495">
        <ele>894.120545</ele>
        <time>2022-05-01T01:38:23.652Z</time>
      </trkpt>
      <trkpt lat="43.72748" lon="6.36471">
        <ele>892.970333</ele>
        <time>2022-05-01T01:38:25.559Z</time>
      </trkpt>
      <trkpt lat="43.72756" lon="6.3644">
        <ele>891.613067</ele>
        <time>2022-05-01T01:38:27.812Z</time>
      </trkpt>
      <trkpt lat="43.72878" lon="6.36269">
        <ele>881.660062</ele>
        <time>2022-05-01T01:38:43.625Z</time>
      </trkpt>
      <trkpt lat="43.72971" lon="6.36146">
        <ele>874.108792</ele>
        <time>2022-05-01T01:38:55.560Z</time>
      </trkpt>
      <trkpt lat="43.72985" lon="6.3612">
        <ele>872.808337</ele>
        <time>2022-05-01T01:38:57.708Z</time>
      </trkpt>
      <trkpt lat="43.73012" lon="6.36038">
        <ele>869.164735</ele>
        <time>2022-05-01T01:39:03.778Z</time>
      </trkpt>
      <trkpt lat="43.73018" lon="6.35955">
        <ele>865.814416</ele>
        <time>2022-05-01T01:39:09.395Z</time>
      </trkpt>
      <trkpt lat="43.7303" lon="6.35769">
        <ele>858.897123</ele>
        <time>2022-05-01T01:39:21.885Z</time>
      </trkpt>
      <trkpt lat="43.73021" lon="6.35714">
        <ele>856.826231</ele>
        <time>2022-05-01T01:39:25.870Z</time>
      </trkpt>
      <trkpt lat="43.73022" lon="6.35676">
        <ele>855.464612</ele>
        <time>2022-05-01T01:39:28.465Z</time>
      </trkpt>
      <trkpt lat="43.7304" lon="6.35606">
        <ele>853.045068</ele>
        <time>2022-05-01T01:39:33.710Z</time>
      </trkpt>
      <trkpt lat="43.73108" lon="6.3545">
        <ele>847.220079</ele>
        <time>2022-05-01T01:39:46.315Z</time>
      </trkpt>
      <trkpt lat="43.73149" lon="6.35381">
        <ele>844.194129</ele>
        <time>2022-05-01T01:39:52.556Z</time>
      </trkpt>
      <trkpt lat="43.73191" lon="6.35324">
        <ele>841.452811</ele>
        <time>2022-05-01T01:39:58.117Z</time>
      </trkpt>
      <trkpt lat="43.73232" lon="6.35282">
        <ele>839.021611</ele>
        <time>2022-05-01T01:40:02.991Z</time>
      </trkpt>
      <trkpt lat="43.73271" lon="6.35264">
        <ele>836.71316</ele>
        <time>2022-05-01T01:40:06.816Z</time>
      </trkpt>
      <trkpt lat="43.73284" lon="6.35257">
        <ele>835.897968</ele>
        <time>2022-05-01T01:40:08.152Z</time>
      </trkpt>
      <trkpt lat="43.73455" lon="6.35126">
        <ele>822.252137</ele>
        <time>2022-05-01T01:40:26.069Z</time>
      </trkpt>
      <trkpt lat="43.73504" lon="6.35095">
        <ele>817.192622</ele>
        <time>2022-05-01T01:40:30.697Z</time>
      </trkpt>
      <trkpt lat="43.73517" lon="6.35079">
        <ele>815.541992</ele>
        <time>2022-05-01T01:40:32.172Z</time>
      </trkpt>
      <trkpt lat="43.73553" lon="6.3502">
        <ele>810.162181</ele>
        <time>2022-05-01T01:40:36.876Z</time>
      </trkpt>
      <trkpt lat="43.73622" lon="6.34881">
        <ele>797.827466</ele>
        <time>2022-05-01T01:40:47.165Z</time>
      </trkpt>
      <trkpt lat="43.73645" lon="6.34788">
        <ele>793.064838</ele>
        <time>2022-05-01T01:40:53.924Z</time>
      </trkpt>
      <trkpt lat="43.73671" lon="6.34736">
        <ele>792.466367</ele>
        <time>2022-05-01T01:40:59.317Z</time>
      </trkpt>
      <trkpt lat="43.73684" lon="6.34671">
        <ele>791.833683</ele>
        <time>2022-05-01T01:41:09.323Z</time>
      </trkpt>
      <trkpt lat="43.73709" lon="6.34618">
        <ele>791.230614</ele>
        <time>2022-05-01T01:41:16.226Z</time>
      </trkpt>
      <trkpt lat="43.73715" lon="6.34596">
        <ele>790.882736</ele>
        <time>2022-05-01T01:41:18.064Z</time>
      </trkpt>
      <trkpt lat="43.73712" lon="6.34565">
        <ele>789.932816</ele>
        <time>2022-05-01T01:41:22.276Z</time>
      </trkpt>
      <trkpt lat="43.73709" lon="6.34541">
        <ele>789.22464</ele>
        <time>2022-05-01T01:41:24.240Z</time>
      </trkpt>
      <trkpt lat="43.73715" lon="6.34527">
        <ele>788.757936</ele>
        <time>2022-05-01T01:41:26.697Z</time>
      </trkpt>
      <trkpt lat="43.73773" lon="6.34464">
        <ele>785.693955</ele>
        <time>2022-05-01T01:41:33.623Z</time>
      </trkpt>
      <trkpt lat="43.73781" lon="6.34449">
        <ele>785.142073</ele>
        <time>2022-05-01T01:41:34.789Z</time>
      </trkpt>
      <trkpt lat="43.7379" lon="6.34407">
        <ele>783.835546</ele>
        <time>2022-05-01T01:41:37.608Z</time>
      </trkpt>
      <trkpt lat="43.73841" lon="6.34315">
        <ele>778.785656</ele>
        <time>2022-05-01T01:41:45.226Z</time>
      </trkpt>
      <trkpt lat="43.7386" lon="6.34273">
        <ele>776.57985</ele>
        <time>2022-05-01T01:41:48.871Z</time>
      </trkpt>
      <trkpt lat="43.73878" lon="6.34197">
        <ele>773.04246</ele>
        <time>2022-05-01T01:41:54.397Z</time>
      </trkpt>
      <trkpt lat="43.73925" lon="6.34104">
        <ele>762.780208</ele>
        <time>2022-05-01T01:42:01.397Z</time>
      </trkpt>
      <trkpt lat="43.73943" lon="6.34088">
        <ele>759.964489</ele>
        <time>2022-05-01T01:42:03.181Z</time>
      </trkpt>
      <trkpt lat="43.74005" lon="6.34088">
        <ele>751.844951</ele>
        <time>2022-05-01T01:42:08.231Z</time>
      </trkpt>
      <trkpt lat="43.74131" lon="6.34091">
        <ele>745.100574</ele>
        <time>2022-05-01T01:42:19.061Z</time>
      </trkpt>
      <trkpt lat="43.74155" lon="6.34077">
        <ele>744.164673</ele>
        <time>2022-05-01T01:42:21.573Z</time>
      </trkpt>
      <trkpt lat="43.74174" lon="6.34053">
        <ele>743.19838</ele>
        <time>2022-05-01T01:42:28.231Z</time>
      </trkpt>
      <trkpt lat="43.74179" lon="6.34019">
        <ele>742.493068</ele>
        <time>2022-05-01T01:42:48.944Z</time>
      </trkpt>
      <trkpt lat="43.74173" lon="6.33995">
        <ele>746.065849</ele>
        <time>2022-05-01T01:42:58.508Z</time>
      </trkpt>
      <trkpt lat="43.74136" lon="6.33925">
        <ele>758.223586</ele>
        <time>2022-05-01T01:43:59.727Z</time>
      </trkpt>
      <trkpt lat="43.74127" lon="6.33889">
        <ele>763.495563</ele>
        <time>2022-05-01T01:44:29.132Z</time>
      </trkpt>
      <trkpt lat="43.74128" lon="6.33863">
        <ele>767.08333</ele>
        <time>2022-05-01T01:44:48.809Z</time>
      </trkpt>
      <trkpt lat="43.74134" lon="6.3384">
        <ele>770.521636</ele>
        <time>2022-05-01T01:45:08.123Z</time>
      </trkpt>
      <trkpt lat="43.7417" lon="6.33776">
        <ele>780.278728</ele>
        <time>2022-05-01T01:45:50.597Z</time>
      </trkpt>
      <trkpt lat="43.74191" lon="6.33726">
        <ele>785.815347</ele>
        <time>2022-05-01T01:46:20.559Z</time>
      </trkpt>
      <trkpt lat="43.74214" lon="6.33651">
        <ele>793.5438</ele>
        <time>2022-05-01T01:46:59.422Z</time>
      </trkpt>
      <trkpt lat="43.74227" lon="6.33572">
        <ele>801.082956</ele>
        <time>2022-05-01T01:47:30.378Z</time>
      </trkpt>
      <trkpt lat="43.743" lon="6.3336">
        <ele>819.106747</ele>
        <time>2022-05-01T01:49:08.885Z</time>
      </trkpt>
      <trkpt lat="43.74311" lon="6.33288">
        <ele>823.480619</ele>
        <time>2022-05-01T01:49:39.930Z</time>
      </trkpt>
      <trkpt lat="43.74349" lon="6.33179">
        <ele>830.425158</ele>
        <time>2022-05-01T01:50:20.531Z</time>
      </trkpt>
      <trkpt lat="43.74361" lon="6.33125">
        <ele>833.709264</ele>
        <time>2022-05-01T01:50:34.880Z</time>
      </trkpt>
      <trkpt lat="43.74385" lon="6.33075">
        <ele>836.21939</ele>
        <time>2022-05-01T01:50:49.913Z</time>
      </trkpt>
      <trkpt lat="43.74387" lon="6.33031">
        <ele>837.992931</ele>
        <time>2022-05-01T01:51:01.360Z</time>
      </trkpt>
      <trkpt lat="43.74412" lon="6.32978">
        <ele>840.549857</ele>
        <time>2022-05-01T01:51:17.977Z</time>
      </trkpt>
      <trkpt lat="43.7442" lon="6.32936">
        <ele>842.300107</ele>
        <time>2022-05-01T01:51:29.024Z</time>
      </trkpt>
      <trkpt lat="43.74404" lon="6.32869">
        <ele>845.672884</ele>
        <time>2022-05-01T01:51:48.491Z</time>
      </trkpt>
      <trkpt lat="43.74424" lon="6.32816">
        <ele>849.183463</ele>
        <time>2022-05-01T01:52:08.135Z</time>
      </trkpt>
      <trkpt lat="43.74422" lon="6.32792">
        <ele>850.626568</ele>
        <time>2022-05-01T01:52:16.537Z</time>
      </trkpt>
      <trkpt lat="43.74407" lon="6.3273">
        <ele>854.489277</ele>
        <time>2022-05-01T01:52:40.222Z</time>
      </trkpt>
      <trkpt lat="43.74406" lon="6.32683">
        <ele>857.282568</ele>
        <time>2022-05-01T01:52:58.334Z</time>
      </trkpt>
      <trkpt lat="43.74413" lon="6.32658">
        <ele>858.843881</ele>
        <time>2022-05-01T01:53:09.167Z</time>
      </trkpt>
      <trkpt lat="43.74442" lon="6.32619">
        <ele>861.140657</ele>
        <time>2022-05-01T01:53:30.059Z</time>
      </trkpt>
      <trkpt lat="43.74469" lon="6.3253">
        <ele>865.146152</ele>
        <time>2022-05-01T01:54:05.286Z</time>
      </trkpt>
      <trkpt lat="43.74471" lon="6.32506">
        <ele>866.140708</ele>
        <time>2022-05-01T01:54:13.048Z</time>
      </trkpt>
      <trkpt lat="43.7445" lon="6.32442">
        <ele>869.03052</ele>
        <time>2022-05-01T01:54:23.944Z</time>
      </trkpt>
      <trkpt lat="43.74453" lon="6.32411">
        <ele>866.964106</ele>
        <time>2022-05-01T01:54:26.254Z</time>
      </trkpt>
      <trkpt lat="43.74466" lon="6.3237">
        <ele>863.807413</ele>
        <time>2022-05-01T01:54:29.201Z</time>
      </trkpt>
      <trkpt lat="43.74481" lon="6.3235">
        <ele>861.908366</ele>
        <time>2022-05-01T01:54:30.903Z</time>
      </trkpt>
      <trkpt lat="43.745" lon="6.32345">
        <ele>859.985887</ele>
        <time>2022-05-01T01:54:32.620Z</time>
      </trkpt>
      <trkpt lat="43.74587" lon="6.32359">
        <ele>851.602455</ele>
        <time>2022-05-01T01:54:39.948Z</time>
      </trkpt>
      <trkpt lat="43.74659" lon="6.32342">
        <ele>844.557973</ele>
        <time>2022-05-01T01:54:45.998Z</time>
      </trkpt>
      <trkpt lat="43.74668" lon="6.32329">
        <ele>843.248665</ele>
        <time>2022-05-01T01:54:47.136Z</time>
      </trkpt>
      <trkpt lat="43.74677" lon="6.32281">
        <ele>839.748322</ele>
        <time>2022-05-01T01:54:50.230Z</time>
      </trkpt>
      <trkpt lat="43.74683" lon="6.32272">
        <ele>838.843337</ele>
        <time>2022-05-01T01:54:51.045Z</time>
      </trkpt>
      <trkpt lat="43.74712" lon="6.32267">
        <ele>836.054515</ele>
        <time>2022-05-01T01:54:53.659Z</time>
      </trkpt>
      <trkpt lat="43.74745" lon="6.32285">
        <ele>834.066297</ele>
        <time>2022-05-01T01:54:57.207Z</time>
      </trkpt>
      <trkpt lat="43.74758" lon="6.32284">
        <ele>833.860142</ele>
        <time>2022-05-01T01:54:58.620Z</time>
      </trkpt>
      <trkpt lat="43.74782" lon="6.32257">
        <ele>833.388406</ele>
        <time>2022-05-01T01:55:03.008Z</time>
      </trkpt>
      <trkpt lat="43.74803" lon="6.32248">
        <ele>833.051177</ele>
        <time>2022-05-01T01:55:06.705Z</time>
      </trkpt>
      <trkpt lat="43.74824" lon="6.32219">
        <ele>832.591223</ele>
        <time>2022-05-01T01:55:10.304Z</time>
      </trkpt>
      <trkpt lat="43.74883" lon="6.32181">
        <ele>831.592459</ele>
        <time>2022-05-01T01:55:18.196Z</time>
      </trkpt>
      <trkpt lat="43.74927" lon="6.32173">
        <ele>831.734119</ele>
        <time>2022-05-01T01:55:23.927Z</time>
      </trkpt>
      <trkpt lat="43.74953" lon="6.32162">
        <ele>831.833162</ele>
        <time>2022-05-01T01:55:27.435Z</time>
      </trkpt>
      <trkpt lat="43.74961" lon="6.32147">
        <ele>831.882481</ele>
        <time>2022-05-01T01:55:29.150Z</time>
      </trkpt>
      <trkpt lat="43.74967" lon="6.32104">
        <ele>831.995301</ele>
        <time>2022-05-01T01:55:34.278Z</time>
      </trkpt>
      <trkpt lat="43.74973" lon="6.32095">
        <ele>832.028403</ele>
        <time>2022-05-01T01:55:35.408Z</time>
      </trkpt>
      <trkpt lat="43.74993" lon="6.32095">
        <ele>832.099631</ele>
        <time>2022-05-01T01:55:38.669Z</time>
      </trkpt>
      <trkpt lat="43.75024" lon="6.32108">
        <ele>832.216837</ele>
        <time>2022-05-01T01:55:44.431Z</time>
      </trkpt>
      <trkpt lat="43.75064" lon="6.32144">
        <ele>835.16238</ele>
        <time>2022-05-01T01:55:58.390Z</time>
      </trkpt>
      <trkpt lat="43.75094" lon="6.3214">
        <ele>837.169434</ele>
        <time>2022-05-01T01:56:11.364Z</time>
      </trkpt>
      <trkpt lat="43.75111" lon="6.32124">
        <ele>838.526149</ele>
        <time>2022-05-01T01:56:20.309Z</time>
      </trkpt>
      <trkpt lat="43.75117" lon="6.32109">
        <ele>839.371513</ele>
        <time>2022-05-01T01:56:26.444Z</time>
      </trkpt>
      <trkpt lat="43.75122" lon="6.32058">
        <ele>841.798163</ele>
        <time>2022-05-01T01:56:43.580Z</time>
      </trkpt>
      <trkpt lat="43.75131" lon="6.31938">
        <ele>849.318265</ele>
        <time>2022-05-01T01:57:30.467Z</time>
      </trkpt>
      <trkpt lat="43.75125" lon="6.3171">
        <ele>863.897996</ele>
        <time>2022-05-01T01:59:03.520Z</time>
      </trkpt>
      <trkpt lat="43.75125" lon="6.31676">
        <ele>865.172772</ele>
        <time>2022-05-01T01:59:12.823Z</time>
      </trkpt>
      <trkpt lat="43.75131" lon="6.31635">
        <ele>866.797628</ele>
        <time>2022-05-01T01:59:23.452Z</time>
      </trkpt>
      <trkpt lat="43.7514" lon="6.31616">
        <ele>867.639843</ele>
        <time>2022-05-01T01:59:28.481Z</time>
      </trkpt>
      <trkpt lat="43.75173" lon="6.31569">
        <ele>870.126772</ele>
        <time>2022-05-01T01:59:41.259Z</time>
      </trkpt>
      <trkpt lat="43.75214" lon="6.31474">
        <ele>872.404573</ele>
        <time>2022-05-01T01:59:58.393Z</time>
      </trkpt>
      <trkpt lat="43.7526" lon="6.31403">
        <ele>873.636662</ele>
        <time>2022-05-01T02:00:12.459Z</time>
      </trkpt>
      <trkpt lat="43.75263" lon="6.31377">
        <ele>873.968293</ele>
        <time>2022-05-01T02:00:16.182Z</time>
      </trkpt>
      <trkpt lat="43.75239" lon="6.3133">
        <ele>874.880365</ele>
        <time>2022-05-01T02:00:24.722Z</time>
      </trkpt>
      <trkpt lat="43.7524" lon="6.31318">
        <ele>875.334187</ele>
        <time>2022-05-01T02:00:26.986Z</time>
      </trkpt>
      <trkpt lat="43.7525" lon="6.31309">
        <ele>875.912393</ele>
        <time>2022-05-01T02:00:29.613Z</time>
      </trkpt>
      <trkpt lat="43.75354" lon="6.31274">
        <ele>881.243797</ele>
        <time>2022-05-01T02:01:02.811Z</time>
      </trkpt>
      <trkpt lat="43.75371" lon="6.31255">
        <ele>882.28557</ele>
        <time>2022-05-01T02:01:12.531Z</time>
      </trkpt>
      <trkpt lat="43.75379" lon="6.31234">
        <ele>883.160016</ele>
        <time>2022-05-01T02:01:21.645Z</time>
      </trkpt>
      <trkpt lat="43.754" lon="6.31154">
        <ele>889.130151</ele>
        <time>2022-05-01T02:01:53.929Z</time>
      </trkpt>
      <trkpt lat="43.75405" lon="6.31053">
        <ele>896.716498</ele>
        <time>2022-05-01T02:02:37.097Z</time>
      </trkpt>
      <trkpt lat="43.75399" lon="6.3097">
        <ele>902.827013</ele>
        <time>2022-05-01T02:03:14.108Z</time>
      </trkpt>
      <trkpt lat="43.75382" lon="6.30908">
        <ele>906.765755</ele>
        <time>2022-05-01T02:03:42.851Z</time>
      </trkpt>
      <trkpt lat="43.7538" lon="6.30888">
        <ele>907.976801</ele>
        <time>2022-05-01T02:03:50.245Z</time>
      </trkpt>
      <trkpt lat="43.75383" lon="6.30859">
        <ele>909.672371</ele>
        <time>2022-05-01T02:04:00.758Z</time>
      </trkpt>
      <trkpt lat="43.75414" lon="6.30774">
        <ele>915.33717</ele>
        <time>2022-05-01T02:04:28.018Z</time>
      </trkpt>
      <trkpt lat="43.75429" lon="6.30571">
        <ele>924.619898</ele>
        <time>2022-05-01T02:05:21.446Z</time>
      </trkpt>
      <trkpt lat="43.75469" lon="6.30466">
        <ele>930.0605</ele>
        <time>2022-05-01T02:05:58.734Z</time>
      </trkpt>
      <trkpt lat="43.75487" lon="6.30348">
        <ele>936.122604</ele>
        <time>2022-05-01T02:06:36.764Z</time>
      </trkpt>
      <trkpt lat="43.75497" lon="6.30328">
        <ele>937.360779</ele>
        <time>2022-05-01T02:06:43.673Z</time>
      </trkpt>
      <trkpt lat="43.7554" lon="6.30278">
        <ele>941.098172</ele>
        <time>2022-05-01T02:07:06.923Z</time>
      </trkpt>
      <trkpt lat="43.75552" lon="6.30257">
        <ele>942.232225</ele>
        <time>2022-05-01T02:07:15.467Z</time>
      </trkpt>
      <trkpt lat="43.75575" lon="6.30177">
        <ele>945.955546</ele>
        <time>2022-05-01T02:07:41.690Z</time>
      </trkpt>
      <trkpt lat="43.75603" lon="6.30127">
        <ele>948.64961</ele>
        <time>2022-05-01T02:07:57.052Z</time>
      </trkpt>
      <trkpt lat="43.75603" lon="6.30112">
        <ele>949.287414</ele>
        <time>2022-05-01T02:08:00.183Z</time>
      </trkpt>
      <trkpt lat="43.75599" lon="6.30099">
        <ele>949.891096</ele>
        <time>2022-05-01T02:08:05.078Z</time>
      </trkpt>
      <trkpt lat="43.75586" lon="6.30093">
        <ele>950.689747</ele>
        <time>2022-05-01T02:08:08.510Z</time>
      </trkpt>
      <trkpt lat="43.75574" lon="6.30102">
        <ele>951.616429</ele>
        <time>2022-05-01T02:08:12.553Z</time>
      </trkpt>
      <trkpt lat="43.75564" lon="6.30143">
        <ele>953.838321</ele>
        <time>2022-05-01T02:08:23.152Z</time>
      </trkpt>
      <trkpt lat="43.75535" lon="6.30191">
        <ele>957.066507</ele>
        <time>2022-05-01T02:08:45.942Z</time>
      </trkpt>
      <trkpt lat="43.75448" lon="6.30245">
        <ele>963.825908</ele>
        <time>2022-05-01T02:09:29.586Z</time>
      </trkpt>
      <trkpt lat="43.75434" lon="6.30259">
        <ele>964.888257</ele>
        <time>2022-05-01T02:09:39.243Z</time>
      </trkpt>
      <trkpt lat="43.75413" lon="6.30297">
        <ele>966.979567</ele>
        <time>2022-05-01T02:09:53.149Z</time>
      </trkpt>
      <trkpt lat="43.75398" lon="6.30304">
        <ele>967.984801</ele>
        <time>2022-05-01T02:09:57.955Z</time>
      </trkpt>
      <trkpt lat="43.75386" lon="6.30288">
        <ele>968.969881</ele>
        <time>2022-05-01T02:10:06.118Z</time>
      </trkpt>
      <trkpt lat="43.75389" lon="6.30269">
        <ele>969.840676</ele>
        <time>2022-05-01T02:10:10.972Z</time>
      </trkpt>
      <trkpt lat="43.75414" lon="6.30243">
        <ele>971.762738</ele>
        <time>2022-05-01T02:10:24.137Z</time>
      </trkpt>
      <trkpt lat="43.75451" lon="6.30186">
        <ele>974.948371</ele>
        <time>2022-05-01T02:10:44.038Z</time>
      </trkpt>
      <trkpt lat="43.75486" lon="6.30108">
        <ele>977.146197</ele>
        <time>2022-05-01T02:11:01.502Z</time>
      </trkpt>
      <trkpt lat="43.7555" lon="6.30021">
        <ele>980.124437</ele>
        <time>2022-05-01T02:11:23.570Z</time>
      </trkpt>
      <trkpt lat="43.75593" lon="6.29931">
        <ele>984.189255</ele>
        <time>2022-05-01T02:11:47.726Z</time>
      </trkpt>
      <trkpt lat="43.75607" lon="6.29882">
        <ele>986.392832</ele>
        <time>2022-05-01T02:12:02.289Z</time>
      </trkpt>
      <trkpt lat="43.7561" lon="6.29854">
        <ele>987.569015</ele>
        <time>2022-05-01T02:12:10.976Z</time>
      </trkpt>
      <trkpt lat="43.75606" lon="6.29805">
        <ele>989.644232</ele>
        <time>2022-05-01T02:12:27.099Z</time>
      </trkpt>
      <trkpt lat="43.75598" lon="6.29777">
        <ele>990.870987</ele>
        <time>2022-05-01T02:12:36.561Z</time>
      </trkpt>
      <trkpt lat="43.75573" lon="6.29734">
        <ele>993.580945</ele>
        <time>2022-05-01T02:12:54.851Z</time>
      </trkpt>
      <trkpt lat="43.75573" lon="6.29721">
        <ele>994.192907</ele>
        <time>2022-05-01T02:12:59.190Z</time>
      </trkpt>
      <trkpt lat="43.75618" lon="6.29664">
        <ele>998.312898</ele>
        <time>2022-05-01T02:13:25.719Z</time>
      </trkpt>
      <trkpt lat="43.75665" lon="6.29578">
        <ele>1003.496818</ele>
        <time>2022-05-01T02:13:56.637Z</time>
      </trkpt>
      <trkpt lat="43.75711" lon="6.29506">
        <ele>1006.925514</ele>
        <time>2022-05-01T02:14:20.815Z</time>
      </trkpt>
      <trkpt lat="43.75725" lon="6.29501">
        <ele>1007.638104</ele>
        <time>2022-05-01T02:14:25.185Z</time>
      </trkpt>
      <trkpt lat="43.75764" lon="6.29508">
        <ele>1009.609389</ele>
        <time>2022-05-01T02:14:37.834Z</time>
      </trkpt>
      <trkpt lat="43.75798" lon="6.29482">
        <ele>1011.505711</ele>
        <time>2022-05-01T02:14:49.906Z</time>
      </trkpt>
      <trkpt lat="43.75848" lon="6.29429">
        <ele>1016.602448</ele>
        <time>2022-05-01T02:15:13.385Z</time>
      </trkpt>
      <trkpt lat="43.75886" lon="6.29366">
        <ele>1021.847654</ele>
        <time>2022-05-01T02:15:41.095Z</time>
      </trkpt>
      <trkpt lat="43.75892" lon="6.29326">
        <ele>1024.479119</ele>
        <time>2022-05-01T02:15:58.126Z</time>
      </trkpt>
      <trkpt lat="43.75886" lon="6.29298">
        <ele>1026.359049</ele>
        <time>2022-05-01T02:16:12.185Z</time>
      </trkpt>
      <trkpt lat="43.75864" lon="6.29272">
        <ele>1029.153028</ele>
        <time>2022-05-01T02:16:33.273Z</time>
      </trkpt>
      <trkpt lat="43.75814" lon="6.29235">
        <ele>1035.391041</ele>
        <time>2022-05-01T02:17:09.889Z</time>
      </trkpt>
      <trkpt lat="43.75778" lon="6.2916">
        <ele>1042.709086</ele>
        <time>2022-05-01T02:17:49.845Z</time>
      </trkpt>
      <trkpt lat="43.75783" lon="6.29144">
        <ele>1044.032116</ele>
        <time>2022-05-01T02:17:57.689Z</time>
      </trkpt>
      <trkpt lat="43.75813" lon="6.29118">
        <ele>1048.049538</ele>
        <time>2022-05-01T02:18:15.951Z</time>
      </trkpt>
      <trkpt lat="43.7589" lon="6.29003">
        <ele>1055.194415</ele>
        <time>2022-05-01T02:19:03.557Z</time>
      </trkpt>
      <trkpt lat="43.75894" lon="6.28972">
        <ele>1056.620721</ele>
        <time>2022-05-01T02:19:10.019Z</time>
      </trkpt>
      <trkpt lat="43.75889" lon="6.28931">
        <ele>1058.546025</ele>
        <time>2022-05-01T02:19:19.320Z</time>
      </trkpt>
      <trkpt lat="43.75892" lon="6.28916">
        <ele>1059.24225</ele>
        <time>2022-05-01T02:19:22.713Z</time>
      </trkpt>
      <trkpt lat="43.75932" lon="6.28864">
        <ele>1062.368095</ele>
        <time>2022-05-01T02:19:43.139Z</time>
      </trkpt>
      <trkpt lat="43.75943" lon="6.28843">
        <ele>1063.467122</ele>
        <time>2022-05-01T02:19:51.248Z</time>
      </trkpt>
      <trkpt lat="43.75947" lon="6.28814">
        <ele>1064.659249</ele>
        <time>2022-05-01T02:20:00.025Z</time>
      </trkpt>
      <trkpt lat="43.75924" lon="6.28732">
        <ele>1068.265563</ele>
        <time>2022-05-01T02:20:26.688Z</time>
      </trkpt>
      <trkpt lat="43.75924" lon="6.28697">
        <ele>1069.668894</ele>
        <time>2022-05-01T02:20:36.190Z</time>
      </trkpt>
      <trkpt lat="43.75981" lon="6.28641">
        <ele>1070.887764</ele>
        <time>2022-05-01T02:20:55.091Z</time>
      </trkpt>
      <trkpt lat="43.76005" lon="6.28596">
        <ele>1071.59813</ele>
        <time>2022-05-01T02:21:03.128Z</time>
      </trkpt>
      <trkpt lat="43.76018" lon="6.2855">
        <ele>1072.23132</ele>
        <time>2022-05-01T02:21:08.927Z</time>
      </trkpt>
      <trkpt lat="43.76082" lon="6.28506">
        <ele>1072.518567</ele>
        <time>2022-05-01T02:21:17.687Z</time>
      </trkpt>
      <trkpt lat="43.76117" lon="6.28462">
        <ele>1072.161771</ele>
        <time>2022-05-01T02:21:24.082Z</time>
      </trkpt>
      <trkpt lat="43.76124" lon="6.28437">
        <ele>1072.010382</ele>
        <time>2022-05-01T02:21:26.322Z</time>
      </trkpt>
      <trkpt lat="43.76118" lon="6.28337">
        <ele>1071.465724</ele>
        <time>2022-05-01T02:21:36.197Z</time>
      </trkpt>
      <trkpt lat="43.76122" lon="6.28327">
        <ele>1071.310906</ele>
        <time>2022-05-01T02:21:37.775Z</time>
      </trkpt>
      <trkpt lat="43.76128" lon="6.2832">
        <ele>1071.140916</ele>
        <time>2022-05-01T02:21:38.773Z</time>
      </trkpt>
      <trkpt lat="43.76159" lon="6.28319">
        <ele>1070.442384</ele>
        <time>2022-05-01T02:21:42.112Z</time>
      </trkpt>
      <trkpt lat="43.76191" lon="6.28308">
        <ele>1069.685575</ele>
        <time>2022-05-01T02:21:45.527Z</time>
      </trkpt>
      <trkpt lat="43.76224" lon="6.28266">
        <ele>1068.671217</ele>
        <time>2022-05-01T02:21:50.095Z</time>
      </trkpt>
      <trkpt lat="43.76266" lon="6.28228">
        <ele>1067.562085</ele>
        <time>2022-05-01T02:21:55.116Z</time>
      </trkpt>
      <trkpt lat="43.76303" lon="6.28182">
        <ele>1070.573722</ele>
        <time>2022-05-01T02:22:00.604Z</time>
      </trkpt>
      <trkpt lat="43.76346" lon="6.28177">
        <ele>1073.766495</ele>
        <time>2022-05-01T02:22:11.179Z</time>
      </trkpt>
      <trkpt lat="43.76369" lon="6.2816">
        <ele>1075.661439</ele>
        <time>2022-05-01T02:22:22.564Z</time>
      </trkpt>
      <trkpt lat="43.76425" lon="6.28081">
        <ele>1083.120472</ele>
        <time>2022-05-01T02:23:24.851Z</time>
      </trkpt>
      <trkpt lat="43.76518" lon="6.27933">
        <ele>1111.204933</ele>
        <time>2022-05-01T02:25:47.525Z</time>
      </trkpt>
      <trkpt lat="43.76543" lon="6.27873">
        <ele>1119.523569</ele>
        <time>2022-05-01T02:26:34.769Z</time>
      </trkpt>
      <trkpt lat="43.76547" lon="6.27818">
        <ele>1124.808311</ele>
        <time>2022-05-01T02:27:06.383Z</time>
      </trkpt>
      <trkpt lat="43.76556" lon="6.27793">
        <ele>1127.440417</ele>
        <time>2022-05-01T02:27:19.617Z</time>
      </trkpt>
      <trkpt lat="43.76621" lon="6.27747">
        <ele>1137.06672</ele>
        <time>2022-05-01T02:27:59.088Z</time>
      </trkpt>
      <trkpt lat="43.76657" lon="6.27709">
        <ele>1142.544203</ele>
        <time>2022-05-01T02:28:23.882Z</time>
      </trkpt>
      <trkpt lat="43.76676" lon="6.2768">
        <ele>1145.587061</ele>
        <time>2022-05-01T02:28:38.626Z</time>
      </trkpt>
      <trkpt lat="43.76702" lon="6.27572">
        <ele>1154.295485</ele>
        <time>2022-05-01T02:29:23.465Z</time>
      </trkpt>
      <trkpt lat="43.76723" lon="6.27527">
        <ele>1158.423893</ele>
        <time>2022-05-01T02:29:45.734Z</time>
      </trkpt>
      <trkpt lat="43.76762" lon="6.27465">
        <ele>1170.119026</ele>
        <time>2022-05-01T02:30:23.867Z</time>
      </trkpt>
      <trkpt lat="43.76762" lon="6.27441">
        <ele>1173.748681</ele>
        <time>2022-05-01T02:30:41.939Z</time>
      </trkpt>
      <trkpt lat="43.7675" lon="6.27426">
        <ele>1177.295341</ele>
        <time>2022-05-01T02:30:59.649Z</time>
      </trkpt>
      <trkpt lat="43.76642" lon="6.27405">
        <ele>1200.310945</ele>
        <time>2022-05-01T02:32:55.733Z</time>
      </trkpt>
      <trkpt lat="43.76604" lon="6.27376">
        <ele>1208.908831</ele>
        <time>2022-05-01T02:33:42.824Z</time>
      </trkpt>
      <trkpt lat="43.76568" lon="6.27324">
        <ele>1218.906624</ele>
        <time>2022-05-01T02:34:32.103Z</time>
      </trkpt>
      <trkpt lat="43.7654" lon="6.27247">
        <ele>1230.953092</ele>
        <time>2022-05-01T02:35:27.568Z</time>
      </trkpt>
      <trkpt lat="43.76531" lon="6.27209">
        <ele>1233.076292</ele>
        <time>2022-05-01T02:35:47.134Z</time>
      </trkpt>
      <trkpt lat="43.76529" lon="6.27171">
        <ele>1233.537636</ele>
        <time>2022-05-01T02:35:50.499Z</time>
      </trkpt>
      <trkpt lat="43.76535" lon="6.2714">
        <ele>1233.940839</ele>
        <time>2022-05-01T02:35:53.389Z</time>
      </trkpt>
      <trkpt lat="43.76528" lon="6.27117">
        <ele>1234.234713</ele>
        <time>2022-05-01T02:35:55.378Z</time>
      </trkpt>
      <trkpt lat="43.76465" lon="6.27072">
        <ele>1235.438686</ele>
        <time>2022-05-01T02:36:04.335Z</time>
      </trkpt>
      <trkpt lat="43.76431" lon="6.2706">
        <ele>1234.864211</ele>
        <time>2022-05-01T02:36:08.064Z</time>
      </trkpt>
      <trkpt lat="43.76418" lon="6.27043">
        <ele>1233.710094</ele>
        <time>2022-05-01T02:36:09.851Z</time>
      </trkpt>
      <trkpt lat="43.76403" lon="6.2697">
        <ele>1230.216608</ele>
        <time>2022-05-01T02:36:14.882Z</time>
      </trkpt>
      <trkpt lat="43.76417" lon="6.26907">
        <ele>1227.18922</ele>
        <time>2022-05-01T02:36:19.316Z</time>
      </trkpt>
      <trkpt lat="43.76411" lon="6.26893">
        <ele>1226.482495</ele>
        <time>2022-05-01T02:36:20.262Z</time>
      </trkpt>
      <trkpt lat="43.76388" lon="6.26872">
        <ele>1224.748202</ele>
        <time>2022-05-01T02:36:22.777Z</time>
      </trkpt>
      <trkpt lat="43.76381" lon="6.26856">
        <ele>1223.320044</ele>
        <time>2022-05-01T02:36:23.928Z</time>
      </trkpt>
      <trkpt lat="43.76382" lon="6.26843">
        <ele>1222.089442</ele>
        <time>2022-05-01T02:36:24.812Z</time>
      </trkpt>
      <trkpt lat="43.76405" lon="6.26813">
        <ele>1217.989995</ele>
        <time>2022-05-01T02:36:27.493Z</time>
      </trkpt>
      <trkpt lat="43.76422" lon="6.26774">
        <ele>1213.724788</ele>
        <time>2022-05-01T02:36:30.250Z</time>
      </trkpt>
      <trkpt lat="43.76455" lon="6.26737">
        <ele>1208.268586</ele>
        <time>2022-05-01T02:36:33.802Z</time>
      </trkpt>
      <trkpt lat="43.76461" lon="6.26721">
        <ele>1206.559285</ele>
        <time>2022-05-01T02:36:34.925Z</time>
      </trkpt>
      <trkpt lat="43.76464" lon="6.2667">
        <ele>1201.85209</ele>
        <time>2022-05-01T02:36:37.966Z</time>
      </trkpt>
      <trkpt lat="43.76473" lon="6.26636">
        <ele>1198.51046</ele>
        <time>2022-05-01T02:36:40.170Z</time>
      </trkpt>
      <trkpt lat="43.76519" lon="6.26554">
        <ele>1188.968821</ele>
        <time>2022-05-01T02:36:46.437Z</time>
      </trkpt>
      <trkpt lat="43.76595" lon="6.26498">
        <ele>1178.387585</ele>
        <time>2022-05-01T02:36:53.670Z</time>
      </trkpt>
      <trkpt lat="43.76655" lon="6.26484">
        <ele>1177.288683</ele>
        <time>2022-05-01T02:36:59.272Z</time>
      </trkpt>
      <trkpt lat="43.7667" lon="6.2647">
        <ele>1176.969895</ele>
        <time>2022-05-01T02:37:01.075Z</time>
      </trkpt>
      <trkpt lat="43.76704" lon="6.26418">
        <ele>1176.050704</ele>
        <time>2022-05-01T02:37:11.342Z</time>
      </trkpt>
      <trkpt lat="43.76711" lon="6.26398">
        <ele>1175.768603</ele>
        <time>2022-05-01T02:37:15.182Z</time>
      </trkpt>
      <trkpt lat="43.767" lon="6.26349">
        <ele>1174.861742</ele>
        <time>2022-05-01T02:37:28.574Z</time>
      </trkpt>
      <trkpt lat="43.76701" lon="6.26324">
        <ele>1173.708548</ele>
        <time>2022-05-01T02:37:35.881Z</time>
      </trkpt>
      <trkpt lat="43.76722" lon="6.26277">
        <ele>1171.267073</ele>
        <time>2022-05-01T02:37:47.396Z</time>
      </trkpt>
      <trkpt lat="43.76738" lon="6.26205">
        <ele>1167.922336</ele>
        <time>2022-05-01T02:37:52.541Z</time>
      </trkpt>
      <trkpt lat="43.76751" lon="6.2618">
        <ele>1166.549032</ele>
        <time>2022-05-01T02:37:54.441Z</time>
      </trkpt>
      <trkpt lat="43.76801" lon="6.26149">
        <ele>1160.12302</ele>
        <time>2022-05-01T02:37:58.974Z</time>
      </trkpt>
      <trkpt lat="43.76858" lon="6.26141">
        <ele>1145.670565</ele>
        <time>2022-05-01T02:38:03.642Z</time>
      </trkpt>
      <trkpt lat="43.76884" lon="6.26129">
        <ele>1138.764912</ele>
        <time>2022-05-01T02:38:05.887Z</time>
      </trkpt>
      <trkpt lat="43.76947" lon="6.26098">
        <ele>1121.696343</ele>
        <time>2022-05-01T02:38:11.452Z</time>
      </trkpt>
      <trkpt lat="43.7698" lon="6.26073">
        <ele>1114.610725</ele>
        <time>2022-05-01T02:38:14.499Z</time>
      </trkpt>
      <trkpt lat="43.77022" lon="6.26086">
        <ele>1107.745126</ele>
        <time>2022-05-01T02:38:18.005Z</time>
      </trkpt>
      <trkpt lat="43.77035" lon="6.26083">
        <ele>1105.711752</ele>
        <time>2022-05-01T02:38:19.058Z</time>
      </trkpt>
      <trkpt lat="43.77061" lon="6.26055">
        <ele>1100.340434</ele>
        <time>2022-05-01T02:38:21.865Z</time>
      </trkpt>
      <trkpt lat="43.77096" lon="6.26037">
        <ele>1094.357307</ele>
        <time>2022-05-01T02:38:25.079Z</time>
      </trkpt>
      <trkpt lat="43.77145" lon="6.25959">
        <ele>1088.044094</ele>
        <time>2022-05-01T02:38:31.878Z</time>
      </trkpt>
      <trkpt lat="43.77174" lon="6.25931">
        <ele>1086.696681</ele>
        <time>2022-05-01T02:38:35.477Z</time>
      </trkpt>
      <trkpt lat="43.7718" lon="6.25912">
        <ele>1086.143294</ele>
        <time>2022-05-01T02:38:37.052Z</time>
      </trkpt>
      <trkpt lat="43.77174" lon="6.25868">
        <ele>1084.924117</ele>
        <time>2022-05-01T02:38:41.128Z</time>
      </trkpt>
      <trkpt lat="43.77135" lon="6.25797">
        <ele>1082.333481</ele>
        <time>2022-05-01T02:38:48.391Z</time>
      </trkpt>
      <trkpt lat="43.77094" lon="6.2575">
        <ele>1079.737921</ele>
        <time>2022-05-01T02:38:53.322Z</time>
      </trkpt>
      <trkpt lat="43.77079" lon="6.25698">
        <ele>1077.760316</ele>
        <time>2022-05-01T02:38:57.250Z</time>
      </trkpt>
      <trkpt lat="43.77076" lon="6.25677">
        <ele>1077.010019</ele>
        <time>2022-05-01T02:38:58.802Z</time>
      </trkpt>
      <trkpt lat="43.77084" lon="6.25607">
        <ele>1074.506097</ele>
        <time>2022-05-01T02:39:03.575Z</time>
      </trkpt>
      <trkpt lat="43.77095" lon="6.25596">
        <ele>1073.497828</ele>
        <time>2022-05-01T02:39:04.794Z</time>
      </trkpt>
      <trkpt lat="43.77109" lon="6.25608">
        <ele>1071.908948</ele>
        <time>2022-05-01T02:39:06.241Z</time>
      </trkpt>
      <trkpt lat="43.77115" lon="6.25692">
        <ele>1065.940446</ele>
        <time>2022-05-01T02:39:11.478Z</time>
      </trkpt>
      <trkpt lat="43.77123" lon="6.25709">
        <ele>1064.510122</ele>
        <time>2022-05-01T02:39:12.694Z</time>
      </trkpt>
      <trkpt lat="43.7723" lon="6.25752">
        <ele>1053.86313</ele>
        <time>2022-05-01T02:39:22.234Z</time>
      </trkpt>
      <trkpt lat="43.77294" lon="6.25761">
        <ele>1048.221537</ele>
        <time>2022-05-01T02:39:27.734Z</time>
      </trkpt>
      <trkpt lat="43.77353" lon="6.25738">
        <ele>1042.774737</ele>
        <time>2022-05-01T02:39:33.208Z</time>
      </trkpt>
      <trkpt lat="43.77383" lon="6.25739">
        <ele>1040.234153</ele>
        <time>2022-05-01T02:39:35.941Z</time>
      </trkpt>
      <trkpt lat="43.77386" lon="6.25729">
        <ele>1039.689014</ele>
        <time>2022-05-01T02:39:36.600Z</time>
      </trkpt>
      <trkpt lat="43.77377" lon="6.25717">
        <ele>1038.809766</ele>
        <time>2022-05-01T02:39:37.791Z</time>
      </trkpt>
      <trkpt lat="43.77259" lon="6.25692">
        <ele>1030.051838</ele>
        <time>2022-05-01T02:39:48.543Z</time>
      </trkpt>
      <trkpt lat="43.77255" lon="6.25677">
        <ele>1029.208151</ele>
        <time>2022-05-01T02:39:49.655Z</time>
      </trkpt>
      <trkpt lat="43.77262" lon="6.25671">
        <ele>1028.584243</ele>
        <time>2022-05-01T02:39:50.441Z</time>
      </trkpt>
      <trkpt lat="43.77293" lon="6.25675">
        <ele>1025.208863</ele>
        <time>2022-05-01T02:39:53.246Z</time>
      </trkpt>
      <trkpt lat="43.77307" lon="6.25672">
        <ele>1023.241759</ele>
        <time>2022-05-01T02:39:54.413Z</time>
      </trkpt>
      <trkpt lat="43.77392" lon="6.25622">
        <ele>1010.337635</ele>
        <time>2022-05-01T02:40:02.291Z</time>
      </trkpt>
      <trkpt lat="43.77412" lon="6.2563">
        <ele>1007.384443</ele>
        <time>2022-05-01T02:40:04.015Z</time>
      </trkpt>
      <trkpt lat="43.77419" lon="6.25652">
        <ele>1004.952982</ele>
        <time>2022-05-01T02:40:05.451Z</time>
      </trkpt>
      <trkpt lat="43.77427" lon="6.25759">
        <ele>985.854406</ele>
        <time>2022-05-01T02:40:11.747Z</time>
      </trkpt>
      <trkpt lat="43.77453" lon="6.25819">
        <ele>971.673834</ele>
        <time>2022-05-01T02:40:15.935Z</time>
      </trkpt>
      <trkpt lat="43.77519" lon="6.25934">
        <ele>945.47654</ele>
        <time>2022-05-01T02:40:24.832Z</time>
      </trkpt>
      <trkpt lat="43.77524" lon="6.2596">
        <ele>942.067372</ele>
        <time>2022-05-01T02:40:26.364Z</time>
      </trkpt>
      <trkpt lat="43.77523" lon="6.26016">
        <ele>934.661888</ele>
        <time>2022-05-01T02:40:29.693Z</time>
      </trkpt>
      <trkpt lat="43.77527" lon="6.26035">
        <ele>932.095494</ele>
        <time>2022-05-01T02:40:30.868Z</time>
      </trkpt>
      <trkpt lat="43.7754" lon="6.26041">
        <ele>929.65971</ele>
        <time>2022-05-01T02:40:32.013Z</time>
      </trkpt>
      <trkpt lat="43.77549" lon="6.26034">
        <ele>927.676842</ele>
        <time>2022-05-01T02:40:32.919Z</time>
      </trkpt>
      <trkpt lat="43.77551" lon="6.26024">
        <ele>926.298206</ele>
        <time>2022-05-01T02:40:33.576Z</time>
      </trkpt>
      <trkpt lat="43.77542" lon="6.25982">
        <ele>920.587615</ele>
        <time>2022-05-01T02:40:36.324Z</time>
      </trkpt>
      <trkpt lat="43.77542" lon="6.25953">
        <ele>920.048671</ele>
        <time>2022-05-01T02:40:38.411Z</time>
      </trkpt>
      <trkpt lat="43.77553" lon="6.25932">
        <ele>920.802484</ele>
        <time>2022-05-01T02:40:40.189Z</time>
      </trkpt>
      <trkpt lat="43.77581" lon="6.25904">
        <ele>922.216375</ele>
        <time>2022-05-01T02:40:48.284Z</time>
      </trkpt>
      <trkpt lat="43.77616" lon="6.25867">
        <ele>924.022357</ele>
        <time>2022-05-01T02:41:17.964Z</time>
      </trkpt>
      <trkpt lat="43.77652" lon="6.25801">
        <ele>926.477738</ele>
        <time>2022-05-01T02:41:48.463Z</time>
      </trkpt>
      <trkpt lat="43.77774" lon="6.25692">
        <ele>930.165642</ele>
        <time>2022-05-01T02:42:19.424Z</time>
      </trkpt>
      <trkpt lat="43.77772" lon="6.25685">
        <ele>930.288895</ele>
        <time>2022-05-01T02:42:20.361Z</time>
      </trkpt>
      <trkpt lat="43.77764" lon="6.25684">
        <ele>930.488828</ele>
        <time>2022-05-01T02:42:21.637Z</time>
      </trkpt>
      <trkpt lat="43.77728" lon="6.25716">
        <ele>931.732497</ele>
        <time>2022-05-01T02:42:28.337Z</time>
      </trkpt>
      <trkpt lat="43.77645" lon="6.25754">
        <ele>935.139579</ele>
        <time>2022-05-01T02:42:57.630Z</time>
      </trkpt>
      <trkpt lat="43.77599" lon="6.25788">
        <ele>937.15993</ele>
        <time>2022-05-01T02:43:12.793Z</time>
      </trkpt>
      <trkpt lat="43.77583" lon="6.25792">
        <ele>937.787901</ele>
        <time>2022-05-01T02:43:20.660Z</time>
      </trkpt>
      <trkpt lat="43.77572" lon="6.25787">
        <ele>938.231843</ele>
        <time>2022-05-01T02:43:23.487Z</time>
      </trkpt>
      <trkpt lat="43.77567" lon="6.25778">
        <ele>938.40436</ele>
        <time>2022-05-01T02:43:25.408Z</time>
      </trkpt>
      <trkpt lat="43.7756" lon="6.25751">
        <ele>938.812708</ele>
        <time>2022-05-01T02:43:34.810Z</time>
      </trkpt>
      <trkpt lat="43.77529" lon="6.25698">
        <ele>939.796903</ele>
        <time>2022-05-01T02:43:49.174Z</time>
      </trkpt>
      <trkpt lat="43.77529" lon="6.25636">
        <ele>940.695347</ele>
        <time>2022-05-01T02:44:02.857Z</time>
      </trkpt>
      <trkpt lat="43.77515" lon="6.25542">
        <ele>940.906771</ele>
        <time>2022-05-01T02:44:11.531Z</time>
      </trkpt>
      <trkpt lat="43.77538" lon="6.25478">
        <ele>937.279158</ele>
        <time>2022-05-01T02:44:16.171Z</time>
      </trkpt>
      <trkpt lat="43.77547" lon="6.25417">
        <ele>934.149186</ele>
        <time>2022-05-01T02:44:20.059Z</time>
      </trkpt>
      <trkpt lat="43.77603" lon="6.25302">
        <ele>926.410592</ele>
        <time>2022-05-01T02:44:28.815Z</time>
      </trkpt>
      <trkpt lat="43.7763" lon="6.25226">
        <ele>920.81234</ele>
        <time>2022-05-01T02:44:34.309Z</time>
      </trkpt>
      <trkpt lat="43.77648" lon="6.25049">
        <ele>907.164972</ele>
        <time>2022-05-01T02:44:45.357Z</time>
      </trkpt>
      <trkpt lat="43.77654" lon="6.25021">
        <ele>904.25043</ele>
        <time>2022-05-01T02:44:47.160Z</time>
      </trkpt>
      <trkpt lat="43.77666" lon="6.25">
        <ele>901.642963</ele>
        <time>2022-05-01T02:44:48.754Z</time>
      </trkpt>
      <trkpt lat="43.77712" lon="6.24895">
        <ele>889.481404</ele>
        <time>2022-05-01T02:44:56.160Z</time>
      </trkpt>
      <trkpt lat="43.77716" lon="6.24832">
        <ele>883.341411</ele>
        <time>2022-05-01T02:44:59.912Z</time>
      </trkpt>
      <trkpt lat="43.777" lon="6.2479">
        <ele>878.674933</ele>
        <time>2022-05-01T02:45:02.773Z</time>
      </trkpt>
      <trkpt lat="43.77592" lon="6.24651">
        <ele>860.213501</ele>
        <time>2022-05-01T02:45:15.304Z</time>
      </trkpt>
      <trkpt lat="43.77586" lon="6.24628">
        <ele>858.518874</ele>
        <time>2022-05-01T02:45:16.844Z</time>
      </trkpt>
      <trkpt lat="43.77587" lon="6.24557">
        <ele>853.644637</ele>
        <time>2022-05-01T02:45:21.256Z</time>
      </trkpt>
      <trkpt lat="43.77589" lon="6.245">
        <ele>849.719409</ele>
        <time>2022-05-01T02:45:24.860Z</time>
      </trkpt>
      <trkpt lat="43.77596" lon="6.24479">
        <ele>848.116631</ele>
        <time>2022-05-01T02:45:26.343Z</time>
      </trkpt>
      <trkpt lat="43.77601" lon="6.24454">
        <ele>846.38829</ele>
        <time>2022-05-01T02:45:27.973Z</time>
      </trkpt>
      <trkpt lat="43.77591" lon="6.24442">
        <ele>845.34099</ele>
        <time>2022-05-01T02:45:29.157Z</time>
      </trkpt>
      <trkpt lat="43.77493" lon="6.24443">
        <ele>837.718916</ele>
        <time>2022-05-01T02:45:37.774Z</time>
      </trkpt>
      <trkpt lat="43.77371" lon="6.24405">
        <ele>826.516425</ele>
        <time>2022-05-01T02:45:48.938Z</time>
      </trkpt>
      <trkpt lat="43.77329" lon="6.2438">
        <ele>821.796012</ele>
        <time>2022-05-01T02:45:52.864Z</time>
      </trkpt>
      <trkpt lat="43.77282" lon="6.24381">
        <ele>816.956529</ele>
        <time>2022-05-01T02:45:56.879Z</time>
      </trkpt>
      <trkpt lat="43.77253" lon="6.2436">
        <ele>813.750271</ele>
        <time>2022-05-01T02:45:59.585Z</time>
      </trkpt>
      <trkpt lat="43.77211" lon="6.24369">
        <ele>810.161911</ele>
        <time>2022-05-01T02:46:03.214Z</time>
      </trkpt>
      <trkpt lat="43.77203" lon="6.24363">
        <ele>809.406046</ele>
        <time>2022-05-01T02:46:03.960Z</time>
      </trkpt>
      <trkpt lat="43.77204" lon="6.24351">
        <ele>808.675615</ele>
        <time>2022-05-01T02:46:04.692Z</time>
      </trkpt>
      <trkpt lat="43.77211" lon="6.24344">
        <ele>807.945382</ele>
        <time>2022-05-01T02:46:05.500Z</time>
      </trkpt>
      <trkpt lat="43.77251" lon="6.24313">
        <ele>804.136725</ele>
        <time>2022-05-01T02:46:09.648Z</time>
      </trkpt>
      <trkpt lat="43.77314" lon="6.24293">
        <ele>799.051401</ele>
        <time>2022-05-01T02:46:15.557Z</time>
      </trkpt>
      <trkpt lat="43.77328" lon="6.2429">
        <ele>798.832057</ele>
        <time>2022-05-01T02:46:16.898Z</time>
      </trkpt>
      <trkpt lat="43.77328" lon="6.2429">
        <ele>798.830968</ele>
        <time>2022-05-01T02:46:17.308Z</time>
      </trkpt>
      <trkpt lat="43.77328" lon="6.2429">
        <ele>798.82988</ele>
        <time>2022-05-01T02:46:17.470Z</time>
      </trkpt>
      <trkpt lat="43.77351" lon="6.24292">
        <ele>798.486446</ele>
        <time>2022-05-01T02:46:19.693Z</time>
      </trkpt>
      <trkpt lat="43.77354" lon="6.24295">
        <ele>798.431298</ele>
        <time>2022-05-01T02:46:20.213Z</time>
      </trkpt>
      <trkpt lat="43.77372" lon="6.24301">
        <ele>798.149787</ele>
        <time>2022-05-01T02:46:22.816Z</time>
      </trkpt>
      <trkpt lat="43.77377" lon="6.24302">
        <ele>798.075128</ele>
        <time>2022-05-01T02:46:23.477Z</time>
      </trkpt>
      <trkpt lat="43.77441" lon="6.24314">
        <ele>797.098474</ele>
        <time>2022-05-01T02:46:34.356Z</time>
      </trkpt>
      <trkpt lat="43.77475" lon="6.24315">
        <ele>796.590321</ele>
        <time>2022-05-01T02:46:39.647Z</time>
      </trkpt>
      <trkpt lat="43.77489" lon="6.24318">
        <ele>796.365517</ele>
        <time>2022-05-01T02:46:41.885Z</time>
      </trkpt>
      <trkpt lat="43.77494" lon="6.24318">
        <ele>796.235124</ele>
        <time>2022-05-01T02:46:42.540Z</time>
      </trkpt>
      <trkpt lat="43.77519" lon="6.24326">
        <ele>795.605768</ele>
        <time>2022-05-01T02:46:45.662Z</time>
      </trkpt>
      <trkpt lat="43.77525" lon="6.24327">
        <ele>795.455155</ele>
        <time>2022-05-01T02:46:46.289Z</time>
      </trkpt>
      <trkpt lat="43.7755" lon="6.24322">
        <ele>794.812519</ele>
        <time>2022-05-01T02:46:49.033Z</time>
      </trkpt>
      <trkpt lat="43.77588" lon="6.24309">
        <ele>793.843553</ele>
        <time>2022-05-01T02:46:53.090Z</time>
      </trkpt>
      <trkpt lat="43.77611" lon="6.24297">
        <ele>793.220166</ele>
        <time>2022-05-01T02:46:55.651Z</time>
      </trkpt>
      <trkpt lat="43.77636" lon="6.24285">
        <ele>792.559561</ele>
        <time>2022-05-01T02:46:58.393Z</time>
      </trkpt>
      <trkpt lat="43.77641" lon="6.24278">
        <ele>792.397203</ele>
        <time>2022-05-01T02:46:59.059Z</time>
      </trkpt>
      <trkpt lat="43.77643" lon="6.24269">
        <ele>792.218601</ele>
        <time>2022-05-01T02:46:59.759Z</time>
      </trkpt>
      <trkpt lat="43.77641" lon="6.24247">
        <ele>791.729453</ele>
        <time>2022-05-01T02:47:01.369Z</time>
      </trkpt>
      <trkpt lat="43.7763" lon="6.24239">
        <ele>791.22494</ele>
        <time>2022-05-01T02:47:02.542Z</time>
      </trkpt>
      <trkpt lat="43.7761" lon="6.24245">
        <ele>790.352893</ele>
        <time>2022-05-01T02:47:04.451Z</time>
      </trkpt>
      <trkpt lat="43.77586" lon="6.24262">
        <ele>789.241679</ele>
        <time>2022-05-01T02:47:06.968Z</time>
      </trkpt>
      <trkpt lat="43.77566" lon="6.2427">
        <ele>788.357982</ele>
        <time>2022-05-01T02:47:09.018Z</time>
      </trkpt>
      <trkpt lat="43.77525" lon="6.24271">
        <ele>786.640628</ele>
        <time>2022-05-01T02:47:12.999Z</time>
      </trkpt>
      <trkpt lat="43.77514" lon="6.24267">
        <ele>786.181808</ele>
        <time>2022-05-01T02:47:14.030Z</time>
      </trkpt>
      <trkpt lat="43.77497" lon="6.2426">
        <ele>785.4082</ele>
        <time>2022-05-01T02:47:15.846Z</time>
      </trkpt>
      <trkpt lat="43.7749" lon="6.2422">
        <ele>784.064024</ele>
        <time>2022-05-01T02:47:18.792Z</time>
      </trkpt>
      <trkpt lat="43.77524" lon="6.24219">
        <ele>781.95721</ele>
        <time>2022-05-01T02:47:23.638Z</time>
      </trkpt>
      <trkpt lat="43.7749" lon="6.2422">
        <ele>779.850396</ele>
        <time>2022-05-01T02:47:28.321Z</time>
      </trkpt>
      <trkpt lat="43.77492" lon="6.24183">
        <ele>778.175006</ele>
        <time>2022-05-01T02:47:30.839Z</time>
      </trkpt>
      <trkpt lat="43.77513" lon="6.24119">
        <ele>775.112053</ele>
        <time>2022-05-01T02:47:35.277Z</time>
      </trkpt>
      <trkpt lat="43.77512" lon="6.24104">
        <ele>774.444133</ele>
        <time>2022-05-01T02:47:36.269Z</time>
      </trkpt>
      <trkpt lat="43.77497" lon="6.24053">
        <ele>771.262557</ele>
        <time>2022-05-01T02:47:39.774Z</time>
      </trkpt>
      <trkpt lat="43.77503" lon="6.23999">
        <ele>767.46139</ele>
        <time>2022-05-01T02:47:43.220Z</time>
      </trkpt>
      <trkpt lat="43.77499" lon="6.23984">
        <ele>766.379558</ele>
        <time>2022-05-01T02:47:44.164Z</time>
      </trkpt>
      <trkpt lat="43.77461" lon="6.23951">
        <ele>762.11435</ele>
        <time>2022-05-01T02:47:48.041Z</time>
      </trkpt>
      <trkpt lat="43.77441" lon="6.23918">
        <ele>759.183501</ele>
        <time>2022-05-01T02:47:50.675Z</time>
      </trkpt>
      <trkpt lat="43.77407" lon="6.23841">
        <ele>754.266863</ele>
        <time>2022-05-01T02:47:56.352Z</time>
      </trkpt>
      <trkpt lat="43.77396" lon="6.23779">
        <ele>751.634067</ele>
        <time>2022-05-01T02:48:00.572Z</time>
      </trkpt>
      <trkpt lat="43.77385" lon="6.23765">
        <ele>750.806217</ele>
        <time>2022-05-01T02:48:01.813Z</time>
      </trkpt>
      <trkpt lat="43.77371" lon="6.23767">
        <ele>749.994691</ele>
        <time>2022-05-01T02:48:03.253Z</time>
      </trkpt>
      <trkpt lat="43.77363" lon="6.23782">
        <ele>749.228736</ele>
        <time>2022-05-01T02:48:04.501Z</time>
      </trkpt>
      <trkpt lat="43.77371" lon="6.23841">
        <ele>746.722794</ele>
        <time>2022-05-01T02:48:08.743Z</time>
      </trkpt>
      <trkpt lat="43.77361" lon="6.23868">
        <ele>745.617805</ele>
        <time>2022-05-01T02:48:12.056Z</time>
      </trkpt>
      <trkpt lat="43.77326" lon="6.23891">
        <ele>744.212199</ele>
        <time>2022-05-01T02:48:16.407Z</time>
      </trkpt>
      <trkpt lat="43.77255" lon="6.23884">
        <ele>741.644384</ele>
        <time>2022-05-01T02:48:23.968Z</time>
      </trkpt>
      <trkpt lat="43.77168" lon="6.23837">
        <ele>737.323169</ele>
        <time>2022-05-01T02:48:32.561Z</time>
      </trkpt>
      <trkpt lat="43.77149" lon="6.23811">
        <ele>735.538616</ele>
        <time>2022-05-01T02:48:34.972Z</time>
      </trkpt>
      <trkpt lat="43.77144" lon="6.2377">
        <ele>733.57123</ele>
        <time>2022-05-01T02:48:37.641Z</time>
      </trkpt>
      <trkpt lat="43.7714" lon="6.23704">
        <ele>730.372134</ele>
        <time>2022-05-01T02:48:41.981Z</time>
      </trkpt>
      <trkpt lat="43.77143" lon="6.2369">
        <ele>729.651298</ele>
        <time>2022-05-01T02:48:42.954Z</time>
      </trkpt>
      <trkpt lat="43.77154" lon="6.23674">
        <ele>728.627687</ele>
        <time>2022-05-01T02:48:44.312Z</time>
      </trkpt>
      <trkpt lat="43.7721" lon="6.23615">
        <ele>725.537053</ele>
        <time>2022-05-01T02:48:50.620Z</time>
      </trkpt>
      <trkpt lat="43.77269" lon="6.23591">
        <ele>723.267154</ele>
        <time>2022-05-01T02:48:56.727Z</time>
      </trkpt>
      <trkpt lat="43.77282" lon="6.23586">
        <ele>722.756285</ele>
        <time>2022-05-01T02:48:58.196Z</time>
      </trkpt>
      <trkpt lat="43.77318" lon="6.23539">
        <ele>720.906544</ele>
        <time>2022-05-01T02:49:04.179Z</time>
      </trkpt>
      <trkpt lat="43.77329" lon="6.23532">
        <ele>720.741769</ele>
        <time>2022-05-01T02:49:05.639Z</time>
      </trkpt>
      <trkpt lat="43.77338" lon="6.23533">
        <ele>720.648918</ele>
        <time>2022-05-01T02:49:06.819Z</time>
      </trkpt>
      <trkpt lat="43.77349" lon="6.23547">
        <ele>720.502767</ele>
        <time>2022-05-01T02:49:09.239Z</time>
      </trkpt>
      <trkpt lat="43.77377" lon="6.23627">
        <ele>719.873424</ele>
        <time>2022-05-01T02:49:19.583Z</time>
      </trkpt>
      <trkpt lat="43.77424" lon="6.23666">
        <ele>719.331889</ele>
        <time>2022-05-01T02:49:26.544Z</time>
      </trkpt>
      <trkpt lat="43.77454" lon="6.237">
        <ele>718.693661</ele>
        <time>2022-05-01T02:49:30.427Z</time>
      </trkpt>
      <trkpt lat="43.77469" lon="6.23703">
        <ele>718.247013</ele>
        <time>2022-05-01T02:49:32.030Z</time>
      </trkpt>
      <trkpt lat="43.77534" lon="6.23667">
        <ele>716.124255</ele>
        <time>2022-05-01T02:49:39.282Z</time>
      </trkpt>
      <trkpt lat="43.77539" lon="6.23644">
        <ele>715.596938</ele>
        <time>2022-05-01T02:49:42.389Z</time>
      </trkpt>
      <trkpt lat="43.77533" lon="6.23627">
        <ele>715.169289</ele>
        <time>2022-05-01T02:49:43.590Z</time>
      </trkpt>
      <trkpt lat="43.77524" lon="6.23623">
        <ele>714.879473</ele>
        <time>2022-05-01T02:49:47.591Z</time>
      </trkpt>
      <trkpt lat="43.77515" lon="6.23626">
        <ele>714.582207</ele>
        <time>2022-05-01T02:49:48.697Z</time>
      </trkpt>
      <trkpt lat="43.77484" lon="6.23657">
        <ele>713.270623</ele>
        <time>2022-05-01T02:49:52.367Z</time>
      </trkpt>
      <trkpt lat="43.77474" lon="6.23657">
        <ele>712.609604</ele>
        <time>2022-05-01T02:49:53.237Z</time>
      </trkpt>
      <trkpt lat="43.77459" lon="6.23645">
        <ele>711.512264</ele>
        <time>2022-05-01T02:49:55.039Z</time>
      </trkpt>
      <trkpt lat="43.77396" lon="6.2353">
        <ele>704.793373</ele>
        <time>2022-05-01T02:50:04.542Z</time>
      </trkpt>
      <trkpt lat="43.77369" lon="6.23453">
        <ele>700.495651</ele>
        <time>2022-05-01T02:50:10.033Z</time>
      </trkpt>
      <trkpt lat="43.77307" lon="6.23337">
        <ele>692.013447</ele>
        <time>2022-05-01T02:50:19.107Z</time>
      </trkpt>
      <trkpt lat="43.77304" lon="6.23298">
        <ele>689.701612</ele>
        <time>2022-05-01T02:50:21.576Z</time>
      </trkpt>
      <trkpt lat="43.7729" lon="6.23236">
        <ele>686.310604</ele>
        <time>2022-05-01T02:50:25.825Z</time>
      </trkpt>
      <trkpt lat="43.77295" lon="6.23215">
        <ele>685.396238</ele>
        <time>2022-05-01T02:50:27.257Z</time>
      </trkpt>
      <trkpt lat="43.77305" lon="6.23206">
        <ele>684.710002</ele>
        <time>2022-05-01T02:50:28.335Z</time>
      </trkpt>
      <trkpt lat="43.77317" lon="6.23208">
        <ele>684.022196</ele>
        <time>2022-05-01T02:50:29.435Z</time>
      </trkpt>
      <trkpt lat="43.7733" lon="6.2322">
        <ele>683.124045</ele>
        <time>2022-05-01T02:50:30.843Z</time>
      </trkpt>
      <trkpt lat="43.77351" lon="6.23279">
        <ele>680.38107</ele>
        <time>2022-05-01T02:50:35.253Z</time>
      </trkpt>
      <trkpt lat="43.77369" lon="6.23304">
        <ele>678.900419</ele>
        <time>2022-05-01T02:50:37.815Z</time>
      </trkpt>
      <trkpt lat="43.77454" lon="6.2335">
        <ele>673.420635</ele>
        <time>2022-05-01T02:50:46.449Z</time>
      </trkpt>
      <trkpt lat="43.77488" lon="6.23346">
        <ele>671.295834</ele>
        <time>2022-05-01T02:50:49.571Z</time>
      </trkpt>
      <trkpt lat="43.77561" lon="6.23293">
        <ele>666.201815</ele>
        <time>2022-05-01T02:50:56.952Z</time>
      </trkpt>
      <trkpt lat="43.77643" lon="6.23265">
        <ele>660.341397</ele>
        <time>2022-05-01T02:51:04.563Z</time>
      </trkpt>
      <trkpt lat="43.7766" lon="6.23265">
        <ele>659.154322</ele>
        <time>2022-05-01T02:51:06.126Z</time>
      </trkpt>
      <trkpt lat="43.77671" lon="6.23273">
        <ele>658.274232</ele>
        <time>2022-05-01T02:51:07.270Z</time>
      </trkpt>
      <trkpt lat="43.77708" lon="6.23326">
        <ele>654.523355</ele>
        <time>2022-05-01T02:51:12.039Z</time>
      </trkpt>
      <trkpt lat="43.77727" lon="6.2334">
        <ele>653.015406</ele>
        <time>2022-05-01T02:51:13.903Z</time>
      </trkpt>
      <trkpt lat="43.77741" lon="6.2333">
        <ele>651.860653</ele>
        <time>2022-05-01T02:51:15.311Z</time>
      </trkpt>
      <trkpt lat="43.77751" lon="6.23277">
        <ele>648.974498</ele>
        <time>2022-05-01T02:51:18.836Z</time>
      </trkpt>
      <trkpt lat="43.77761" lon="6.23257">
        <ele>647.698036</ele>
        <time>2022-05-01T02:51:20.414Z</time>
      </trkpt>
      <trkpt lat="43.77776" lon="6.23251">
        <ele>646.524653</ele>
        <time>2022-05-01T02:51:21.897Z</time>
      </trkpt>
      <trkpt lat="43.77826" lon="6.23255">
        <ele>642.890993</ele>
        <time>2022-05-01T02:51:26.450Z</time>
      </trkpt>
      <trkpt lat="43.77874" lon="6.23261">
        <ele>639.568336</ele>
        <time>2022-05-01T02:51:30.714Z</time>
      </trkpt>
      <trkpt lat="43.77881" lon="6.23272">
        <ele>638.902953</ele>
        <time>2022-05-01T02:51:31.694Z</time>
      </trkpt>
      <trkpt lat="43.7789" lon="6.2332">
        <ele>636.680356</ele>
        <time>2022-05-01T02:51:34.866Z</time>
      </trkpt>
      <trkpt lat="43.77901" lon="6.23329">
        <ele>635.912385</ele>
        <time>2022-05-01T02:51:35.949Z</time>
      </trkpt>
      <trkpt lat="43.77912" lon="6.23329">
        <ele>635.262468</ele>
        <time>2022-05-01T02:51:36.870Z</time>
      </trkpt>
      <trkpt lat="43.77926" lon="6.23315">
        <ele>634.168413</ele>
        <time>2022-05-01T02:51:38.462Z</time>
      </trkpt>
      <trkpt lat="43.77967" lon="6.23247">
        <ele>630.216694</ele>
        <time>2022-05-01T02:51:44.464Z</time>
      </trkpt>
      <trkpt lat="43.77985" lon="6.2324">
        <ele>629.097029</ele>
        <time>2022-05-01T02:51:46.312Z</time>
      </trkpt>
      <trkpt lat="43.78023" lon="6.23246">
        <ele>627.114921</ele>
        <time>2022-05-01T02:51:50.090Z</time>
      </trkpt>
      <trkpt lat="43.78033" lon="6.23238">
        <ele>626.514887</ele>
        <time>2022-05-01T02:51:51.198Z</time>
      </trkpt>
      <trkpt lat="43.78051" lon="6.23201">
        <ele>624.822646</ele>
        <time>2022-05-01T02:51:54.248Z</time>
      </trkpt>
      <trkpt lat="43.78068" lon="6.23195">
        <ele>623.941526</ele>
        <time>2022-05-01T02:51:55.796Z</time>
      </trkpt>
      <trkpt lat="43.78084" lon="6.23208">
        <ele>622.962905</ele>
        <time>2022-05-01T02:51:57.501Z</time>
      </trkpt>
      <trkpt lat="43.78103" lon="6.23279">
        <ele>620.103409</ele>
        <time>2022-05-01T02:52:02.604Z</time>
      </trkpt>
      <trkpt lat="43.7812" lon="6.23289">
        <ele>619.214915</ele>
        <time>2022-05-01T02:52:04.320Z</time>
      </trkpt>
      <trkpt lat="43.78141" lon="6.23281">
        <ele>618.213752</ele>
        <time>2022-05-01T02:52:06.350Z</time>
      </trkpt>
      <trkpt lat="43.7818" lon="6.23259">
        <ele>616.239923</ele>
        <time>2022-05-01T02:52:10.370Z</time>
      </trkpt>
      <trkpt lat="43.78205" lon="6.23202">
        <ele>613.991291</ele>
        <time>2022-05-01T02:52:15.041Z</time>
      </trkpt>
      <trkpt lat="43.78227" lon="6.23183">
        <ele>612.775248</ele>
        <time>2022-05-01T02:52:17.492Z</time>
      </trkpt>
      <trkpt lat="43.78241" lon="6.23184">
        <ele>612.148206</ele>
        <time>2022-05-01T02:52:18.790Z</time>
      </trkpt>
      <trkpt lat="43.78282" lon="6.23208">
        <ele>610.114233</ele>
        <time>2022-05-01T02:52:23.000Z</time>
      </trkpt>
      <trkpt lat="43.78288" lon="6.2322">
        <ele>609.640453</ele>
        <time>2022-05-01T02:52:23.999Z</time>
      </trkpt>
      <trkpt lat="43.78293" lon="6.23248">
        <ele>608.686185</ele>
        <time>2022-05-01T02:52:26.160Z</time>
      </trkpt>
      <trkpt lat="43.78306" lon="6.2326">
        <ele>607.986964</ele>
        <time>2022-05-01T02:52:27.702Z</time>
      </trkpt>
      <trkpt lat="43.78318" lon="6.23258">
        <ele>607.42943</ele>
        <time>2022-05-01T02:52:28.930Z</time>
      </trkpt>
      <trkpt lat="43.78351" lon="6.2324">
        <ele>605.821448</ele>
        <time>2022-05-01T02:52:32.331Z</time>
      </trkpt>
      <trkpt lat="43.78386" lon="6.23258">
        <ele>604.129457</ele>
        <time>2022-05-01T02:52:35.858Z</time>
      </trkpt>
      <trkpt lat="43.78407" lon="6.23257">
        <ele>603.181628</ele>
        <time>2022-05-01T02:52:37.803Z</time>
      </trkpt>
      <trkpt lat="43.78464" lon="6.23212">
        <ele>599.802071</ele>
        <time>2022-05-01T02:52:43.991Z</time>
      </trkpt>
      <trkpt lat="43.78501" lon="6.23197">
        <ele>597.847861</ele>
        <time>2022-05-01T02:52:47.542Z</time>
      </trkpt>
      <trkpt lat="43.78512" lon="6.23198">
        <ele>597.27939</ele>
        <time>2022-05-01T02:52:48.589Z</time>
      </trkpt>
      <trkpt lat="43.78543" lon="6.23215">
        <ele>595.580091</ele>
        <time>2022-05-01T02:52:51.709Z</time>
      </trkpt>
      <trkpt lat="43.78589" lon="6.23214">
        <ele>593.462687</ele>
        <time>2022-05-01T02:52:56.113Z</time>
      </trkpt>
      <trkpt lat="43.78603" lon="6.23235">
        <ele>592.754445</ele>
        <time>2022-05-01T02:52:58.049Z</time>
      </trkpt>
      <trkpt lat="43.78603" lon="6.23253">
        <ele>592.307228</ele>
        <time>2022-05-01T02:52:59.298Z</time>
      </trkpt>
      <trkpt lat="43.78596" lon="6.23274">
        <ele>591.712543</ele>
        <time>2022-05-01T02:53:00.944Z</time>
      </trkpt>
      <trkpt lat="43.78565" lon="6.23328">
        <ele>589.984443</ele>
        <time>2022-05-01T02:53:05.903Z</time>
      </trkpt>
      <trkpt lat="43.78458" lon="6.23438">
        <ele>586.138247</ele>
        <time>2022-05-01T02:53:20.100Z</time>
      </trkpt>
      <trkpt lat="43.78443" lon="6.23448">
        <ele>585.759855</ele>
        <time>2022-05-01T02:53:21.969Z</time>
      </trkpt>
      <trkpt lat="43.78416" lon="6.23453">
        <ele>585.134962</ele>
        <time>2022-05-01T02:53:24.994Z</time>
      </trkpt>
      <trkpt lat="43.78409" lon="6.2347">
        <ele>584.816277</ele>
        <time>2022-05-01T02:53:26.556Z</time>
      </trkpt>
      <trkpt lat="43.78417" lon="6.23496">
        <ele>584.345232</ele>
        <time>2022-05-01T02:53:28.756Z</time>
      </trkpt>
      <trkpt lat="43.78459" lon="6.23547">
        <ele>582.469896</ele>
        <time>2022-05-01T02:53:34.766Z</time>
      </trkpt>
      <trkpt lat="43.78481" lon="6.23555">
        <ele>581.408583</ele>
        <time>2022-05-01T02:53:36.910Z</time>
      </trkpt>
      <trkpt lat="43.78506" lon="6.23546">
        <ele>580.141986</ele>
        <time>2022-05-01T02:53:39.516Z</time>
      </trkpt>
      <trkpt lat="43.78524" lon="6.2355">
        <ele>579.281934</ele>
        <time>2022-05-01T02:53:41.152Z</time>
      </trkpt>
      <trkpt lat="43.78575" lon="6.23622">
        <ele>575.830779</ele>
        <time>2022-05-01T02:53:47.907Z</time>
      </trkpt>
      <trkpt lat="43.78586" lon="6.23637">
        <ele>575.081112</ele>
        <time>2022-05-01T02:53:49.449Z</time>
      </trkpt>
      <trkpt lat="43.78605" lon="6.23649">
        <ele>573.653829</ele>
        <time>2022-05-01T02:53:51.326Z</time>
      </trkpt>
      <trkpt lat="43.78623" lon="6.23653">
        <ele>572.441922</ele>
        <time>2022-05-01T02:53:52.984Z</time>
      </trkpt>
      <trkpt lat="43.78673" lon="6.23629">
        <ele>568.835034</ele>
        <time>2022-05-01T02:53:57.626Z</time>
      </trkpt>
      <trkpt lat="43.7872" lon="6.2363">
        <ele>565.620781</ele>
        <time>2022-05-01T02:54:01.838Z</time>
      </trkpt>
      <trkpt lat="43.78769" lon="6.23572">
        <ele>561.350263</ele>
        <time>2022-05-01T02:54:07.781Z</time>
      </trkpt>
      <trkpt lat="43.78798" lon="6.23549">
        <ele>559.382845</ele>
        <time>2022-05-01T02:54:10.851Z</time>
      </trkpt>
      <trkpt lat="43.78816" lon="6.23544">
        <ele>558.298504</ele>
        <time>2022-05-01T02:54:12.537Z</time>
      </trkpt>
      <trkpt lat="43.78834" lon="6.23546">
        <ele>557.198166</ele>
        <time>2022-05-01T02:54:14.226Z</time>
      </trkpt>
      <trkpt lat="43.78869" lon="6.23592">
        <ele>554.306303</ele>
        <time>2022-05-01T02:54:18.645Z</time>
      </trkpt>
      <trkpt lat="43.78883" lon="6.23598">
        <ele>553.447581</ele>
        <time>2022-05-01T02:54:19.961Z</time>
      </trkpt>
      <trkpt lat="43.78957" lon="6.23575">
        <ele>548.926105</ele>
        <time>2022-05-01T02:54:26.941Z</time>
      </trkpt>
      <trkpt lat="43.79022" lon="6.23571">
        <ele>545.093186</ele>
        <time>2022-05-01T02:54:32.957Z</time>
      </trkpt>
      <trkpt lat="43.79075" lon="6.23556">
        <ele>541.878822</ele>
        <time>2022-05-01T02:54:37.987Z</time>
      </trkpt>
      <trkpt lat="43.791" lon="6.23544">
        <ele>540.434728</ele>
        <time>2022-05-01T02:54:40.396Z</time>
      </trkpt>
      <trkpt lat="43.79131" lon="6.23517">
        <ele>538.497683</ele>
        <time>2022-05-01T02:54:43.769Z</time>
      </trkpt>
      <trkpt lat="43.79174" lon="6.23501">
        <ele>536.147832</ele>
        <time>2022-05-01T02:54:47.903Z</time>
      </trkpt>
      <trkpt lat="43.79187" lon="6.23483">
        <ele>535.183354</ele>
        <time>2022-05-01T02:54:49.615Z</time>
      </trkpt>
      <trkpt lat="43.79194" lon="6.23443">
        <ele>533.595222</ele>
        <time>2022-05-01T02:54:52.443Z</time>
      </trkpt>
      <trkpt lat="43.79206" lon="6.23429">
        <ele>532.734774</ele>
        <time>2022-05-01T02:54:53.955Z</time>
      </trkpt>
      <trkpt lat="43.79239" lon="6.23424">
        <ele>531.090425</ele>
        <time>2022-05-01T02:54:57.014Z</time>
      </trkpt>
      <trkpt lat="43.79332" lon="6.2339">
        <ele>526.483852</ele>
        <time>2022-05-01T02:55:06.185Z</time>
      </trkpt>
      <trkpt lat="43.79396" lon="6.23376">
        <ele>523.371043</ele>
        <time>2022-05-01T02:55:12.393Z</time>
      </trkpt>
      <trkpt lat="43.79463" lon="6.23385">
        <ele>520.255328</ele>
        <time>2022-05-01T02:55:18.789Z</time>
      </trkpt>
      <trkpt lat="43.79474" lon="6.23367">
        <ele>519.468683</ele>
        <time>2022-05-01T02:55:20.404Z</time>
      </trkpt>
      <trkpt lat="43.7947" lon="6.23347">
        <ele>518.788333</ele>
        <time>2022-05-01T02:55:21.806Z</time>
      </trkpt>
      <trkpt lat="43.79416" lon="6.23328">
        <ele>516.241156</ele>
        <time>2022-05-01T02:55:27.079Z</time>
      </trkpt>
      <trkpt lat="43.79287" lon="6.23272">
        <ele>509.931675</ele>
        <time>2022-05-01T02:55:40.052Z</time>
      </trkpt>
      <trkpt lat="43.79244" lon="6.23272">
        <ele>507.939352</ele>
        <time>2022-05-01T02:55:44.015Z</time>
      </trkpt>
      <trkpt lat="43.79231" lon="6.23264">
        <ele>507.25875</ele>
        <time>2022-05-01T02:55:45.385Z</time>
      </trkpt>
      <trkpt lat="43.79229" lon="6.23246">
        <ele>506.640483</ele>
        <time>2022-05-01T02:55:46.633Z</time>
      </trkpt>
      <trkpt lat="43.79238" lon="6.2323">
        <ele>506.096804</ele>
        <time>2022-05-01T02:55:48.083Z</time>
      </trkpt>
      <trkpt lat="43.79315" lon="6.2319">
        <ele>503.357856</ele>
        <time>2022-05-01T02:55:56.147Z</time>
      </trkpt>
      <trkpt lat="43.79327" lon="6.23187">
        <ele>502.937902</ele>
        <time>2022-05-01T02:55:57.424Z</time>
      </trkpt>
      <trkpt lat="43.7936" lon="6.23195">
        <ele>501.825684</ele>
        <time>2022-05-01T02:56:00.778Z</time>
      </trkpt>
      <trkpt lat="43.7937" lon="6.23199">
        <ele>501.466073</ele>
        <time>2022-05-01T02:56:01.899Z</time>
      </trkpt>
      <trkpt lat="43.79413" lon="6.23213">
        <ele>500.344267</ele>
        <time>2022-05-01T02:56:06.455Z</time>
      </trkpt>
      <trkpt lat="43.79501" lon="6.23227">
        <ele>499.717493</ele>
        <time>2022-05-01T02:56:17.729Z</time>
      </trkpt>
      <trkpt lat="43.79538" lon="6.23247">
        <ele>499.434645</ele>
        <time>2022-05-01T02:56:24.093Z</time>
      </trkpt>
      <trkpt lat="43.7956" lon="6.23273">
        <ele>499.229668</ele>
        <time>2022-05-01T02:56:28.410Z</time>
      </trkpt>
      <trkpt lat="43.79578" lon="6.23308">
        <ele>499.060335</ele>
        <time>2022-05-01T02:56:32.992Z</time>
      </trkpt>
      <trkpt lat="43.7959" lon="6.23361">
        <ele>498.870805</ele>
        <time>2022-05-01T02:56:38.894Z</time>
      </trkpt>
      <trkpt lat="43.79587" lon="6.23417">
        <ele>498.681309</ele>
        <time>2022-05-01T02:56:43.883Z</time>
      </trkpt>
      <trkpt lat="43.79544" lon="6.23575">
        <ele>498.51429</ele>
        <time>2022-05-01T02:56:59.609Z</time>
      </trkpt>
      <trkpt lat="43.79541" lon="6.23618">
        <ele>498.655989</ele>
        <time>2022-05-01T02:57:03.905Z</time>
      </trkpt>
      <trkpt lat="43.79553" lon="6.23666">
        <ele>498.821363</ele>
        <time>2022-05-01T02:57:09.693Z</time>
      </trkpt>
      <trkpt lat="43.79575" lon="6.23694">
        <ele>498.955204</ele>
        <time>2022-05-01T02:57:14.961Z</time>
      </trkpt>
      <trkpt lat="43.79676" lon="6.23734">
        <ele>500.791224</ele>
        <time>2022-05-01T02:57:39.496Z</time>
      </trkpt>
      <trkpt lat="43.79692" lon="6.23746">
        <ele>501.236867</ele>
        <time>2022-05-01T02:57:44.718Z</time>
      </trkpt>
      <trkpt lat="43.79708" lon="6.23771">
        <ele>501.825635</ele>
        <time>2022-05-01T02:57:51.262Z</time>
      </trkpt>
      <trkpt lat="43.79718" lon="6.23807">
        <ele>502.523948</ele>
        <time>2022-05-01T02:57:59.188Z</time>
      </trkpt>
      <trkpt lat="43.79719" lon="6.23837">
        <ele>503.054562</ele>
        <time>2022-05-01T02:58:04.810Z</time>
      </trkpt>
      <trkpt lat="43.797" lon="6.24007">
        <ele>505.132896</ele>
        <time>2022-05-01T02:58:31.663Z</time>
      </trkpt>
      <trkpt lat="43.79681" lon="6.24197">
        <ele>507.542452</ele>
        <time>2022-05-01T02:58:57.848Z</time>
      </trkpt>
      <trkpt lat="43.79682" lon="6.24222">
        <ele>507.900936</ele>
        <time>2022-05-01T02:59:02.064Z</time>
      </trkpt>
      <trkpt lat="43.79686" lon="6.24253">
        <ele>508.361651</ele>
        <time>2022-05-01T02:59:07.788Z</time>
      </trkpt>
      <trkpt lat="43.79697" lon="6.24298">
        <ele>509.048829</ele>
        <time>2022-05-01T02:59:16.356Z</time>
      </trkpt>
      <trkpt lat="43.79726" lon="6.2436">
        <ele>510.068277</ele>
        <time>2022-05-01T02:59:30.180Z</time>
      </trkpt>
      <trkpt lat="43.79773" lon="6.24413">
        <ele>510.947769</ele>
        <time>2022-05-01T02:59:45.891Z</time>
      </trkpt>
      <trkpt lat="43.79879" lon="6.24497">
        <ele>512.551383</ele>
        <time>2022-05-01T03:00:09.454Z</time>
      </trkpt>
      <trkpt lat="43.79925" lon="6.24542">
        <ele>512.631992</ele>
        <time>2022-05-01T03:00:15.464Z</time>
      </trkpt>
      <trkpt lat="43.79971" lon="6.24601">
        <ele>512.721026</ele>
        <time>2022-05-01T03:00:23.888Z</time>
      </trkpt>
      <trkpt lat="43.80021" lon="6.24692">
        <ele>512.336833</ele>
        <time>2022-05-01T03:00:45.832Z</time>
      </trkpt>
      <trkpt lat="43.80091" lon="6.24853">
        <ele>510.604483</ele>
        <time>2022-05-01T03:01:00.101Z</time>
      </trkpt>
      <trkpt lat="43.80102" lon="6.2488">
        <ele>509.983414</ele>
        <time>2022-05-01T03:01:02.296Z</time>
      </trkpt>
      <trkpt lat="43.8012" lon="6.24904">
        <ele>509.063169</ele>
        <time>2022-05-01T03:01:05.475Z</time>
      </trkpt>
      <trkpt lat="43.80127" lon="6.2491">
        <ele>508.746787</ele>
        <time>2022-05-01T03:01:07.080Z</time>
      </trkpt>
      <trkpt lat="43.80218" lon="6.24977">
        <ele>504.837667</ele>
        <time>2022-05-01T03:01:17.841Z</time>
      </trkpt>
      <trkpt lat="43.80248" lon="6.24994">
        <ele>503.606843</ele>
        <time>2022-05-01T03:01:20.608Z</time>
      </trkpt>
      <trkpt lat="43.80271" lon="6.24993">
        <ele>502.350736</ele>
        <time>2022-05-01T03:01:22.646Z</time>
      </trkpt>
      <trkpt lat="43.80286" lon="6.24981">
        <ele>501.410482</ele>
        <time>2022-05-01T03:01:24.208Z</time>
      </trkpt>
      <trkpt lat="43.80299" lon="6.24952">
        <ele>500.104466</ele>
        <time>2022-05-01T03:01:26.453Z</time>
      </trkpt>
      <trkpt lat="43.80308" lon="6.24894">
        <ele>497.816135</ele>
        <time>2022-05-01T03:01:30.845Z</time>
      </trkpt>
      <trkpt lat="43.80351" lon="6.24822">
        <ele>494.156587</ele>
        <time>2022-05-01T03:01:37.731Z</time>
      </trkpt>
      <trkpt lat="43.8038" lon="6.24774">
        <ele>492.203507</ele>
        <time>2022-05-01T03:01:41.539Z</time>
      </trkpt>
      <trkpt lat="43.80392" lon="6.24742">
        <ele>491.050329</ele>
        <time>2022-05-01T03:01:43.884Z</time>
      </trkpt>
      <trkpt lat="43.80399" lon="6.24712">
        <ele>490.065707</ele>
        <time>2022-05-01T03:01:45.915Z</time>
      </trkpt>
      <trkpt lat="43.80425" lon="6.24457">
        <ele>486.357305</ele>
        <time>2022-05-01T03:02:06.952Z</time>
      </trkpt>
      <trkpt lat="43.80418" lon="6.24334">
        <ele>486.743574</ele>
        <time>2022-05-01T03:02:27.727Z</time>
      </trkpt>
      <trkpt lat="43.80427" lon="6.24128">
        <ele>491.798747</ele>
        <time>2022-05-01T03:03:10.353Z</time>
      </trkpt>
      <trkpt lat="43.80409" lon="6.23947">
        <ele>497.104586</ele>
        <time>2022-05-01T03:03:52.265Z</time>
      </trkpt>
      <trkpt lat="43.80428" lon="6.23782">
        <ele>502.347622</ele>
        <time>2022-05-01T03:04:30.088Z</time>
      </trkpt>
      <trkpt lat="43.80424" lon="6.23725">
        <ele>504.232292</ele>
        <time>2022-05-01T03:04:43.410Z</time>
      </trkpt>
      <trkpt lat="43.80402" lon="6.23663">
        <ele>506.551514</ele>
        <time>2022-05-01T03:04:58.935Z</time>
      </trkpt>
      <trkpt lat="43.80336" lon="6.23527">
        <ele>513.537899</ele>
        <time>2022-05-01T03:05:44.453Z</time>
      </trkpt>
      <trkpt lat="43.80327" lon="6.23499">
        <ele>514.982334</ele>
        <time>2022-05-01T03:05:52.798Z</time>
      </trkpt>
      <trkpt lat="43.80325" lon="6.23474">
        <ele>516.151734</ele>
        <time>2022-05-01T03:06:02.566Z</time>
      </trkpt>
      <trkpt lat="43.8033" lon="6.2344">
        <ele>517.813494</ele>
        <time>2022-05-01T03:06:13.605Z</time>
      </trkpt>
      <trkpt lat="43.80341" lon="6.2341">
        <ele>519.417519</ele>
        <time>2022-05-01T03:06:22.711Z</time>
      </trkpt>
      <trkpt lat="43.80355" lon="6.23391">
        <ele>520.578611</ele>
        <time>2022-05-01T03:06:33.871Z</time>
      </trkpt>
      <trkpt lat="43.80379" lon="6.23373">
        <ele>521.905566</ele>
        <time>2022-05-01T03:06:44.559Z</time>
      </trkpt>
      <trkpt lat="43.80412" lon="6.2337">
        <ele>523.479925</ele>
        <time>2022-05-01T03:06:57.426Z</time>
      </trkpt>
      <trkpt lat="43.80594" lon="6.23431">
        <ele>528.91051</ele>
        <time>2022-05-01T03:07:51.960Z</time>
      </trkpt>
      <trkpt lat="43.80603" lon="6.23434">
        <ele>528.912976</ele>
        <time>2022-05-01T03:07:53.045Z</time>
      </trkpt>
      <trkpt lat="43.80728" lon="6.23477">
        <ele>526.850282</ele>
        <time>2022-05-01T03:08:06.734Z</time>
      </trkpt>
      <trkpt lat="43.8078" lon="6.23475">
        <ele>523.556795</ele>
        <time>2022-05-01T03:08:11.736Z</time>
      </trkpt>
      <trkpt lat="43.80808" lon="6.23457">
        <ele>521.614104</ele>
        <time>2022-05-01T03:08:14.478Z</time>
      </trkpt>
      <trkpt lat="43.80833" lon="6.2343">
        <ele>519.553266</ele>
        <time>2022-05-01T03:08:17.310Z</time>
      </trkpt>
      <trkpt lat="43.80852" lon="6.2339">
        <ele>517.316768</ele>
        <time>2022-05-01T03:08:20.252Z</time>
      </trkpt>
      <trkpt lat="43.80861" lon="6.23353">
        <ele>514.63148</ele>
        <time>2022-05-01T03:08:22.664Z</time>
      </trkpt>
      <trkpt lat="43.80862" lon="6.23312">
        <ele>511.83215</ele>
        <time>2022-05-01T03:08:25.213Z</time>
      </trkpt>
      <trkpt lat="43.80856" lon="6.23273">
        <ele>509.072515</ele>
        <time>2022-05-01T03:08:27.728Z</time>
      </trkpt>
      <trkpt lat="43.80824" lon="6.23157">
        <ele>500.540408</ele>
        <time>2022-05-01T03:08:35.523Z</time>
      </trkpt>
      <trkpt lat="43.80817" lon="6.23114">
        <ele>498.779139</ele>
        <time>2022-05-01T03:08:38.238Z</time>
      </trkpt>
      <trkpt lat="43.80815" lon="6.23063">
        <ele>496.704318</ele>
        <time>2022-05-01T03:08:41.548Z</time>
      </trkpt>
      <trkpt lat="43.80821" lon="6.2301">
        <ele>494.57174</ele>
        <time>2022-05-01T03:08:45.165Z</time>
      </trkpt>
      <trkpt lat="43.80837" lon="6.22957">
        <ele>492.264985</ele>
        <time>2022-05-01T03:08:49.244Z</time>
      </trkpt>
      <trkpt lat="43.80862" lon="6.22909">
        <ele>490.435343</ele>
        <time>2022-05-01T03:08:53.766Z</time>
      </trkpt>
      <trkpt lat="43.80899" lon="6.22865">
        <ele>490.196409</ele>
        <time>2022-05-01T03:08:59.181Z</time>
      </trkpt>
      <trkpt lat="43.80935" lon="6.22841">
        <ele>489.996858</ele>
        <time>2022-05-01T03:09:04.309Z</time>
      </trkpt>
      <trkpt lat="43.80944" lon="6.22838">
        <ele>489.951675</ele>
        <time>2022-05-01T03:09:05.692Z</time>
      </trkpt>
      <trkpt lat="43.81222" lon="6.22714">
        <ele>492.15631</ele>
        <time>2022-05-01T03:10:01.847Z</time>
      </trkpt>
      <trkpt lat="43.81292" lon="6.22664">
        <ele>493.336557</ele>
        <time>2022-05-01T03:10:16.831Z</time>
      </trkpt>
      <trkpt lat="43.8132" lon="6.22647">
        <ele>493.785575</ele>
        <time>2022-05-01T03:10:23.543Z</time>
      </trkpt>
      <trkpt lat="43.81363" lon="6.22635">
        <ele>494.766207</ele>
        <time>2022-05-01T03:10:33.425Z</time>
      </trkpt>
      <trkpt lat="43.81482" lon="6.22641">
        <ele>499.133227</ele>
        <time>2022-05-01T03:11:08.096Z</time>
      </trkpt>
      <trkpt lat="43.81692" lon="6.22653">
        <ele>508.501358</ele>
        <time>2022-05-01T03:12:20.866Z</time>
      </trkpt>
      <trkpt lat="43.81857" lon="6.22662">
        <ele>514.189354</ele>
        <time>2022-05-01T03:13:10.133Z</time>
      </trkpt>
      <trkpt lat="43.81918" lon="6.2267">
        <ele>515.286277</ele>
        <time>2022-05-01T03:13:22.951Z</time>
      </trkpt>
      <trkpt lat="43.81951" lon="6.22672">
        <ele>515.341711</ele>
        <time>2022-05-01T03:13:28.589Z</time>
      </trkpt>
      <trkpt lat="43.82001" lon="6.22661">
        <ele>515.427158</ele>
        <time>2022-05-01T03:13:35.847Z</time>
      </trkpt>
      <trkpt lat="43.82066" lon="6.22628">
        <ele>515.535909</ele>
        <time>2022-05-01T03:13:44.409Z</time>
      </trkpt>
      <trkpt lat="43.82109" lon="6.22595">
        <ele>515.506351</ele>
        <time>2022-05-01T03:13:50.442Z</time>
      </trkpt>
      <trkpt lat="43.82327" lon="6.22461">
        <ele>517.362678</ele>
        <time>2022-05-01T03:14:28.927Z</time>
      </trkpt>
      <trkpt lat="43.82366" lon="6.22444">
        <ele>518.07104</ele>
        <time>2022-05-01T03:14:38.811Z</time>
      </trkpt>
      <trkpt lat="43.824" lon="6.22441">
        <ele>518.917972</ele>
        <time>2022-05-01T03:14:50.337Z</time>
      </trkpt>
      <trkpt lat="43.82494" lon="6.22467">
        <ele>524.129491</ele>
        <time>2022-05-01T03:15:27.554Z</time>
      </trkpt>
      <trkpt lat="43.8256" lon="6.22471">
        <ele>527.756673</ele>
        <time>2022-05-01T03:15:53.635Z</time>
      </trkpt>
      <trkpt lat="43.8262" lon="6.22473">
        <ele>529.437774</ele>
        <time>2022-05-01T03:16:13.625Z</time>
      </trkpt>
      <trkpt lat="43.82684" lon="6.22466">
        <ele>530.858009</ele>
        <time>2022-05-01T03:16:31.962Z</time>
      </trkpt>
      <trkpt lat="43.82721" lon="6.2246">
        <ele>531.652668</ele>
        <time>2022-05-01T03:16:37.059Z</time>
      </trkpt>
      <trkpt lat="43.82765" lon="6.22461">
        <ele>532.280179</ele>
        <time>2022-05-01T03:16:42.166Z</time>
      </trkpt>
      <trkpt lat="43.82794" lon="6.22473">
        <ele>532.187497</ele>
        <time>2022-05-01T03:16:45.432Z</time>
      </trkpt>
      <trkpt lat="43.82799" lon="6.22482">
        <ele>532.162141</ele>
        <time>2022-05-01T03:16:46.490Z</time>
      </trkpt>
      <trkpt lat="43.82809" lon="6.22483">
        <ele>532.132046</ele>
        <time>2022-05-01T03:16:47.569Z</time>
      </trkpt>
      <trkpt lat="43.82815" lon="6.22473">
        <ele>532.102516</ele>
        <time>2022-05-01T03:16:48.574Z</time>
      </trkpt>
      <trkpt lat="43.82825" lon="6.22469">
        <ele>532.071395</ele>
        <time>2022-05-01T03:16:49.815Z</time>
      </trkpt>
      <trkpt lat="43.82845" lon="6.22467">
        <ele>532.007438</ele>
        <time>2022-05-01T03:16:52.348Z</time>
      </trkpt>
      <trkpt lat="43.82927" lon="6.22485">
        <ele>531.897114</ele>
        <time>2022-05-01T03:17:07.000Z</time>
      </trkpt>
      <trkpt lat="43.82955" lon="6.22488">
        <ele>532.524265</ele>
        <time>2022-05-01T03:17:13.224Z</time>
      </trkpt>
      <trkpt lat="43.82986" lon="6.22493">
        <ele>533.244603</ele>
        <time>2022-05-01T03:17:21.059Z</time>
      </trkpt>
      <trkpt lat="43.83042" lon="6.225">
        <ele>534.537453</ele>
        <time>2022-05-01T03:17:37.150Z</time>
      </trkpt>
      <trkpt lat="43.83079" lon="6.22494">
        <ele>535.405984</ele>
        <time>2022-05-01T03:17:46.968Z</time>
      </trkpt>
      <trkpt lat="43.83117" lon="6.22474">
        <ele>535.651052</ele>
        <time>2022-05-01T03:17:56.298Z</time>
      </trkpt>
      <trkpt lat="43.83143" lon="6.22446">
        <ele>535.19994</ele>
        <time>2022-05-01T03:18:02.880Z</time>
      </trkpt>
      <trkpt lat="43.83287" lon="6.22216">
        <ele>530.791044</ele>
        <time>2022-05-01T03:18:25.586Z</time>
      </trkpt>
      <trkpt lat="43.83221" lon="6.22108">
        <ele>528.038391</ele>
        <time>2022-05-01T03:18:40.470Z</time>
      </trkpt>
      <trkpt lat="43.83191" lon="6.22096">
        <ele>527.722048</ele>
        <time>2022-05-01T03:18:45.283Z</time>
      </trkpt>
      <trkpt lat="43.83142" lon="6.22097">
        <ele>527.212027</ele>
        <time>2022-05-01T03:18:53.440Z</time>
      </trkpt>
      <trkpt lat="43.83118" lon="6.22085">
        <ele>526.958668</ele>
        <time>2022-05-01T03:18:58.009Z</time>
      </trkpt>
      <trkpt lat="43.83112" lon="6.22075">
        <ele>526.858864</ele>
        <time>2022-05-01T03:18:59.739Z</time>
      </trkpt>
      <trkpt lat="43.83109" lon="6.22063">
        <ele>526.761656</ele>
        <time>2022-05-01T03:19:01.793Z</time>
      </trkpt>
      <trkpt lat="43.83102" lon="6.22039">
        <ele>526.572835</ele>
        <time>2022-05-01T03:19:04.657Z</time>
      </trkpt>
      <trkpt lat="43.83152" lon="6.22024">
        <ele>526.752255</ele>
        <time>2022-05-01T03:19:13.873Z</time>
      </trkpt>
      <trkpt lat="43.83197" lon="6.22002">
        <ele>527.483127</ele>
        <time>2022-05-01T03:19:23.477Z</time>
      </trkpt>
      <trkpt lat="43.83272" lon="6.21952">
        <ele>528.753863</ele>
        <time>2022-05-01T03:19:41.825Z</time>
      </trkpt>
      <trkpt lat="43.83304" lon="6.21945">
        <ele>529.39712</ele>
        <time>2022-05-01T03:19:49.301Z</time>
      </trkpt>
      <trkpt lat="43.83402" lon="6.21874">
        <ele>532.431561</ele>
        <time>2022-05-01T03:20:17.563Z</time>
      </trkpt>
      <trkpt lat="43.83449" lon="6.2185">
        <ele>533.788407</ele>
        <time>2022-05-01T03:20:31.352Z</time>
      </trkpt>
      <trkpt lat="43.83522" lon="6.21794">
        <ele>536.166429</ele>
        <time>2022-05-01T03:20:54.436Z</time>
      </trkpt>
      <trkpt lat="43.83606" lon="6.21774">
        <ele>538.577264</ele>
        <time>2022-05-01T03:21:16.629Z</time>
      </trkpt>
      <trkpt lat="43.83652" lon="6.21687">
        <ele>540.294972</ele>
        <time>2022-05-01T03:21:34.934Z</time>
      </trkpt>
      <trkpt lat="43.83672" lon="6.21678">
        <ele>540.72311</ele>
        <time>2022-05-01T03:21:39.714Z</time>
      </trkpt>
      <trkpt lat="43.8372" lon="6.21591">
        <ele>542.311703</ele>
        <time>2022-05-01T03:21:56.858Z</time>
      </trkpt>
      <trkpt lat="43.83747" lon="6.21573">
        <ele>542.937688</ele>
        <time>2022-05-01T03:22:03.453Z</time>
      </trkpt>
      <trkpt lat="43.83796" lon="6.21557">
        <ele>544.103322</ele>
        <time>2022-05-01T03:22:15.409Z</time>
      </trkpt>
      <trkpt lat="43.83885" lon="6.21518">
        <ele>546.235592</ele>
        <time>2022-05-01T03:22:37.880Z</time>
      </trkpt>
      <trkpt lat="43.8392" lon="6.21469">
        <ele>547.487612</ele>
        <time>2022-05-01T03:22:50.633Z</time>
      </trkpt>
      <trkpt lat="43.8399" lon="6.21349">
        <ele>550.614616</ele>
        <time>2022-05-01T03:23:19.466Z</time>
      </trkpt>
      <trkpt lat="43.84077" lon="6.2121">
        <ele>555.096126</ele>
        <time>2022-05-01T03:23:55.046Z</time>
      </trkpt>
      <trkpt lat="43.84115" lon="6.21133">
        <ele>557.592548</ele>
        <time>2022-05-01T03:24:15.665Z</time>
      </trkpt>
      <trkpt lat="43.84094" lon="6.21049">
        <ele>561.079118</ele>
        <time>2022-05-01T03:24:36.936Z</time>
      </trkpt>
      <trkpt lat="43.84074" lon="6.20977">
        <ele>564.785793</ele>
        <time>2022-05-01T03:25:00.176Z</time>
      </trkpt>
      <trkpt lat="43.84072" lon="6.2095">
        <ele>566.075752</ele>
        <time>2022-05-01T03:25:09.646Z</time>
      </trkpt>
      <trkpt lat="43.84081" lon="6.20911">
        <ele>568.039323</ele>
        <time>2022-05-01T03:25:22.895Z</time>
      </trkpt>
      <trkpt lat="43.84113" lon="6.20844">
        <ele>571.995365</ele>
        <time>2022-05-01T03:25:49.690Z</time>
      </trkpt>
      <trkpt lat="43.84135" lon="6.20788">
        <ele>575.311424</ele>
        <time>2022-05-01T03:26:09.254Z</time>
      </trkpt>
      <trkpt lat="43.8413" lon="6.20781">
        <ele>575.796231</ele>
        <time>2022-05-01T03:26:13.296Z</time>
      </trkpt>
      <trkpt lat="43.84102" lon="6.20784">
        <ele>577.797086</ele>
        <time>2022-05-01T03:26:23.543Z</time>
      </trkpt>
      <trkpt lat="43.83986" lon="6.20774">
        <ele>586.193907</ele>
        <time>2022-05-01T03:27:16.348Z</time>
      </trkpt>
      <trkpt lat="43.83968" lon="6.20767">
        <ele>587.490949</ele>
        <time>2022-05-01T03:27:22.244Z</time>
      </trkpt>
      <trkpt lat="43.8397" lon="6.2075">
        <ele>588.366659</ele>
        <time>2022-05-01T03:27:28.404Z</time>
      </trkpt>
      <trkpt lat="43.84015" lon="6.20703">
        <ele>592.356188</ele>
        <time>2022-05-01T03:27:46.707Z</time>
      </trkpt>
      <trkpt lat="43.84018" lon="6.20692">
        <ele>592.957475</ele>
        <time>2022-05-01T03:27:53.958Z</time>
      </trkpt>
      <trkpt lat="43.84009" lon="6.20683">
        <ele>593.718153</ele>
        <time>2022-05-01T03:27:57.205Z</time>
      </trkpt>
      <trkpt lat="43.83966" lon="6.20676">
        <ele>596.914745</ele>
        <time>2022-05-01T03:28:17.935Z</time>
      </trkpt>
      <trkpt lat="43.8392" lon="6.20669">
        <ele>601.36685</ele>
        <time>2022-05-01T03:28:43.023Z</time>
      </trkpt>
      <trkpt lat="43.83912" lon="6.20663">
        <ele>602.194824</ele>
        <time>2022-05-01T03:28:50.934Z</time>
      </trkpt>
      <trkpt lat="43.83915" lon="6.20651">
        <ele>603.091454</ele>
        <time>2022-05-01T03:28:55.008Z</time>
      </trkpt>
      <trkpt lat="43.83965" lon="6.20574">
        <ele>610.137133</ele>
        <time>2022-05-01T03:29:33.834Z</time>
      </trkpt>
      <trkpt lat="43.83961" lon="6.20529">
        <ele>613.27541</ele>
        <time>2022-05-01T03:29:50.349Z</time>
      </trkpt>
      <trkpt lat="43.83943" lon="6.20443">
        <ele>619.266319</ele>
        <time>2022-05-01T03:30:25.217Z</time>
      </trkpt>
      <trkpt lat="43.83931" lon="6.20286">
        <ele>629.946244</ele>
        <time>2022-05-01T03:31:21.512Z</time>
      </trkpt>
      <trkpt lat="43.83934" lon="6.20233">
        <ele>634.958834</ele>
        <time>2022-05-01T03:31:43.424Z</time>
      </trkpt>
      <trkpt lat="43.83954" lon="6.20178">
        <ele>640.780762</ele>
        <time>2022-05-01T03:32:13.946Z</time>
      </trkpt>
      <trkpt lat="43.83966" lon="6.20169">
        <ele>642.635803</ele>
        <time>2022-05-01T03:32:24.819Z</time>
      </trkpt>
      <trkpt lat="43.83997" lon="6.20163">
        <ele>646.733607</ele>
        <time>2022-05-01T03:32:47.672Z</time>
      </trkpt>
      <trkpt lat="43.84007" lon="6.20144">
        <ele>648.969167</ele>
        <time>2022-05-01T03:33:00.389Z</time>
      </trkpt>
      <trkpt lat="43.84072" lon="6.20079">
        <ele>658.851057</ele>
        <time>2022-05-01T03:33:58.560Z</time>
      </trkpt>
      <trkpt lat="43.84077" lon="6.20064">
        <ele>660.283563</ele>
        <time>2022-05-01T03:34:07.277Z</time>
      </trkpt>
      <trkpt lat="43.84083" lon="6.19997">
        <ele>666.010107</ele>
        <time>2022-05-01T03:34:38.954Z</time>
      </trkpt>
      <trkpt lat="43.84094" lon="6.1996">
        <ele>669.447802</ele>
        <time>2022-05-01T03:34:56.812Z</time>
      </trkpt>
      <trkpt lat="43.84106" lon="6.19935">
        <ele>671.986215</ele>
        <time>2022-05-01T03:35:08.907Z</time>
      </trkpt>
      <trkpt lat="43.84106" lon="6.19926">
        <ele>672.769452</ele>
        <time>2022-05-01T03:35:11.915Z</time>
      </trkpt>
      <trkpt lat="43.841" lon="6.19918">
        <ele>673.815554</ele>
        <time>2022-05-01T03:35:17.022Z</time>
      </trkpt>
      <trkpt lat="43.84046" lon="6.19947">
        <ele>677.457777</ele>
        <time>2022-05-01T03:35:41.306Z</time>
      </trkpt>
      <trkpt lat="43.84016" lon="6.19963">
        <ele>679.131174</ele>
        <time>2022-05-01T03:35:51.948Z</time>
      </trkpt>
      <trkpt lat="43.84004" lon="6.19957">
        <ele>679.812287</ele>
        <time>2022-05-01T03:35:55.369Z</time>
      </trkpt>
      <trkpt lat="43.84002" lon="6.19951">
        <ele>680.056474</ele>
        <time>2022-05-01T03:35:57.107Z</time>
      </trkpt>
      <trkpt lat="43.84009" lon="6.19933">
        <ele>680.832834</ele>
        <time>2022-05-01T03:36:00.677Z</time>
      </trkpt>
      <trkpt lat="43.84044" lon="6.19883">
        <ele>683.463185</ele>
        <time>2022-05-01T03:36:15.420Z</time>
      </trkpt>
      <trkpt lat="43.84042" lon="6.19875">
        <ele>683.776761</ele>
        <time>2022-05-01T03:36:17.994Z</time>
      </trkpt>
      <trkpt lat="43.84034" lon="6.19874">
        <ele>684.187818</ele>
        <time>2022-05-01T03:36:20.382Z</time>
      </trkpt>
      <trkpt lat="43.83997" lon="6.19888">
        <ele>687.5237</ele>
        <time>2022-05-01T03:36:33.541Z</time>
      </trkpt>
      <trkpt lat="43.83992" lon="6.19876">
        <ele>688.404228</ele>
        <time>2022-05-01T03:36:36.503Z</time>
      </trkpt>
      <trkpt lat="43.8402" lon="6.19849">
        <ele>691.453226</ele>
        <time>2022-05-01T03:36:50.922Z</time>
      </trkpt>
      <trkpt lat="43.84022" lon="6.19837">
        <ele>692.226701</ele>
        <time>2022-05-01T03:36:54.498Z</time>
      </trkpt>
      <trkpt lat="43.84016" lon="6.19834">
        <ele>692.777086</ele>
        <time>2022-05-01T03:36:57.704Z</time>
      </trkpt>
      <trkpt lat="43.83989" lon="6.19846">
        <ele>695.324047</ele>
        <time>2022-05-01T03:37:12.192Z</time>
      </trkpt>
      <trkpt lat="43.83978" lon="6.19842">
        <ele>696.319717</ele>
        <time>2022-05-01T03:37:18.697Z</time>
      </trkpt>
      <trkpt lat="43.83977" lon="6.19836">
        <ele>696.68661</ele>
        <time>2022-05-01T03:37:21.057Z</time>
      </trkpt>
      <trkpt lat="43.84002" lon="6.19809">
        <ele>699.513755</ele>
        <time>2022-05-01T03:37:41.227Z</time>
      </trkpt>
      <trkpt lat="43.84005" lon="6.19799">
        <ele>700.211932</ele>
        <time>2022-05-01T03:37:46.320Z</time>
      </trkpt>
      <trkpt lat="43.84005" lon="6.19799">
        <ele>700.218387</ele>
        <time>2022-05-01T03:37:46.590Z</time>
      </trkpt>
      <trkpt lat="43.84004" lon="6.19775">
        <ele>703.134335</ele>
        <time>2022-05-01T03:37:58.759Z</time>
      </trkpt>
      <trkpt lat="43.83971" lon="6.19724">
        <ele>712.034209</ele>
        <time>2022-05-01T03:38:42.243Z</time>
      </trkpt>
      <trkpt lat="43.83968" lon="6.19661">
        <ele>720.295086</ele>
        <time>2022-05-01T03:39:26.279Z</time>
      </trkpt>
      <trkpt lat="43.8397" lon="6.19593">
        <ele>729.107249</ele>
        <time>2022-05-01T03:40:10.106Z</time>
      </trkpt>
      <trkpt lat="43.84" lon="6.19518">
        <ele>739.220452</ele>
        <time>2022-05-01T03:41:07.774Z</time>
      </trkpt>
      <trkpt lat="43.83991" lon="6.19512">
        <ele>740.72304</ele>
        <time>2022-05-01T03:41:16.769Z</time>
      </trkpt>
      <trkpt lat="43.83955" lon="6.19551">
        <ele>747.644434</ele>
        <time>2022-05-01T03:41:56.942Z</time>
      </trkpt>
      <trkpt lat="43.8394" lon="6.1955">
        <ele>750.067184</ele>
        <time>2022-05-01T03:42:10.481Z</time>
      </trkpt>
      <trkpt lat="43.83875" lon="6.19374">
        <ele>764.656808</ele>
        <time>2022-05-01T03:43:27.277Z</time>
      </trkpt>
      <trkpt lat="43.83868" lon="6.19364">
        <ele>765.228105</ele>
        <time>2022-05-01T03:43:32.787Z</time>
      </trkpt>
      <trkpt lat="43.83868" lon="6.19364">
        <ele>765.256765</ele>
        <time>2022-05-01T03:43:32.986Z</time>
      </trkpt>
      <trkpt lat="43.8385" lon="6.19363">
        <ele>766.255487</ele>
        <time>2022-05-01T03:43:38.312Z</time>
      </trkpt>
      <trkpt lat="43.8376" lon="6.19416">
        <ele>770.317939</ele>
        <time>2022-05-01T03:44:02.009Z</time>
      </trkpt>
      <trkpt lat="43.8369" lon="6.19441">
        <ele>769.124838</ele>
        <time>2022-05-01T03:44:09.560Z</time>
      </trkpt>
      <trkpt lat="43.83665" lon="6.19444">
        <ele>768.702159</ele>
        <time>2022-05-01T03:44:12.141Z</time>
      </trkpt>
      <trkpt lat="43.83548" lon="6.19384">
        <ele>767.14251</ele>
        <time>2022-05-01T03:44:25.653Z</time>
      </trkpt>
      <trkpt lat="43.83427" lon="6.19342">
        <ele>766.117903</ele>
        <time>2022-05-01T03:44:43.478Z</time>
      </trkpt>
      <trkpt lat="43.83399" lon="6.19343">
        <ele>766.061432</ele>
        <time>2022-05-01T03:44:48.144Z</time>
      </trkpt>
      <trkpt lat="43.83195" lon="6.19496">
        <ele>764.756533</ele>
        <time>2022-05-01T03:45:20.113Z</time>
      </trkpt>
      <trkpt lat="43.83026" lon="6.19498">
        <ele>762.781607</ele>
        <time>2022-05-01T03:45:38.706Z</time>
      </trkpt>
      <trkpt lat="43.82981" lon="6.19506">
        <ele>762.232416</ele>
        <time>2022-05-01T03:45:43.926Z</time>
      </trkpt>
      <trkpt lat="43.82878" lon="6.19579">
        <ele>762.323078</ele>
        <time>2022-05-01T03:46:00.619Z</time>
      </trkpt>
      <trkpt lat="43.82827" lon="6.19638">
        <ele>763.212029</ele>
        <time>2022-05-01T03:46:14.915Z</time>
      </trkpt>
      <trkpt lat="43.82649" lon="6.19714">
        <ele>766.891732</ele>
        <time>2022-05-01T03:47:01.698Z</time>
      </trkpt>
      <trkpt lat="43.82631" lon="6.19732">
        <ele>767.379828</ele>
        <time>2022-05-01T03:47:06.799Z</time>
      </trkpt>
      <trkpt lat="43.82544" lon="6.19855">
        <ele>769.325853</ele>
        <time>2022-05-01T03:47:31.946Z</time>
      </trkpt>
      <trkpt lat="43.82416" lon="6.19933">
        <ele>771.095138</ele>
        <time>2022-05-01T03:47:59.814Z</time>
      </trkpt>
      <trkpt lat="43.82346" lon="6.20034">
        <ele>772.208871</ele>
        <time>2022-05-01T03:48:19.931Z</time>
      </trkpt>
      <trkpt lat="43.82314" lon="6.20045">
        <ele>772.386192</ele>
        <time>2022-05-01T03:48:26.179Z</time>
      </trkpt>
      <trkpt lat="43.82188" lon="6.20061">
        <ele>771.620593</ele>
        <time>2022-05-01T03:48:43.760Z</time>
      </trkpt>
      <trkpt lat="43.81993" lon="6.19985">
        <ele>767.379943</ele>
        <time>2022-05-01T03:49:05.333Z</time>
      </trkpt>
      <trkpt lat="43.81935" lon="6.1995">
        <ele>765.294076</ele>
        <time>2022-05-01T03:49:11.768Z</time>
      </trkpt>
      <trkpt lat="43.81661" lon="6.19753">
        <ele>753.781419</ele>
        <time>2022-05-01T03:49:42.073Z</time>
      </trkpt>
      <trkpt lat="43.81554" lon="6.19664">
        <ele>749.067491</ele>
        <time>2022-05-01T03:49:54.462Z</time>
      </trkpt>
      <trkpt lat="43.81525" lon="6.19639">
        <ele>747.743202</ele>
        <time>2022-05-01T03:49:57.892Z</time>
      </trkpt>
      <trkpt lat="43.81384" lon="6.19518">
        <ele>740.768698</ele>
        <time>2022-05-01T03:50:13.918Z</time>
      </trkpt>
      <trkpt lat="43.81367" lon="6.19515">
        <ele>740.046779</ele>
        <time>2022-05-01T03:50:15.541Z</time>
      </trkpt>
      <trkpt lat="43.81285" lon="6.19532">
        <ele>736.339588</ele>
        <time>2022-05-01T03:50:23.455Z</time>
      </trkpt>
      <trkpt lat="43.81125" lon="6.19434">
        <ele>728.814321</ele>
        <time>2022-05-01T03:50:40.212Z</time>
      </trkpt>
      <trkpt lat="43.81054" lon="6.19407">
        <ele>726.043396</ele>
        <time>2022-05-01T03:50:47.363Z</time>
      </trkpt>
      <trkpt lat="43.80948" lon="6.19364">
        <ele>723.037095</ele>
        <time>2022-05-01T03:50:58.971Z</time>
      </trkpt>
      <trkpt lat="43.80915" lon="6.19333">
        <ele>722.34306</ele>
        <time>2022-05-01T03:51:03.520Z</time>
      </trkpt>
      <trkpt lat="43.80899" lon="6.19328">
        <ele>722.052565</ele>
        <time>2022-05-01T03:51:05.455Z</time>
      </trkpt>
      <trkpt lat="43.80886" lon="6.19338">
        <ele>721.793985</ele>
        <time>2022-05-01T03:51:07.157Z</time>
      </trkpt>
      <trkpt lat="43.80882" lon="6.19342">
        <ele>721.70439</ele>
        <time>2022-05-01T03:51:07.767Z</time>
      </trkpt>
      <trkpt lat="43.80838" lon="6.19388">
        <ele>720.762352</ele>
        <time>2022-05-01T03:51:14.507Z</time>
      </trkpt>
      <trkpt lat="43.8081" lon="6.19402">
        <ele>720.353136</ele>
        <time>2022-05-01T03:51:18.216Z</time>
      </trkpt>
      <trkpt lat="43.8011" lon="6.19568">
        <ele>710.423569</ele>
        <time>2022-05-01T03:52:40.640Z</time>
      </trkpt>
      <trkpt lat="43.80093" lon="6.1956">
        <ele>710.108576</ele>
        <time>2022-05-01T03:52:42.871Z</time>
      </trkpt>
      <trkpt lat="43.79968" lon="6.19457">
        <ele>707.412664</ele>
        <time>2022-05-01T03:52:59.519Z</time>
      </trkpt>
      <trkpt lat="43.79742" lon="6.19196">
        <ele>695.417202</ele>
        <time>2022-05-01T03:53:28.550Z</time>
      </trkpt>
      <trkpt lat="43.79559" lon="6.18985">
        <ele>679.490785</ele>
        <time>2022-05-01T03:53:49.674Z</time>
      </trkpt>
      <trkpt lat="43.79478" lon="6.18872">
        <ele>674.974316</ele>
        <time>2022-05-01T03:54:00.598Z</time>
      </trkpt>
      <trkpt lat="43.79402" lon="6.18765">
        <ele>672.465288</ele>
        <time>2022-05-01T03:54:13.340Z</time>
      </trkpt>
      <trkpt lat="43.79386" lon="6.18752">
        <ele>672.404595</ele>
        <time>2022-05-01T03:54:15.966Z</time>
      </trkpt>
      <trkpt lat="43.79302" lon="6.187">
        <ele>672.106067</ele>
        <time>2022-05-01T03:54:30.160Z</time>
      </trkpt>
      <trkpt lat="43.79213" lon="6.18687">
        <ele>672.291851</ele>
        <time>2022-05-01T03:54:44.855Z</time>
      </trkpt>
      <trkpt lat="43.79131" lon="6.18679">
        <ele>672.591788</ele>
        <time>2022-05-01T03:54:58.861Z</time>
      </trkpt>
      <trkpt lat="43.79073" lon="6.18669">
        <ele>672.466239</ele>
        <time>2022-05-01T03:55:07.758Z</time>
      </trkpt>
      <trkpt lat="43.79044" lon="6.18641">
        <ele>672.189598</ele>
        <time>2022-05-01T03:55:12.678Z</time>
      </trkpt>
      <trkpt lat="43.7842" lon="6.17895">
        <ele>664.650717</ele>
        <time>2022-05-01T03:56:55.406Z</time>
      </trkpt>
      <trkpt lat="43.78306" lon="6.17756">
        <ele>658.923437</ele>
        <time>2022-05-01T03:57:09.994Z</time>
      </trkpt>
      <trkpt lat="43.78209" lon="6.17625">
        <ele>655.218094</ele>
        <time>2022-05-01T03:57:23.433Z</time>
      </trkpt>
      <trkpt lat="43.78207" lon="6.17622">
        <ele>655.160566</ele>
        <time>2022-05-01T03:57:23.718Z</time>
      </trkpt>
      <trkpt lat="43.78148" lon="6.17541">
        <ele>653.416237</ele>
        <time>2022-05-01T03:57:33.624Z</time>
      </trkpt>
      <trkpt lat="43.77899" lon="6.17135">
        <ele>659.055297</ele>
        <time>2022-05-01T03:58:58.267Z</time>
      </trkpt>
      <trkpt lat="43.77612" lon="6.1677">
        <ele>659.397402</ele>
        <time>2022-05-01T03:59:57.868Z</time>
      </trkpt>
      <trkpt lat="43.77389" lon="6.16512">
        <ele>655.342239</ele>
        <time>2022-05-01T04:00:31.130Z</time>
      </trkpt>
      <trkpt lat="43.77253" lon="6.16331">
        <ele>651.580292</ele>
        <time>2022-05-01T04:00:51.586Z</time>
      </trkpt>
      <trkpt lat="43.77207" lon="6.16268">
        <ele>650.574893</ele>
        <time>2022-05-01T04:00:59.045Z</time>
      </trkpt>
      <trkpt lat="43.77129" lon="6.16153">
        <ele>648.818874</ele>
        <time>2022-05-01T04:01:12.280Z</time>
      </trkpt>
      <trkpt lat="43.7709" lon="6.16086">
        <ele>647.885077</ele>
        <time>2022-05-01T04:01:19.250Z</time>
      </trkpt>
      <trkpt lat="43.77023" lon="6.15966">
        <ele>646.235617</ele>
        <time>2022-05-01T04:01:31.735Z</time>
      </trkpt>
      <trkpt lat="43.7698" lon="6.15889">
        <ele>645.913487</ele>
        <time>2022-05-01T04:01:40.512Z</time>
      </trkpt>
      <trkpt lat="43.76947" lon="6.15777">
        <ele>645.691041</ele>
        <time>2022-05-01T04:01:53.718Z</time>
      </trkpt>
      <trkpt lat="43.76903" lon="6.15584">
        <ele>645.161416</ele>
        <time>2022-05-01T04:02:17.148Z</time>
      </trkpt>
      <trkpt lat="43.76879" lon="6.15452">
        <ele>643.950588</ele>
        <time>2022-05-01T04:02:28.733Z</time>
      </trkpt>
      <trkpt lat="43.76869" lon="6.15416">
        <ele>643.109455</ele>
        <time>2022-05-01T04:02:31.756Z</time>
      </trkpt>
      <trkpt lat="43.76834" lon="6.15333">
        <ele>641.004693</ele>
        <time>2022-05-01T04:02:38.691Z</time>
      </trkpt>
      <trkpt lat="43.7678" lon="6.15244">
        <ele>637.899846</ele>
        <time>2022-05-01T04:02:46.862Z</time>
      </trkpt>
      <trkpt lat="43.76774" lon="6.15233">
        <ele>637.43225</ele>
        <time>2022-05-01T04:02:47.787Z</time>
      </trkpt>
      <trkpt lat="43.76753" lon="6.15184">
        <ele>635.481812</ele>
        <time>2022-05-01T04:02:51.649Z</time>
      </trkpt>
      <trkpt lat="43.76701" lon="6.1513">
        <ele>632.418549</ele>
        <time>2022-05-01T04:02:57.705Z</time>
      </trkpt>
      <trkpt lat="43.76642" lon="6.15032">
        <ele>628.939023</ele>
        <time>2022-05-01T04:03:06.636Z</time>
      </trkpt>
      <trkpt lat="43.7658" lon="6.14947">
        <ele>626.1351</ele>
        <time>2022-05-01T04:03:15.618Z</time>
      </trkpt>
      <trkpt lat="43.76536" lon="6.14863">
        <ele>625.028611</ele>
        <time>2022-05-01T04:03:23.669Z</time>
      </trkpt>
      <trkpt lat="43.76358" lon="6.14809">
        <ele>626.73136</ele>
        <time>2022-05-01T04:03:54.062Z</time>
      </trkpt>
      <trkpt lat="43.76346" lon="6.14804">
        <ele>627.288517</ele>
        <time>2022-05-01T04:03:58.585Z</time>
      </trkpt>
      <trkpt lat="43.76333" lon="6.14786">
        <ele>628.065719</ele>
        <time>2022-05-01T04:04:04.390Z</time>
      </trkpt>
      <trkpt lat="43.76329" lon="6.14782">
        <ele>628.277612</ele>
        <time>2022-05-01T04:04:05.852Z</time>
      </trkpt>
      <trkpt lat="43.76339" lon="6.14777">
        <ele>628.723426</ele>
        <time>2022-05-01T04:04:10.156Z</time>
      </trkpt>
      <trkpt lat="43.76469" lon="6.14656">
        <ele>635.524513</ele>
        <time>2022-05-01T04:05:11.704Z</time>
      </trkpt>
      <trkpt lat="43.76509" lon="6.14626">
        <ele>637.558024</ele>
        <time>2022-05-01T04:05:27.310Z</time>
      </trkpt>
      <trkpt lat="43.76559" lon="6.146">
        <ele>639.933717</ele>
        <time>2022-05-01T04:05:42.605Z</time>
      </trkpt>
      <trkpt lat="43.76698" lon="6.14572">
        <ele>642.194877</ele>
        <time>2022-05-01T04:06:10.604Z</time>
      </trkpt>
      <trkpt lat="43.76838" lon="6.14566">
        <ele>643.315448</ele>
        <time>2022-05-01T04:06:35.935Z</time>
      </trkpt>
      <trkpt lat="43.77067" lon="6.1457">
        <ele>643.783773</ele>
        <time>2022-05-01T04:07:11.109Z</time>
      </trkpt>
      <trkpt lat="43.77077" lon="6.14569">
        <ele>643.785371</ele>
        <time>2022-05-01T04:07:12.404Z</time>
      </trkpt>
      <trkpt lat="43.77131" lon="6.14559">
        <ele>643.750244</ele>
        <time>2022-05-01T04:07:19.864Z</time>
      </trkpt>
      <trkpt lat="43.77445" lon="6.145">
        <ele>643.470721</ele>
        <time>2022-05-01T04:08:04.895Z</time>
      </trkpt>
      <trkpt lat="43.77649" lon="6.14498">
        <ele>644.650981</ele>
        <time>2022-05-01T04:08:41.094Z</time>
      </trkpt>
      <trkpt lat="43.7778" lon="6.14475">
        <ele>645.354827</ele>
        <time>2022-05-01T04:09:03.731Z</time>
      </trkpt>
      <trkpt lat="43.78067" lon="6.14394">
        <ele>646.600417</ele>
        <time>2022-05-01T04:09:52.289Z</time>
      </trkpt>
      <trkpt lat="43.78338" lon="6.14283">
        <ele>647.219795</ele>
        <time>2022-05-01T04:10:36.572Z</time>
      </trkpt>
      <trkpt lat="43.78351" lon="6.14277">
        <ele>647.235725</ele>
        <time>2022-05-01T04:10:38.530Z</time>
      </trkpt>
      <trkpt lat="43.78416" lon="6.14251">
        <ele>647.24179</ele>
        <time>2022-05-01T04:10:48.260Z</time>
      </trkpt>
      <trkpt lat="43.78451" lon="6.14227">
        <ele>647.24536</ele>
        <time>2022-05-01T04:10:54.243Z</time>
      </trkpt>
      <trkpt lat="43.78468" lon="6.14201">
        <ele>647.24762</ele>
        <time>2022-05-01T04:10:58.079Z</time>
      </trkpt>
      <trkpt lat="43.78465" lon="6.14182">
        <ele>647.24894</ele>
        <time>2022-05-01T04:11:00.237Z</time>
      </trkpt>
      <trkpt lat="43.78459" lon="6.14173">
        <ele>647.249699</ele>
        <time>2022-05-01T04:11:01.448Z</time>
      </trkpt>
      <trkpt lat="43.78421" lon="6.14169">
        <ele>647.167814</ele>
        <time>2022-05-01T04:11:07.087Z</time>
      </trkpt>
      <trkpt lat="43.784" lon="6.1416">
        <ele>647.065288</ele>
        <time>2022-05-01T04:11:10.251Z</time>
      </trkpt>
      <trkpt lat="43.78347" lon="6.14116">
        <ele>646.775205</ele>
        <time>2022-05-01T04:11:19.062Z</time>
      </trkpt>
      <trkpt lat="43.78283" lon="6.13987">
        <ele>645.93202</ele>
        <time>2022-05-01T04:11:33.301Z</time>
      </trkpt>
      <trkpt lat="43.7821" lon="6.13803">
        <ele>643.867461</ele>
        <time>2022-05-01T04:11:50.522Z</time>
      </trkpt>
      <trkpt lat="43.78209" lon="6.13799">
        <ele>643.821011</ele>
        <time>2022-05-01T04:11:50.916Z</time>
      </trkpt>
      <trkpt lat="43.78212" lon="6.13791">
        <ele>643.730202</ele>
        <time>2022-05-01T04:11:51.694Z</time>
      </trkpt>
      <trkpt lat="43.78193" lon="6.13585">
        <ele>641.660412</ele>
        <time>2022-05-01T04:12:09.197Z</time>
      </trkpt>
      <trkpt lat="43.78195" lon="6.13504">
        <ele>640.961419</ele>
        <time>2022-05-01T04:12:16.219Z</time>
      </trkpt>
      <trkpt lat="43.78217" lon="6.13351">
        <ele>639.678769</ele>
        <time>2022-05-01T04:12:29.689Z</time>
      </trkpt>
      <trkpt lat="43.78255" lon="6.13178">
        <ele>638.424059</ele>
        <time>2022-05-01T04:12:45.710Z</time>
      </trkpt>
      <trkpt lat="43.78258" lon="6.13087">
        <ele>637.815964</ele>
        <time>2022-05-01T04:12:53.896Z</time>
      </trkpt>
      <trkpt lat="43.78249" lon="6.13023">
        <ele>637.409202</ele>
        <time>2022-05-01T04:12:59.733Z</time>
      </trkpt>
      <trkpt lat="43.78188" lon="6.12797">
        <ele>636.006552</ele>
        <time>2022-05-01T04:13:21.499Z</time>
      </trkpt>
      <trkpt lat="43.78176" lon="6.12736">
        <ele>635.728474</ele>
        <time>2022-05-01T04:13:27.345Z</time>
      </trkpt>
      <trkpt lat="43.78172" lon="6.12648">
        <ele>635.340655</ele>
        <time>2022-05-01T04:13:35.690Z</time>
      </trkpt>
      <trkpt lat="43.78178" lon="6.12509">
        <ele>635.023712</ele>
        <time>2022-05-01T04:13:49.581Z</time>
      </trkpt>
      <trkpt lat="43.78185" lon="6.12229">
        <ele>634.675245</ele>
        <time>2022-05-01T04:14:19.190Z</time>
      </trkpt>
      <trkpt lat="43.7818" lon="6.12139">
        <ele>634.550634</ele>
        <time>2022-05-01T04:14:28.494Z</time>
      </trkpt>
      <trkpt lat="43.78133" lon="6.11662">
        <ele>632.673404</ele>
        <time>2022-05-01T04:15:13.898Z</time>
      </trkpt>
      <trkpt lat="43.78116" lon="6.11407">
        <ele>631.156491</ele>
        <time>2022-05-01T04:15:37.661Z</time>
      </trkpt>
      <trkpt lat="43.78124" lon="6.10757">
        <ele>622.274539</ele>
        <time>2022-05-01T04:16:30.948Z</time>
      </trkpt>
      <trkpt lat="43.78124" lon="6.10594">
        <ele>617.868551</ele>
        <time>2022-05-01T04:16:42.037Z</time>
      </trkpt>
      <trkpt lat="43.78117" lon="6.10471">
        <ele>613.716239</ele>
        <time>2022-05-01T04:16:50.299Z</time>
      </trkpt>
      <trkpt lat="43.7811" lon="6.10433">
        <ele>612.403607</ele>
        <time>2022-05-01T04:16:53.029Z</time>
      </trkpt>
      <trkpt lat="43.78096" lon="6.10385">
        <ele>610.636235</ele>
        <time>2022-05-01T04:16:56.738Z</time>
      </trkpt>
      <trkpt lat="43.78081" lon="6.1034">
        <ele>609.603925</ele>
        <time>2022-05-01T04:17:00.290Z</time>
      </trkpt>
      <trkpt lat="43.78061" lon="6.1026">
        <ele>608.308251</ele>
        <time>2022-05-01T04:17:06.694Z</time>
      </trkpt>
      <trkpt lat="43.77997" lon="6.10034">
        <ele>604.580453</ele>
        <time>2022-05-01T04:17:27.594Z</time>
      </trkpt>
      <trkpt lat="43.77996" lon="6.10031">
        <ele>604.529392</ele>
        <time>2022-05-01T04:17:27.849Z</time>
      </trkpt>
      <trkpt lat="43.77972" lon="6.09943">
        <ele>603.07465</ele>
        <time>2022-05-01T04:17:35.176Z</time>
      </trkpt>
      <trkpt lat="43.77968" lon="6.09929">
        <ele>602.83901</ele>
        <time>2022-05-01T04:17:36.292Z</time>
      </trkpt>
      <trkpt lat="43.77964" lon="6.09912">
        <ele>602.558543</ele>
        <time>2022-05-01T04:17:37.655Z</time>
      </trkpt>
      <trkpt lat="43.77961" lon="6.099">
        <ele>602.213262</ele>
        <time>2022-05-01T04:17:38.576Z</time>
      </trkpt>
      <trkpt lat="43.77953" lon="6.09846">
        <ele>599.895425</ele>
        <time>2022-05-01T04:17:42.346Z</time>
      </trkpt>
      <trkpt lat="43.77948" lon="6.09814">
        <ele>598.496486</ele>
        <time>2022-05-01T04:17:44.556Z</time>
      </trkpt>
      <trkpt lat="43.77945" lon="6.09793">
        <ele>597.612568</ele>
        <time>2022-05-01T04:17:45.964Z</time>
      </trkpt>
      <trkpt lat="43.7794" lon="6.09757">
        <ele>596.064475</ele>
        <time>2022-05-01T04:17:48.378Z</time>
      </trkpt>
      <trkpt lat="43.77938" lon="6.09744">
        <ele>595.509995</ele>
        <time>2022-05-01T04:17:49.228Z</time>
      </trkpt>
      <trkpt lat="43.77934" lon="6.0971">
        <ele>594.038546</ele>
        <time>2022-05-01T04:17:51.475Z</time>
      </trkpt>
      <trkpt lat="43.77932" lon="6.09694">
        <ele>593.380565</ele>
        <time>2022-05-01T04:17:52.482Z</time>
      </trkpt>
      <trkpt lat="43.77912" lon="6.09681">
        <ele>592.123453</ele>
        <time>2022-05-01T04:17:55.226Z</time>
      </trkpt>
      <trkpt lat="43.77901" lon="6.09656">
        <ele>591.078585</ele>
        <time>2022-05-01T04:17:57.952Z</time>
      </trkpt>
      <trkpt lat="43.77902" lon="6.09646">
        <ele>590.742586</ele>
        <time>2022-05-01T04:17:58.871Z</time>
      </trkpt>
      <trkpt lat="43.77909" lon="6.09593">
        <ele>588.917698</ele>
        <time>2022-05-01T04:18:03.886Z</time>
      </trkpt>
      <trkpt lat="43.77896" lon="6.09621">
        <ele>587.788159</ele>
        <time>2022-05-01T04:18:06.087Z</time>
      </trkpt>
      <trkpt lat="43.77892" lon="6.09631">
        <ele>587.396548</ele>
        <time>2022-05-01T04:18:06.860Z</time>
      </trkpt>
      <trkpt lat="43.77889" lon="6.0964">
        <ele>587.067596</ele>
        <time>2022-05-01T04:18:07.526Z</time>
      </trkpt>
      <trkpt lat="43.77885" lon="6.09652">
        <ele>586.616641</ele>
        <time>2022-05-01T04:18:08.424Z</time>
      </trkpt>
      <trkpt lat="43.77855" lon="6.09744">
        <ele>583.443714</ele>
        <time>2022-05-01T04:18:15.890Z</time>
      </trkpt>
      <trkpt lat="43.77838" lon="6.09834">
        <ele>583.226409</ele>
        <time>2022-05-01T04:18:26.140Z</time>
      </trkpt>
      <trkpt lat="43.77831" lon="6.09873">
        <ele>583.130506</ele>
        <time>2022-05-01T04:18:30.907Z</time>
      </trkpt>
      <trkpt lat="43.77822" lon="6.09885">
        <ele>583.090222</ele>
        <time>2022-05-01T04:18:32.967Z</time>
      </trkpt>
      <trkpt lat="43.77807" lon="6.09889">
        <ele>583.042746</ele>
        <time>2022-05-01T04:18:34.910Z</time>
      </trkpt>
      <trkpt lat="43.77777" lon="6.0988">
        <ele>582.940532</ele>
        <time>2022-05-01T04:18:39.098Z</time>
      </trkpt>
      <trkpt lat="43.77771" lon="6.09874">
        <ele>582.918122</ele>
        <time>2022-05-01T04:18:40.038Z</time>
      </trkpt>
      <trkpt lat="43.77768" lon="6.09857">
        <ele>582.902592</ele>
        <time>2022-05-01T04:18:41.771Z</time>
      </trkpt>
      <trkpt lat="43.77763" lon="6.098">
        <ele>583.717524</ele>
        <time>2022-05-01T04:18:48.975Z</time>
      </trkpt>
      <trkpt lat="43.77769" lon="6.09664">
        <ele>585.625889</ele>
        <time>2022-05-01T04:19:12.133Z</time>
      </trkpt>
      <trkpt lat="43.77744" lon="6.09658">
        <ele>586.120861</ele>
        <time>2022-05-01T04:19:18.812Z</time>
      </trkpt>
      <trkpt lat="43.77715" lon="6.09667">
        <ele>587.190625</ele>
        <time>2022-05-01T04:19:26.970Z</time>
      </trkpt>
      <trkpt lat="43.77709" lon="6.0967">
        <ele>587.500307</ele>
        <time>2022-05-01T04:19:28.922Z</time>
      </trkpt>
      <trkpt lat="43.77684" lon="6.09685">
        <ele>588.78827</ele>
        <time>2022-05-01T04:19:37.212Z</time>
      </trkpt>
      <trkpt lat="43.77676" lon="6.0969">
        <ele>589.203524</ele>
        <time>2022-05-01T04:19:40.109Z</time>
      </trkpt>
      <trkpt lat="43.77667" lon="6.09698">
        <ele>589.728073</ele>
        <time>2022-05-01T04:19:43.728Z</time>
      </trkpt>
      <trkpt lat="43.77641" lon="6.09728">
        <ele>591.364002</ele>
        <time>2022-05-01T04:19:56.186Z</time>
      </trkpt>
      <trkpt lat="43.77606" lon="6.09786">
        <ele>593.976818</ele>
        <time>2022-05-01T04:20:17.437Z</time>
      </trkpt>
      <trkpt lat="43.776" lon="6.09797">
        <ele>594.457021</ele>
        <time>2022-05-01T04:20:21.251Z</time>
      </trkpt>
      <trkpt lat="43.77592" lon="6.09814">
        <ele>595.161544</ele>
        <time>2022-05-01T04:20:26.807Z</time>
      </trkpt>
      <trkpt lat="43.77533" lon="6.09937">
        <ele>600.073144</ele>
        <time>2022-05-01T04:21:03.433Z</time>
      </trkpt>
      <trkpt lat="43.77518" lon="6.10015">
        <ele>602.77275</ele>
        <time>2022-05-01T04:21:21.313Z</time>
      </trkpt>
      <trkpt lat="43.77505" lon="6.10029">
        <ele>603.489829</ele>
        <time>2022-05-01T04:21:26.663Z</time>
      </trkpt>
      <trkpt lat="43.77486" lon="6.1002">
        <ele>604.278233</ele>
        <time>2022-05-01T04:21:31.939Z</time>
      </trkpt>
      <trkpt lat="43.77482" lon="6.09997">
        <ele>604.9318</ele>
        <time>2022-05-01T04:21:37.418Z</time>
      </trkpt>
      <trkpt lat="43.77491" lon="6.09906">
        <ele>607.510338</ele>
        <time>2022-05-01T04:21:56.054Z</time>
      </trkpt>
      <trkpt lat="43.77522" lon="6.09757">
        <ele>611.760701</ele>
        <time>2022-05-01T04:22:32.526Z</time>
      </trkpt>
      <trkpt lat="43.77515" lon="6.0972">
        <ele>612.7457</ele>
        <time>2022-05-01T04:22:40.363Z</time>
      </trkpt>
      <trkpt lat="43.77499" lon="6.09708">
        <ele>613.399516</ele>
        <time>2022-05-01T04:22:45.826Z</time>
      </trkpt>
      <trkpt lat="43.77472" lon="6.09714">
        <ele>614.384143</ele>
        <time>2022-05-01T04:22:54.052Z</time>
      </trkpt>
      <trkpt lat="43.77392" lon="6.0978">
        <ele>617.193782</ele>
        <time>2022-05-01T04:23:19.452Z</time>
      </trkpt>
      <trkpt lat="43.77348" lon="6.09794">
        <ele>617.841948</ele>
        <time>2022-05-01T04:23:31.016Z</time>
      </trkpt>
      <trkpt lat="43.77325" lon="6.09788">
        <ele>618.182601</ele>
        <time>2022-05-01T04:23:35.718Z</time>
      </trkpt>
      <trkpt lat="43.77246" lon="6.09739">
        <ele>619.406925</ele>
        <time>2022-05-01T04:23:50.119Z</time>
      </trkpt>
      <trkpt lat="43.77166" lon="6.09719">
        <ele>619.127547</ele>
        <time>2022-05-01T04:24:01.069Z</time>
      </trkpt>
      <trkpt lat="43.77083" lon="6.09688">
        <ele>618.832154</ele>
        <time>2022-05-01T04:24:12.419Z</time>
      </trkpt>
      <trkpt lat="43.77005" lon="6.09664">
        <ele>618.45336</ele>
        <time>2022-05-01T04:24:23.168Z</time>
      </trkpt>
      <trkpt lat="43.76929" lon="6.09651">
        <ele>618.075556</ele>
        <time>2022-05-01T04:24:33.533Z</time>
      </trkpt>
      <trkpt lat="43.76823" lon="6.09635">
        <ele>617.116203</ele>
        <time>2022-05-01T04:24:47.175Z</time>
      </trkpt>
      <trkpt lat="43.76673" lon="6.09579">
        <ele>615.406364</ele>
        <time>2022-05-01T04:25:05.266Z</time>
      </trkpt>
      <trkpt lat="43.76587" lon="6.09558">
        <ele>614.414108</ele>
        <time>2022-05-01T04:25:15.509Z</time>
      </trkpt>
      <trkpt lat="43.76583" lon="6.09558">
        <ele>614.371135</ele>
        <time>2022-05-01T04:25:15.951Z</time>
      </trkpt>
      <trkpt lat="43.76578" lon="6.0956">
        <ele>614.310724</ele>
        <time>2022-05-01T04:25:16.588Z</time>
      </trkpt>
      <trkpt lat="43.76469" lon="6.09582">
        <ele>613.565775</ele>
        <time>2022-05-01T04:25:31.252Z</time>
      </trkpt>
      <trkpt lat="43.76392" lon="6.09587">
        <ele>613.209761</ele>
        <time>2022-05-01T04:25:42.062Z</time>
      </trkpt>
      <trkpt lat="43.76296" lon="6.09624">
        <ele>612.299785</ele>
        <time>2022-05-01T04:25:54.806Z</time>
      </trkpt>
      <trkpt lat="43.76276" lon="6.09621">
        <ele>612.079477</ele>
        <time>2022-05-01T04:25:57.040Z</time>
      </trkpt>
      <trkpt lat="43.76168" lon="6.0957">
        <ele>610.819096</ele>
        <time>2022-05-01T04:26:10.494Z</time>
      </trkpt>
      <trkpt lat="43.7614" lon="6.0955">
        <ele>610.468338</ele>
        <time>2022-05-01T04:26:14.018Z</time>
      </trkpt>
      <trkpt lat="43.76118" lon="6.09521">
        <ele>610.128058</ele>
        <time>2022-05-01T04:26:17.852Z</time>
      </trkpt>
      <trkpt lat="43.76103" lon="6.09489">
        <ele>609.825461</ele>
        <time>2022-05-01T04:26:21.314Z</time>
      </trkpt>
      <trkpt lat="43.761" lon="6.0947">
        <ele>609.66796</ele>
        <time>2022-05-01T04:26:23.106Z</time>
      </trkpt>
      <trkpt lat="43.76099" lon="6.09418">
        <ele>609.247923</ele>
        <time>2022-05-01T04:26:27.786Z</time>
      </trkpt>
      <trkpt lat="43.76094" lon="6.09391">
        <ele>608.94503</ele>
        <time>2022-05-01T04:26:30.205Z</time>
      </trkpt>
      <trkpt lat="43.76049" lon="6.0935">
        <ele>607.699952</ele>
        <time>2022-05-01T04:26:36.606Z</time>
      </trkpt>
      <trkpt lat="43.76028" lon="6.09307">
        <ele>606.828798</ele>
        <time>2022-05-01T04:26:40.853Z</time>
      </trkpt>
      <trkpt lat="43.75958" lon="6.08992">
        <ele>599.232974</ele>
        <time>2022-05-01T04:27:04.642Z</time>
      </trkpt>
      <trkpt lat="43.75945" lon="6.08961">
        <ele>598.235422</ele>
        <time>2022-05-01T04:27:07.133Z</time>
      </trkpt>
      <trkpt lat="43.75921" lon="6.08921">
        <ele>596.251784</ele>
        <time>2022-05-01T04:27:10.698Z</time>
      </trkpt>
      <trkpt lat="43.75898" lon="6.08904">
        <ele>594.837486</ele>
        <time>2022-05-01T04:27:13.226Z</time>
      </trkpt>
      <trkpt lat="43.75865" lon="6.08895">
        <ele>593.004324</ele>
        <time>2022-05-01T04:27:16.450Z</time>
      </trkpt>
      <trkpt lat="43.75857" lon="6.08888">
        <ele>592.521379</ele>
        <time>2022-05-01T04:27:17.277Z</time>
      </trkpt>
      <trkpt lat="43.75817" lon="6.08805">
        <ele>588.549636</ele>
        <time>2022-05-01T04:27:23.946Z</time>
      </trkpt>
      <trkpt lat="43.75734" lon="6.08735">
        <ele>577.538466</ele>
        <time>2022-05-01T04:27:32.455Z</time>
      </trkpt>
      <trkpt lat="43.75709" lon="6.08725">
        <ele>574.556055</ele>
        <time>2022-05-01T04:27:34.668Z</time>
      </trkpt>
      <trkpt lat="43.75643" lon="6.08722">
        <ele>566.296463</ele>
        <time>2022-05-01T04:27:40.145Z</time>
      </trkpt>
      <trkpt lat="43.75599" lon="6.08725">
        <ele>558.467276</ele>
        <time>2022-05-01T04:27:43.746Z</time>
      </trkpt>
      <trkpt lat="43.75538" lon="6.08741">
        <ele>547.481921</ele>
        <time>2022-05-01T04:27:48.799Z</time>
      </trkpt>
      <trkpt lat="43.75474" lon="6.08769">
        <ele>535.752465</ele>
        <time>2022-05-01T04:27:54.340Z</time>
      </trkpt>
      <trkpt lat="43.75457" lon="6.08784">
        <ele>533.428892</ele>
        <time>2022-05-01T04:27:55.992Z</time>
      </trkpt>
      <trkpt lat="43.75449" lon="6.08804">
        <ele>531.404452</ele>
        <time>2022-05-01T04:27:57.413Z</time>
      </trkpt>
      <trkpt lat="43.75449" lon="6.08828">
        <ele>529.373196</ele>
        <time>2022-05-01T04:27:58.868Z</time>
      </trkpt>
      <trkpt lat="43.75463" lon="6.08882">
        <ele>524.581111</ele>
        <time>2022-05-01T04:28:02.317Z</time>
      </trkpt>
      <trkpt lat="43.75466" lon="6.08934">
        <ele>520.141426</ele>
        <time>2022-05-01T04:28:05.594Z</time>
      </trkpt>
      <trkpt lat="43.75474" lon="6.08956">
        <ele>518.096022</ele>
        <time>2022-05-01T04:28:07.150Z</time>
      </trkpt>
      <trkpt lat="43.75488" lon="6.08974">
        <ele>515.863732</ele>
        <time>2022-05-01T04:28:08.963Z</time>
      </trkpt>
      <trkpt lat="43.75477" lon="6.08977">
        <ele>514.916766</ele>
        <time>2022-05-01T04:28:09.987Z</time>
      </trkpt>
      <trkpt lat="43.75453" lon="6.08946">
        <ele>513.194956</ele>
        <time>2022-05-01T04:28:13.157Z</time>
      </trkpt>
      <trkpt lat="43.75436" lon="6.08898">
        <ele>511.216122</ele>
        <time>2022-05-01T04:28:16.763Z</time>
      </trkpt>
      <trkpt lat="43.75422" lon="6.08865">
        <ele>509.7494</ele>
        <time>2022-05-01T04:28:19.479Z</time>
      </trkpt>
      <trkpt lat="43.75353" lon="6.088">
        <ele>505.35981</ele>
        <time>2022-05-01T04:28:27.250Z</time>
      </trkpt>
      <trkpt lat="43.75341" lon="6.08797">
        <ele>504.646069</ele>
        <time>2022-05-01T04:28:28.460Z</time>
      </trkpt>
      <trkpt lat="43.75303" lon="6.08809">
        <ele>502.326471</ele>
        <time>2022-05-01T04:28:32.148Z</time>
      </trkpt>
      <trkpt lat="43.75299" lon="6.08811">
        <ele>502.112414</ele>
        <time>2022-05-01T04:28:32.478Z</time>
      </trkpt>
      <trkpt lat="43.75295" lon="6.08808">
        <ele>501.837053</ele>
        <time>2022-05-01T04:28:32.924Z</time>
      </trkpt>
      <trkpt lat="43.75286" lon="6.088">
        <ele>501.189693</ele>
        <time>2022-05-01T04:28:33.886Z</time>
      </trkpt>
      <trkpt lat="43.75208" lon="6.08796">
        <ele>496.626131</ele>
        <time>2022-05-01T04:28:41.015Z</time>
      </trkpt>
      <trkpt lat="43.75165" lon="6.08803">
        <ele>493.929167</ele>
        <time>2022-05-01T04:28:44.930Z</time>
      </trkpt>
      <trkpt lat="43.75139" lon="6.08819">
        <ele>492.041133</ele>
        <time>2022-05-01T04:28:47.470Z</time>
      </trkpt>
      <trkpt lat="43.75138" lon="6.08809">
        <ele>491.542489</ele>
        <time>2022-05-01T04:28:48.186Z</time>
      </trkpt>
      <trkpt lat="43.75161" lon="6.08776">
        <ele>489.402777</ele>
        <time>2022-05-01T04:28:51.150Z</time>
      </trkpt>
      <trkpt lat="43.75172" lon="6.08751">
        <ele>487.984024</ele>
        <time>2022-05-01T04:28:53.081Z</time>
      </trkpt>
      <trkpt lat="43.752" lon="6.0865">
        <ele>482.986158</ele>
        <time>2022-05-01T04:29:00.205Z</time>
      </trkpt>
      <trkpt lat="43.75218" lon="6.08617">
        <ele>481.380819</ele>
        <time>2022-05-01T04:29:03.056Z</time>
      </trkpt>
      <trkpt lat="43.75243" lon="6.08592">
        <ele>479.71689</ele>
        <time>2022-05-01T04:29:05.978Z</time>
      </trkpt>
      <trkpt lat="43.75276" lon="6.086">
        <ele>477.872358</ele>
        <time>2022-05-01T04:29:09.306Z</time>
      </trkpt>
      <trkpt lat="43.75285" lon="6.08595">
        <ele>477.341974</ele>
        <time>2022-05-01T04:29:10.240Z</time>
      </trkpt>
      <trkpt lat="43.75283" lon="6.08585">
        <ele>476.9112</ele>
        <time>2022-05-01T04:29:10.977Z</time>
      </trkpt>
      <trkpt lat="43.75272" lon="6.08574">
        <ele>476.223165</ele>
        <time>2022-05-01T04:29:12.209Z</time>
      </trkpt>
      <trkpt lat="43.75196" lon="6.08507">
        <ele>469.890456</ele>
        <time>2022-05-01T04:29:20.379Z</time>
      </trkpt>
      <trkpt lat="43.75173" lon="6.08496">
        <ele>467.754715</ele>
        <time>2022-05-01T04:29:22.549Z</time>
      </trkpt>
      <trkpt lat="43.75084" lon="6.08488">
        <ele>459.969722</ele>
        <time>2022-05-01T04:29:30.254Z</time>
      </trkpt>
      <trkpt lat="43.75052" lon="6.08513">
        <ele>456.455271</ele>
        <time>2022-05-01T04:29:33.471Z</time>
      </trkpt>
      <trkpt lat="43.74989" lon="6.08529">
        <ele>449.893159</ele>
        <time>2022-05-01T04:29:38.900Z</time>
      </trkpt>
      <trkpt lat="43.74919" lon="6.08527">
        <ele>442.758144</ele>
        <time>2022-05-01T04:29:44.820Z</time>
      </trkpt>
      <trkpt lat="43.74871" lon="6.08568">
        <ele>437.326153</ele>
        <time>2022-05-01T04:29:49.870Z</time>
      </trkpt>
      <trkpt lat="43.74856" lon="6.08574">
        <ele>435.992666</ele>
        <time>2022-05-01T04:29:51.179Z</time>
      </trkpt>
      <trkpt lat="43.74829" lon="6.08574">
        <ele>433.683456</ele>
        <time>2022-05-01T04:29:53.581Z</time>
      </trkpt>
      <trkpt lat="43.74802" lon="6.0856">
        <ele>431.166896</ele>
        <time>2022-05-01T04:29:56.152Z</time>
      </trkpt>
      <trkpt lat="43.74776" lon="6.0852">
        <ele>427.840597</ele>
        <time>2022-05-01T04:29:59.514Z</time>
      </trkpt>
      <trkpt lat="43.74749" lon="6.08507">
        <ele>425.365239</ele>
        <time>2022-05-01T04:30:02.002Z</time>
      </trkpt>
      <trkpt lat="43.74737" lon="6.08508">
        <ele>424.352221</ele>
        <time>2022-05-01T04:30:03.019Z</time>
      </trkpt>
      <trkpt lat="43.74695" lon="6.08541">
        <ele>421.160872</ele>
        <time>2022-05-01T04:30:07.274Z</time>
      </trkpt>
      <trkpt lat="43.74657" lon="6.08546">
        <ele>418.679346</ele>
        <time>2022-05-01T04:30:10.768Z</time>
      </trkpt>
      <trkpt lat="43.74618" lon="6.08528">
        <ele>416.009239</ele>
        <time>2022-05-01T04:30:14.545Z</time>
      </trkpt>
      <trkpt lat="43.74592" lon="6.08487">
        <ele>413.452317</ele>
        <time>2022-05-01T04:30:18.153Z</time>
      </trkpt>
      <trkpt lat="43.7459" lon="6.08446">
        <ele>412.052184</ele>
        <time>2022-05-01T04:30:20.896Z</time>
      </trkpt>
      <trkpt lat="43.74608" lon="6.08412">
        <ele>411.234377</ele>
        <time>2022-05-01T04:30:23.885Z</time>
      </trkpt>
      <trkpt lat="43.74652" lon="6.08375">
        <ele>409.881531</ele>
        <time>2022-05-01T04:30:29.148Z</time>
      </trkpt>
      <trkpt lat="43.7466" lon="6.08358">
        <ele>409.486501</ele>
        <time>2022-05-01T04:30:30.828Z</time>
      </trkpt>
      <trkpt lat="43.74661" lon="6.08341">
        <ele>409.166651</ele>
        <time>2022-05-01T04:30:32.173Z</time>
      </trkpt>
      <trkpt lat="43.74653" lon="6.08319">
        <ele>408.670223</ele>
        <time>2022-05-01T04:30:34.347Z</time>
      </trkpt>
      <trkpt lat="43.74616" lon="6.08294">
        <ele>407.613924</ele>
        <time>2022-05-01T04:30:39.358Z</time>
      </trkpt>
      <trkpt lat="43.74603" lon="6.08274">
        <ele>407.576266</ele>
        <time>2022-05-01T04:30:41.702Z</time>
      </trkpt>
      <trkpt lat="43.746" lon="6.08249">
        <ele>407.539576</ele>
        <time>2022-05-01T04:30:44.084Z</time>
      </trkpt>
      <trkpt lat="43.74604" lon="6.08227">
        <ele>407.506211</ele>
        <time>2022-05-01T04:30:46.241Z</time>
      </trkpt>
      <trkpt lat="43.74638" lon="6.08196">
        <ele>407.425193</ele>
        <time>2022-05-01T04:30:51.743Z</time>
      </trkpt>
      <trkpt lat="43.74642" lon="6.0818">
        <ele>407.401221</ele>
        <time>2022-05-01T04:30:54.647Z</time>
      </trkpt>
      <trkpt lat="43.74634" lon="6.08164">
        <ele>407.37243</ele>
        <time>2022-05-01T04:30:56.404Z</time>
      </trkpt>
      <trkpt lat="43.74601" lon="6.08134">
        <ele>407.293781</ele>
        <time>2022-05-01T04:31:02.184Z</time>
      </trkpt>
      <trkpt lat="43.74591" lon="6.08118">
        <ele>407.262319</ele>
        <time>2022-05-01T04:31:05.081Z</time>
      </trkpt>
      <trkpt lat="43.74579" lon="6.08087">
        <ele>407.436861</ele>
        <time>2022-05-01T04:31:08.696Z</time>
      </trkpt>
      <trkpt lat="43.74569" lon="6.08033">
        <ele>407.767562</ele>
        <time>2022-05-01T04:31:15.613Z</time>
      </trkpt>
      <trkpt lat="43.74563" lon="6.08025">
        <ele>407.834056</ele>
        <time>2022-05-01T04:31:18.047Z</time>
      </trkpt>
      <trkpt lat="43.74529" lon="6.08033">
        <ele>408.117351</ele>
        <time>2022-05-01T04:31:24.321Z</time>
      </trkpt>
      <trkpt lat="43.74515" lon="6.08025">
        <ele>408.239634</ele>
        <time>2022-05-01T04:31:26.870Z</time>
      </trkpt>
      <trkpt lat="43.7445" lon="6.07934">
        <ele>409.037129</ele>
        <time>2022-05-01T04:31:45.006Z</time>
      </trkpt>
      <trkpt lat="43.74443" lon="6.07914">
        <ele>409.190393</ele>
        <time>2022-05-01T04:31:47.393Z</time>
      </trkpt>
      <trkpt lat="43.74442" lon="6.07857">
        <ele>409.57681</ele>
        <time>2022-05-01T04:31:53.993Z</time>
      </trkpt>
      <trkpt lat="43.74433" lon="6.07835">
        <ele>409.746002</ele>
        <time>2022-05-01T04:31:57.690Z</time>
      </trkpt>
      <trkpt lat="43.74419" lon="6.0782">
        <ele>409.918253</ele>
        <time>2022-05-01T04:32:00.932Z</time>
      </trkpt>
      <trkpt lat="43.74399" lon="6.07816">
        <ele>410.110288</ele>
        <time>2022-05-01T04:32:05.295Z</time>
      </trkpt>
      <trkpt lat="43.74377" lon="6.07823">
        <ele>410.323441</ele>
        <time>2022-05-01T04:32:09.574Z</time>
      </trkpt>
      <trkpt lat="43.74369" lon="6.07829">
        <ele>410.407344</ele>
        <time>2022-05-01T04:32:11.336Z</time>
      </trkpt>
      <trkpt lat="43.7435" lon="6.0784">
        <ele>410.670504</ele>
        <time>2022-05-01T04:32:15.292Z</time>
      </trkpt>
      <trkpt lat="43.74326" lon="6.07838">
        <ele>410.978063</ele>
        <time>2022-05-01T04:32:20.386Z</time>
      </trkpt>
      <trkpt lat="43.74311" lon="6.07826">
        <ele>411.197471</ele>
        <time>2022-05-01T04:32:23.728Z</time>
      </trkpt>
      <trkpt lat="43.74266" lon="6.07749">
        <ele>412.113936</ele>
        <time>2022-05-01T04:32:37.789Z</time>
      </trkpt>
      <trkpt lat="43.7425" lon="6.07744">
        <ele>412.319217</ele>
        <time>2022-05-01T04:32:40.584Z</time>
      </trkpt>
      <trkpt lat="43.74219" lon="6.07754">
        <ele>412.741734</ele>
        <time>2022-05-01T04:32:47.113Z</time>
      </trkpt>
      <trkpt lat="43.74171" lon="6.07721">
        <ele>413.601341</ele>
        <time>2022-05-01T04:32:58.611Z</time>
      </trkpt>
      <trkpt lat="43.74074" lon="6.07763">
        <ele>415.229063</ele>
        <time>2022-05-01T04:33:21.535Z</time>
      </trkpt>
      <trkpt lat="43.74037" lon="6.07774">
        <ele>415.678035</ele>
        <time>2022-05-01T04:33:29.131Z</time>
      </trkpt>
      <trkpt lat="43.74024" lon="6.07771">
        <ele>415.736103</ele>
        <time>2022-05-01T04:33:32.203Z</time>
      </trkpt>
      <trkpt lat="43.73996" lon="6.07713">
        <ele>415.967377</ele>
        <time>2022-05-01T04:33:40.075Z</time>
      </trkpt>
      <trkpt lat="43.73982" lon="6.07694">
        <ele>416.055736</ele>
        <time>2022-05-01T04:33:44.136Z</time>
      </trkpt>
      <trkpt lat="43.73973" lon="6.0769">
        <ele>416.100658</ele>
        <time>2022-05-01T04:33:46.169Z</time>
      </trkpt>
      <trkpt lat="43.73964" lon="6.07689">
        <ele>416.143751</ele>
        <time>2022-05-01T04:33:47.128Z</time>
      </trkpt>
      <trkpt lat="43.73948" lon="6.07701">
        <ele>416.226558</ele>
        <time>2022-05-01T04:33:51.012Z</time>
      </trkpt>
      <trkpt lat="43.73914" lon="6.07829">
        <ele>415.504723</ele>
        <time>2022-05-01T04:34:03.827Z</time>
      </trkpt>
      <trkpt lat="43.73903" lon="6.07844">
        <ele>415.239063</ele>
        <time>2022-05-01T04:34:06.302Z</time>
      </trkpt>
      <trkpt lat="43.73877" lon="6.07862">
        <ele>414.723028</ele>
        <time>2022-05-01T04:34:09.269Z</time>
      </trkpt>
      <trkpt lat="43.73859" lon="6.07889">
        <ele>414.260285</ele>
        <time>2022-05-01T04:34:12.112Z</time>
      </trkpt>
      <trkpt lat="43.73856" lon="6.07895">
        <ele>414.164742</ele>
        <time>2022-05-01T04:34:12.721Z</time>
      </trkpt>
      <trkpt lat="43.73848" lon="6.07916">
        <ele>413.869716</ele>
        <time>2022-05-01T04:34:14.446Z</time>
      </trkpt>
      <trkpt lat="43.73838" lon="6.08043">
        <ele>412.391792</ele>
        <time>2022-05-01T04:34:24.238Z</time>
      </trkpt>
      <trkpt lat="43.73829" lon="6.08086">
        <ele>411.90621</ele>
        <time>2022-05-01T04:34:27.714Z</time>
      </trkpt>
      <trkpt lat="43.73815" lon="6.08114">
        <ele>411.536486</ele>
        <time>2022-05-01T04:34:30.355Z</time>
      </trkpt>
      <trkpt lat="43.73795" lon="6.08137">
        <ele>411.136544</ele>
        <time>2022-05-01T04:34:33.316Z</time>
      </trkpt>
      <trkpt lat="43.73749" lon="6.08148">
        <ele>410.824877</ele>
        <time>2022-05-01T04:34:40.458Z</time>
      </trkpt>
      <trkpt lat="43.73706" lon="6.08143">
        <ele>412.134085</ele>
        <time>2022-05-01T04:34:48.892Z</time>
      </trkpt>
      <trkpt lat="43.7366" lon="6.08099">
        <ele>413.863769</ele>
        <time>2022-05-01T04:35:03.943Z</time>
      </trkpt>
      <trkpt lat="43.73633" lon="6.08061">
        <ele>415.023676</ele>
        <time>2022-05-01T04:35:16.576Z</time>
      </trkpt>
      <trkpt lat="43.73611" lon="6.08016">
        <ele>416.440951</ele>
        <time>2022-05-01T04:35:30.738Z</time>
      </trkpt>
      <trkpt lat="43.73602" lon="6.07993">
        <ele>417.747746</ele>
        <time>2022-05-01T04:35:37.839Z</time>
      </trkpt>
      <trkpt lat="43.73591" lon="6.07936">
        <ele>420.60907</ele>
        <time>2022-05-01T04:35:54.672Z</time>
      </trkpt>
      <trkpt lat="43.73585" lon="6.078">
        <ele>427.298116</ele>
        <time>2022-05-01T04:36:38.786Z</time>
      </trkpt>
      <trkpt lat="43.7359" lon="6.0777">
        <ele>428.789395</ele>
        <time>2022-05-01T04:36:48.693Z</time>
      </trkpt>
      <trkpt lat="43.73617" lon="6.07716">
        <ele>432.196694</ele>
        <time>2022-05-01T04:37:09.769Z</time>
      </trkpt>
      <trkpt lat="43.73622" lon="6.077">
        <ele>433.077282</ele>
        <time>2022-05-01T04:37:15.747Z</time>
      </trkpt>
      <trkpt lat="43.73619" lon="6.07679">
        <ele>434.18198</ele>
        <time>2022-05-01T04:37:21.656Z</time>
      </trkpt>
      <trkpt lat="43.73597" lon="6.07647">
        <ele>436.439971</ele>
        <time>2022-05-01T04:37:34.747Z</time>
      </trkpt>
      <trkpt lat="43.73556" lon="6.07653">
        <ele>439.370878</ele>
        <time>2022-05-01T04:37:52.530Z</time>
      </trkpt>
      <trkpt lat="43.73527" lon="6.07645">
        <ele>441.477157</ele>
        <time>2022-05-01T04:38:06.185Z</time>
      </trkpt>
      <trkpt lat="43.73494" lon="6.07617">
        <ele>444.043592</ele>
        <time>2022-05-01T04:38:22.774Z</time>
      </trkpt>
      <trkpt lat="43.7348" lon="6.07583">
        <ele>445.967791</ele>
        <time>2022-05-01T04:38:34.174Z</time>
      </trkpt>
      <trkpt lat="43.73404" lon="6.07561">
        <ele>451.240361</ele>
        <time>2022-05-01T04:39:06.276Z</time>
      </trkpt>
      <trkpt lat="43.73343" lon="6.07524">
        <ele>455.548302</ele>
        <time>2022-05-01T04:39:32.959Z</time>
      </trkpt>
      <trkpt lat="43.73307" lon="6.07481">
        <ele>458.555677</ele>
        <time>2022-05-01T04:39:54.522Z</time>
      </trkpt>
      <trkpt lat="43.73284" lon="6.0744">
        <ele>460.952862</ele>
        <time>2022-05-01T04:40:10.469Z</time>
      </trkpt>
      <trkpt lat="43.73236" lon="6.07416">
        <ele>464.122052</ele>
        <time>2022-05-01T04:40:28.969Z</time>
      </trkpt>
      <trkpt lat="43.73219" lon="6.07399">
        <ele>465.027461</ele>
        <time>2022-05-01T04:40:36.802Z</time>
      </trkpt>
      <trkpt lat="43.73195" lon="6.07347">
        <ele>466.4752</ele>
        <time>2022-05-01T04:40:51.223Z</time>
      </trkpt>
      <trkpt lat="43.73183" lon="6.07333">
        <ele>466.981166</ele>
        <time>2022-05-01T04:40:55.635Z</time>
      </trkpt>
      <trkpt lat="43.73144" lon="6.07337">
        <ele>468.239571</ele>
        <time>2022-05-01T04:41:05.968Z</time>
      </trkpt>
      <trkpt lat="43.7312" lon="6.07322">
        <ele>469.115114</ele>
        <time>2022-05-01T04:41:12.788Z</time>
      </trkpt>
      <trkpt lat="43.73013" lon="6.07223">
        <ele>470.83436</ele>
        <time>2022-05-01T04:41:39.128Z</time>
      </trkpt>
      <trkpt lat="43.72979" lon="6.07194">
        <ele>471.02945</ele>
        <time>2022-05-01T04:41:45.160Z</time>
      </trkpt>
      <trkpt lat="43.7295" lon="6.07159">
        <ele>471.218465</ele>
        <time>2022-05-01T04:41:50.302Z</time>
      </trkpt>
      <trkpt lat="43.72935" lon="6.07145">
        <ele>471.191606</ele>
        <time>2022-05-01T04:41:52.623Z</time>
      </trkpt>
      <trkpt lat="43.72767" lon="6.07074">
        <ele>468.64228</ele>
        <time>2022-05-01T04:42:12.462Z</time>
      </trkpt>
      <trkpt lat="43.72634" lon="6.07036">
        <ele>467.297158</ele>
        <time>2022-05-01T04:42:28.716Z</time>
      </trkpt>
      <trkpt lat="43.72612" lon="6.07018">
        <ele>467.043725</ele>
        <time>2022-05-01T04:42:32.007Z</time>
      </trkpt>
      <trkpt lat="43.72599" lon="6.07002">
        <ele>466.875518</ele>
        <time>2022-05-01T04:42:34.591Z</time>
      </trkpt>
      <trkpt lat="43.72545" lon="6.0694">
        <ele>466.876234</ele>
        <time>2022-05-01T04:42:44.366Z</time>
      </trkpt>
      <trkpt lat="43.72525" lon="6.06901">
        <ele>466.876583</ele>
        <time>2022-05-01T04:42:49.509Z</time>
      </trkpt>
      <trkpt lat="43.7252" lon="6.0689">
        <ele>466.876682</ele>
        <time>2022-05-01T04:42:50.978Z</time>
      </trkpt>
      <trkpt lat="43.72515" lon="6.06881">
        <ele>466.876766</ele>
        <time>2022-05-01T04:42:52.293Z</time>
      </trkpt>
      <trkpt lat="43.72513" lon="6.06876">
        <ele>466.876805</ele>
        <time>2022-05-01T04:42:52.922Z</time>
      </trkpt>
      <trkpt lat="43.72504" lon="6.06859">
        <ele>466.876959</ele>
        <time>2022-05-01T04:42:55.557Z</time>
      </trkpt>
      <trkpt lat="43.72476" lon="6.06825">
        <ele>466.87734</ele>
        <time>2022-05-01T04:43:01.550Z</time>
      </trkpt>
      <trkpt lat="43.7246" lon="6.06809">
        <ele>466.988089</ele>
        <time>2022-05-01T04:43:04.729Z</time>
      </trkpt>
      <trkpt lat="43.7245" lon="6.06809">
        <ele>467.04214</ele>
        <time>2022-05-01T04:43:06.294Z</time>
      </trkpt>
      <trkpt lat="43.72441" lon="6.06805">
        <ele>467.09655</ele>
        <time>2022-05-01T04:43:07.775Z</time>
      </trkpt>
      <trkpt lat="43.72429" lon="6.06793">
        <ele>467.178096</ele>
        <time>2022-05-01T04:43:10.114Z</time>
      </trkpt>
      <trkpt lat="43.72408" lon="6.06765">
        <ele>467.345578</ele>
        <time>2022-05-01T04:43:15.186Z</time>
      </trkpt>
      <trkpt lat="43.72396" lon="6.06749">
        <ele>467.43585</ele>
        <time>2022-05-01T04:43:18.124Z</time>
      </trkpt>
      <trkpt lat="43.72313" lon="6.06681">
        <ele>468.295551</ele>
        <time>2022-05-01T04:43:34.968Z</time>
      </trkpt>
      <trkpt lat="43.7228" lon="6.06638">
        <ele>469.454099</ele>
        <time>2022-05-01T04:43:43.226Z</time>
      </trkpt>
      <trkpt lat="43.72259" lon="6.0661">
        <ele>470.195918</ele>
        <time>2022-05-01T04:43:49.094Z</time>
      </trkpt>
      <trkpt lat="43.72241" lon="6.06581">
        <ele>470.884328</ele>
        <time>2022-05-01T04:43:57.675Z</time>
      </trkpt>
      <trkpt lat="43.72225" lon="6.06544">
        <ele>471.68113</ele>
        <time>2022-05-01T04:44:07.475Z</time>
      </trkpt>
      <trkpt lat="43.7222" lon="6.06521">
        <ele>472.111587</ele>
        <time>2022-05-01T04:44:13.295Z</time>
      </trkpt>
      <trkpt lat="43.72218" lon="6.06447">
        <ele>474.323313</ele>
        <time>2022-05-01T04:44:30.339Z</time>
      </trkpt>
      <trkpt lat="43.72203" lon="6.06416">
        <ele>475.563028</ele>
        <time>2022-05-01T04:44:38.002Z</time>
      </trkpt>
      <trkpt lat="43.72186" lon="6.06409">
        <ele>476.388164</ele>
        <time>2022-05-01T04:44:45.103Z</time>
      </trkpt>
      <trkpt lat="43.72148" lon="6.06423">
        <ele>478.17776</ele>
        <time>2022-05-01T04:44:57.888Z</time>
      </trkpt>
      <trkpt lat="43.72099" lon="6.06433">
        <ele>480.473568</ele>
        <time>2022-05-01T04:45:14.292Z</time>
      </trkpt>
      <trkpt lat="43.72079" lon="6.06481">
        <ele>482.160612</ele>
        <time>2022-05-01T04:45:28.229Z</time>
      </trkpt>
      <trkpt lat="43.72067" lon="6.06486">
        <ele>482.687908</ele>
        <time>2022-05-01T04:45:34.482Z</time>
      </trkpt>
      <trkpt lat="43.72056" lon="6.06462">
        <ele>483.581217</ele>
        <time>2022-05-01T04:45:41.113Z</time>
      </trkpt>
      <trkpt lat="43.72051" lon="6.06404">
        <ele>485.345147</ele>
        <time>2022-05-01T04:45:52.955Z</time>
      </trkpt>
      <trkpt lat="43.72078" lon="6.06327">
        <ele>487.959265</ele>
        <time>2022-05-01T04:46:11.594Z</time>
      </trkpt>
      <trkpt lat="43.72079" lon="6.06314">
        <ele>488.34145</ele>
        <time>2022-05-01T04:46:13.861Z</time>
      </trkpt>
      <trkpt lat="43.72072" lon="6.0629">
        <ele>488.698185</ele>
        <time>2022-05-01T04:46:20.982Z</time>
      </trkpt>
      <trkpt lat="43.72044" lon="6.06264">
        <ele>489.342684</ele>
        <time>2022-05-01T04:46:30.528Z</time>
      </trkpt>
      <trkpt lat="43.71933" lon="6.06197">
        <ele>491.660711</ele>
        <time>2022-05-01T04:46:55.978Z</time>
      </trkpt>
      <trkpt lat="43.71865" lon="6.06152">
        <ele>490.807077</ele>
        <time>2022-05-01T04:47:05.181Z</time>
      </trkpt>
      <trkpt lat="43.71852" lon="6.06133">
        <ele>490.54327</ele>
        <time>2022-05-01T04:47:07.397Z</time>
      </trkpt>
      <trkpt lat="43.71849" lon="6.0612">
        <ele>490.411795</ele>
        <time>2022-05-01T04:47:08.495Z</time>
      </trkpt>
      <trkpt lat="43.71849" lon="6.06093">
        <ele>490.138208</ele>
        <time>2022-05-01T04:47:10.714Z</time>
      </trkpt>
      <trkpt lat="43.71855" lon="6.06066">
        <ele>489.86069</ele>
        <time>2022-05-01T04:47:12.953Z</time>
      </trkpt>
      <trkpt lat="43.71867" lon="6.06045">
        <ele>489.598631</ele>
        <time>2022-05-01T04:47:14.977Z</time>
      </trkpt>
      <trkpt lat="43.71896" lon="6.06023">
        <ele>489.022142</ele>
        <time>2022-05-01T04:47:18.408Z</time>
      </trkpt>
      <trkpt lat="43.71895" lon="6.06014">
        <ele>488.840823</ele>
        <time>2022-05-01T04:47:19.134Z</time>
      </trkpt>
      <trkpt lat="43.71829" lon="6.06009">
        <ele>487.135397</ele>
        <time>2022-05-01T04:47:26.021Z</time>
      </trkpt>
      <trkpt lat="43.71803" lon="6.06003">
        <ele>486.452694</ele>
        <time>2022-05-01T04:47:28.767Z</time>
      </trkpt>
      <trkpt lat="43.71781" lon="6.05989">
        <ele>485.818229</ele>
        <time>2022-05-01T04:47:31.268Z</time>
      </trkpt>
      <trkpt lat="43.7174" lon="6.05921">
        <ele>484.317055</ele>
        <time>2022-05-01T04:47:37.993Z</time>
      </trkpt>
      <trkpt lat="43.71695" lon="6.05818">
        <ele>482.866317</ele>
        <time>2022-05-01T04:47:47.635Z</time>
      </trkpt>
      <trkpt lat="43.71627" lon="6.05662">
        <ele>480.966683</ele>
        <time>2022-05-01T04:48:03.540Z</time>
      </trkpt>
      <trkpt lat="43.71559" lon="6.0545">
        <ele>479.598727</ele>
        <time>2022-05-01T04:48:23.509Z</time>
      </trkpt>
      <trkpt lat="43.71513" lon="6.05333">
        <ele>479.619944</ele>
        <time>2022-05-01T04:48:37.072Z</time>
      </trkpt>
      <trkpt lat="43.71492" lon="6.05295">
        <ele>479.627591</ele>
        <time>2022-05-01T04:48:43.966Z</time>
      </trkpt>
      <trkpt lat="43.71475" lon="6.05275">
        <ele>480.163864</ele>
        <time>2022-05-01T04:48:48.986Z</time>
      </trkpt>
      <trkpt lat="43.71388" lon="6.05228">
        <ele>482.825658</ele>
        <time>2022-05-01T04:49:12.807Z</time>
      </trkpt>
      <trkpt lat="43.71373" lon="6.05234">
        <ele>483.278153</ele>
        <time>2022-05-01T04:49:16.832Z</time>
      </trkpt>
      <trkpt lat="43.7135" lon="6.05276">
        <ele>484.369092</ele>
        <time>2022-05-01T04:49:29.361Z</time>
      </trkpt>
      <trkpt lat="43.71339" lon="6.05276">
        <ele>484.676707</ele>
        <time>2022-05-01T04:49:32.455Z</time>
      </trkpt>
      <trkpt lat="43.71333" lon="6.05261">
        <ele>485.001035</ele>
        <time>2022-05-01T04:49:36.454Z</time>
      </trkpt>
      <trkpt lat="43.71324" lon="6.05207">
        <ele>485.905057</ele>
        <time>2022-05-01T04:49:49.438Z</time>
      </trkpt>
      <trkpt lat="43.71311" lon="6.05121">
        <ele>487.335967</ele>
        <time>2022-05-01T04:50:04.432Z</time>
      </trkpt>
      <trkpt lat="43.71305" lon="6.05103">
        <ele>487.665307</ele>
        <time>2022-05-01T04:50:08.732Z</time>
      </trkpt>
      <trkpt lat="43.71267" lon="6.05043">
        <ele>488.787158</ele>
        <time>2022-05-01T04:50:17.894Z</time>
      </trkpt>
      <trkpt lat="43.71256" lon="6.05008">
        <ele>488.33957</ele>
        <time>2022-05-01T04:50:22.822Z</time>
      </trkpt>
      <trkpt lat="43.71241" lon="6.04942">
        <ele>487.523073</ele>
        <time>2022-05-01T04:50:29.227Z</time>
      </trkpt>
      <trkpt lat="43.71239" lon="6.04913">
        <ele>487.178599</ele>
        <time>2022-05-01T04:50:32.029Z</time>
      </trkpt>
      <trkpt lat="43.71251" lon="6.04858">
        <ele>486.50389</ele>
        <time>2022-05-01T04:50:36.267Z</time>
      </trkpt>
      <trkpt lat="43.71261" lon="6.04835">
        <ele>486.192414</ele>
        <time>2022-05-01T04:50:38.184Z</time>
      </trkpt>
      <trkpt lat="43.71275" lon="6.0482">
        <ele>485.827923</ele>
        <time>2022-05-01T04:50:39.977Z</time>
      </trkpt>
      <trkpt lat="43.71293" lon="6.04813">
        <ele>484.913019</ele>
        <time>2022-05-01T04:50:41.696Z</time>
      </trkpt>
      <trkpt lat="43.71348" lon="6.04806">
        <ele>482.112782</ele>
        <time>2022-05-01T04:50:46.998Z</time>
      </trkpt>
      <trkpt lat="43.71379" lon="6.04765">
        <ele>479.986125</ele>
        <time>2022-05-01T04:50:51.025Z</time>
      </trkpt>
      <trkpt lat="43.71413" lon="6.04737">
        <ele>477.990116</ele>
        <time>2022-05-01T04:50:54.737Z</time>
      </trkpt>
      <trkpt lat="43.71415" lon="6.04721">
        <ele>477.405847</ele>
        <time>2022-05-01T04:50:55.758Z</time>
      </trkpt>
      <trkpt lat="43.71415" lon="6.04715">
        <ele>477.19933</ele>
        <time>2022-05-01T04:50:56.144Z</time>
      </trkpt>
      <trkpt lat="43.7141" lon="6.04715">
        <ele>476.906151</ele>
        <time>2022-05-01T04:50:56.709Z</time>
      </trkpt>
      <trkpt lat="43.71271" lon="6.04711">
        <ele>469.171972</ele>
        <time>2022-05-01T04:51:09.496Z</time>
      </trkpt>
      <trkpt lat="43.71231" lon="6.04698">
        <ele>466.91849</ele>
        <time>2022-05-01T04:51:13.372Z</time>
      </trkpt>
      <trkpt lat="43.71195" lon="6.04666">
        <ele>464.356235</ele>
        <time>2022-05-01T04:51:17.418Z</time>
      </trkpt>
      <trkpt lat="43.71141" lon="6.04572">
        <ele>459.240557</ele>
        <time>2022-05-01T04:51:25.578Z</time>
      </trkpt>
      <trkpt lat="43.71118" lon="6.0455">
        <ele>457.567371</ele>
        <time>2022-05-01T04:51:28.198Z</time>
      </trkpt>
      <trkpt lat="43.71095" lon="6.04539">
        <ele>456.012798</ele>
        <time>2022-05-01T04:51:30.329Z</time>
      </trkpt>
      <trkpt lat="43.71073" lon="6.04531">
        <ele>453.755084</ele>
        <time>2022-05-01T04:51:32.292Z</time>
      </trkpt>
      <trkpt lat="43.71028" lon="6.0451">
        <ele>448.963389</ele>
        <time>2022-05-01T04:51:36.422Z</time>
      </trkpt>
      <trkpt lat="43.71012" lon="6.04481">
        <ele>446.318071</ele>
        <time>2022-05-01T04:51:38.650Z</time>
      </trkpt>
      <trkpt lat="43.71008" lon="6.04456">
        <ele>444.475399</ele>
        <time>2022-05-01T04:51:40.190Z</time>
      </trkpt>
      <trkpt lat="43.71016" lon="6.0443">
        <ele>442.385012</ele>
        <time>2022-05-01T04:51:41.984Z</time>
      </trkpt>
      <trkpt lat="43.71029" lon="6.04415">
        <ele>440.692762</ele>
        <time>2022-05-01T04:51:43.389Z</time>
      </trkpt>
      <trkpt lat="43.71067" lon="6.04386">
        <ele>436.542633</ele>
        <time>2022-05-01T04:51:47.120Z</time>
      </trkpt>
      <trkpt lat="43.71073" lon="6.0436">
        <ele>434.784624</ele>
        <time>2022-05-01T04:51:48.831Z</time>
      </trkpt>
      <trkpt lat="43.71064" lon="6.04333">
        <ele>432.926102</ele>
        <time>2022-05-01T04:51:50.584Z</time>
      </trkpt>
      <trkpt lat="43.71032" lon="6.04302">
        <ele>429.351508</ele>
        <time>2022-05-01T04:51:54.050Z</time>
      </trkpt>
      <trkpt lat="43.71027" lon="6.04289">
        <ele>428.42355</ele>
        <time>2022-05-01T04:51:54.936Z</time>
      </trkpt>
      <trkpt lat="43.71009" lon="6.04209">
        <ele>423.054049</ele>
        <time>2022-05-01T04:52:00.274Z</time>
      </trkpt>
      <trkpt lat="43.71003" lon="6.04147">
        <ele>420.565117</ele>
        <time>2022-05-01T04:52:04.461Z</time>
      </trkpt>
      <trkpt lat="43.70992" lon="6.04116">
        <ele>419.452918</ele>
        <time>2022-05-01T04:52:07.078Z</time>
      </trkpt>
      <trkpt lat="43.70989" lon="6.04092">
        <ele>418.670251</ele>
        <time>2022-05-01T04:52:08.771Z</time>
      </trkpt>
      <trkpt lat="43.70995" lon="6.04035">
        <ele>416.791157</ele>
        <time>2022-05-01T04:52:12.931Z</time>
      </trkpt>
      <trkpt lat="43.71013" lon="6.03956">
        <ele>414.153373</ele>
        <time>2022-05-01T04:52:18.699Z</time>
      </trkpt>
      <trkpt lat="43.71016" lon="6.03925">
        <ele>413.046595</ele>
        <time>2022-05-01T04:52:20.937Z</time>
      </trkpt>
      <trkpt lat="43.71009" lon="6.03896">
        <ele>411.968142</ele>
        <time>2022-05-01T04:52:23.103Z</time>
      </trkpt>
      <trkpt lat="43.70999" lon="6.03892">
        <ele>411.436018</ele>
        <time>2022-05-01T04:52:24.126Z</time>
      </trkpt>
      <trkpt lat="43.70988" lon="6.03899">
        <ele>410.820187</ele>
        <time>2022-05-01T04:52:25.391Z</time>
      </trkpt>
      <trkpt lat="43.70975" lon="6.03951">
        <ele>408.886997</ele>
        <time>2022-05-01T04:52:29.227Z</time>
      </trkpt>
      <trkpt lat="43.70916" lon="6.04101">
        <ele>402.176705</ele>
        <time>2022-05-01T04:52:40.472Z</time>
      </trkpt>
      <trkpt lat="43.70892" lon="6.04135">
        <ele>400.034123</ele>
        <time>2022-05-01T04:52:43.588Z</time>
      </trkpt>
      <trkpt lat="43.70862" lon="6.0416">
        <ele>397.838672</ele>
        <time>2022-05-01T04:52:46.773Z</time>
      </trkpt>
      <trkpt lat="43.70828" lon="6.04173">
        <ele>395.611055</ele>
        <time>2022-05-01T04:52:50.014Z</time>
      </trkpt>
      <trkpt lat="43.70652" lon="6.0418">
        <ele>385.812765</ele>
        <time>2022-05-01T04:53:06.270Z</time>
      </trkpt>
      <trkpt lat="43.70647" lon="6.0418">
        <ele>385.55508</ele>
        <time>2022-05-01T04:53:06.721Z</time>
      </trkpt>
      <trkpt lat="43.70512" lon="6.04207">
        <ele>379.359557</ele>
        <time>2022-05-01T04:53:19.990Z</time>
      </trkpt>
      <trkpt lat="43.70507" lon="6.04208">
        <ele>379.141992</ele>
        <time>2022-05-01T04:53:20.488Z</time>
      </trkpt>
      <trkpt lat="43.705" lon="6.04209">
        <ele>378.841919</ele>
        <time>2022-05-01T04:53:21.170Z</time>
      </trkpt>
      <trkpt lat="43.70359" lon="6.04235">
        <ele>373.14741</ele>
        <time>2022-05-01T04:53:34.874Z</time>
      </trkpt>
      <trkpt lat="43.70354" lon="6.04236">
        <ele>372.953687</ele>
        <time>2022-05-01T04:53:35.361Z</time>
      </trkpt>
      <trkpt lat="43.70274" lon="6.04246">
        <ele>369.853412</ele>
        <time>2022-05-01T04:53:43.370Z</time>
      </trkpt>
      <trkpt lat="43.70263" lon="6.04243">
        <ele>369.507358</ele>
        <time>2022-05-01T04:53:44.514Z</time>
      </trkpt>
      <trkpt lat="43.70235" lon="6.04225">
        <ele>368.988319</ele>
        <time>2022-05-01T04:53:47.681Z</time>
      </trkpt>
      <trkpt lat="43.70224" lon="6.04206">
        <ele>368.70019</ele>
        <time>2022-05-01T04:53:49.465Z</time>
      </trkpt>
      <trkpt lat="43.70217" lon="6.04194">
        <ele>368.498791</ele>
        <time>2022-05-01T04:53:50.706Z</time>
      </trkpt>
      <trkpt lat="43.70207" lon="6.0418">
        <ele>368.263047</ele>
        <time>2022-05-01T04:53:52.219Z</time>
      </trkpt>
      <trkpt lat="43.702" lon="6.04171">
        <ele>368.102347</ele>
        <time>2022-05-01T04:53:53.271Z</time>
      </trkpt>
      <trkpt lat="43.70135" lon="6.04076">
        <ele>366.547085</ele>
        <time>2022-05-01T04:54:05.062Z</time>
      </trkpt>
      <trkpt lat="43.7012" lon="6.04054">
        <ele>366.648909</ele>
        <time>2022-05-01T04:54:08.142Z</time>
      </trkpt>
      <trkpt lat="43.70099" lon="6.04021">
        <ele>366.801815</ele>
        <time>2022-05-01T04:54:13.285Z</time>
      </trkpt>
      <trkpt lat="43.70077" lon="6.0399">
        <ele>366.949492</ele>
        <time>2022-05-01T04:54:18.391Z</time>
      </trkpt>
      <trkpt lat="43.70044" lon="6.0394">
        <ele>367.181792</ele>
        <time>2022-05-01T04:54:26.329Z</time>
      </trkpt>
      <trkpt lat="43.70042" lon="6.03935">
        <ele>367.204685</ele>
        <time>2022-05-01T04:54:27.245Z</time>
      </trkpt>
      <trkpt lat="43.70009" lon="6.03859">
        <ele>367.991533</ele>
        <time>2022-05-01T04:54:40.226Z</time>
      </trkpt>
      <trkpt lat="43.69992" lon="6.0382">
        <ele>368.813633</ele>
        <time>2022-05-01T04:54:47.708Z</time>
      </trkpt>
      <trkpt lat="43.69985" lon="6.03805">
        <ele>369.141106</ele>
        <time>2022-05-01T04:54:50.601Z</time>
      </trkpt>
      <trkpt lat="43.6998" lon="6.03795">
        <ele>369.360071</ele>
        <time>2022-05-01T04:54:52.553Z</time>
      </trkpt>
      <trkpt lat="43.69977" lon="6.0379">
        <ele>369.472943</ele>
        <time>2022-05-01T04:54:53.575Z</time>
      </trkpt>
      <trkpt lat="43.69973" lon="6.03783">
        <ele>369.631967</ele>
        <time>2022-05-01T04:54:55.057Z</time>
      </trkpt>
      <trkpt lat="43.69978" lon="6.03785">
        <ele>369.762175</ele>
        <time>2022-05-01T04:54:56.230Z</time>
      </trkpt>
      <trkpt lat="43.69987" lon="6.03789">
        <ele>369.98033</ele>
        <time>2022-05-01T04:54:58.186Z</time>
      </trkpt>
      <trkpt lat="43.70006" lon="6.038">
        <ele>370.495848</ele>
        <time>2022-05-01T04:55:02.922Z</time>
      </trkpt>
      <trkpt lat="43.70072" lon="6.03841">
        <ele>372.636973</ele>
        <time>2022-05-01T04:55:24.269Z</time>
      </trkpt>
      <trkpt lat="43.70129" lon="6.03925">
        <ele>376.232314</ele>
        <time>2022-05-01T04:55:54.047Z</time>
      </trkpt>
      <trkpt lat="43.70145" lon="6.03937">
        <ele>377.024249</ele>
        <time>2022-05-01T04:55:59.775Z</time>
      </trkpt>
      <trkpt lat="43.70151" lon="6.0393">
        <ele>377.385701</ele>
        <time>2022-05-01T04:56:02.340Z</time>
      </trkpt>
      <trkpt lat="43.70184" lon="6.03909">
        <ele>378.936035</ele>
        <time>2022-05-01T04:56:13.447Z</time>
      </trkpt>
      <trkpt lat="43.70203" lon="6.03906">
        <ele>379.767118</ele>
        <time>2022-05-01T04:56:19.759Z</time>
      </trkpt>
      <trkpt lat="43.70208" lon="6.03907">
        <ele>379.877879</ele>
        <time>2022-05-01T04:56:21.048Z</time>
      </trkpt>
      <trkpt lat="43.70248" lon="6.03956">
        <ele>381.210852</ele>
        <time>2022-05-01T04:56:36.550Z</time>
      </trkpt>
      <trkpt lat="43.70267" lon="6.0398">
        <ele>381.849238</ele>
        <time>2022-05-01T04:56:43.361Z</time>
      </trkpt>
      <trkpt lat="43.70269" lon="6.03979">
        <ele>381.895189</ele>
        <time>2022-05-01T04:56:43.905Z</time>
      </trkpt>
      <trkpt lat="43.70308" lon="6.03935">
        <ele>383.132859</ele>
        <time>2022-05-01T04:56:55.381Z</time>
      </trkpt>
      <trkpt lat="43.70338" lon="6.03904">
        <ele>384.084583</ele>
        <time>2022-05-01T04:57:01.812Z</time>
      </trkpt>
      <trkpt lat="43.70359" lon="6.03898">
        <ele>384.81921</ele>
        <time>2022-05-01T04:57:05.501Z</time>
      </trkpt>
      <trkpt lat="43.70372" lon="6.03902">
        <ele>385.320044</ele>
        <time>2022-05-01T04:57:08.290Z</time>
      </trkpt>
      <trkpt lat="43.70375" lon="6.03904">
        <ele>385.438766</ele>
        <time>2022-05-01T04:57:08.810Z</time>
      </trkpt>
      <trkpt lat="43.7038" lon="6.03908">
        <ele>385.648034</ele>
        <time>2022-05-01T04:57:09.907Z</time>
      </trkpt>
      <trkpt lat="43.70383" lon="6.03911">
        <ele>385.79064</ele>
        <time>2022-05-01T04:57:10.736Z</time>
      </trkpt>
      <trkpt lat="43.70413" lon="6.03937">
        <ele>387.144269</ele>
        <time>2022-05-01T04:57:20.411Z</time>
      </trkpt>
      <trkpt lat="43.70443" lon="6.03934">
        <ele>388.273196</ele>
        <time>2022-05-01T04:57:29.383Z</time>
      </trkpt>
      <trkpt lat="43.70477" lon="6.03923">
        <ele>389.593829</ele>
        <time>2022-05-01T04:57:40.744Z</time>
      </trkpt>
      <trkpt lat="43.70498" lon="6.03913">
        <ele>390.415838</ele>
        <time>2022-05-01T04:57:48.731Z</time>
      </trkpt>
      <trkpt lat="43.70525" lon="6.0389">
        <ele>392.352717</ele>
        <time>2022-05-01T04:58:01.093Z</time>
      </trkpt>
      <trkpt lat="43.70638" lon="6.03789">
        <ele>403.564149</ele>
        <time>2022-05-01T04:59:08.766Z</time>
      </trkpt>
      <trkpt lat="43.70674" lon="6.03769">
        <ele>406.811481</ele>
        <time>2022-05-01T04:59:28.524Z</time>
      </trkpt>
      <trkpt lat="43.70713" lon="6.03764">
        <ele>410.179444</ele>
        <time>2022-05-01T04:59:48.296Z</time>
      </trkpt>
      <trkpt lat="43.70726" lon="6.0376">
        <ele>411.294141</ele>
        <time>2022-05-01T04:59:56.353Z</time>
      </trkpt>
      <trkpt lat="43.70834" lon="6.03666">
        <ele>422.331572</ele>
        <time>2022-05-01T05:00:56.671Z</time>
      </trkpt>
      <trkpt lat="43.70846" lon="6.03663">
        <ele>423.321689</ele>
        <time>2022-05-01T05:01:04.277Z</time>
      </trkpt>
      <trkpt lat="43.70881" lon="6.03693">
        <ele>426.825281</ele>
        <time>2022-05-01T05:01:23.062Z</time>
      </trkpt>
      <trkpt lat="43.70905" lon="6.03696">
        <ele>428.89746</ele>
        <time>2022-05-01T05:01:33.421Z</time>
      </trkpt>
      <trkpt lat="43.70966" lon="6.0363">
        <ele>435.479022</ele>
        <time>2022-05-01T05:02:16.109Z</time>
      </trkpt>
      <trkpt lat="43.70987" lon="6.0361">
        <ele>437.478703</ele>
        <time>2022-05-01T05:02:27.602Z</time>
      </trkpt>
      <trkpt lat="43.71021" lon="6.03594">
        <ele>439.868805</ele>
        <time>2022-05-01T05:02:42.175Z</time>
      </trkpt>
      <trkpt lat="43.7104" lon="6.0357">
        <ele>441.604358</ele>
        <time>2022-05-01T05:02:52.574Z</time>
      </trkpt>
      <trkpt lat="43.7105" lon="6.03517">
        <ele>444.289482</ele>
        <time>2022-05-01T05:03:07.518Z</time>
      </trkpt>
      <trkpt lat="43.71059" lon="6.03509">
        <ele>444.996149</ele>
        <time>2022-05-01T05:03:12.771Z</time>
      </trkpt>
      <trkpt lat="43.71065" lon="6.03508">
        <ele>445.414402</ele>
        <time>2022-05-01T05:03:14.938Z</time>
      </trkpt>
      <trkpt lat="43.71127" lon="6.03536">
        <ele>449.776651</ele>
        <time>2022-05-01T05:03:40.984Z</time>
      </trkpt>
      <trkpt lat="43.71195" lon="6.03536">
        <ele>454.479721</ele>
        <time>2022-05-01T05:04:08.683Z</time>
      </trkpt>
      <trkpt lat="43.71242" lon="6.03516">
        <ele>457.852569</ele>
        <time>2022-05-01T05:04:27.990Z</time>
      </trkpt>
      <trkpt lat="43.71268" lon="6.03496">
        <ele>459.940274</ele>
        <time>2022-05-01T05:04:40.589Z</time>
      </trkpt>
      <trkpt lat="43.71285" lon="6.03491">
        <ele>461.127441</ele>
        <time>2022-05-01T05:04:48.081Z</time>
      </trkpt>
      <trkpt lat="43.71317" lon="6.03496">
        <ele>464.394285</ele>
        <time>2022-05-01T05:05:03.371Z</time>
      </trkpt>
      <trkpt lat="43.71342" lon="6.03477">
        <ele>467.399297</ele>
        <time>2022-05-01T05:05:22.493Z</time>
      </trkpt>
      <trkpt lat="43.71424" lon="6.03356">
        <ele>479.783874</ele>
        <time>2022-05-01T05:06:33.697Z</time>
      </trkpt>
      <trkpt lat="43.71437" lon="6.03347">
        <ele>480.86344</ele>
        <time>2022-05-01T05:06:45.196Z</time>
      </trkpt>
      <trkpt lat="43.71445" lon="6.03344">
        <ele>481.476163</ele>
        <time>2022-05-01T05:06:48.209Z</time>
      </trkpt>
      <trkpt lat="43.7147" lon="6.03341">
        <ele>483.26646</ele>
        <time>2022-05-01T05:07:01.268Z</time>
      </trkpt>
      <trkpt lat="43.71512" lon="6.03347">
        <ele>486.223597</ele>
        <time>2022-05-01T05:07:16.950Z</time>
      </trkpt>
      <trkpt lat="43.71544" lon="6.03337">
        <ele>488.568322</ele>
        <time>2022-05-01T05:07:30.755Z</time>
      </trkpt>
      <trkpt lat="43.71562" lon="6.03332">
        <ele>489.871359</ele>
        <time>2022-05-01T05:07:36.103Z</time>
      </trkpt>
      <trkpt lat="43.71571" lon="6.03312">
        <ele>491.066632</ele>
        <time>2022-05-01T05:07:45.652Z</time>
      </trkpt>
      <trkpt lat="43.71561" lon="6.03298">
        <ele>492.043433</ele>
        <time>2022-05-01T05:07:49.140Z</time>
      </trkpt>
      <trkpt lat="43.71511" lon="6.03315">
        <ele>494.900126</ele>
        <time>2022-05-01T05:08:05.299Z</time>
      </trkpt>
      <trkpt lat="43.71503" lon="6.0331">
        <ele>495.342665</ele>
        <time>2022-05-01T05:08:08.007Z</time>
      </trkpt>
      <trkpt lat="43.715" lon="6.03298">
        <ele>495.809952</ele>
        <time>2022-05-01T05:08:11.444Z</time>
      </trkpt>
      <trkpt lat="43.7151" lon="6.03285">
        <ele>496.508146</ele>
        <time>2022-05-01T05:08:16.722Z</time>
      </trkpt>
      <trkpt lat="43.71537" lon="6.03277">
        <ele>497.977854</ele>
        <time>2022-05-01T05:08:26.287Z</time>
      </trkpt>
      <trkpt lat="43.71544" lon="6.03273">
        <ele>498.337518</ele>
        <time>2022-05-01T05:08:28.928Z</time>
      </trkpt>
      <trkpt lat="43.71585" lon="6.03246">
        <ele>500.678471</ele>
        <time>2022-05-01T05:08:43.056Z</time>
      </trkpt>
      <trkpt lat="43.71647" lon="6.03238">
        <ele>504.984126</ele>
        <time>2022-05-01T05:09:09.105Z</time>
      </trkpt>
      <trkpt lat="43.71656" lon="6.03251">
        <ele>506.021544</ele>
        <time>2022-05-01T05:09:14.575Z</time>
      </trkpt>
      <trkpt lat="43.71669" lon="6.03301">
        <ele>509.090073</ele>
        <time>2022-05-01T05:09:32.771Z</time>
      </trkpt>
      <trkpt lat="43.71681" lon="6.03314">
        <ele>510.289952</ele>
        <time>2022-05-01T05:09:40.092Z</time>
      </trkpt>
      <trkpt lat="43.71748" lon="6.03294">
        <ele>515.730144</ele>
        <time>2022-05-01T05:10:15.795Z</time>
      </trkpt>
      <trkpt lat="43.71786" lon="6.03272">
        <ele>519.430224</ele>
        <time>2022-05-01T05:10:35.848Z</time>
      </trkpt>
      <trkpt lat="43.71806" lon="6.03246">
        <ele>521.99953</ele>
        <time>2022-05-01T05:10:49.886Z</time>
      </trkpt>
      <trkpt lat="43.71827" lon="6.03208">
        <ele>525.142087</ele>
        <time>2022-05-01T05:11:07.536Z</time>
      </trkpt>
      <trkpt lat="43.71867" lon="6.03189">
        <ele>529.094282</ele>
        <time>2022-05-01T05:11:30.230Z</time>
      </trkpt>
      <trkpt lat="43.71875" lon="6.03171">
        <ele>530.488603</ele>
        <time>2022-05-01T05:11:39.038Z</time>
      </trkpt>
      <trkpt lat="43.71878" lon="6.03118">
        <ele>533.768544</ele>
        <time>2022-05-01T05:12:00.333Z</time>
      </trkpt>
      <trkpt lat="43.71863" lon="6.0306">
        <ele>536.688372</ele>
        <time>2022-05-01T05:12:21.900Z</time>
      </trkpt>
      <trkpt lat="43.71863" lon="6.03041">
        <ele>537.593389</ele>
        <time>2022-05-01T05:12:27.417Z</time>
      </trkpt>
      <trkpt lat="43.71875" lon="6.02959">
        <ele>541.625439</ele>
        <time>2022-05-01T05:12:51.365Z</time>
      </trkpt>
      <trkpt lat="43.71876" lon="6.02947">
        <ele>542.20776</ele>
        <time>2022-05-01T05:12:54.268Z</time>
      </trkpt>
      <trkpt lat="43.71892" lon="6.02955">
        <ele>543.314835</ele>
        <time>2022-05-01T05:13:00.317Z</time>
      </trkpt>
      <trkpt lat="43.71922" lon="6.02975">
        <ele>545.120918</ele>
        <time>2022-05-01T05:13:11.191Z</time>
      </trkpt>
      <trkpt lat="43.71935" lon="6.02982">
        <ele>545.477029</ele>
        <time>2022-05-01T05:13:15.669Z</time>
      </trkpt>
      <trkpt lat="43.71939" lon="6.02979">
        <ele>545.584485</ele>
        <time>2022-05-01T05:13:16.808Z</time>
      </trkpt>
      <trkpt lat="43.72025" lon="6.02916">
        <ele>548.066523</ele>
        <time>2022-05-01T05:13:41.611Z</time>
      </trkpt>
      <trkpt lat="43.72064" lon="6.02898">
        <ele>549.130431</ele>
        <time>2022-05-01T05:13:50.162Z</time>
      </trkpt>
      <trkpt lat="43.72228" lon="6.0283">
        <ele>550.416539</ele>
        <time>2022-05-01T05:14:20.285Z</time>
      </trkpt>
      <trkpt lat="43.72231" lon="6.02828">
        <ele>550.437899</ele>
        <time>2022-05-01T05:14:20.773Z</time>
      </trkpt>
      <trkpt lat="43.72326" lon="6.02762">
        <ele>550.382994</ele>
        <time>2022-05-01T05:14:35.628Z</time>
      </trkpt>
      <trkpt lat="43.72362" lon="6.02715">
        <ele>550.290546</ele>
        <time>2022-05-01T05:14:42.342Z</time>
      </trkpt>
      <trkpt lat="43.72512" lon="6.02429">
        <ele>549.661323</ele>
        <time>2022-05-01T05:15:17.981Z</time>
      </trkpt>
      <trkpt lat="43.72555" lon="6.02375">
        <ele>549.475863</ele>
        <time>2022-05-01T05:15:25.890Z</time>
      </trkpt>
      <trkpt lat="43.72617" lon="6.0231">
        <ele>549.226937</ele>
        <time>2022-05-01T05:15:36.373Z</time>
      </trkpt>
      <trkpt lat="43.72748" lon="6.02209">
        <ele>548.961068</ele>
        <time>2022-05-01T05:15:57.557Z</time>
      </trkpt>
      <trkpt lat="43.72841" lon="6.02161">
        <ele>548.613674</ele>
        <time>2022-05-01T05:16:12.885Z</time>
      </trkpt>
      <trkpt lat="43.72963" lon="6.02075">
        <ele>547.640897</ele>
        <time>2022-05-01T05:16:31.019Z</time>
      </trkpt>
      <trkpt lat="43.73096" lon="6.02009">
        <ele>544.046482</ele>
        <time>2022-05-01T05:16:45.753Z</time>
      </trkpt>
      <trkpt lat="43.73134" lon="6.0197">
        <ele>542.579889</ele>
        <time>2022-05-01T05:16:50.427Z</time>
      </trkpt>
      <trkpt lat="43.73182" lon="6.01909">
        <ele>540.163792</ele>
        <time>2022-05-01T05:16:56.796Z</time>
      </trkpt>
      <trkpt lat="43.73186" lon="6.01888">
        <ele>539.592562</ele>
        <time>2022-05-01T05:16:58.293Z</time>
      </trkpt>
      <trkpt lat="43.7318" lon="6.01853">
        <ele>538.610857</ele>
        <time>2022-05-01T05:17:00.850Z</time>
      </trkpt>
      <trkpt lat="43.73183" lon="6.01833">
        <ele>538.062385</ele>
        <time>2022-05-01T05:17:02.281Z</time>
      </trkpt>
      <trkpt lat="43.73205" lon="6.01812">
        <ele>537.096286</ele>
        <time>2022-05-01T05:17:04.862Z</time>
      </trkpt>
      <trkpt lat="43.73273" lon="6.01776">
        <ele>534.799594</ele>
        <time>2022-05-01T05:17:12.372Z</time>
      </trkpt>
      <trkpt lat="43.73289" lon="6.01762">
        <ele>534.229492</ele>
        <time>2022-05-01T05:17:14.399Z</time>
      </trkpt>
      <trkpt lat="43.73298" lon="6.01747">
        <ele>533.777791</ele>
        <time>2022-05-01T05:17:16.000Z</time>
      </trkpt>
      <trkpt lat="43.73305" lon="6.01724">
        <ele>533.233601</ele>
        <time>2022-05-01T05:17:17.823Z</time>
      </trkpt>
      <trkpt lat="43.73304" lon="6.01681">
        <ele>532.284892</ele>
        <time>2022-05-01T05:17:20.958Z</time>
      </trkpt>
      <trkpt lat="43.73315" lon="6.01674">
        <ele>531.890426</ele>
        <time>2022-05-01T05:17:22.210Z</time>
      </trkpt>
      <trkpt lat="43.7332" lon="6.01691">
        <ele>531.479582</ele>
        <time>2022-05-01T05:17:23.540Z</time>
      </trkpt>
      <trkpt lat="43.73321" lon="6.01718">
        <ele>530.668058</ele>
        <time>2022-05-01T05:17:25.473Z</time>
      </trkpt>
      <trkpt lat="43.73316" lon="6.01759">
        <ele>529.211145</ele>
        <time>2022-05-01T05:17:28.536Z</time>
      </trkpt>
      <trkpt lat="43.73305" lon="6.01789">
        <ele>528.067737</ele>
        <time>2022-05-01T05:17:30.982Z</time>
      </trkpt>
      <trkpt lat="43.73258" lon="6.01866">
        <ele>524.598946</ele>
        <time>2022-05-01T05:17:37.980Z</time>
      </trkpt>
      <trkpt lat="43.73293" lon="6.01989">
        <ele>518.162481</ele>
        <time>2022-05-01T05:17:46.485Z</time>
      </trkpt>
      <trkpt lat="43.73393" lon="6.02002">
        <ele>509.907083</ele>
        <time>2022-05-01T05:17:55.259Z</time>
      </trkpt>
      <trkpt lat="43.73465" lon="6.02026">
        <ele>504.254555</ele>
        <time>2022-05-01T05:18:01.718Z</time>
      </trkpt>
      <trkpt lat="43.73484" lon="6.02027">
        <ele>502.841801</ele>
        <time>2022-05-01T05:18:03.385Z</time>
      </trkpt>
      <trkpt lat="43.73524" lon="6.02001">
        <ele>499.515528</ele>
        <time>2022-05-01T05:18:07.353Z</time>
      </trkpt>
      <trkpt lat="43.73525" lon="6.02004">
        <ele>499.359913</ele>
        <time>2022-05-01T05:18:07.747Z</time>
      </trkpt>
      <trkpt lat="43.73537" lon="6.01988">
        <ele>498.115124</ele>
        <time>2022-05-01T05:18:10.840Z</time>
      </trkpt>
      <trkpt lat="43.73541" lon="6.01979">
        <ele>497.544783</ele>
        <time>2022-05-01T05:18:12.257Z</time>
      </trkpt>
      <trkpt lat="43.73548" lon="6.01954">
        <ele>496.097574</ele>
        <time>2022-05-01T05:18:15.855Z</time>
      </trkpt>
      <trkpt lat="43.73555" lon="6.01954">
        <ele>495.574641</ele>
        <time>2022-05-01T05:18:17.154Z</time>
      </trkpt>
      <trkpt lat="43.73561" lon="6.01964">
        <ele>494.873029</ele>
        <time>2022-05-01T05:18:18.897Z</time>
      </trkpt>
      <trkpt lat="43.73562" lon="6.01971">
        <ele>494.489321</ele>
        <time>2022-05-01T05:18:19.854Z</time>
      </trkpt>
      <trkpt lat="43.73558" lon="6.01999">
        <ele>493.119861</ele>
        <time>2022-05-01T05:18:23.682Z</time>
      </trkpt>
      <trkpt lat="43.73549" lon="6.02023">
        <ele>491.822475</ele>
        <time>2022-05-01T05:18:27.307Z</time>
      </trkpt>
      <trkpt lat="43.73525" lon="6.02056">
        <ele>489.575919</ele>
        <time>2022-05-01T05:18:33.586Z</time>
      </trkpt>
      <trkpt lat="43.73524" lon="6.02061">
        <ele>489.326995</ele>
        <time>2022-05-01T05:18:34.284Z</time>
      </trkpt>
      <trkpt lat="43.73528" lon="6.02065">
        <ele>488.999292</ele>
        <time>2022-05-01T05:18:35.201Z</time>
      </trkpt>
      <trkpt lat="43.73534" lon="6.02065">
        <ele>488.600859</ele>
        <time>2022-05-01T05:18:36.314Z</time>
      </trkpt>
      <trkpt lat="43.73533" lon="6.02061">
        <ele>488.37018</ele>
        <time>2022-05-01T05:18:36.959Z</time>
      </trkpt>
      <trkpt lat="43.73691" lon="6.01961">
        <ele>477.287368</ele>
        <time>2022-05-01T05:18:52.614Z</time>
      </trkpt>
      <trkpt lat="43.73715" lon="6.01937">
        <ele>475.464242</ele>
        <time>2022-05-01T05:18:55.362Z</time>
      </trkpt>
      <trkpt lat="43.73764" lon="6.0187">
        <ele>471.376256</ele>
        <time>2022-05-01T05:19:01.722Z</time>
      </trkpt>
      <trkpt lat="43.73777" lon="6.01838">
        <ele>470.203172</ele>
        <time>2022-05-01T05:19:04.254Z</time>
      </trkpt>
      <trkpt lat="43.7379" lon="6.01781">
        <ele>468.32299</ele>
        <time>2022-05-01T05:19:08.405Z</time>
      </trkpt>
      <trkpt lat="43.73816" lon="6.01761">
        <ele>467.059638</ele>
        <time>2022-05-01T05:19:11.198Z</time>
      </trkpt>
      <trkpt lat="43.73884" lon="6.01732">
        <ele>463.963009</ele>
        <time>2022-05-01T05:19:18.168Z</time>
      </trkpt>
      <trkpt lat="43.739" lon="6.01727">
        <ele>463.508499</ele>
        <time>2022-05-01T05:19:19.816Z</time>
      </trkpt>
      <trkpt lat="43.73911" lon="6.01721">
        <ele>463.254106</ele>
        <time>2022-05-01T05:19:21.009Z</time>
      </trkpt>
      <trkpt lat="43.73929" lon="6.01709">
        <ele>462.821998</ele>
        <time>2022-05-01T05:19:23.058Z</time>
      </trkpt>
      <trkpt lat="43.73938" lon="6.01702">
        <ele>462.607144</ele>
        <time>2022-05-01T05:19:24.082Z</time>
      </trkpt>
      <trkpt lat="43.73945" lon="6.01693">
        <ele>462.403088</ele>
        <time>2022-05-01T05:19:25.047Z</time>
      </trkpt>
      <trkpt lat="43.73949" lon="6.01682">
        <ele>462.208727</ele>
        <time>2022-05-01T05:19:25.972Z</time>
      </trkpt>
      <trkpt lat="43.74151" lon="6.01204">
        <ele>454.427311</ele>
        <time>2022-05-01T05:20:10.718Z</time>
      </trkpt>
      <trkpt lat="43.74141" lon="6.01037">
        <ele>453.287184</ele>
        <time>2022-05-01T05:20:25.533Z</time>
      </trkpt>
      <trkpt lat="43.74132" lon="6.00971">
        <ele>453.160204</ele>
        <time>2022-05-01T05:20:32.601Z</time>
      </trkpt>
      <trkpt lat="43.74126" lon="6.00948">
        <ele>453.113974</ele>
        <time>2022-05-01T05:20:35.054Z</time>
      </trkpt>
      <trkpt lat="43.74117" lon="6.00935">
        <ele>453.079934</ele>
        <time>2022-05-01T05:20:37.312Z</time>
      </trkpt>
      <trkpt lat="43.74084" lon="6.00916">
        <ele>452.986407</ele>
        <time>2022-05-01T05:20:42.723Z</time>
      </trkpt>
      <trkpt lat="43.74064" lon="6.00824">
        <ele>453.396599</ele>
        <time>2022-05-01T05:20:54.489Z</time>
      </trkpt>
      <trkpt lat="43.74067" lon="6.00802">
        <ele>453.516733</ele>
        <time>2022-05-01T05:20:57.389Z</time>
      </trkpt>
      <trkpt lat="43.74096" lon="6.00746">
        <ele>453.886442</ele>
        <time>2022-05-01T05:21:07.450Z</time>
      </trkpt>
      <trkpt lat="43.74099" lon="6.00721">
        <ele>454.022427</ele>
        <time>2022-05-01T05:21:10.571Z</time>
      </trkpt>
      <trkpt lat="43.74111" lon="6.00537">
        <ele>454.936176</ele>
        <time>2022-05-01T05:21:33.561Z</time>
      </trkpt>
      <trkpt lat="43.74114" lon="6.00353">
        <ele>455.301366</ele>
        <time>2022-05-01T05:21:57.094Z</time>
      </trkpt>
      <trkpt lat="43.74128" lon="6.00228">
        <ele>454.962257</ele>
        <time>2022-05-01T05:22:10.471Z</time>
      </trkpt>
      <trkpt lat="43.74133" lon="6.00114">
        <ele>453.443078</ele>
        <time>2022-05-01T05:22:19.475Z</time>
      </trkpt>
      <trkpt lat="43.74146" lon="6.00047">
        <ele>451.873432</ele>
        <time>2022-05-01T05:22:24.665Z</time>
      </trkpt>
      <trkpt lat="43.74161" lon="5.99962">
        <ele>449.893703</ele>
        <time>2022-05-01T05:22:30.919Z</time>
      </trkpt>
      <trkpt lat="43.74165" lon="5.99877">
        <ele>447.546642</ele>
        <time>2022-05-01T05:22:36.752Z</time>
      </trkpt>
      <trkpt lat="43.74168" lon="5.99689">
        <ele>441.827705</ele>
        <time>2022-05-01T05:22:49.885Z</time>
      </trkpt>
      <trkpt lat="43.74164" lon="5.9965">
        <ele>440.99982</ele>
        <time>2022-05-01T05:22:52.681Z</time>
      </trkpt>
      <trkpt lat="43.74159" lon="5.99635">
        <ele>440.675855</ele>
        <time>2022-05-01T05:22:53.885Z</time>
      </trkpt>
      <trkpt lat="43.74148" lon="5.99622">
        <ele>440.276344</ele>
        <time>2022-05-01T05:22:55.417Z</time>
      </trkpt>
      <trkpt lat="43.74086" lon="5.9958">
        <ele>438.418213</ele>
        <time>2022-05-01T05:23:02.399Z</time>
      </trkpt>
      <trkpt lat="43.74081" lon="5.99571">
        <ele>438.19769</ele>
        <time>2022-05-01T05:23:03.239Z</time>
      </trkpt>
      <trkpt lat="43.74087" lon="5.99523">
        <ele>437.254679</ele>
        <time>2022-05-01T05:23:06.989Z</time>
      </trkpt>
      <trkpt lat="43.74092" lon="5.99515">
        <ele>437.050615</ele>
        <time>2022-05-01T05:23:07.771Z</time>
      </trkpt>
      <trkpt lat="43.74157" lon="5.99519">
        <ele>436.9594</ele>
        <time>2022-05-01T05:23:18.474Z</time>
      </trkpt>
      <trkpt lat="43.74188" lon="5.99511">
        <ele>437.059105</ele>
        <time>2022-05-01T05:23:23.876Z</time>
      </trkpt>
      <trkpt lat="43.74189" lon="5.99472">
        <ele>437.147895</ele>
        <time>2022-05-01T05:23:28.369Z</time>
      </trkpt>
      <trkpt lat="43.7416" lon="5.99357">
        <ele>437.406159</ele>
        <time>2022-05-01T05:23:44.562Z</time>
      </trkpt>
      <trkpt lat="43.74166" lon="5.99243">
        <ele>437.598279</ele>
        <time>2022-05-01T05:24:01.217Z</time>
      </trkpt>
      <trkpt lat="43.74163" lon="5.99145">
        <ele>437.764402</ele>
        <time>2022-05-01T05:24:11.552Z</time>
      </trkpt>
      <trkpt lat="43.74148" lon="5.99083">
        <ele>435.767432</ele>
        <time>2022-05-01T05:24:16.431Z</time>
      </trkpt>
      <trkpt lat="43.74131" lon="5.98983">
        <ele>432.392969</ele>
        <time>2022-05-01T05:24:23.478Z</time>
      </trkpt>
      <trkpt lat="43.74105" lon="5.98761">
        <ele>423.998635</ele>
        <time>2022-05-01T05:24:38.147Z</time>
      </trkpt>
      <trkpt lat="43.74106" lon="5.98724">
        <ele>422.505566</ele>
        <time>2022-05-01T05:24:40.596Z</time>
      </trkpt>
      <trkpt lat="43.7412" lon="5.9865">
        <ele>419.5194</ele>
        <time>2022-05-01T05:24:45.919Z</time>
      </trkpt>
      <trkpt lat="43.74131" lon="5.98592">
        <ele>418.795605</ele>
        <time>2022-05-01T05:24:50.459Z</time>
      </trkpt>
      <trkpt lat="43.74122" lon="5.9842">
        <ele>416.723878</ele>
        <time>2022-05-01T05:25:06.670Z</time>
      </trkpt>
      <trkpt lat="43.74072" lon="5.98271">
        <ele>413.628084</ele>
        <time>2022-05-01T05:25:19.711Z</time>
      </trkpt>
      <trkpt lat="43.74075" lon="5.98175">
        <ele>411.748525</ele>
        <time>2022-05-01T05:25:26.463Z</time>
      </trkpt>
      <trkpt lat="43.74069" lon="5.98131">
        <ele>411.066874</ele>
        <time>2022-05-01T05:25:29.570Z</time>
      </trkpt>
      <trkpt lat="43.74058" lon="5.98095">
        <ele>410.483212</ele>
        <time>2022-05-01T05:25:32.338Z</time>
      </trkpt>
      <trkpt lat="43.74047" lon="5.98062">
        <ele>409.930564</ele>
        <time>2022-05-01T05:25:35.089Z</time>
      </trkpt>
      <trkpt lat="43.74045" lon="5.98045">
        <ele>409.660052</ele>
        <time>2022-05-01T05:25:36.455Z</time>
      </trkpt>
      <trkpt lat="43.74053" lon="5.97988">
        <ele>408.780411</ele>
        <time>2022-05-01T05:25:41.381Z</time>
      </trkpt>
      <trkpt lat="43.74046" lon="5.97965">
        <ele>408.407558</ele>
        <time>2022-05-01T05:25:43.781Z</time>
      </trkpt>
      <trkpt lat="43.74037" lon="5.97956">
        <ele>408.181054</ele>
        <time>2022-05-01T05:25:45.571Z</time>
      </trkpt>
      <trkpt lat="43.73985" lon="5.97893">
        <ele>407.972664</ele>
        <time>2022-05-01T05:25:57.034Z</time>
      </trkpt>
      <trkpt lat="43.73968" lon="5.97847">
        <ele>407.982379</ele>
        <time>2022-05-01T05:26:05.677Z</time>
      </trkpt>
      <trkpt lat="43.7395" lon="5.97813">
        <ele>407.990311</ele>
        <time>2022-05-01T05:26:10.898Z</time>
      </trkpt>
      <trkpt lat="43.73938" lon="5.97806">
        <ele>407.993649</ele>
        <time>2022-05-01T05:26:13.206Z</time>
      </trkpt>
      <trkpt lat="43.73918" lon="5.97804">
        <ele>407.998972</ele>
        <time>2022-05-01T05:26:16.235Z</time>
      </trkpt>
      <trkpt lat="43.73903" lon="5.9781">
        <ele>408.002859</ele>
        <time>2022-05-01T05:26:17.977Z</time>
      </trkpt>
      <trkpt lat="43.73858" lon="5.97828">
        <ele>405.819603</ele>
        <time>2022-05-01T05:26:22.920Z</time>
      </trkpt>
      <trkpt lat="43.73841" lon="5.97824">
        <ele>404.962487</ele>
        <time>2022-05-01T05:26:24.577Z</time>
      </trkpt>
      <trkpt lat="43.7384" lon="5.97807">
        <ele>404.339452</ele>
        <time>2022-05-01T05:26:25.690Z</time>
      </trkpt>
      <trkpt lat="43.7386" lon="5.97754">
        <ele>402.077142</ele>
        <time>2022-05-01T05:26:29.784Z</time>
      </trkpt>
      <trkpt lat="43.73868" lon="5.97726">
        <ele>400.976706</ele>
        <time>2022-05-01T05:26:31.727Z</time>
      </trkpt>
      <trkpt lat="43.73901" lon="5.97617">
        <ele>395.729338</ele>
        <time>2022-05-01T05:26:39.285Z</time>
      </trkpt>
      <trkpt lat="43.73919" lon="5.97599">
        <ele>394.10156</ele>
        <time>2022-05-01T05:26:41.242Z</time>
      </trkpt>
      <trkpt lat="43.73921" lon="5.97598">
        <ele>393.950682</ele>
        <time>2022-05-01T05:26:41.427Z</time>
      </trkpt>
      <trkpt lat="43.73963" lon="5.97572">
        <ele>390.648862</ele>
        <time>2022-05-01T05:26:45.513Z</time>
      </trkpt>
      <trkpt lat="43.73976" lon="5.97533">
        <ele>388.399287</ele>
        <time>2022-05-01T05:26:48.339Z</time>
      </trkpt>
      <trkpt lat="43.73978" lon="5.97524">
        <ele>387.930409</ele>
        <time>2022-05-01T05:26:48.925Z</time>
      </trkpt>
      <trkpt lat="43.73981" lon="5.97512">
        <ele>387.252818</ele>
        <time>2022-05-01T05:26:49.766Z</time>
      </trkpt>
      <trkpt lat="43.73991" lon="5.97465">
        <ele>385.060931</ele>
        <time>2022-05-01T05:26:52.942Z</time>
      </trkpt>
      <trkpt lat="43.73989" lon="5.97446">
        <ele>384.394276</ele>
        <time>2022-05-01T05:26:54.195Z</time>
      </trkpt>
      <trkpt lat="43.73978" lon="5.97436">
        <ele>383.784215</ele>
        <time>2022-05-01T05:26:55.359Z</time>
      </trkpt>
      <trkpt lat="43.7396" lon="5.97433">
        <ele>382.896589</ele>
        <time>2022-05-01T05:26:57.075Z</time>
      </trkpt>
      <trkpt lat="43.73936" lon="5.9745">
        <ele>381.603197</ele>
        <time>2022-05-01T05:26:59.645Z</time>
      </trkpt>
      <trkpt lat="43.73925" lon="5.9745">
        <ele>381.03732</ele>
        <time>2022-05-01T05:27:00.765Z</time>
      </trkpt>
      <trkpt lat="43.73875" lon="5.97402">
        <ele>378.134064</ele>
        <time>2022-05-01T05:27:06.597Z</time>
      </trkpt>
      <trkpt lat="43.7387" lon="5.97373">
        <ele>377.083656</ele>
        <time>2022-05-01T05:27:08.719Z</time>
      </trkpt>
      <trkpt lat="43.73895" lon="5.97335">
        <ele>376.137428</ele>
        <time>2022-05-01T05:27:12.465Z</time>
      </trkpt>
      <trkpt lat="43.739" lon="5.97319">
        <ele>375.80376</ele>
        <time>2022-05-01T05:27:13.933Z</time>
      </trkpt>
      <trkpt lat="43.73892" lon="5.9725">
        <ele>374.502904</ele>
        <time>2022-05-01T05:27:18.948Z</time>
      </trkpt>
      <trkpt lat="43.73877" lon="5.97202">
        <ele>373.528165</ele>
        <time>2022-05-01T05:27:22.963Z</time>
      </trkpt>
      <trkpt lat="43.73862" lon="5.97185">
        <ele>373.025026</ele>
        <time>2022-05-01T05:27:25.435Z</time>
      </trkpt>
      <trkpt lat="43.7386" lon="5.97182">
        <ele>372.941001</ele>
        <time>2022-05-01T05:27:25.795Z</time>
      </trkpt>
      <trkpt lat="43.73835" lon="5.97164">
        <ele>372.605728</ele>
        <time>2022-05-01T05:27:28.979Z</time>
      </trkpt>
      <trkpt lat="43.73822" lon="5.97153">
        <ele>372.893292</ele>
        <time>2022-05-01T05:27:30.771Z</time>
      </trkpt>
      <trkpt lat="43.73813" lon="5.97147">
        <ele>373.075018</ele>
        <time>2022-05-01T05:27:31.854Z</time>
      </trkpt>
      <trkpt lat="43.73796" lon="5.97132">
        <ele>373.443918</ele>
        <time>2022-05-01T05:27:34.699Z</time>
      </trkpt>
      <trkpt lat="43.73791" lon="5.97127">
        <ele>373.555454</ele>
        <time>2022-05-01T05:27:35.703Z</time>
      </trkpt>
      <trkpt lat="43.73763" lon="5.97094">
        <ele>374.223567</ele>
        <time>2022-05-01T05:27:43.533Z</time>
      </trkpt>
      <trkpt lat="43.73743" lon="5.97061">
        <ele>374.785596</ele>
        <time>2022-05-01T05:27:52.216Z</time>
      </trkpt>
      <trkpt lat="43.73733" lon="5.97019">
        <ele>375.381545</ele>
        <time>2022-05-01T05:28:02.240Z</time>
      </trkpt>
      <trkpt lat="43.73738" lon="5.96995">
        <ele>375.703429</ele>
        <time>2022-05-01T05:28:07.777Z</time>
      </trkpt>
      <trkpt lat="43.73751" lon="5.96975">
        <ele>376.730412</ele>
        <time>2022-05-01T05:28:14.337Z</time>
      </trkpt>
      <trkpt lat="43.73777" lon="5.9697">
        <ele>378.224081</ele>
        <time>2022-05-01T05:28:24.070Z</time>
      </trkpt>
      <trkpt lat="43.73801" lon="5.96985">
        <ele>379.684699</ele>
        <time>2022-05-01T05:28:33.920Z</time>
      </trkpt>
      <trkpt lat="43.73822" lon="5.97011">
        <ele>381.294918</ele>
        <time>2022-05-01T05:28:45.764Z</time>
      </trkpt>
      <trkpt lat="43.73848" lon="5.97051">
        <ele>383.465489</ele>
        <time>2022-05-01T05:29:01.601Z</time>
      </trkpt>
      <trkpt lat="43.73853" lon="5.97058">
        <ele>383.885321</ele>
        <time>2022-05-01T05:29:04.498Z</time>
      </trkpt>
      <trkpt lat="43.73903" lon="5.97091">
        <ele>386.835713</ele>
        <time>2022-05-01T05:29:26.009Z</time>
      </trkpt>
      <trkpt lat="43.73934" lon="5.9711">
        <ele>388.516953</ele>
        <time>2022-05-01T05:29:36.749Z</time>
      </trkpt>
      <trkpt lat="43.73951" lon="5.97139">
        <ele>389.81195</ele>
        <time>2022-05-01T05:29:44.423Z</time>
      </trkpt>
      <trkpt lat="43.73957" lon="5.97169">
        <ele>390.876798</ele>
        <time>2022-05-01T05:29:51.064Z</time>
      </trkpt>
      <trkpt lat="43.73977" lon="5.97282">
        <ele>395.228729</ele>
        <time>2022-05-01T05:30:19.258Z</time>
      </trkpt>
      <trkpt lat="43.74001" lon="5.97315">
        <ele>398.114583</ele>
        <time>2022-05-01T05:30:32.372Z</time>
      </trkpt>
      <trkpt lat="43.74067" lon="5.97341">
        <ele>403.960604</ele>
        <time>2022-05-01T05:31:06.881Z</time>
      </trkpt>
      <trkpt lat="43.74134" lon="5.97361">
        <ele>409.756935</ele>
        <time>2022-05-01T05:31:45.142Z</time>
      </trkpt>
      <trkpt lat="43.74145" lon="5.97366">
        <ele>410.898667</ele>
        <time>2022-05-01T05:31:52.289Z</time>
      </trkpt>
      <trkpt lat="43.74182" lon="5.97374">
        <ele>414.408167</ele>
        <time>2022-05-01T05:32:13.625Z</time>
      </trkpt>
      <trkpt lat="43.74256" lon="5.97369">
        <ele>421.45127</ele>
        <time>2022-05-01T05:32:56.122Z</time>
      </trkpt>
      <trkpt lat="43.74268" lon="5.97362">
        <ele>422.679021</ele>
        <time>2022-05-01T05:33:02.216Z</time>
      </trkpt>
      <trkpt lat="43.74311" lon="5.97313">
        <ele>427.573435</ele>
        <time>2022-05-01T05:33:27.494Z</time>
      </trkpt>
      <trkpt lat="43.74351" lon="5.97265">
        <ele>431.075255</ele>
        <time>2022-05-01T05:33:47.784Z</time>
      </trkpt>
      <trkpt lat="43.74369" lon="5.97252">
        <ele>432.436363</ele>
        <time>2022-05-01T05:33:56.939Z</time>
      </trkpt>
      <trkpt lat="43.74374" lon="5.97261">
        <ele>433.019186</ele>
        <time>2022-05-01T05:33:59.741Z</time>
      </trkpt>
      <trkpt lat="43.74372" lon="5.97268">
        <ele>433.378914</ele>
        <time>2022-05-01T05:34:02.263Z</time>
      </trkpt>
      <trkpt lat="43.74334" lon="5.97322">
        <ele>436.994344</ele>
        <time>2022-05-01T05:34:25.120Z</time>
      </trkpt>
      <trkpt lat="43.74331" lon="5.97336">
        <ele>437.680509</ele>
        <time>2022-05-01T05:34:28.342Z</time>
      </trkpt>
      <trkpt lat="43.74334" lon="5.97339">
        <ele>437.928152</ele>
        <time>2022-05-01T05:34:29.936Z</time>
      </trkpt>
      <trkpt lat="43.74339" lon="5.97337">
        <ele>438.246167</ele>
        <time>2022-05-01T05:34:32.070Z</time>
      </trkpt>
      <trkpt lat="43.74366" lon="5.97301">
        <ele>440.498654</ele>
        <time>2022-05-01T05:34:47.042Z</time>
      </trkpt>
      <trkpt lat="43.74408" lon="5.97286">
        <ele>443.004889</ele>
        <time>2022-05-01T05:35:05.229Z</time>
      </trkpt>
      <trkpt lat="43.74464" lon="5.97241">
        <ele>446.737627</ele>
        <time>2022-05-01T05:35:30.276Z</time>
      </trkpt>
      <trkpt lat="43.74493" lon="5.97236">
        <ele>448.446</ele>
        <time>2022-05-01T05:35:41.098Z</time>
      </trkpt>
      <trkpt lat="43.74527" lon="5.97251">
        <ele>449.949046</ele>
        <time>2022-05-01T05:35:52.082Z</time>
      </trkpt>
      <trkpt lat="43.74551" lon="5.97251">
        <ele>450.772222</ele>
        <time>2022-05-01T05:35:59.101Z</time>
      </trkpt>
      <trkpt lat="43.74559" lon="5.97224">
        <ele>451.505769</ele>
        <time>2022-05-01T05:36:05.253Z</time>
      </trkpt>
      <trkpt lat="43.74526" lon="5.97137">
        <ele>453.914886</ele>
        <time>2022-05-01T05:36:26.185Z</time>
      </trkpt>
      <trkpt lat="43.74535" lon="5.97131">
        <ele>454.272455</ele>
        <time>2022-05-01T05:36:29.429Z</time>
      </trkpt>
      <trkpt lat="43.74578" lon="5.9713">
        <ele>455.304917</ele>
        <time>2022-05-01T05:36:38.815Z</time>
      </trkpt>
      <trkpt lat="43.74597" lon="5.9713">
        <ele>455.272286</ele>
        <time>2022-05-01T05:36:42.162Z</time>
      </trkpt>
      <trkpt lat="43.74632" lon="5.97136">
        <ele>455.209495</ele>
        <time>2022-05-01T05:36:49.501Z</time>
      </trkpt>
      <trkpt lat="43.74658" lon="5.97153">
        <ele>455.156717</ele>
        <time>2022-05-01T05:36:55.058Z</time>
      </trkpt>
      <trkpt lat="43.74683" lon="5.97182">
        <ele>455.098751</ele>
        <time>2022-05-01T05:37:00.541Z</time>
      </trkpt>
      <trkpt lat="43.74693" lon="5.9718">
        <ele>455.080754</ele>
        <time>2022-05-01T05:37:01.892Z</time>
      </trkpt>
      <trkpt lat="43.74693" lon="5.97166">
        <ele>455.063236</ele>
        <time>2022-05-01T05:37:03.041Z</time>
      </trkpt>
      <trkpt lat="43.74675" lon="5.97134">
        <ele>455.009644</ele>
        <time>2022-05-01T05:37:06.103Z</time>
      </trkpt>
      <trkpt lat="43.74654" lon="5.97072">
        <ele>452.327709</ele>
        <time>2022-05-01T05:37:10.694Z</time>
      </trkpt>
      <trkpt lat="43.74655" lon="5.97062">
        <ele>451.892312</ele>
        <time>2022-05-01T05:37:11.373Z</time>
      </trkpt>
      <trkpt lat="43.74663" lon="5.97048">
        <ele>451.141464</ele>
        <time>2022-05-01T05:37:12.573Z</time>
      </trkpt>
      <trkpt lat="43.74697" lon="5.97017">
        <ele>448.849981</ele>
        <time>2022-05-01T05:37:16.238Z</time>
      </trkpt>
      <trkpt lat="43.74742" lon="5.9698">
        <ele>445.828471</ele>
        <time>2022-05-01T05:37:21.007Z</time>
      </trkpt>
      <trkpt lat="43.74742" lon="5.9696">
        <ele>444.998422</ele>
        <time>2022-05-01T05:37:22.296Z</time>
      </trkpt>
      <trkpt lat="43.74728" lon="5.96936">
        <ele>443.710994</ele>
        <time>2022-05-01T05:37:24.274Z</time>
      </trkpt>
      <trkpt lat="43.74739" lon="5.96924">
        <ele>442.876018</ele>
        <time>2022-05-01T05:37:25.531Z</time>
      </trkpt>
      <trkpt lat="43.74766" lon="5.96917">
        <ele>441.303255</ele>
        <time>2022-05-01T05:37:27.942Z</time>
      </trkpt>
      <trkpt lat="43.74783" lon="5.96921">
        <ele>440.270705</ele>
        <time>2022-05-01T05:37:29.524Z</time>
      </trkpt>
      <trkpt lat="43.74826" lon="5.96956">
        <ele>437.313231</ele>
        <time>2022-05-01T05:37:34.147Z</time>
      </trkpt>
      <trkpt lat="43.74844" lon="5.96962">
        <ele>436.24507</ele>
        <time>2022-05-01T05:37:35.909Z</time>
      </trkpt>
      <trkpt lat="43.74862" lon="5.96959">
        <ele>435.172965</ele>
        <time>2022-05-01T05:37:37.830Z</time>
      </trkpt>
      <trkpt lat="43.74949" lon="5.96919">
        <ele>430.389669</ele>
        <time>2022-05-01T05:37:46.469Z</time>
      </trkpt>
      <trkpt lat="43.74957" lon="5.96907">
        <ele>429.760589</ele>
        <time>2022-05-01T05:37:47.617Z</time>
      </trkpt>
      <trkpt lat="43.7496" lon="5.96893">
        <ele>429.218201</ele>
        <time>2022-05-01T05:37:48.584Z</time>
      </trkpt>
      <trkpt lat="43.74946" lon="5.96852">
        <ele>427.57149</ele>
        <time>2022-05-01T05:37:51.553Z</time>
      </trkpt>
      <trkpt lat="43.74955" lon="5.96833">
        <ele>426.751117</ele>
        <time>2022-05-01T05:37:53.061Z</time>
      </trkpt>
      <trkpt lat="43.74967" lon="5.96823">
        <ele>426.007191</ele>
        <time>2022-05-01T05:37:54.398Z</time>
      </trkpt>
      <trkpt lat="43.74976" lon="5.96823">
        <ele>425.578452</ele>
        <time>2022-05-01T05:37:55.181Z</time>
      </trkpt>
      <trkpt lat="43.74971" lon="5.96861">
        <ele>424.263276</ele>
        <time>2022-05-01T05:37:57.771Z</time>
      </trkpt>
      <trkpt lat="43.74982" lon="5.96901">
        <ele>422.873357</ele>
        <time>2022-05-01T05:38:00.731Z</time>
      </trkpt>
      <trkpt lat="43.74982" lon="5.96954">
        <ele>421.122792</ele>
        <time>2022-05-01T05:38:04.467Z</time>
      </trkpt>
      <trkpt lat="43.75025" lon="5.97167">
        <ele>415.451274</ele>
        <time>2022-05-01T05:38:19.830Z</time>
      </trkpt>
      <trkpt lat="43.75039" lon="5.97184">
        <ele>415.075121</ele>
        <time>2022-05-01T05:38:21.779Z</time>
      </trkpt>
      <trkpt lat="43.75059" lon="5.97183">
        <ele>414.655849</ele>
        <time>2022-05-01T05:38:23.914Z</time>
      </trkpt>
      <trkpt lat="43.75079" lon="5.97179">
        <ele>414.218526</ele>
        <time>2022-05-01T05:38:26.195Z</time>
      </trkpt>
      <trkpt lat="43.75119" lon="5.9717">
        <ele>413.36474</ele>
        <time>2022-05-01T05:38:31.178Z</time>
      </trkpt>
      <trkpt lat="43.75134" lon="5.97159">
        <ele>413.034617</ele>
        <time>2022-05-01T05:38:34.189Z</time>
      </trkpt>
      <trkpt lat="43.75183" lon="5.97086">
        <ele>414.742083</ele>
        <time>2022-05-01T05:38:50.628Z</time>
      </trkpt>
      <trkpt lat="43.75205" lon="5.97064">
        <ele>415.402443</ele>
        <time>2022-05-01T05:38:59.444Z</time>
      </trkpt>
      <trkpt lat="43.75309" lon="5.97043">
        <ele>417.930836</ele>
        <time>2022-05-01T05:39:27.245Z</time>
      </trkpt>
      <trkpt lat="43.75347" lon="5.9703">
        <ele>418.9232</ele>
        <time>2022-05-01T05:39:36.446Z</time>
      </trkpt>
      <trkpt lat="43.75354" lon="5.97015">
        <ele>419.249744</ele>
        <time>2022-05-01T05:39:40.172Z</time>
      </trkpt>
      <trkpt lat="43.75358" lon="5.96987">
        <ele>419.753748</ele>
        <time>2022-05-01T05:39:45.293Z</time>
      </trkpt>
      <trkpt lat="43.75352" lon="5.96965">
        <ele>420.174538</ele>
        <time>2022-05-01T05:39:49.594Z</time>
      </trkpt>
      <trkpt lat="43.75349" lon="5.96958">
        <ele>420.32754</ele>
        <time>2022-05-01T05:39:50.895Z</time>
      </trkpt>
      <trkpt lat="43.75299" lon="5.96932">
        <ele>421.666982</ele>
        <time>2022-05-01T05:40:03.683Z</time>
      </trkpt>
      <trkpt lat="43.75279" lon="5.96914">
        <ele>422.505607</ele>
        <time>2022-05-01T05:40:09.468Z</time>
      </trkpt>
      <trkpt lat="43.75274" lon="5.96904">
        <ele>422.827144</ele>
        <time>2022-05-01T05:40:11.208Z</time>
      </trkpt>
      <trkpt lat="43.75273" lon="5.96884">
        <ele>423.377013</ele>
        <time>2022-05-01T05:40:14.742Z</time>
      </trkpt>
      <trkpt lat="43.7528" lon="5.96862">
        <ele>424.031692</ele>
        <time>2022-05-01T05:40:18.318Z</time>
      </trkpt>
      <trkpt lat="43.75302" lon="5.96821">
        <ele>425.413429</ele>
        <time>2022-05-01T05:40:28.634Z</time>
      </trkpt>
      <trkpt lat="43.75363" lon="5.96784">
        <ele>427.951798</ele>
        <time>2022-05-01T05:40:52.475Z</time>
      </trkpt>
      <trkpt lat="43.75437" lon="5.96713">
        <ele>432.922407</ele>
        <time>2022-05-01T05:41:25.278Z</time>
      </trkpt>
      <trkpt lat="43.75438" lon="5.96698">
        <ele>433.53725</ele>
        <time>2022-05-01T05:41:29.466Z</time>
      </trkpt>
      <trkpt lat="43.75425" lon="5.96679">
        <ele>434.709672</ele>
        <time>2022-05-01T05:41:37.342Z</time>
      </trkpt>
      <trkpt lat="43.75373" lon="5.96646">
        <ele>438.080926</ele>
        <time>2022-05-01T05:41:59.166Z</time>
      </trkpt>
      <trkpt lat="43.75373" lon="5.96629">
        <ele>438.783411</ele>
        <time>2022-05-01T05:42:03.884Z</time>
      </trkpt>
      <trkpt lat="43.75382" lon="5.96618">
        <ele>439.572273</ele>
        <time>2022-05-01T05:42:08.543Z</time>
      </trkpt>
      <trkpt lat="43.75413" lon="5.9662">
        <ele>441.913745</ele>
        <time>2022-05-01T05:42:21.286Z</time>
      </trkpt>
      <trkpt lat="43.75421" lon="5.96624">
        <ele>442.577767</ele>
        <time>2022-05-01T05:42:25.412Z</time>
      </trkpt>
      <trkpt lat="43.75536" lon="5.96703">
        <ele>452.479474</ele>
        <time>2022-05-01T05:43:26.829Z</time>
      </trkpt>
      <trkpt lat="43.75562" lon="5.96691">
        <ele>454.293108</ele>
        <time>2022-05-01T05:43:40.683Z</time>
      </trkpt>
      <trkpt lat="43.75599" lon="5.96651">
        <ele>457.082662</ele>
        <time>2022-05-01T05:44:00.532Z</time>
      </trkpt>
      <trkpt lat="43.75622" lon="5.96644">
        <ele>458.440173</ele>
        <time>2022-05-01T05:44:10.390Z</time>
      </trkpt>
      <trkpt lat="43.75764" lon="5.96695">
        <ele>464.67939</ele>
        <time>2022-05-01T05:44:58.726Z</time>
      </trkpt>
      <trkpt lat="43.75856" lon="5.96731">
        <ele>466.239591</ele>
        <time>2022-05-01T05:45:17.389Z</time>
      </trkpt>
      <trkpt lat="43.75877" lon="5.96718">
        <ele>466.618662</ele>
        <time>2022-05-01T05:45:20.082Z</time>
      </trkpt>
      <trkpt lat="43.75889" lon="5.96703">
        <ele>466.376192</ele>
        <time>2022-05-01T05:45:21.991Z</time>
      </trkpt>
      <trkpt lat="43.75939" lon="5.96635">
        <ele>464.455978</ele>
        <time>2022-05-01T05:45:29.389Z</time>
      </trkpt>
      <trkpt lat="43.75991" lon="5.9655">
        <ele>462.263656</ele>
        <time>2022-05-01T05:45:37.310Z</time>
      </trkpt>
      <trkpt lat="43.76014" lon="5.96538">
        <ele>461.514262</ele>
        <time>2022-05-01T05:45:39.861Z</time>
      </trkpt>
      <trkpt lat="43.76074" lon="5.96524">
        <ele>459.246361</ele>
        <time>2022-05-01T05:45:46.133Z</time>
      </trkpt>
      <trkpt lat="43.7609" lon="5.96528">
        <ele>458.658718</ele>
        <time>2022-05-01T05:45:47.723Z</time>
      </trkpt>
      <trkpt lat="43.76097" lon="5.96536">
        <ele>458.302795</ele>
        <time>2022-05-01T05:45:48.696Z</time>
      </trkpt>
      <trkpt lat="43.76115" lon="5.96593">
        <ele>456.643597</ele>
        <time>2022-05-01T05:45:53.012Z</time>
      </trkpt>
      <trkpt lat="43.7614" lon="5.96648">
        <ele>454.853116</ele>
        <time>2022-05-01T05:45:57.554Z</time>
      </trkpt>
      <trkpt lat="43.7618" lon="5.96686">
        <ele>452.570228</ele>
        <time>2022-05-01T05:46:02.189Z</time>
      </trkpt>
      <trkpt lat="43.76185" lon="5.96687">
        <ele>452.331327</ele>
        <time>2022-05-01T05:46:02.698Z</time>
      </trkpt>
      <trkpt lat="43.7619" lon="5.96686">
        <ele>452.072712</ele>
        <time>2022-05-01T05:46:03.249Z</time>
      </trkpt>
      <trkpt lat="43.76209" lon="5.96661">
        <ele>450.847102</ele>
        <time>2022-05-01T05:46:05.675Z</time>
      </trkpt>
      <trkpt lat="43.76212" lon="5.96546">
        <ele>446.892486</ele>
        <time>2022-05-01T05:46:13.509Z</time>
      </trkpt>
      <trkpt lat="43.76224" lon="5.96492">
        <ele>445.304765</ele>
        <time>2022-05-01T05:46:17.317Z</time>
      </trkpt>
      <trkpt lat="43.76264" lon="5.96388">
        <ele>442.126792</ele>
        <time>2022-05-01T05:46:25.924Z</time>
      </trkpt>
      <trkpt lat="43.76275" lon="5.96304">
        <ele>439.83576</ele>
        <time>2022-05-01T05:46:32.184Z</time>
      </trkpt>
      <trkpt lat="43.76266" lon="5.96218">
        <ele>437.657756</ele>
        <time>2022-05-01T05:46:38.471Z</time>
      </trkpt>
      <trkpt lat="43.76211" lon="5.95973">
        <ele>431.269904</ele>
        <time>2022-05-01T05:46:56.884Z</time>
      </trkpt>
      <trkpt lat="43.76102" lon="5.95683">
        <ele>423.849911</ele>
        <time>2022-05-01T05:47:20.767Z</time>
      </trkpt>
      <trkpt lat="43.76093" lon="5.9564">
        <ele>422.903287</ele>
        <time>2022-05-01T05:47:24.182Z</time>
      </trkpt>
      <trkpt lat="43.7609" lon="5.9553">
        <ele>420.51545</ele>
        <time>2022-05-01T05:47:32.790Z</time>
      </trkpt>
      <trkpt lat="43.76082" lon="5.9549">
        <ele>419.621569</ele>
        <time>2022-05-01T05:47:35.953Z</time>
      </trkpt>
      <trkpt lat="43.7602" lon="5.95373">
        <ele>416.251238</ele>
        <time>2022-05-01T05:47:46.476Z</time>
      </trkpt>
      <trkpt lat="43.75998" lon="5.95301">
        <ele>413.66049</ele>
        <time>2022-05-01T05:47:51.821Z</time>
      </trkpt>
      <trkpt lat="43.75974" lon="5.95192">
        <ele>409.866612</ele>
        <time>2022-05-01T05:47:59.663Z</time>
      </trkpt>
      <trkpt lat="43.75951" lon="5.95125">
        <ele>407.510809</ele>
        <time>2022-05-01T05:48:04.634Z</time>
      </trkpt>
      <trkpt lat="43.75927" lon="5.95079">
        <ele>405.825193</ele>
        <time>2022-05-01T05:48:08.518Z</time>
      </trkpt>
      <trkpt lat="43.7588" lon="5.94989">
        <ele>402.533403</ele>
        <time>2022-05-01T05:48:16.359Z</time>
      </trkpt>
      <trkpt lat="43.75853" lon="5.94892">
        <ele>400.597276</ele>
        <time>2022-05-01T05:48:24.280Z</time>
      </trkpt>
      <trkpt lat="43.75839" lon="5.94877">
        <ele>400.359223</ele>
        <time>2022-05-01T05:48:26.173Z</time>
      </trkpt>
      <trkpt lat="43.75813" lon="5.94864">
        <ele>399.997928</ele>
        <time>2022-05-01T05:48:29.268Z</time>
      </trkpt>
      <trkpt lat="43.75802" lon="5.94853">
        <ele>399.811135</ele>
        <time>2022-05-01T05:48:30.751Z</time>
      </trkpt>
      <trkpt lat="43.75795" lon="5.94838">
        <ele>399.641316</ele>
        <time>2022-05-01T05:48:32.383Z</time>
      </trkpt>
      <trkpt lat="43.75759" lon="5.94702">
        <ele>399.575238</ele>
        <time>2022-05-01T05:48:47.849Z</time>
      </trkpt>
      <trkpt lat="43.75759" lon="5.94674">
        <ele>400.01317</ele>
        <time>2022-05-01T05:48:51.650Z</time>
      </trkpt>
      <trkpt lat="43.75778" lon="5.94628">
        <ele>400.843538</ele>
        <time>2022-05-01T05:49:00.029Z</time>
      </trkpt>
      <trkpt lat="43.75776" lon="5.94608">
        <ele>401.167541</ele>
        <time>2022-05-01T05:49:03.375Z</time>
      </trkpt>
      <trkpt lat="43.75766" lon="5.94593">
        <ele>401.487594</ele>
        <time>2022-05-01T05:49:07.187Z</time>
      </trkpt>
      <trkpt lat="43.75729" lon="5.94572">
        <ele>402.356823</ele>
        <time>2022-05-01T05:49:19.911Z</time>
      </trkpt>
      <trkpt lat="43.75718" lon="5.94548">
        <ele>403.005352</ele>
        <time>2022-05-01T05:49:25.315Z</time>
      </trkpt>
      <trkpt lat="43.75709" lon="5.94512">
        <ele>404.539512</ele>
        <time>2022-05-01T05:49:36.129Z</time>
      </trkpt>
      <trkpt lat="43.75707" lon="5.94491">
        <ele>405.368786</ele>
        <time>2022-05-01T05:49:38.466Z</time>
      </trkpt>
      <trkpt lat="43.75711" lon="5.94471">
        <ele>406.22018</ele>
        <time>2022-05-01T05:49:47.656Z</time>
      </trkpt>
      <trkpt lat="43.75738" lon="5.94421">
        <ele>408.728906</ele>
        <time>2022-05-01T05:50:02.948Z</time>
      </trkpt>
      <trkpt lat="43.75739" lon="5.94406">
        <ele>409.318213</ele>
        <time>2022-05-01T05:50:04.955Z</time>
      </trkpt>
      <trkpt lat="43.75733" lon="5.94386">
        <ele>410.198234</ele>
        <time>2022-05-01T05:50:15.425Z</time>
      </trkpt>
      <trkpt lat="43.75716" lon="5.94373">
        <ele>411.257032</ele>
        <time>2022-05-01T05:50:19.327Z</time>
      </trkpt>
      <trkpt lat="43.75676" lon="5.94361">
        <ele>413.545425</ele>
        <time>2022-05-01T05:50:37.878Z</time>
      </trkpt>
      <trkpt lat="43.7566" lon="5.94344">
        <ele>414.684574</ele>
        <time>2022-05-01T05:50:48.355Z</time>
      </trkpt>
      <trkpt lat="43.75576" lon="5.94131">
        <ele>423.345303</ele>
        <time>2022-05-01T05:51:51.251Z</time>
      </trkpt>
      <trkpt lat="43.75546" lon="5.94103">
        <ele>424.029569</ele>
        <time>2022-05-01T05:52:00.103Z</time>
      </trkpt>
      <trkpt lat="43.75517" lon="5.94094">
        <ele>424.595598</ele>
        <time>2022-05-01T05:52:05.470Z</time>
      </trkpt>
      <trkpt lat="43.75478" lon="5.94114">
        <ele>425.368742</ele>
        <time>2022-05-01T05:52:13.261Z</time>
      </trkpt>
      <trkpt lat="43.75453" lon="5.94105">
        <ele>425.854454</ele>
        <time>2022-05-01T05:52:16.483Z</time>
      </trkpt>
      <trkpt lat="43.7541" lon="5.94013">
        <ele>428.328715</ele>
        <time>2022-05-01T05:52:28.872Z</time>
      </trkpt>
      <trkpt lat="43.75353" lon="5.93968">
        <ele>430.567853</ele>
        <time>2022-05-01T05:52:51.322Z</time>
      </trkpt>
      <trkpt lat="43.75337" lon="5.93939">
        <ele>431.468829</ele>
        <time>2022-05-01T05:53:00.597Z</time>
      </trkpt>
      <trkpt lat="43.75335" lon="5.93913">
        <ele>432.108273</ele>
        <time>2022-05-01T05:53:08.794Z</time>
      </trkpt>
      <trkpt lat="43.7534" lon="5.93884">
        <ele>432.451396</ele>
        <time>2022-05-01T05:53:16.437Z</time>
      </trkpt>
      <trkpt lat="43.75359" lon="5.93848">
        <ele>432.803071</ele>
        <time>2022-05-01T05:53:30.682Z</time>
      </trkpt>
      <trkpt lat="43.75385" lon="5.93837">
        <ele>433.094434</ele>
        <time>2022-05-01T05:53:39.300Z</time>
      </trkpt>
      <trkpt lat="43.75479" lon="5.93817">
        <ele>434.144199</ele>
        <time>2022-05-01T05:53:50.581Z</time>
      </trkpt>
      <trkpt lat="43.75498" lon="5.9379">
        <ele>433.125276</ele>
        <time>2022-05-01T05:53:53.297Z</time>
      </trkpt>
      <trkpt lat="43.75511" lon="5.93705">
        <ele>429.342767</ele>
        <time>2022-05-01T05:53:58.964Z</time>
      </trkpt>
      <trkpt lat="43.75507" lon="5.93679">
        <ele>428.19705</ele>
        <time>2022-05-01T05:54:00.674Z</time>
      </trkpt>
      <trkpt lat="43.75433" lon="5.93578">
        <ele>421.998478</ele>
        <time>2022-05-01T05:54:10.036Z</time>
      </trkpt>
      <trkpt lat="43.75424" lon="5.9355">
        <ele>420.731757</ele>
        <time>2022-05-01T05:54:12.067Z</time>
      </trkpt>
      <trkpt lat="43.7543" lon="5.93432">
        <ele>415.808163</ele>
        <time>2022-05-01T05:54:20.203Z</time>
      </trkpt>
      <trkpt lat="43.75439" lon="5.93407">
        <ele>414.634964</ele>
        <time>2022-05-01T05:54:22.093Z</time>
      </trkpt>
      <trkpt lat="43.75459" lon="5.93383">
        <ele>413.09189</ele>
        <time>2022-05-01T05:54:24.604Z</time>
      </trkpt>
      <trkpt lat="43.75464" lon="5.93346">
        <ele>410.447961</ele>
        <time>2022-05-01T05:54:26.984Z</time>
      </trkpt>
      <trkpt lat="43.75451" lon="5.93321">
        <ele>408.282936</ele>
        <time>2022-05-01T05:54:28.902Z</time>
      </trkpt>
      <trkpt lat="43.75397" lon="5.93302">
        <ele>402.75906</ele>
        <time>2022-05-01T05:54:33.756Z</time>
      </trkpt>
      <trkpt lat="43.75326" lon="5.93243">
        <ele>394.773393</ele>
        <time>2022-05-01T05:54:40.685Z</time>
      </trkpt>
      <trkpt lat="43.75312" lon="5.93181">
        <ele>391.109848</ele>
        <time>2022-05-01T05:54:44.728Z</time>
      </trkpt>
      <trkpt lat="43.75301" lon="5.93155">
        <ele>389.372713</ele>
        <time>2022-05-01T05:54:46.660Z</time>
      </trkpt>
      <trkpt lat="43.75276" lon="5.93125">
        <ele>386.807239</ele>
        <time>2022-05-01T05:54:49.567Z</time>
      </trkpt>
      <trkpt lat="43.75232" lon="5.93098">
        <ele>383.007419</ele>
        <time>2022-05-01T05:54:53.971Z</time>
      </trkpt>
      <trkpt lat="43.75217" lon="5.93046">
        <ele>380.923273</ele>
        <time>2022-05-01T05:54:57.814Z</time>
      </trkpt>
      <trkpt lat="43.7518" lon="5.9301">
        <ele>380.247551</ele>
        <time>2022-05-01T05:55:02.345Z</time>
      </trkpt>
      <trkpt lat="43.75153" lon="5.92938">
        <ele>379.359518</ele>
        <time>2022-05-01T05:55:09.540Z</time>
      </trkpt>
      <trkpt lat="43.75154" lon="5.92869">
        <ele>378.604251</ele>
        <time>2022-05-01T05:55:17.724Z</time>
      </trkpt>
      <trkpt lat="43.7517" lon="5.92817">
        <ele>379.281267</ele>
        <time>2022-05-01T05:55:25.862Z</time>
      </trkpt>
      <trkpt lat="43.7519" lon="5.92786">
        <ele>380.047797</ele>
        <time>2022-05-01T05:55:32.740Z</time>
      </trkpt>
      <trkpt lat="43.75264" lon="5.92749">
        <ele>382.06069</ele>
        <time>2022-05-01T05:55:55.031Z</time>
      </trkpt>
      <trkpt lat="43.7528" lon="5.92746">
        <ele>382.46057</ele>
        <time>2022-05-01T05:55:59.232Z</time>
      </trkpt>
      <trkpt lat="43.75309" lon="5.92754">
        <ele>383.171189</ele>
        <time>2022-05-01T05:56:07.811Z</time>
      </trkpt>
      <trkpt lat="43.75356" lon="5.92744">
        <ele>384.04296</ele>
        <time>2022-05-01T05:56:20.487Z</time>
      </trkpt>
      <trkpt lat="43.75371" lon="5.9274">
        <ele>384.340305</ele>
        <time>2022-05-01T05:56:25.183Z</time>
      </trkpt>
      <trkpt lat="43.75399" lon="5.92717">
        <ele>384.943936</ele>
        <time>2022-05-01T05:56:33.101Z</time>
      </trkpt>
      <trkpt lat="43.75457" lon="5.92697">
        <ele>386.048542</ele>
        <time>2022-05-01T05:56:44.828Z</time>
      </trkpt>
      <trkpt lat="43.75468" lon="5.92713">
        <ele>386.332349</ele>
        <time>2022-05-01T05:56:48.237Z</time>
      </trkpt>
      <trkpt lat="43.75459" lon="5.92803">
        <ele>381.663736</ele>
        <time>2022-05-01T05:56:56.102Z</time>
      </trkpt>
      <trkpt lat="43.75463" lon="5.92817">
        <ele>380.875931</ele>
        <time>2022-05-01T05:56:57.064Z</time>
      </trkpt>
      <trkpt lat="43.7547" lon="5.92822">
        <ele>380.270627</ele>
        <time>2022-05-01T05:56:57.770Z</time>
      </trkpt>
      <trkpt lat="43.75482" lon="5.92817">
        <ele>379.365511</ele>
        <time>2022-05-01T05:56:58.832Z</time>
      </trkpt>
      <trkpt lat="43.75519" lon="5.92771">
        <ele>375.626296</ele>
        <time>2022-05-01T05:57:03.064Z</time>
      </trkpt>
      <trkpt lat="43.75549" lon="5.92768">
        <ele>373.407034</ele>
        <time>2022-05-01T05:57:05.566Z</time>
      </trkpt>
      <trkpt lat="43.75588" lon="5.92753">
        <ele>368.72089</ele>
        <time>2022-05-01T05:57:08.950Z</time>
      </trkpt>
      <trkpt lat="43.75641" lon="5.92753">
        <ele>362.089433</ele>
        <time>2022-05-01T05:57:13.418Z</time>
      </trkpt>
      <trkpt lat="43.7566" lon="5.92736">
        <ele>359.301946</ele>
        <time>2022-05-01T05:57:15.326Z</time>
      </trkpt>
      <trkpt lat="43.7569" lon="5.92685">
        <ele>353.4243</ele>
        <time>2022-05-01T05:57:19.293Z</time>
      </trkpt>
      <trkpt lat="43.75708" lon="5.92678">
        <ele>351.127262</ele>
        <time>2022-05-01T05:57:20.883Z</time>
      </trkpt>
      <trkpt lat="43.75729" lon="5.92677">
        <ele>349.731822</ele>
        <time>2022-05-01T05:57:22.653Z</time>
      </trkpt>
      <trkpt lat="43.75734" lon="5.92672">
        <ele>349.361032</ele>
        <time>2022-05-01T05:57:23.266Z</time>
      </trkpt>
      <trkpt lat="43.75736" lon="5.92662">
        <ele>348.960991</ele>
        <time>2022-05-01T05:57:23.918Z</time>
      </trkpt>
      <trkpt lat="43.75729" lon="5.9265">
        <ele>348.384646</ele>
        <time>2022-05-01T05:57:24.844Z</time>
      </trkpt>
      <trkpt lat="43.7559" lon="5.92673">
        <ele>340.748791</ele>
        <time>2022-05-01T05:57:39.518Z</time>
      </trkpt>
      <trkpt lat="43.75571" lon="5.92669">
        <ele>339.617391</ele>
        <time>2022-05-01T05:57:41.257Z</time>
      </trkpt>
      <trkpt lat="43.75569" lon="5.92658">
        <ele>339.120187</ele>
        <time>2022-05-01T05:57:42.081Z</time>
      </trkpt>
      <trkpt lat="43.75582" lon="5.92644">
        <ele>338.142615</ele>
        <time>2022-05-01T05:57:43.564Z</time>
      </trkpt>
      <trkpt lat="43.75649" lon="5.9263">
        <ele>334.149437</ele>
        <time>2022-05-01T05:57:49.731Z</time>
      </trkpt>
      <trkpt lat="43.75668" lon="5.92623">
        <ele>332.980159</ele>
        <time>2022-05-01T05:57:51.564Z</time>
      </trkpt>
      <trkpt lat="43.75695" lon="5.926">
        <ele>331.143301</ele>
        <time>2022-05-01T05:57:54.359Z</time>
      </trkpt>
      <trkpt lat="43.75733" lon="5.92547">
        <ele>327.942547</ele>
        <time>2022-05-01T05:57:59.391Z</time>
      </trkpt>
      <trkpt lat="43.75765" lon="5.9247">
        <ele>324.161101</ele>
        <time>2022-05-01T05:58:05.104Z</time>
      </trkpt>
      <trkpt lat="43.75777" lon="5.92403">
        <ele>321.227722</ele>
        <time>2022-05-01T05:58:09.564Z</time>
      </trkpt>
      <trkpt lat="43.7578" lon="5.92339">
        <ele>319.22116</ele>
        <time>2022-05-01T05:58:14.327Z</time>
      </trkpt>
      <trkpt lat="43.75788" lon="5.92295">
        <ele>318.492435</ele>
        <time>2022-05-01T05:58:17.712Z</time>
      </trkpt>
      <trkpt lat="43.75786" lon="5.92285">
        <ele>318.313976</ele>
        <time>2022-05-01T05:58:18.568Z</time>
      </trkpt>
      <trkpt lat="43.75774" lon="5.92247">
        <ele>317.6387</ele>
        <time>2022-05-01T05:58:21.809Z</time>
      </trkpt>
      <trkpt lat="43.75773" lon="5.92243">
        <ele>317.57633</ele>
        <time>2022-05-01T05:58:22.128Z</time>
      </trkpt>
      <trkpt lat="43.75764" lon="5.92217">
        <ele>317.099192</ele>
        <time>2022-05-01T05:58:24.431Z</time>
      </trkpt>
      <trkpt lat="43.75711" lon="5.92056">
        <ele>315.433346</ele>
        <time>2022-05-01T05:58:39.570Z</time>
      </trkpt>
      <trkpt lat="43.7568" lon="5.91985">
        <ele>315.250166</ele>
        <time>2022-05-01T05:58:48.673Z</time>
      </trkpt>
      <trkpt lat="43.75673" lon="5.91954">
        <ele>315.178099</ele>
        <time>2022-05-01T05:58:52.450Z</time>
      </trkpt>
      <trkpt lat="43.75662" lon="5.91914">
        <ele>315.082587</ele>
        <time>2022-05-01T05:58:57.451Z</time>
      </trkpt>
      <trkpt lat="43.75606" lon="5.91798">
        <ele>315.863715</ele>
        <time>2022-05-01T05:59:14.512Z</time>
      </trkpt>
      <trkpt lat="43.75597" lon="5.91749">
        <ele>316.155076</ele>
        <time>2022-05-01T05:59:21.145Z</time>
      </trkpt>
      <trkpt lat="43.756" lon="5.91698">
        <ele>316.455191</ele>
        <time>2022-05-01T05:59:28.494Z</time>
      </trkpt>
      <trkpt lat="43.75654" lon="5.91454">
        <ele>319.032166</ele>
        <time>2022-05-01T06:00:07.581Z</time>
      </trkpt>
      <trkpt lat="43.75659" lon="5.91447">
        <ele>319.098141</ele>
        <time>2022-05-01T06:00:08.740Z</time>
      </trkpt>
      <trkpt lat="43.75668" lon="5.9144">
        <ele>319.15221</ele>
        <time>2022-05-01T06:00:11.003Z</time>
      </trkpt>
      <trkpt lat="43.75678" lon="5.91444">
        <ele>319.201462</ele>
        <time>2022-05-01T06:00:13.091Z</time>
      </trkpt>
      <trkpt lat="43.75681" lon="5.91426">
        <ele>319.267809</ele>
        <time>2022-05-01T06:00:15.211Z</time>
      </trkpt>
      <trkpt lat="43.75707" lon="5.91283">
        <ele>319.792872</ele>
        <time>2022-05-01T06:00:32.345Z</time>
      </trkpt>
      <trkpt lat="43.7573" lon="5.91056">
        <ele>320.65737</ele>
        <time>2022-05-01T06:00:56.837Z</time>
      </trkpt>
      <trkpt lat="43.75752" lon="5.90846">
        <ele>323.484227</ele>
        <time>2022-05-01T06:01:30.351Z</time>
      </trkpt>
      <trkpt lat="43.75767" lon="5.90706">
        <ele>326.393684</ele>
        <time>2022-05-01T06:01:59.667Z</time>
      </trkpt>
      <trkpt lat="43.75772" lon="5.90676">
        <ele>327.268518</ele>
        <time>2022-05-01T06:02:06.441Z</time>
      </trkpt>
      <trkpt lat="43.75795" lon="5.90547">
        <ele>331.083675</ele>
        <time>2022-05-01T06:02:36.891Z</time>
      </trkpt>
      <trkpt lat="43.75804" lon="5.90377">
        <ele>335.235206</ele>
        <time>2022-05-01T06:03:14.757Z</time>
      </trkpt>
      <trkpt lat="43.75813" lon="5.9029">
        <ele>337.217078</ele>
        <time>2022-05-01T06:03:31.283Z</time>
      </trkpt>
      <trkpt lat="43.75835" lon="5.90209">
        <ele>338.2925</ele>
        <time>2022-05-01T06:03:45.002Z</time>
      </trkpt>
      <trkpt lat="43.7584" lon="5.90177">
        <ele>338.405439</ele>
        <time>2022-05-01T06:03:49.567Z</time>
      </trkpt>
      <trkpt lat="43.75841" lon="5.90129">
        <ele>338.569148</ele>
        <time>2022-05-01T06:03:55.371Z</time>
      </trkpt>
      <trkpt lat="43.75824" lon="5.89959">
        <ele>338.573818</ele>
        <time>2022-05-01T06:04:12.259Z</time>
      </trkpt>
      <trkpt lat="43.75821" lon="5.8993">
        <ele>338.325549</ele>
        <time>2022-05-01T06:04:15.033Z</time>
      </trkpt>
      <trkpt lat="43.75814" lon="5.89871">
        <ele>337.813715</ele>
        <time>2022-05-01T06:04:20.549Z</time>
      </trkpt>
      <trkpt lat="43.75789" lon="5.89753">
        <ele>336.65209</ele>
        <time>2022-05-01T06:04:30.480Z</time>
      </trkpt>
      <trkpt lat="43.7578" lon="5.89718">
        <ele>335.99361</ele>
        <time>2022-05-01T06:04:33.282Z</time>
      </trkpt>
      <trkpt lat="43.75771" lon="5.8969">
        <ele>335.442249</ele>
        <time>2022-05-01T06:04:35.676Z</time>
      </trkpt>
      <trkpt lat="43.75767" lon="5.8968">
        <ele>335.23535</ele>
        <time>2022-05-01T06:04:36.563Z</time>
      </trkpt>
      <trkpt lat="43.75726" lon="5.89617">
        <ele>333.694464</ele>
        <time>2022-05-01T06:04:43.363Z</time>
      </trkpt>
      <trkpt lat="43.75719" lon="5.89594">
        <ele>333.251992</ele>
        <time>2022-05-01T06:04:45.269Z</time>
      </trkpt>
      <trkpt lat="43.75719" lon="5.89573">
        <ele>332.872998</ele>
        <time>2022-05-01T06:04:46.892Z</time>
      </trkpt>
      <trkpt lat="43.75771" lon="5.89423">
        <ele>328.14987</ele>
        <time>2022-05-01T06:04:58.385Z</time>
      </trkpt>
      <trkpt lat="43.75774" lon="5.89414">
        <ele>327.839717</ele>
        <time>2022-05-01T06:04:59.071Z</time>
      </trkpt>
      <trkpt lat="43.75778" lon="5.89396">
        <ele>327.27529</ele>
        <time>2022-05-01T06:05:00.324Z</time>
      </trkpt>
      <trkpt lat="43.75785" lon="5.89361">
        <ele>326.171208</ele>
        <time>2022-05-01T06:05:02.839Z</time>
      </trkpt>
      <trkpt lat="43.75796" lon="5.89288">
        <ele>324.477366</ele>
        <time>2022-05-01T06:05:08.115Z</time>
      </trkpt>
      <trkpt lat="43.75797" lon="5.89282">
        <ele>324.405311</ele>
        <time>2022-05-01T06:05:08.596Z</time>
      </trkpt>
      <trkpt lat="43.75797" lon="5.89279">
        <ele>324.372614</ele>
        <time>2022-05-01T06:05:08.807Z</time>
      </trkpt>
      <trkpt lat="43.75798" lon="5.89249">
        <ele>324.051089</ele>
        <time>2022-05-01T06:05:11.002Z</time>
      </trkpt>
      <trkpt lat="43.75799" lon="5.89176">
        <ele>323.258451</ele>
        <time>2022-05-01T06:05:16.486Z</time>
      </trkpt>
      <trkpt lat="43.75799" lon="5.89112">
        <ele>322.554049</ele>
        <time>2022-05-01T06:05:22.076Z</time>
      </trkpt>
      <trkpt lat="43.75799" lon="5.89071">
        <ele>322.109853</ele>
        <time>2022-05-01T06:05:27.867Z</time>
      </trkpt>
      <trkpt lat="43.75799" lon="5.89066">
        <ele>322.091324</ele>
        <time>2022-05-01T06:05:28.760Z</time>
      </trkpt>
      <trkpt lat="43.75799" lon="5.89058">
        <ele>322.091324</ele>
        <time>2022-05-01T06:05:30.115Z</time>
      </trkpt>
      <trkpt lat="43.75799" lon="5.89016">
        <ele>322.091324</ele>
        <time>2022-05-01T06:05:39.018Z</time>
      </trkpt>
      <trkpt lat="43.75799" lon="5.88999">
        <ele>322.091324</ele>
        <time>2022-05-01T06:05:43.235Z</time>
      </trkpt>
      <trkpt lat="43.75799" lon="5.88972">
        <ele>322.091324</ele>
        <time>2022-05-01T06:05:49.637Z</time>
      </trkpt>
      <trkpt lat="43.75799" lon="5.8896">
        <ele>322.091324</ele>
        <time>2022-05-01T06:05:52.552Z</time>
      </trkpt>
      <trkpt lat="43.75799" lon="5.88938">
        <ele>322.091324</ele>
        <time>2022-05-01T06:05:58.114Z</time>
      </trkpt>
      <trkpt lat="43.75799" lon="5.88936">
        <ele>322.091324</ele>
        <time>2022-05-01T06:05:58.600Z</time>
      </trkpt>
      <trkpt lat="43.758" lon="5.88797">
        <ele>322.091324</ele>
        <time>2022-05-01T06:06:30.634Z</time>
      </trkpt>
      <trkpt lat="43.75802" lon="5.88784">
        <ele>322.091324</ele>
        <time>2022-05-01T06:06:33.403Z</time>
      </trkpt>
    </trkseg>
  </trk>
</gpx>